# Wetter Temperatur Luftdruck Luftfeuchtigkeit Sichtweite Windgeschwindigkeit Windrichtung Zeit
1 Clouds 30 1008 66 10000 3.6 20 10:56 08.04.2020
2 Clouds 31 1008 66 10000 3.6 20 10:37 08.04.2020
3 Clouds 31 1008 66 10000 4.1 360 10:19 08.04.2020
4 Clouds 31 1008 66 10000 4.1 360 09:55 08.04.2020
5 Clouds 32 1008 59 10000 4.6 350 09:37 08.04.2020
6 Clouds 32 1008 59 10000 3.1 350 09:18 08.04.2020
7 Clouds 32 1008 59 10000 3.6 340 08:42 08.04.2020
8 Clouds 32 1008 59 10000 3.6 340 08:23 08.04.2020
9 Clouds 32 1008 59 10000 3.6 340 08:23 08.04.2020
10 Rain 32 1008 46 10000 5.7 310 07:47 08.04.2020
11 Rain 33 1008 46 10000 5.7 310 07:28 08.04.2020
12 Rain 33 1008 49 10000 3.1 110 06:59 08.04.2020
13 Clouds 33 1009 49 10000 3.6 90 06:21 08.04.2020
14 Clouds 32 1011 55 10000 4.6 100 04:20 08.04.2020
15 Clouds 30 1011 70 10000 5.1 80 02:49 08.04.2020
16 Clouds 29 1011 70 10000 5.1 80 02:20 08.04.2020
17 Clouds 29 1011 70 10000 4.6 100 01:51 08.04.2020
18 Clouds 28 1011 69 10000 4.1 120 01:27 08.04.2020
19 Clouds 26 1010 74 10000 3.6 140 00:41 08.04.2020
20 Clouds 26 1009 74 10000 3.1 150 00:22 08.04.2020
21 Clouds 26 1009 74 10000 3.1 160 23:40 07.04.2020
22 Clouds 26 1009 74 10000 3.1 160 23:40 07.04.2020
23 Clouds 25 1009 83 10000 3.1 170 23:21 07.04.2020
24 Clouds 25 1009 83 10000 3.1 170 22:57 07.04.2020
25 Clouds 25 1008 83 10000 3.1 150 22:39 07.04.2020
26 Clouds 25 1008 83 10000 3.1 150 22:19 07.04.2020
27 Clouds 25 1008 83 10000 2.1 160 21:57 07.04.2020
28 Clouds 26 1008 74 10000 2.1 160 21:39 07.04.2020
29 Clouds 26 1008 74 10000 2.1 160 21:20 07.04.2020
30 Clouds 26 1008 78 10000 2.1 170 20:57 07.04.2020
31 Clouds 26 1008 78 10000 2.1 170 20:38 07.04.2020
32 Clouds 26 1008 78 10000 2.1 170 20:20 07.04.2020
33 Clouds 26 1008 83 10000 1.5 170 19:57 07.04.2020
34 Clouds 26 1008 83 10000 1 180 19:37 07.04.2020
35 Clouds 26 1008 83 10000 1 180 19:18 07.04.2020
36 Clouds 26 1009 78 10000 1.5 200 18:56 07.04.2020
37 Clouds 27 1009 83 10000 1 260 18:38 07.04.2020
38 Clouds 27 1009 83 10000 1 260 18:19 07.04.2020
39 Clouds 27 1010 83 10000 2.6 200 17:44 07.04.2020
40 Clouds 28 1010 79 10000 1.5 240 17:21 07.04.2020
41 Clouds 28 1010 79 10000 2.1 240 16:47 07.04.2020
42 Clouds 28 1010 79 10000 2.1 240 16:28 07.04.2020
43 Clouds 28 1010 79 10000 2.1 270 15:57 07.04.2020
44 Clouds 28 1010 79 10000 2.1 250 15:38 07.04.2020
45 Clouds 28 1010 79 10000 2.1 250 15:20 07.04.2020
46 Clouds 28 1010 79 10000 2.6 240 14:41 07.04.2020
47 Clouds 28 1010 79 10000 2.6 240 14:22 07.04.2020
48 Clouds 29 1010 70 10000 2.1 270 13:57 07.04.2020
49 Clouds 29 1009 70 10000 1.5 320 13:37 07.04.2020
50 Clouds 28 1009 70 10000 1 310 13:18 07.04.2020
51 Clouds 29 1009 70 10000 1 310 12:55 07.04.2020
52 Clouds 29 1008 70 10000 1.5 300 12:36 07.04.2020
53 Clouds 29 1008 66 10000 2.1 330 12:18 07.04.2020
54 Clouds 30 1007 62 10000 2.6 330 11:42 07.04.2020
55 Clouds 30 1007 62 10000 2.6 330 11:24 07.04.2020
56 Clouds 32 1007 59 10000 2.6 340 10:58 07.04.2020
57 Clouds 32 1007 59 10000 3.1 340 10:37 07.04.2020
58 Clouds 32 1007 55 10000 2.6 340 10:19 07.04.2020
59 Clouds 33 1007 55 10000 4.1 290 09:45 07.04.2020
60 Clouds 33 1007 55 10000 4.1 290 09:18 07.04.2020
61 Clouds 33 1007 59 10000 4.6 290 08:55 07.04.2020
62 Clouds 33 1007 41 10000 4.1 310 08:36 07.04.2020
63 Clouds 33 1007 46 10000 2.6 100 08:18 07.04.2020
64 Clouds 34 1008 46 10000 4.1 80 07:40 07.04.2020
65 Clouds 34 1008 41 10000 3.1 100 07:21 07.04.2020
66 Clouds 34 1008 49 10000 4.1 50 06:51 07.04.2020
67 Clouds 33 1009 49 10000 3.6 70 06:21 07.04.2020
68 Clouds 33 1010 46 10000 3.1 70 05:38 07.04.2020
69 Clouds 33 1010 55 10000 4.1 90 04:56 07.04.2020
70 Clouds 32 1012 59 10000 3.1 90 03:31 07.04.2020
71 Rain 31 1012 62 10000 2.1 120 02:59 07.04.2020
72 Rain 29 1011 70 10000 3.1 120 01:50 07.04.2020
73 Rain 28 1011 74 10000 2.1 110 01:26 07.04.2020
74 Clouds 25 1011 94 10000 2.6 170 00:29 07.04.2020
75 Clouds 25 1010 94 10000 3.1 180 23:56 06.04.2020
76 Clouds 25 1010 94 10000 2.6 180 23:36 06.04.2020
77 Clouds 25 1009 88 10000 2.1 150 23:18 06.04.2020
78 Clouds 25 1009 88 10000 2.1 170 22:40 06.04.2020
79 Clouds 25 1009 88 10000 2.1 170 22:40 06.04.2020
80 Clouds 25 1009 88 10000 2.1 170 22:21 06.04.2020
81 Clouds 25 1009 88 10000 1.5 140 21:57 06.04.2020
82 Clouds 25 1009 88 10000 3.6 190 21:39 06.04.2020
83 Clouds 25 1009 83 10000 2.6 150 21:19 06.04.2020
84 Clouds 25 1009 83 10000 2.6 150 20:55 06.04.2020
85 Clouds 25 1010 83 10000 1.5 150 20:37 06.04.2020
86 Clouds 25 1010 88 10000 3.1 160 20:18 06.04.2020
87 Clouds 25 1009 88 10000 3.6 170 19:41 06.04.2020
88 Clouds 25 1010 88 10000 2.1 150 19:23 06.04.2020
89 Clouds 25 1010 88 10000 2.1 150 18:58 06.04.2020
90 Clouds 26 1010 83 10000 2.6 140 18:39 06.04.2020
91 Clouds 26 1011 83 10000 5.7 120 18:21 06.04.2020
92 Clouds 26 1011 78 10000 5.1 90 17:42 06.04.2020
93 Rain 26 1010 83 10000 5.7 40 17:20 06.04.2020
94 Rain 26 1010 83 10000 7.7 50 16:50 06.04.2020
95 Rain 26 1010 83 10000 7.7 50 16:32 06.04.2020
96 Clouds 29 1010 74 10000 3.6 30 16:00 06.04.2020
97 Clouds 28 1010 74 10000 3.6 30 16:00 06.04.2020
98 Clouds 28 1009 79 10000 2.6 20 14:42 06.04.2020
99 Clouds 28 1009 79 10000 2.6 20 14:42 06.04.2020
100 Clouds 28 1009 79 10000 2.6 20 14:42 06.04.2020
101 Clouds 28 1009 79 10000 2.6 20 14:38 06.04.2020
102 Clouds 28 1009 79 10000 2.6 20 14:38 06.04.2020
103 Clouds 29 1009 79 10000 2.6 20 13:43 06.04.2020
104 Clouds 29 1009 79 10000 2.6 20 13:43 06.04.2020
105 Clouds 29 1009 79 10000 3.1 20 13:20 06.04.2020
106 Clouds 29 1009 79 10000 3.1 20 13:20 06.04.2020
107 Clouds 29 1009 79 10000 3.1 20 13:20 06.04.2020
108 Clouds 30 1009 74 10000 3.6 10 12:25 06.04.2020
109 Clouds 30 1009 74 10000 3.6 10 12:25 06.04.2020
110 Clouds 30 1008 74 10000 3.6 20 11:55 06.04.2020
111 Clouds 30 1008 74 10000 3.6 20 11:55 06.04.2020
112 Clouds 30 1008 70 10000 3.6 10 11:33 06.04.2020
113 Clouds 30 1008 70 10000 3.6 10 11:33 06.04.2020
114 Clouds 30 1008 70 10000 3.6 10 11:33 06.04.2020
115 Clouds 30 1008 70 10000 3.6 10 11:33 06.04.2020
116 Clouds 30 1008 70 10000 3.6 10 11:33 06.04.2020
117 Clouds 31 1008 70 10000 3.6 10 10:52 06.04.2020
118 Clouds 31 1008 70 10000 3.6 10 10:52 06.04.2020
119 Clouds 31 1008 70 10000 3.6 10 10:52 06.04.2020
120 Clouds 31 1008 70 10000 3.6 10 10:52 06.04.2020
121 Clouds 32 1007 62 10000 3.6 20 10:22 06.04.2020
122 Clouds 32 1007 62 10000 4.1 40 09:50 06.04.2020
123 Clouds 33 1007 62 10000 4.1 30 09:23 06.04.2020
124 Clouds 33 1007 62 10000 3.1 40 08:55 06.04.2020
125 Clouds 33 1008 52 10000 4.6 80 08:33 06.04.2020
126 Clouds 33 1008 49 10000 4.6 110 07:54 06.04.2020
127 Clouds 34 1009 52 10000 5.1 10 06:57 06.04.2020
128 Clouds 34 1009 52 10000 4.6 70 06:25 06.04.2020
129 Clouds 33 1011 59 10000 5.1 10 04:48 06.04.2020
130 Clouds 33 1011 59 10000 5.1 10 04:47 06.04.2020
131 Clouds 32 1012 66 10000 3.6 110 03:27 06.04.2020
132 Clouds 30 1012 74 10000 3.6 140 02:48 06.04.2020
133 Clouds 29 1012 83 10000 3.6 140 01:48 06.04.2020
134 Clouds 26 1012 94 10000 3.1 150 00:46 06.04.2020
135 Clouds 26 1011 94 10000 2.6 160 00:25 06.04.2020
136 Clouds 26 1011 94 10000 2.1 140 23:47 05.04.2020
137 Clouds 26 1010 94 10000 2.6 140 23:28 05.04.2020
138 Clouds 25 1010 94 10000 2.6 140 23:28 05.04.2020
139 Clouds 25 1010 94 10000 2.6 140 23:28 05.04.2020
140 Clouds 25 1010 94 10000 2.6 140 23:28 05.04.2020
141 Clouds 26 1010 94 10000 2.6 140 23:28 05.04.2020
142 Clouds 25 1010 94 10000 1 160 22:56 05.04.2020
143 Clouds 25 1010 94 10000 1.5 180 22:38 05.04.2020
144 Clouds 25 1010 94 10000 1.5 180 22:18 05.04.2020
145 Clouds 25 1010 94 10000 1.5 140 21:55 05.04.2020
146 Clouds 26 1010 94 10000 1.5 130 21:37 05.04.2020
147 Clouds 26 1010 94 10000 1.5 130 21:18 05.04.2020
148 Rain 25 1009 94 10000 1 140 20:20 05.04.2020
149 Rain 25 1009 94 10000 1 140 20:20 05.04.2020
150 Rain 25 1009 94 10000 1 140 20:20 05.04.2020
151 Rain 26 1009 94 10000 0.5 60 19:39 05.04.2020
152 Rain 25 1009 94 10000 0.5 60 19:21 05.04.2020
153 Rain 25 1010 94 10000 1 60 18:44 05.04.2020
154 Rain 25 1010 94 10000 1 60 18:44 05.04.2020
155 Rain 25 1010 94 10000 1 60 18:44 05.04.2020
156 Rain 25 1010 94 10000 1 60 18:44 05.04.2020
157 Rain 25 1010 94 10000 1 60 18:44 05.04.2020
158 Rain 25 1010 94 10000 0.78 164 17:57 05.04.2020
159 Rain 25 1010 94 10000 1.5 50 17:39 05.04.2020
160 Rain 25 1010 94 10000 1.5 50 17:39 05.04.2020
161 Rain 25 1010 94 10000 1.5 50 17:39 05.04.2020
162 Rain 26 1010 94 10000 1.5 50 17:20 05.04.2020
163 Rain 26 1010 94 10000 1.5 50 17:20 05.04.2020
164 Rain 26 1010 94 10000 1.5 50 17:20 05.04.2020
165 Rain 26 1010 94 10000 1.5 50 17:20 05.04.2020
166 Rain 26 1010 94 10000 1.5 50 17:20 05.04.2020
167 Rain 26 1011 94 10000 1 110 16:21 05.04.2020
168 Rain 26 1011 88 10000 0.78 164 15:53 05.04.2020
169 Clouds 26 1011 88 10000 0.5 110 15:33 05.04.2020
170 Rain 26 1011 88 10000 1 120 14:59 05.04.2020
171 Rain 26 1011 94 10000 1.5 60 14:38 05.04.2020
172 Rain 26 1011 94 10000 1.5 60 14:38 05.04.2020
173 Rain 26 1011 94 10000 1.5 60 14:38 05.04.2020
174 Rain 26 1011 94 10000 1.5 60 14:37 05.04.2020
175 Rain 26 1011 94 10000 1.5 60 14:36 05.04.2020
176 Rain 26 1010 94 10000 0.5 160 13:44 05.04.2020
177 Rain 26 1010 94 10000 0.5 160 13:44 05.04.2020
178 Clouds 26 1010 94 10000 0.5 160 12:54 05.04.2020
179 Clouds 26 1010 94 10000 0.5 160 12:54 05.04.2020
180 Clouds 26 1010 94 10000 0.5 160 12:54 05.04.2020
181 Clouds 26 1010 94 10000 0.5 160 12:54 05.04.2020
182 Clouds 27 1010 94 10000 0.5 160 12:54 05.04.2020
183 Clouds 27 1009 88 10000 0.5 160 11:43 05.04.2020
184 Clouds 28 1009 83 10000 1 160 11:21 05.04.2020
185 Clouds 28 1009 83 10000 1 160 11:21 05.04.2020
186 Clouds 28 1009 83 10000 1 170 10:59 05.04.2020
187 Clouds 28 1009 83 10000 1 170 10:41 05.04.2020
188 Clouds 29 1008 79 10000 0.5 180 10:18 05.04.2020
189 Clouds 30 1008 79 10000 1 250 09:43 05.04.2020
190 Clouds 30 1008 79 10000 2.6 280 09:24 05.04.2020
191 Clouds 30 1008 79 10000 2.6 280 09:24 05.04.2020
192 Clouds 30 1008 79 10000 2.6 280 09:24 05.04.2020
193 Clouds 30 1008 79 10000 2.6 280 09:24 05.04.2020
194 Clouds 30 1008 79 10000 2.6 280 09:24 05.04.2020
195 Clouds 29 1008 79 10000 1 300 07:42 05.04.2020
196 Clouds 26 1011 94 10000 0.5 280 04:36 05.04.2020
197 Clouds 26 1012 94 10000 2.6 140 03:33 05.04.2020
198 Clouds 25 1011 94 10000 1 360 02:52 05.04.2020
199 Rain 25 1010 94 10000 2.6 310 01:48 05.04.2020
200 Thunderstorm 25 1010 94 10000 4.1 10 01:28 05.04.2020
201 Rain 27 1010 94 10000 4.1 130 00:46 05.04.2020
202 Rain 27 1010 94 10000 4.1 130 00:22 05.04.2020
203 Clouds 27 1009 94 10000 4.07 9 23:56 04.04.2020
204 Clouds 27 1009 94 10000 2.6 100 23:37 04.04.2020
205 Clouds 27 1009 94 10000 2.6 100 23:19 04.04.2020
206 Clouds 28 1009 88 10000 1 310 22:41 04.04.2020
207 Clouds 28 1009 88 10000 0.5 290 22:22 04.04.2020
208 Rain 28 1009 83 10000 2.1 290 21:59 04.04.2020
209 Rain 28 1009 83 10000 2.1 270 21:40 04.04.2020
210 Rain 28 1009 83 10000 2.1 270 21:20 04.04.2020
211 Rain 28 1009 83 10000 2.1 270 21:20 04.04.2020
212 Clouds 28 1009 79 10000 3.1 270 20:59 04.04.2020
213 Clouds 28 1009 79 10000 3.1 270 20:41 04.04.2020
214 Clouds 28 1009 88 0 2.1 280 20:22 04.04.2020
215 Clouds 28 1009 88 10000 0.5 90 19:57 04.04.2020
216 Rain 27 1009 88 10000 0.5 50 19:37 04.04.2020
217 Rain 27 1009 88 10000 0.5 50 19:19 04.04.2020
218 Clouds 27 1009 83 10000 0.5 190 18:56 04.04.2020
219 Rain 28 1009 83 10000 0.5 290 18:38 04.04.2020
220 Rain 28 1009 83 10000 0.5 290 18:19 04.04.2020
221 Clouds 28 1009 79 10000 1 330 17:56 04.04.2020
222 Rain 29 1009 79 10000 2.1 280 17:38 04.04.2020
223 Rain 29 1009 79 10000 2.1 280 17:38 04.04.2020
224 Rain 29 1009 79 10000 2.1 280 17:38 04.04.2020
225 Clouds 29 1009 79 10000 2.1 280 17:18 04.04.2020
226 Rain 29 1010 79 10000 2.1 290 16:42 04.04.2020
227 Clouds 29 1010 74 10000 2.1 260 16:22 04.04.2020
228 Clouds 29 1011 74 10000 1.5 260 15:55 04.04.2020
229 Clouds 29 1010 70 10000 3.1 250 15:37 04.04.2020
230 Clouds 29 1010 70 10000 3.1 250 15:18 04.04.2020
231 Clouds 29 1010 74 10000 2.6 280 14:43 04.04.2020
232 Clouds 29 1010 74 10000 2.6 280 14:23 04.04.2020
233 Clouds 29 1010 70 10000 2.1 270 13:56 04.04.2020
234 Clouds 29 1010 70 10000 3.6 290 13:38 04.04.2020
235 Clouds 29 1010 70 10000 3.6 290 13:19 04.04.2020
236 Clouds 29 1010 70 10000 3.6 290 13:19 04.04.2020
237 Clouds 30 1008 70 10000 3.1 280 12:45 04.04.2020
238 Clouds 30 1008 70 10000 3.1 280 12:26 04.04.2020
239 Clouds 30 1008 66 10000 4.6 270 11:59 04.04.2020
240 Clouds 30 1008 62 10000 4.1 260 11:39 04.04.2020
241 Clouds 30 1008 62 10000 4.1 260 11:20 04.04.2020
242 Clouds 30 1008 62 10000 6.2 280 10:56 04.04.2020
243 Clouds 31 1008 62 10000 6.2 290 10:38 04.04.2020
244 Clouds 31 1008 62 10000 6.2 290 10:19 04.04.2020
245 Clouds 31 1007 62 10000 7.7 290 09:55 04.04.2020
246 Thunderstorm 31 1007 62 10000 7.7 300 09:37 04.04.2020
247 Thunderstorm 31 1007 62 10000 7.7 300 09:37 04.04.2020
248 Thunderstorm 32 1007 62 10000 7.7 300 09:18 04.04.2020
249 Clouds 33 1007 59 10000 7.7 300 08:42 04.04.2020
250 Rain 33 1007 59 10000 6.7 290 08:21 04.04.2020
251 Clouds 33 1007 59 10000 6.2 290 07:47 04.04.2020
252 Clouds 31 1007 55 10000 6.2 290 07:27 04.04.2020
253 Rain 33 1008 55 10000 5.7 290 06:57 04.04.2020
254 Clouds 33 1008 62 10000 4.6 270 06:20 04.04.2020
255 Rain 32 1009 66 10000 3.6 270 05:43 04.04.2020
256 Rain 33 1009 74 10000 5.7 300 05:24 04.04.2020
257 Rain 32 1010 74 10000 3.6 300 04:33 04.04.2020
258 Rain 32 1010 74 10000 3.6 320 03:55 04.04.2020
259 Clouds 31 1011 70 10000 3.1 250 03:27 04.04.2020
260 Clouds 31 1011 70 10000 2.6 240 02:40 04.04.2020
261 Clouds 31 1011 74 10000 1.5 210 02:22 04.04.2020
262 Clouds 30 1010 83 10000 1.5 160 01:26 04.04.2020
263 Clouds 29 1010 89 10000 1 200 00:52 04.04.2020
264 Clouds 28 1009 94 10000 0.5 210 00:30 04.04.2020
265 Clouds 27 1008 94 10000 0.5 210 23:55 03.04.2020
266 Clouds 27 1008 88 10000 1.5 220 23:36 03.04.2020
267 Clouds 27 1008 88 10000 1.5 220 23:18 03.04.2020
268 Clouds 28 1008 88 10000 2.1 230 22:40 03.04.2020
269 Clouds 27 1008 88 10000 1.5 230 22:19 03.04.2020
270 Rain 27 1008 88 10000 1.5 230 21:56 03.04.2020
271 Clouds 27 1008 88 10000 1.5 240 21:37 03.04.2020
272 Clouds 27 1008 88 10000 1.5 240 21:19 03.04.2020
273 Clear 27 1007 88 10000 1.5 270 20:54 03.04.2020
274 Clear 28 1008 88 10000 1.5 240 20:36 03.04.2020
275 Clear 27 1008 88 10000 1.5 240 20:18 03.04.2020
276 Clear 27 1008 94 10000 1 230 19:54 03.04.2020
277 Clear 27 1008 94 10000 1.5 230 19:36 03.04.2020
278 Clear 27 1008 94 10000 1.5 230 19:36 03.04.2020
279 Clear 26 1008 94 10000 1 280 19:18 03.04.2020
280 Clear 26 1009 94 10000 1 280 18:42 03.04.2020
281 Clear 26 1009 94 10000 1 280 18:23 03.04.2020
282 Clear 26 1009 88 10000 2.35 251 17:58 03.04.2020
283 Clear 26 1009 94 10000 1 280 17:40 03.04.2020
284 Clear 26 1009 94 10000 1 280 17:40 03.04.2020
285 Clear 26 1009 94 10000 1 280 17:19 03.04.2020
286 Clear 26 1009 94 10000 1 280 17:19 03.04.2020
287 Clear 26 1009 88 10000 2.35 251 16:54 03.04.2020
288 Clear 26 1009 88 10000 2.35 251 16:54 03.04.2020
289 Clear 27 1010 83 10000 1 280 16:36 03.04.2020
290 Clear 27 1010 83 10000 1 280 16:18 03.04.2020
291 Clear 27 1010 83 10000 1 280 16:18 03.04.2020
292 Clear 27 1010 78 10000 1.5 240 15:41 03.04.2020
293 Clear 27 1010 78 10000 1.5 240 15:22 03.04.2020
294 Rain 27 1015 86 0 2.81 279 14:57 03.04.2020
295 Rain 27 1015 85 0 2.81 279 14:39 03.04.2020
296 Rain 27 1009 74 10000 1.5 220 14:21 03.04.2020
297 Rain 27 1009 74 10000 1.5 220 13:46 03.04.2020
298 Rain 27 1009 74 10000 1.5 220 13:26 03.04.2020
299 Rain 27 1009 69 10000 2.1 240 12:57 03.04.2020
300 Rain 27 1009 74 10000 2.6 200 12:39 03.04.2020
301 Rain 27 1009 74 10000 2.6 200 12:18 03.04.2020
302 Clouds 28 1009 69 10000 2.1 190 11:55 03.04.2020
303 Clouds 28 1008 69 10000 2.1 210 11:37 03.04.2020
304 Clouds 28 1008 69 10000 2.1 210 11:18 03.04.2020
305 Clouds 28 1008 74 10000 4.1 220 10:56 03.04.2020
306 Rain 28 1008 79 10000 1 260 10:37 03.04.2020
307 Rain 29 1008 79 10000 1 260 10:19 03.04.2020
308 Rain 29 1007 78 10000 3.1 160 09:55 03.04.2020
309 Thunderstorm 29 1007 66 10000 3.6 290 09:37 03.04.2020
310 Thunderstorm 32 1007 66 10000 3.6 290 09:19 03.04.2020
311 Rain 32 1007 62 10000 5.7 290 08:44 03.04.2020
312 Rain 32 1007 62 10000 5.1 310 08:24 03.04.2020
313 Rain 33 1007 62 10000 5.1 310 07:51 03.04.2020
314 Rain 33 1008 59 10000 4.6 290 07:33 03.04.2020
315 Clouds 33 1008 59 10000 3.6 310 06:58 03.04.2020
316 Clouds 33 1008 59 10000 2.1 290 06:28 03.04.2020
317 Clouds 33 1009 59 10000 3.1 310 05:42 03.04.2020
318 Clouds 33 1011 66 10000 2.6 320 04:18 03.04.2020
319 Clouds 32 1011 66 10000 2.6 330 03:32 03.04.2020
320 Clouds 31 1011 79 10000 1 250 02:31 03.04.2020
321 Clouds 29 1010 83 10000 1.5 130 01:25 03.04.2020
322 Rain 28 1010 83 10000 1.5 190 00:47 03.04.2020
323 Clouds 27 1010 94 10000 1.95 341 00:29 03.04.2020
324 Rain 26 1009 88 10000 1 280 23:54 02.04.2020
325 Rain 26 1009 94 10000 1.8 332 23:36 02.04.2020
326 Rain 26 1009 94 10000 1.8 332 23:18 02.04.2020
327 Rain 26 1009 88 10000 3.1 300 22:41 02.04.2020
328 Rain 26 1009 94 10000 1 270 22:22 02.04.2020
329 Clouds 26 1008 94 10000 1.5 330 21:58 02.04.2020
330 Rain 26 1008 94 10000 1.5 300 21:37 02.04.2020
331 Rain 26 1008 94 10000 1.5 300 21:18 02.04.2020
332 Clouds 26 1008 88 10000 0.5 310 20:44 02.04.2020
333 Clouds 25 1008 88 10000 0.5 310 20:24 02.04.2020
334 Clouds 25 1008 88 10000 2.6 260 19:57 02.04.2020
335 Clouds 26 1008 100 10000 3.1 30 19:39 02.04.2020
336 Rain 26 1008 100 10000 3.1 30 19:20 02.04.2020
337 Rain 26 1008 100 10000 3.1 30 18:55 02.04.2020
338 Rain 27 1009 94 4700 3.1 350 18:36 02.04.2020
339 Rain 27 1009 79 10000 3.1 320 18:18 02.04.2020
340 Clouds 28 1009 83 10000 2.1 300 17:42 02.04.2020
341 Clouds 28 1009 83 10000 2.1 300 17:24 02.04.2020
342 Rain 28 1010 83 10000 2.1 290 16:58 02.04.2020
343 Rain 28 1010 83 10000 2.6 310 16:40 02.04.2020
344 Rain 29 1010 83 10000 2.6 310 16:21 02.04.2020
345 Rain 29 1010 74 5000 3.6 290 15:56 02.04.2020
346 Clouds 29 1010 74 10000 2.6 280 15:38 02.04.2020
347 Clouds 29 1010 74 10000 2.6 280 15:18 02.04.2020
348 Clouds 29 1010 74 10000 2.1 290 14:57 02.04.2020
349 Clouds 29 1010 74 10000 1.5 300 14:38 02.04.2020
350 Clouds 29 1009 74 10000 2.1 280 14:18 02.04.2020
351 Clouds 29 1009 74 10000 2.1 280 13:54 02.04.2020
352 Clouds 29 1009 70 10000 2.1 270 13:36 02.04.2020
353 Clouds 29 1009 70 10000 2.1 270 13:18 02.04.2020
354 Clouds 29 1008 70 10000 2.6 300 12:44 02.04.2020
355 Clouds 29 1008 70 10000 2.6 300 12:19 02.04.2020
356 Clouds 30 1008 66 10000 2.6 300 11:57 02.04.2020
357 Clouds 30 1007 66 10000 2.6 290 11:39 02.04.2020
358 Clouds 31 1007 66 10000 2.6 290 11:20 02.04.2020
359 Rain 31 1007 66 10000 3.1 310 10:56 02.04.2020
360 Clouds 31 1007 66 10000 3.6 310 10:38 02.04.2020
361 Clouds 32 1007 66 10000 3.6 310 10:20 02.04.2020
362 Clouds 32 1007 66 10000 3.6 320 09:58 02.04.2020
363 Clouds 32 1007 66 10000 3.6 320 09:58 02.04.2020
364 Clouds 32 1007 66 10000 3.6 320 09:39 02.04.2020
365 Rain 32 1007 70 10000 5.1 340 09:20 02.04.2020
366 Rain 32 1007 62 10000 5.1 340 08:47 02.04.2020
367 Rain 33 1007 63 10000 4.1 340 08:27 02.04.2020
368 Rain 34 1007 59 10000 4.1 340 07:47 02.04.2020
369 Rain 33 1008 70 10000 2.6 350 07:22 02.04.2020
370 Rain 33 1008 66 10000 3.1 350 06:59 02.04.2020
371 Rain 33 1008 62 10000 5.1 340 06:23 02.04.2020
372 Rain 34 1009 59 10000 2.6 290 05:45 02.04.2020
373 Clouds 32 1010 70 10000 5.1 340 04:47 02.04.2020
374 Clouds 31 1012 66 10000 2.1 80 02:19 02.04.2020
375 Clouds 29 1011 83 10000 1 100 00:58 02.04.2020
376 Clouds 28 1010 88 10000 1 80 00:38 02.04.2020
377 Clouds 28 1010 88 10000 1 80 00:19 02.04.2020
378 Clouds 27 1010 88 10000 1.5 60 23:38 01.04.2020
379 Clouds 27 1010 88 10000 1.5 60 23:19 01.04.2020
380 Rain 27 1009 94 10000 3.1 50 22:56 01.04.2020
381 Rain 27 1009 88 10000 0.5 20 22:37 01.04.2020
382 Rain 27 1009 88 10000 0.5 20 22:19 01.04.2020
383 Rain 27 1009 88 10000 0.5 20 21:39 01.04.2020
384 Rain 27 1009 88 10000 1 360 21:19 01.04.2020
385 Rain 27 1009 83 10000 2.1 360 20:56 01.04.2020
386 Rain 27 1009 83 10000 2.1 360 20:38 01.04.2020
387 Rain 27 1009 83 10000 2.1 360 20:19 01.04.2020
388 Rain 27 1009 78 10000 2.6 360 19:57 01.04.2020
389 Clouds 27 1009 88 10000 2.6 10 19:37 01.04.2020
390 Clouds 27 1009 88 10000 2.6 10 19:37 01.04.2020
391 Clouds 27 1009 88 10000 2.6 10 19:19 01.04.2020
392 Clouds 27 1009 83 10000 1 320 18:42 01.04.2020
393 Clouds 27 1009 83 10000 1 320 18:22 01.04.2020
394 Clouds 28 1009 79 10000 1.5 310 17:57 01.04.2020
395 Clear 28 1010 79 10000 2.1 290 17:37 01.04.2020
396 Clear 28 1010 79 10000 2.1 290 17:19 01.04.2020
397 Clouds 28 1010 79 10000 2.6 310 16:57 01.04.2020
398 Clouds 28 1010 79 10000 2.6 320 16:39 01.04.2020
399 Clouds 28 1010 79 10000 2.6 320 16:20 01.04.2020
400 Clouds 28 1010 79 10000 3.1 330 15:56 01.04.2020
401 Clouds 29 1010 79 10000 3.6 330 15:37 01.04.2020
402 Clouds 29 1010 79 10000 3.6 330 15:18 01.04.2020
403 Clouds 29 1010 74 10000 3.6 330 14:40 01.04.2020
404 Clouds 29 1010 74 10000 3.6 340 14:22 01.04.2020
405 Clouds 30 1009 70 10000 3.6 360 13:59 01.04.2020
406 Clouds 30 1009 70 10000 3.1 360 13:39 01.04.2020
407 Clouds 30 1009 70 10000 3.1 360 13:20 01.04.2020
408 Clouds 30 1009 70 10000 3.1 10 12:58 01.04.2020
409 Clouds 30 1008 66 10000 3.1 10 12:40 01.04.2020
410 Clouds 29 1008 66 10000 3.1 10 12:21 01.04.2020
411 Clouds 30 1008 62 10000 3.6 20 11:56 01.04.2020
412 Clouds 31 1008 55 10000 4.1 10 11:37 01.04.2020
413 Clouds 31 1008 55 10000 4.1 10 11:18 01.04.2020
414 Rain 32 1008 59 0 4.92 30 10:39 01.04.2020
415 Rain 33 1008 55 10000 5.1 360 10:21 01.04.2020
416 Rain 33 1008 55 10000 4.6 360 09:59 01.04.2020
417 Rain 33 1008 55 10000 4.6 360 09:40 01.04.2020
418 Rain 33 1008 55 10000 4.6 360 09:40 01.04.2020
419 Clouds 34 1007 59 10000 4.1 350 09:20 01.04.2020
420 Rain 34 1007 59 10000 5.1 320 08:54 01.04.2020
421 Clouds 34 1007 55 10000 3.6 340 08:36 01.04.2020
422 Clouds 34 1007 55 10000 3.6 340 08:18 01.04.2020
423 Clouds 34 1008 55 10000 3.1 330 07:40 01.04.2020
424 Clouds 34 1008 55 10000 3.1 330 07:19 01.04.2020
425 Clouds 33 1009 59 10000 3.1 310 06:42 01.04.2020
426 Clouds 33 1009 59 10000 3.1 310 06:20 01.04.2020
427 Clouds 33 1009 59 10000 4.1 320 05:28 01.04.2020
428 Clouds 33 1011 52 10000 5.1 320 03:40 01.04.2020
429 Clouds 32 1011 55 10000 5.1 320 03:19 01.04.2020
430 Clouds 32 1011 62 10000 2.1 110 02:36 01.04.2020
431 Clouds 30 1010 70 10000 2.1 130 01:53 01.04.2020
432 Clouds 28 1010 74 10000 2.6 130 01:25 01.04.2020
433 Clouds 27 1010 78 10000 2.6 150 00:47 01.04.2020
434 Rain 26 1010 88 10000 2.1 130 00:23 01.04.2020
435 Rain 26 1009 88 10000 2.1 140 23:59 31.03.2020
436 Rain 25 1009 88 10000 1 110 23:40 31.03.2020
437 Rain 25 1009 88 10000 1 110 23:21 31.03.2020
438 Rain 26 1008 88 10000 2.05 102 22:41 31.03.2020
439 Rain 26 1008 88 10000 2.05 102 22:21 31.03.2020
440 Rain 25 1008 94 10000 2.05 102 21:58 31.03.2020
441 Rain 25 1008 94 10000 2.05 102 21:58 31.03.2020
442 Rain 26 1008 94 10000 2.05 102 21:40 31.03.2020
443 Rain 26 1008 94 10000 2.05 102 21:40 31.03.2020
444 Rain 26 1008 94 10000 1.74 58 21:21 31.03.2020
445 Clouds 25 1009 94 10000 1.5 80 20:57 31.03.2020
446 Clouds 26 1009 94 10000 1.5 80 20:37 31.03.2020
447 Clouds 26 1009 94 10000 1.5 70 20:19 31.03.2020
448 Clouds 26 1009 94 10000 1.5 70 19:56 31.03.2020
449 Rain 26 1009 88 10000 2.6 60 19:38 31.03.2020
450 Clouds 27 1009 88 10000 3.6 100 19:19 31.03.2020
451 Clouds 27 1009 88 10000 3.1 90 18:44 31.03.2020
452 Clouds 28 1010 83 10000 3.1 110 18:21 31.03.2020
453 Clouds 28 1010 83 10000 3.1 110 17:57 31.03.2020
454 Clouds 28 1010 83 10000 3.1 110 17:57 31.03.2020
455 Clouds 28 1010 88 10000 1 130 17:39 31.03.2020
456 Clouds 27 1010 88 10000 1 130 17:21 31.03.2020
457 Clouds 27 1010 88 10000 0.65 199 16:56 31.03.2020
458 Clouds 28 1010 79 10000 1 250 16:37 31.03.2020
459 Clouds 28 1010 79 10000 1 250 16:18 31.03.2020
460 Clouds 28 1010 83 10000 1.5 250 15:56 31.03.2020
461 Clouds 28 1010 79 10000 1 250 15:37 31.03.2020
462 Clouds 28 1010 79 10000 1 250 15:37 31.03.2020
463 Clouds 28 1010 79 10000 1 250 15:18 31.03.2020
464 Clouds 28 1010 74 10000 2.1 280 14:42 31.03.2020
465 Clouds 29 1010 74 10000 1.5 290 14:23 31.03.2020
466 Clouds 29 1010 70 10000 2.6 300 13:59 31.03.2020
467 Clouds 29 1009 70 10000 2.6 310 13:41 31.03.2020
468 Clouds 29 1009 70 10000 2.6 310 13:19 31.03.2020
469 Clouds 29 1009 70 10000 2.6 310 13:19 31.03.2020
470 Clouds 29 1009 74 10000 2.1 300 12:46 31.03.2020
471 Clouds 29 1009 74 10000 2.1 300 12:21 31.03.2020
472 Rain 30 1009 66 9000 4.1 300 11:59 31.03.2020
473 Rain 30 1008 66 10000 4.1 300 11:38 31.03.2020
474 Rain 30 1008 66 10000 4.1 300 11:19 31.03.2020
475 Rain 31 1008 66 10000 4.1 300 10:56 31.03.2020
476 Clouds 31 1007 66 10000 4.6 320 10:38 31.03.2020
477 Clouds 32 1007 66 10000 4.6 320 10:20 31.03.2020
478 Clouds 33 1007 62 10000 4.1 350 09:55 31.03.2020
479 Clouds 33 1007 62 10000 3.6 340 09:37 31.03.2020
480 Clouds 33 1007 62 10000 3.6 340 09:19 31.03.2020
481 Clouds 33 1007 59 10000 3.6 350 08:54 31.03.2020
482 Clouds 33 1007 62 10000 3.6 350 08:36 31.03.2020
483 Clouds 34 1007 62 10000 3.6 350 08:18 31.03.2020
484 Clouds 32 1008 70 10000 0.5 330 07:43 31.03.2020
485 Clouds 32 1008 70 10000 0.5 330 07:23 31.03.2020
486 Rain 32 1008 70 10000 5.1 360 06:58 31.03.2020
487 Rain 32 1008 70 10000 4.6 300 06:39 31.03.2020
488 Clouds 33 1009 62 10000 3.6 340 05:42 31.03.2020
489 Clouds 34 1009 62 10000 3.6 340 05:23 31.03.2020
490 Clouds 32 1010 62 10000 1.5 20 02:53 31.03.2020
491 Clouds 31 1010 62 10000 2.1 50 01:47 31.03.2020
492 Clouds 29 1010 70 10000 2.6 50 01:19 31.03.2020
493 Clouds 27 1010 83 10000 1.5 40 00:43 31.03.2020
494 Clouds 26 1010 83 10000 1.5 40 00:20 31.03.2020
495 Clouds 25 1009 83 10000 3.1 40 23:40 30.03.2020
496 Clouds 26 1009 83 10000 3.1 40 23:20 30.03.2020
497 Clouds 26 1009 83 10000 3.1 30 22:57 30.03.2020
498 Clouds 26 1009 83 10000 4.1 40 22:38 30.03.2020
499 Clouds 26 1009 83 10000 4.1 40 22:19 30.03.2020
500 Rain 27 1009 88 10000 2.1 30 21:57 30.03.2020
501 Rain 27 1008 88 10000 1 360 21:38 30.03.2020
502 Rain 27 1008 88 10000 1 360 21:20 30.03.2020
503 Clouds 27 1008 88 10000 1 360 20:58 30.03.2020
504 Clouds 27 1009 88 10000 1.53 21 20:38 30.03.2020
505 Clouds 27 1009 88 10000 1.53 21 20:19 30.03.2020
506 Clouds 27 1008 83 10000 1.53 21 19:54 30.03.2020
507 Clouds 27 1009 83 10000 1 360 19:36 30.03.2020
508 Clouds 27 1009 83 10000 0.5 10 19:18 30.03.2020
509 Clouds 27 1009 83 10000 1 20 18:41 30.03.2020
510 Clouds 27 1009 83 10000 1 20 18:23 30.03.2020
511 Clear 27 1009 83 10000 1 340 17:57 30.03.2020
512 Clear 27 1009 83 10000 1 310 17:39 30.03.2020
513 Clear 27 1009 83 10000 1 310 17:19 30.03.2020
514 Clouds 27 1010 83 10000 1 300 16:57 30.03.2020
515 Clouds 28 1010 70 10000 1.5 290 16:39 30.03.2020
516 Clouds 28 1010 70 10000 1.5 290 16:20 30.03.2020
517 Clouds 28 1010 70 10000 2.1 300 15:55 30.03.2020
518 Clear 28 1009 70 10000 2.1 310 15:37 30.03.2020
519 Clouds 29 1009 70 10000 2.1 310 15:19 30.03.2020
520 Clouds 29 1009 70 10000 2.6 310 14:55 30.03.2020
521 Clouds 29 1009 74 10000 2.6 300 14:36 30.03.2020
522 Clouds 29 1009 74 10000 2.6 300 14:18 30.03.2020
523 Clouds 29 1009 74 10000 2.1 300 13:54 30.03.2020
524 Clouds 29 1008 74 10000 2.6 300 13:36 30.03.2020
525 Rain 29 1008 74 10000 2.6 300 13:18 30.03.2020
526 Rain 30 1008 70 10000 2.6 300 12:41 30.03.2020
527 Clouds 30 1008 70 10000 2.6 300 12:20 30.03.2020
528 Clouds 30 1007 66 10000 3.1 300 11:57 30.03.2020
529 Clouds 30 1007 66 10000 4.1 300 11:39 30.03.2020
530 Clouds 30 1007 66 10000 4.1 300 11:21 30.03.2020
531 Clouds 32 1006 62 10000 4.1 300 10:41 30.03.2020
532 Clouds 32 1006 62 10000 4.1 310 10:22 30.03.2020
533 Clouds 33 1006 59 10000 3.6 320 09:58 30.03.2020
534 Clouds 34 1006 59 10000 3.6 320 09:39 30.03.2020
535 Clouds 34 1006 59 10000 3.1 340 09:19 30.03.2020
536 Clouds 34 1006 59 10000 3.6 350 08:43 30.03.2020
537 Clouds 34 1006 59 10000 5.1 350 08:23 30.03.2020
538 Clouds 34 1007 63 10000 4.6 340 07:53 30.03.2020
539 Clouds 35 1007 37 10000 3.6 340 07:34 30.03.2020
540 Clouds 35 1007 36 10000 2.6 320 06:59 30.03.2020
541 Clouds 35 1008 36 10000 2.1 280 06:34 30.03.2020
542 Clouds 34 1008 56 10000 2.6 300 05:59 30.03.2020
543 Clouds 34 1009 59 10000 3.6 330 05:34 30.03.2020
544 Clouds 33 1009 59 10000 5.1 310 04:26 30.03.2020
545 Clouds 33 1010 59 10000 2.6 200 03:45 30.03.2020
546 Clouds 32 1010 66 10000 1 190 02:42 30.03.2020
547 Clouds 31 1010 70 10000 1 110 01:52 30.03.2020
548 Rain 28 1010 83 10000 0.5 80 00:56 30.03.2020
549 Rain 27 1010 94 10000 1.5 80 00:25 30.03.2020
550 Clouds 26 1009 94 10000 1 130 23:43 29.03.2020
551 Clouds 26 1009 94 10000 2.1 130 23:24 29.03.2020
552 Clouds 26 1009 100 10000 1.5 70 22:59 29.03.2020
553 Clouds 25 1009 100 10000 1.5 70 22:39 29.03.2020
554 Clouds 26 1008 94 10000 1.5 130 22:20 29.03.2020
555 Rain 26 1008 94 10000 1.88 97 21:58 29.03.2020
556 Rain 26 1008 94 10000 1.5 130 21:37 29.03.2020
557 Rain 26 1008 94 10000 1.5 130 21:18 29.03.2020
558 Rain 26 1008 88 10000 1.5 150 20:55 29.03.2020
559 Rain 26 1008 94 10000 1 90 20:37 29.03.2020
560 Rain 26 1008 94 10000 1 90 20:37 29.03.2020
561 Rain 26 1008 94 10000 1 50 20:18 29.03.2020
562 Rain 26 1008 94 10000 1 50 19:55 29.03.2020
563 Rain 26 1008 94 10000 1 50 19:55 29.03.2020
564 Rain 26 1008 88 10000 1.5 80 19:37 29.03.2020
565 Clouds 26 1009 94 10000 0.5 200 19:18 29.03.2020
566 Rain 27 1009 83 10000 1 250 18:55 29.03.2020
567 Rain 27 1009 83 10000 1 250 18:36 29.03.2020
568 Rain 27 1009 83 10000 1.5 270 18:18 29.03.2020
569 Clouds 28 1009 79 10000 1.5 260 17:42 29.03.2020
570 Clouds 28 1009 79 10000 1.5 260 17:23 29.03.2020
571 Clouds 28 1009 79 10000 2.1 270 16:59 29.03.2020
572 Clouds 28 1009 79 10000 2.1 270 16:40 29.03.2020
573 Clouds 28 1009 79 10000 2.1 270 16:21 29.03.2020
574 Clouds 28 1009 79 10000 1.5 280 15:59 29.03.2020
575 Clouds 28 1009 79 10000 1.5 280 15:59 29.03.2020
576 Clouds 28 1009 79 10000 3.1 260 15:40 29.03.2020
577 Clouds 28 1009 79 10000 3.1 260 15:21 29.03.2020
578 Clouds 28 1009 83 10000 3.6 260 14:57 29.03.2020
579 Clouds 29 1009 74 10000 2.6 270 14:37 29.03.2020
580 Clouds 29 1009 74 10000 2.6 270 14:19 29.03.2020
581 Clouds 29 1009 74 10000 2.6 290 13:55 29.03.2020
582 Clouds 29 1008 74 10000 3.1 290 13:37 29.03.2020
583 Clouds 29 1008 74 10000 3.1 290 13:19 29.03.2020
584 Clouds 29 1008 74 10000 3.6 290 12:54 29.03.2020
585 Clouds 29 1008 74 10000 3.6 290 12:54 29.03.2020
586 Clouds 29 1008 74 10000 3.6 290 12:36 29.03.2020
587 Clouds 29 1007 74 10000 3.6 290 12:18 29.03.2020
588 Clouds 30 1007 70 10000 4.1 300 11:39 29.03.2020
589 Clouds 30 1007 70 10000 4.1 300 11:21 29.03.2020
590 Clouds 31 1007 70 10000 4.1 300 10:55 29.03.2020
591 Clouds 31 1007 66 10000 4.6 290 10:37 29.03.2020
592 Clouds 32 1007 66 10000 4.6 290 10:18 29.03.2020
593 Clouds 33 1006 66 10000 5.7 300 09:39 29.03.2020
594 Rain 33 1006 66 10000 5.7 300 09:19 29.03.2020
595 Clouds 33 1006 63 10000 6.2 310 08:53 29.03.2020
596 Clouds 34 1006 63 10000 5.7 310 08:28 29.03.2020
597 Clouds 34 1006 63 10000 5.7 300 07:58 29.03.2020
598 Clouds 35 1007 63 10000 5.1 310 07:39 29.03.2020
599 Clouds 35 1007 63 10000 5.1 310 07:39 29.03.2020
600 Clouds 34 1007 63 10000 5.1 310 07:20 29.03.2020
601 Clouds 33 1009 52 10000 4.1 330 04:59 29.03.2020
602 Clouds 33 1009 52 10000 4.1 330 04:59 29.03.2020
603 Clouds 33 1009 66 10000 3.1 190 03:48 29.03.2020
604 Clouds 32 1010 70 10000 3.1 220 03:26 29.03.2020
605 Clouds 32 1010 74 10000 2.6 210 01:50 29.03.2020
606 Clouds 31 1010 79 10000 2.1 190 01:23 29.03.2020
607 Clouds 31 1010 74 10000 1 220 00:55 29.03.2020
608 Clouds 30 1010 74 10000 1 230 00:31 29.03.2020
609 Clouds 28 1009 88 10000 0.5 110 23:43 28.03.2020
610 Clouds 26 1009 88 10000 0.5 110 23:23 28.03.2020
611 Clouds 26 1009 88 10000 0.5 110 22:58 28.03.2020
612 Clouds 25 1008 94 10000 1.5 110 22:38 28.03.2020
613 Clouds 25 1008 94 10000 1.5 110 22:20 28.03.2020
614 Clouds 25 1008 88 10000 1 70 21:43 28.03.2020
615 Clouds 25 1008 88 10000 1 70 21:24 28.03.2020
616 Clouds 25 1008 94 10000 2.1 80 20:59 28.03.2020
617 Clouds 26 1008 94 10000 2.1 80 20:41 28.03.2020
618 Clear 26 1008 94 10000 1.5 60 20:23 28.03.2020
619 Rain 26 1008 94 10000 1.5 30 19:57 28.03.2020
620 Rain 26 1008 88 10000 1.5 20 19:38 28.03.2020
621 Rain 27 1008 88 10000 1.5 20 19:20 28.03.2020
622 Rain 27 1008 88 10000 2.1 360 18:56 28.03.2020
623 Rain 27 1008 83 10000 2.6 350 18:38 28.03.2020
624 Clouds 27 1008 83 10000 3.1 350 18:19 28.03.2020
625 Rain 28 1008 83 10000 1.5 320 17:39 28.03.2020
626 Clouds 28 1009 88 10000 1.5 20 17:20 28.03.2020
627 Clouds 28 1009 88 10000 1.5 290 16:43 28.03.2020
628 Clouds 28 1009 88 10000 1.5 290 16:20 28.03.2020
629 Clouds 28 1009 83 10000 2.1 280 15:58 28.03.2020
630 Clouds 28 1009 83 10000 1.5 270 15:39 28.03.2020
631 Clouds 28 1009 83 10000 1.5 270 15:19 28.03.2020
632 Clouds 28 1009 79 10000 2.1 270 14:54 28.03.2020
633 Clouds 28 1009 79 10000 2.6 280 14:36 28.03.2020
634 Clouds 28 1009 79 10000 2.6 280 14:18 28.03.2020
635 Clouds 29 1009 74 10000 2.6 250 13:38 28.03.2020
636 Clouds 29 1009 74 10000 2.6 250 13:20 28.03.2020
637 Clouds 29 1008 74 10000 3.1 280 12:39 28.03.2020
638 Clouds 29 1008 74 10000 3.1 280 12:21 28.03.2020
639 Clouds 29 1007 70 10000 3.1 290 11:42 28.03.2020
640 Clouds 29 1007 70 10000 3.6 290 11:21 28.03.2020
641 Clouds 29 1007 70 10000 3.6 290 10:56 28.03.2020
642 Clouds 30 1007 66 10000 4.1 300 10:38 28.03.2020
643 Clouds 30 1007 66 10000 4.1 300 10:18 28.03.2020
644 Clouds 32 1006 66 10000 5.1 300 09:41 28.03.2020
645 Clouds 32 1006 66 10000 5.1 300 09:23 28.03.2020
646 Clouds 33 1006 63 10000 5.1 310 08:46 28.03.2020
647 Clouds 34 1006 59 10000 4.6 300 08:27 28.03.2020
648 Clouds 34 1006 44 10000 4.6 300 07:59 28.03.2020
649 Clouds 35 1007 36 10000 2.1 310 07:41 28.03.2020
650 Clouds 35 1007 39 10000 4.1 330 06:55 28.03.2020
651 Clouds 35 1007 38 10000 4.6 90 06:33 28.03.2020
652 Clouds 34 1008 41 10000 2.6 310 05:41 28.03.2020
653 Clouds 34 1009 44 10000 3.1 30 05:19 28.03.2020
654 Clouds 34 1009 46 10000 4.1 90 04:40 28.03.2020
655 Clouds 32 1010 62 10000 2.1 140 02:55 28.03.2020
656 Clouds 30 1011 70 10000 2.6 180 01:49 28.03.2020
657 Clouds 30 1011 74 10000 1.5 200 01:24 28.03.2020
658 Clouds 29 1010 79 10000 1.5 190 00:55 28.03.2020
659 Clouds 28 1010 83 10000 2.6 190 00:33 28.03.2020
660 Clouds 27 1010 88 10000 1.5 190 23:54 27.03.2020
661 Clouds 26 1010 88 10000 1.5 180 23:36 27.03.2020
662 Clouds 26 1010 94 10000 1.5 150 23:18 27.03.2020
663 Clouds 26 1010 94 10000 1.5 150 22:54 27.03.2020
664 Clouds 26 1009 94 10000 1.5 160 22:36 27.03.2020
665 Clouds 25 1009 94 10000 1.5 160 22:18 27.03.2020
666 Clouds 25 1009 94 10000 1.5 180 21:42 27.03.2020
667 Clouds 26 1009 88 10000 1 180 21:23 27.03.2020
668 Clouds 26 1009 88 10000 0.5 140 20:58 27.03.2020
669 Clouds 26 1009 88 10000 0.5 140 20:58 27.03.2020
670 Clouds 26 1009 88 10000 0.5 140 20:58 27.03.2020
671 Clouds 26 1009 88 10000 0.5 140 20:39 27.03.2020
672 Clouds 25 1009 88 10000 0.5 140 20:20 27.03.2020
673 Rain 25 1009 88 10000 0.5 140 19:57 27.03.2020
674 Rain 25 1009 94 10000 1.5 190 19:38 27.03.2020
675 Rain 25 1009 94 10000 1.5 190 19:20 27.03.2020
676 Rain 25 1009 94 10000 1.5 170 18:44 27.03.2020
677 Rain 25 1009 94 10000 1.5 170 18:44 27.03.2020
678 Rain 25 1009 94 10000 1.5 170 18:23 27.03.2020
679 -273 0 0 0 0 0 17:57 27.03.2020
680 Rain 25 1010 94 10000 2.6 80 17:38 27.03.2020
681 Rain 25 1010 94 10000 2.6 70 17:19 27.03.2020
682 Rain 25 1011 88 10000 3.1 60 16:44 27.03.2020
683 Rain 25 1011 88 10000 3.1 60 16:25 27.03.2020
684 Rain 25 1011 88 10000 6.2 50 15:55 27.03.2020
685 Rain 25 1011 83 10000 4.1 80 15:37 27.03.2020
686 Rain 26 1011 83 10000 4.1 80 15:19 27.03.2020
687 Clouds 26 1011 78 10000 5.7 70 14:43 27.03.2020
688 Clouds 26 1011 78 10000 5.7 70 14:24 27.03.2020
689 Clouds 27 1011 69 10000 3.6 70 13:54 27.03.2020
690 Clouds 28 1010 74 10000 3.1 60 13:36 27.03.2020
691 Thunderstorm 29 1010 74 10000 1 350 13:18 27.03.2020
692 Clouds 29 1009 74 10000 1.5 350 12:42 27.03.2020
693 Clouds 29 1009 70 10000 2.1 340 12:19 27.03.2020
694 Clouds 29 1009 70 10000 1.5 330 11:55 27.03.2020
695 Clouds 29 1009 70 10000 1.5 330 11:55 27.03.2020
696 Clouds 29 1009 70 10000 1.5 330 11:36 27.03.2020
697 Clouds 29 1008 70 10000 2.1 350 11:18 27.03.2020
698 Clouds 30 1008 70 10000 2.6 340 10:41 27.03.2020
699 Clouds 30 1008 70 10000 2.6 340 10:22 27.03.2020
700 Clouds 30 1008 66 10000 3.6 350 09:59 27.03.2020
701 Clouds 31 1008 62 10000 4.6 350 09:40 27.03.2020
702 Clouds 31 1008 62 10000 4.6 350 09:22 27.03.2020
703 Clouds 32 1008 59 10000 4.6 350 08:59 27.03.2020
704 Clouds 32 1008 59 10000 4.6 350 08:59 27.03.2020
705 Clouds 32 1008 59 10000 5.1 320 08:40 27.03.2020
706 Clouds 32 1008 59 10000 5.1 320 08:22 27.03.2020
707 Clouds 33 1008 52 10000 2.1 20 07:57 27.03.2020
708 Clouds 33 1008 52 10000 3.6 70 07:38 27.03.2020
709 Clouds 33 1008 52 10000 3.1 90 07:20 27.03.2020
710 Clouds 33 1008 52 10000 3.1 70 06:39 27.03.2020
711 Clouds 33 1009 52 10000 3.6 70 05:45 27.03.2020
712 Clouds 32 1011 62 10000 2.1 110 03:34 27.03.2020
713 Clouds 29 1011 74 10000 2.1 120 01:55 27.03.2020
714 Clouds 29 1011 74 10000 2.6 100 01:18 27.03.2020
715 Clouds 28 1011 78 10000 2.6 110 00:41 27.03.2020
716 Clouds 27 1010 78 10000 2.6 100 00:19 27.03.2020
717 Clouds 27 1010 78 10000 2.6 100 23:37 26.03.2020
718 Rain 26 1010 83 10000 1.5 100 23:18 26.03.2020
719 Rain 26 1010 83 10000 1.5 100 22:56 26.03.2020
720 Rain 26 1010 83 10000 2.1 120 22:36 26.03.2020
721 Rain 26 1010 83 10000 2.1 120 22:18 26.03.2020
722 Rain 26 1009 88 10000 2.1 120 21:40 26.03.2020
723 Rain 26 1009 88 10000 2.1 120 21:21 26.03.2020
724 Rain 26 1009 83 10000 1.5 120 20:59 26.03.2020
725 Clouds 26 1009 83 10000 1.5 110 20:39 26.03.2020
726 Clouds 26 1009 83 10000 1.5 110 20:21 26.03.2020
727 Clouds 27 1009 83 10000 1 110 19:58 26.03.2020
728 Clouds 27 1009 78 10000 2.1 100 19:40 26.03.2020
729 Clouds 27 1009 78 10000 2.1 100 19:21 26.03.2020
730 Rain 27 1014 90 0 3.03 97 18:58 26.03.2020
731 Clouds 27 1010 83 10000 2.1 80 18:40 26.03.2020
732 Clouds 27 1010 83 10000 2.1 80 18:21 26.03.2020
733 Clouds 27 1010 88 10000 1.5 80 17:44 26.03.2020
734 Clouds 27 1010 88 10000 1.5 80 17:44 26.03.2020
735 Rain 27 1010 88 10000 2.1 70 17:20 26.03.2020
736 Rain 27 1010 88 10000 2.1 70 16:57 26.03.2020
737 Rain 28 1010 83 10000 2.1 60 16:38 26.03.2020
738 Rain 28 1010 83 10000 2.1 60 16:38 26.03.2020
739 Rain 28 1010 83 10000 2.1 60 16:19 26.03.2020
740 Rain 27 1010 88 10000 1.5 70 15:54 26.03.2020
741 Rain 27 1010 88 10000 1.5 70 15:36 26.03.2020
742 Rain 27 1010 88 10000 1.5 70 15:18 26.03.2020
743 Rain 28 1010 83 10000 2.6 40 14:42 26.03.2020
744 Rain 28 1010 83 10000 2.6 40 14:24 26.03.2020
745 Rain 28 1010 83 10000 2.6 50 13:55 26.03.2020
746 Rain 28 1010 83 10000 2.1 60 13:37 26.03.2020
747 Rain 28 1010 83 10000 2.1 60 13:19 26.03.2020
748 Rain 28 1010 83 10000 2.6 40 12:38 26.03.2020
749 Rain 28 1010 74 10000 2.6 50 12:20 26.03.2020
750 Rain 28 1009 74 10000 2.6 30 11:46 26.03.2020
751 Rain 29 1009 74 10000 2.6 30 11:23 26.03.2020
752 Clouds 29 1009 74 10000 2.6 40 10:57 26.03.2020
753 Clouds 29 1009 70 10000 4.1 40 10:39 26.03.2020
754 Clouds 30 1009 70 10000 4.1 40 10:19 26.03.2020
755 Clouds 30 1008 70 10000 4.6 20 09:44 26.03.2020
756 Clouds 30 1008 66 10000 4.1 30 09:21 26.03.2020
757 Clouds 31 1008 66 10000 4.6 40 08:57 26.03.2020
758 Clouds 31 1008 66 10000 4.6 40 08:57 26.03.2020
759 Clouds 31 1008 66 10000 2.6 70 08:38 26.03.2020
760 Clouds 31 1008 66 10000 2.6 70 08:19 26.03.2020
761 Clouds 31 1008 62 10000 3.6 60 07:44 26.03.2020
762 Clouds 32 1008 62 10000 5.1 60 07:23 26.03.2020
763 Clouds 31 1008 62 10000 5.7 70 06:57 26.03.2020
764 Clouds 32 1009 59 10000 5.1 60 06:32 26.03.2020
765 Clouds 32 1009 59 10000 5.7 80 05:29 26.03.2020
766 Clouds 31 1010 62 10000 6.2 70 03:45 26.03.2020
767 Clouds 31 1011 66 10000 5.7 80 02:56 26.03.2020
768 Clouds 28 1011 69 10000 5.7 90 01:51 26.03.2020
769 Clouds 27 1011 83 10000 4.6 90 01:18 26.03.2020
770 Clouds 26 1011 88 10000 4.1 90 00:23 26.03.2020
771 Clouds 25 1010 88 10000 3.6 100 23:42 25.03.2020
772 Clouds 25 1009 94 10000 3.6 100 23:22 25.03.2020
773 Clouds 24 1009 94 10000 2.1 100 22:42 25.03.2020
774 Clouds 24 1009 94 10000 2.1 100 22:22 25.03.2020
775 Clouds 24 1009 94 10000 2.1 120 21:59 25.03.2020
776 Clouds 24 1009 94 10000 2.6 130 21:40 25.03.2020
777 Clouds 24 1009 94 10000 2.6 130 21:22 25.03.2020
778 Clouds 24 1009 94 10000 2.6 140 20:57 25.03.2020
779 Clouds 24 1009 88 10000 3.1 150 20:37 25.03.2020
780 Rain 25 1009 88 10000 3.1 150 20:18 25.03.2020
781 Clouds 25 1009 88 10000 2.6 130 19:43 25.03.2020
782 Clouds 25 1009 88 10000 2.6 130 19:23 25.03.2020
783 Rain 25 1010 88 10000 3.6 140 18:59 25.03.2020
784 Clouds 25 1010 94 10000 3.1 140 18:40 25.03.2020
785 Clouds 25 1010 94 10000 3.1 140 18:40 25.03.2020
786 Clouds 25 1010 88 10000 3.6 130 18:22 25.03.2020
787 Clouds 25 1010 88 10000 3.6 130 17:56 25.03.2020
788 Clouds 25 1010 88 10000 4.6 120 17:38 25.03.2020
789 Clouds 25 1010 88 10000 4.6 120 17:38 25.03.2020
790 Rain 25 1010 88 10000 3.6 100 17:20 25.03.2020
791 Rain 25 1010 94 10000 3.6 120 16:44 25.03.2020
792 Rain 25 1010 94 10000 3.6 120 16:26 25.03.2020
793 Rain 25 1011 94 10000 4.1 120 15:59 25.03.2020
794 Clouds 25 1011 94 10000 4.6 140 15:41 25.03.2020
795 Clouds 25 1011 94 10000 4.6 140 15:41 25.03.2020
796 Clouds 25 1011 94 10000 4.6 140 15:20 25.03.2020
797 Rain 25 1011 94 10000 5.7 140 14:55 25.03.2020
798 Rain 26 1010 83 10000 3.6 90 14:37 25.03.2020
799 Rain 27 1010 83 10000 3.6 90 14:18 25.03.2020
800 Rain 27 1010 83 10000 1.5 60 13:42 25.03.2020
801 Rain 27 1010 83 10000 1.5 60 13:22 25.03.2020
802 Rain 28 1009 78 10000 3.1 60 12:38 25.03.2020
803 Clouds 28 1009 74 10000 2.6 70 12:19 25.03.2020
804 Clouds 28 1009 74 10000 2.6 70 11:56 25.03.2020
805 Clouds 28 1009 74 10000 3.1 80 11:37 25.03.2020
806 Clouds 28 1008 66 10000 4.6 70 11:19 25.03.2020
807 Clouds 29 1008 66 10000 4.6 70 10:56 25.03.2020
808 Clouds 29 1008 66 10000 4.1 70 10:38 25.03.2020
809 Clouds 29 1008 66 10000 4.1 70 10:18 25.03.2020
810 Clouds 30 1007 58 10000 6.2 60 09:43 25.03.2020
811 Clouds 31 1007 58 10000 6.2 60 09:24 25.03.2020
812 Clouds 31 1007 66 10000 5.7 70 08:57 25.03.2020
813 Clouds 30 1007 66 10000 6.2 50 08:39 25.03.2020
814 Clouds 30 1007 66 10000 6.2 50 08:19 25.03.2020
815 Rain 30 1007 83 10000 7.7 50 07:41 25.03.2020
816 Rain 29 1007 83 10000 7.7 50 07:22 25.03.2020
817 Rain 30 1007 74 10000 4.6 70 06:50 25.03.2020
818 Rain 31 1008 66 10000 6.2 70 06:28 25.03.2020
819 Rain 31 1008 66 10000 6.2 70 06:28 25.03.2020
820 Clouds 31 1008 62 10000 6.7 70 05:56 25.03.2020
821 Clouds 32 1008 62 10000 5.1 60 05:37 25.03.2020
822 Clouds 32 1009 59 10000 4.6 20 04:40 25.03.2020
823 Clouds 30 1009 74 10000 3.1 30 03:49 25.03.2020
824 Clouds 31 1010 62 10000 4.1 20 03:29 25.03.2020
825 Clouds 29 1010 79 10000 3.6 80 01:25 25.03.2020
826 Clouds 27 1010 83 10000 3.6 110 00:49 25.03.2020
827 Clouds 27 1010 88 10000 4.6 100 00:25 25.03.2020
828 Clouds 26 1009 88 10000 3.6 100 23:46 24.03.2020
829 Clouds 25 1009 88 10000 3.6 100 23:28 24.03.2020
830 Clouds 25 1009 88 10000 3.6 100 23:28 24.03.2020
831 Clouds 25 1009 94 10000 1.5 110 22:57 24.03.2020
832 Clouds 25 1009 88 10000 1 140 22:38 24.03.2020
833 Clouds 25 1009 88 10000 1 140 22:19 24.03.2020
834 Clouds 25 1009 88 10000 1 140 22:19 24.03.2020
835 Clouds 25 1009 88 10000 1 140 22:19 24.03.2020
836 Rain 25 1009 88 10000 1.5 120 21:56 24.03.2020
837 Rain 25 1008 88 10000 1.5 120 21:38 24.03.2020
838 Rain 25 1008 88 10000 1.5 120 21:18 24.03.2020
839 Rain 25 1008 88 10000 1.5 120 21:18 24.03.2020
840 Clouds 24 1008 88 10000 2.6 140 20:57 24.03.2020
841 Clouds 24 1008 88 10000 4.1 80 20:39 24.03.2020
842 Clouds 24 1008 88 10000 4.1 80 20:21 24.03.2020
843 Rain 24 1008 94 10000 4.1 120 19:45 24.03.2020
844 Rain 24 1008 94 10000 4.1 120 19:19 24.03.2020
845 Rain 24 1008 94 10000 4.1 150 18:56 24.03.2020
846 Rain 24 1008 88 10000 2.6 150 18:37 24.03.2020
847 Clouds 24 1009 88 10000 3.1 160 18:19 24.03.2020
848 Clouds 24 1009 88 10000 3.1 160 17:56 24.03.2020
849 Rain 24 1009 94 10000 3.1 160 17:37 24.03.2020
850 Rain 24 1009 88 10000 2.1 140 17:19 24.03.2020
851 Rain 24 1009 88 10000 2.1 140 16:54 24.03.2020
852 Rain 24 1010 88 10000 2.1 130 16:36 24.03.2020
853 Rain 24 1010 88 10000 2.1 130 16:36 24.03.2020
854 Rain 24 1010 88 10000 2.1 130 16:18 24.03.2020
855 Clouds 24 1010 88 10000 3.1 130 15:42 24.03.2020
856 Clouds 24 1010 88 10000 3.1 130 15:23 24.03.2020
857 Thunderstorm 25 1010 88 10000 5.1 140 14:43 24.03.2020
858 Thunderstorm 25 1010 88 10000 5.1 140 14:22 24.03.2020
859 Thunderstorm 25 1010 88 10000 5.1 140 14:22 24.03.2020
860 Rain 25 1010 88 10000 5.1 120 13:58 24.03.2020
861 Clouds 25 1010 88 10000 5.7 100 13:40 24.03.2020
862 Clouds 26 1010 88 10000 5.7 100 13:21 24.03.2020
863 Clouds 26 1009 94 10000 1 240 12:42 24.03.2020
864 Clouds 26 1009 94 10000 1 240 12:23 24.03.2020
865 Rain 26 1009 94 10000 0.5 200 11:41 24.03.2020
866 Rain 26 1009 94 10000 0.5 200 11:21 24.03.2020
867 Rain 26 1008 94 10000 2.28 62 10:59 24.03.2020
868 Rain 26 1008 94 10000 1 60 10:40 24.03.2020
869 Rain 26 1008 94 10000 1 60 10:18 24.03.2020
870 Rain 26 1008 94 10000 1 60 10:18 24.03.2020
871 Thunderstorm 26 1008 94 8000 4.1 320 09:45 24.03.2020
872 Thunderstorm 26 1008 94 1200 4.1 360 09:26 24.03.2020
873 Thunderstorm 26 1008 94 5000 3.1 20 08:57 24.03.2020
874 Rain 29 1006 74 10000 5.1 360 08:37 24.03.2020
875 Rain 30 1006 74 10000 5.1 360 08:18 24.03.2020
876 Rain 31 1006 70 10000 1.5 290 07:44 24.03.2020
877 Clouds 31 1006 74 10000 0.5 350 07:22 24.03.2020
878 Rain 29 1007 83 10000 3.6 50 06:40 24.03.2020
879 Rain 30 1007 74 9000 3.1 60 06:18 24.03.2020
880 Rain 30 1008 74 10000 3.6 100 04:51 24.03.2020
881 Rain 29 1009 83 10000 2.6 80 03:22 24.03.2020
882 Clouds 29 1010 83 10000 2.6 90 02:43 24.03.2020
883 Clouds 30 1010 74 10000 1.34 67 00:57 24.03.2020
884 Clouds 29 1010 83 10000 1 30 00:28 24.03.2020
885 Clouds 28 1009 88 10000 1 10 23:58 23.03.2020
886 Clouds 28 1009 88 10000 1.5 50 23:38 23.03.2020
887 Clouds 27 1009 88 10000 2.1 10 23:19 23.03.2020
888 Clouds 26 1008 94 10000 1.5 20 22:44 23.03.2020
889 Clouds 26 1008 94 10000 1.5 20 22:23 23.03.2020
890 Clouds 26 1008 88 10000 2.6 60 21:55 23.03.2020
891 Rain 26 1008 88 10000 2.1 110 21:37 23.03.2020
892 Rain 26 1008 88 10000 2.1 110 21:18 23.03.2020
893 Rain 26 1008 88 10000 2.1 110 21:18 23.03.2020
894 Clouds 26 1008 88 10000 1.5 80 20:54 23.03.2020
895 Clouds 27 1007 88 10000 0.5 110 20:36 23.03.2020
896 Clouds 27 1007 88 10000 0.5 110 20:18 23.03.2020
897 Clouds 27 1007 88 10000 0.5 110 20:18 23.03.2020
898 Rain 27 1008 88 10000 0.5 130 19:41 23.03.2020
899 Rain 27 1008 88 10000 0.5 130 19:22 23.03.2020
900 Rain 27 1009 88 10000 0.5 180 18:56 23.03.2020
901 Rain 27 1009 88 10000 0.5 180 18:38 23.03.2020
902 Rain 27 1009 88 10000 0.5 180 18:18 23.03.2020
903 Rain 27 1009 83 10000 1.5 230 17:41 23.03.2020
904 Rain 27 1009 83 10000 1.5 240 17:20 23.03.2020
905 Rain 27 1009 83 10000 1.5 240 16:55 23.03.2020
906 Rain 27 1009 83 10000 1.5 240 16:36 23.03.2020
907 Rain 27 1009 83 10000 1.5 240 16:18 23.03.2020
908 Clouds 27 1009 83 10000 2.6 270 15:40 23.03.2020
909 Clouds 27 1009 83 10000 2.6 270 15:19 23.03.2020
910 Clouds 28 1009 83 10000 2.6 270 14:38 23.03.2020
911 Clouds 28 1009 83 10000 2.6 270 14:19 23.03.2020
912 Clouds 28 1009 83 10000 2.6 260 13:57 23.03.2020
913 Clouds 28 1009 83 10000 3.1 270 13:38 23.03.2020
914 Clouds 28 1009 83 10000 3.1 270 13:38 23.03.2020
915 Clouds 28 1009 83 10000 3.1 270 13:38 23.03.2020
916 Clouds 28 1009 83 10000 3.1 270 13:20 23.03.2020
917 Clouds 28 1009 74 10000 2.6 290 12:44 23.03.2020
918 Clouds 28 1009 74 10000 2.6 290 12:25 23.03.2020
919 Clouds 28 1009 74 10000 2.6 290 11:57 23.03.2020
920 Clouds 28 1008 74 10000 2.6 290 11:38 23.03.2020
921 Clouds 28 1008 74 10000 2.6 290 11:38 23.03.2020
922 Clouds 28 1008 79 10000 3.1 290 11:19 23.03.2020
923 Clouds 29 1008 79 10000 3.1 290 10:56 23.03.2020
924 Clouds 29 1008 70 10000 3.6 300 10:37 23.03.2020
925 Clouds 30 1008 70 10000 3.6 300 10:19 23.03.2020
926 Clouds 30 1007 66 10000 4.1 310 09:43 23.03.2020
927 Clouds 31 1007 66 10000 4.1 310 09:21 23.03.2020
928 Clouds 31 1007 74 10000 3.6 310 08:40 23.03.2020
929 Clouds 31 1007 74 10000 3.6 310 08:20 23.03.2020
930 Rain 30 1007 79 10000 3.6 290 07:59 23.03.2020
931 Rain 30 1007 79 10000 3.6 290 07:59 23.03.2020
932 Rain 29 1008 83 8000 5.1 330 07:40 23.03.2020
933 Clouds 30 1008 70 10000 4.1 330 07:19 23.03.2020
934 Clouds 32 1008 70 10000 4.1 330 06:48 23.03.2020
935 Clouds 33 1008 41 10000 3.1 130 05:50 23.03.2020
936 Clouds 34 1009 49 10000 1 190 04:57 23.03.2020
937 Clouds 32 1011 58 10000 2.6 200 03:24 23.03.2020
938 Clouds 30 1012 79 10000 2.1 200 01:50 23.03.2020
939 Clouds 30 1012 79 10000 2.1 180 00:52 23.03.2020
940 Clouds 29 1011 79 10000 1.5 160 00:33 23.03.2020
941 Clouds 27 1011 88 10000 0.5 110 23:46 22.03.2020
942 Clouds 27 1011 88 10000 0.5 110 23:25 22.03.2020
943 Clouds 27 1010 88 10000 1 110 22:45 22.03.2020
944 Clouds 27 1010 88 10000 1 110 22:23 22.03.2020
945 Clouds 27 1010 88 10000 1.5 130 21:55 22.03.2020
946 Rain 27 1010 88 10000 2.6 190 21:37 22.03.2020
947 Rain 27 1010 88 10000 2.6 190 21:18 22.03.2020
948 Clouds 27 1010 83 10000 0.5 260 20:46 22.03.2020
949 Clouds 27 1010 78 10000 1 250 20:25 22.03.2020
950 Clouds 27 1010 78 10000 1 250 20:25 22.03.2020
951 Clouds 27 1010 78 10000 2.1 320 19:58 22.03.2020
952 Clouds 27 1010 78 10000 2.1 330 19:40 22.03.2020
953 Clouds 28 1010 78 10000 2.1 330 19:20 22.03.2020
954 Clear 28 1010 78 10000 2.1 340 18:59 22.03.2020
955 Clouds 28 1010 74 10000 2.6 320 18:41 22.03.2020
956 Clouds 28 1010 74 10000 2.6 320 18:22 22.03.2020
957 Clouds 28 1010 74 10000 3.1 330 17:59 22.03.2020
958 Clouds 29 1011 74 10000 3.1 320 17:39 22.03.2020
959 Clouds 28 1011 78 10000 3.1 290 17:20 22.03.2020
960 Clouds 28 1011 78 10000 3.1 290 16:58 22.03.2020
961 Clouds 28 1011 74 10000 2.1 270 16:39 22.03.2020
962 Clouds 27 1011 74 10000 2.1 270 16:21 22.03.2020
963 Clouds 27 1011 83 10000 1.5 250 15:56 22.03.2020
964 Clear 26 1011 83 10000 1 290 15:38 22.03.2020
965 Clear 27 1011 78 10000 1 270 14:47 22.03.2020
966 Clouds 28 1011 74 10000 1.5 300 14:19 22.03.2020
967 Clouds 27 1011 70 10000 2.1 260 13:55 22.03.2020
968 Clouds 28 1011 70 10000 1.5 300 13:37 22.03.2020
969 Clouds 28 1011 70 10000 1.5 300 13:19 22.03.2020
970 Clouds 28 1011 66 10000 1.5 330 12:43 22.03.2020
971 Clouds 28 1010 66 10000 2.6 330 12:20 22.03.2020
972 Clouds 29 1010 66 10000 2.6 330 11:56 22.03.2020
973 Clouds 29 1010 66 10000 2.6 320 11:37 22.03.2020
974 Clouds 29 1010 66 10000 2.6 320 11:19 22.03.2020
975 Clouds 30 1009 58 10000 4.1 300 10:43 22.03.2020
976 Clouds 30 1009 58 10000 4.1 300 10:23 22.03.2020
977 Clouds 31 1009 59 10000 4.1 320 09:48 22.03.2020
978 Clouds 32 1009 52 10000 3.6 300 09:29 22.03.2020
979 Clouds 34 1008 38 10000 3.1 310 08:54 22.03.2020
980 Clouds 34 1008 38 10000 3.1 310 08:54 22.03.2020
981 Clouds 34 1008 43 10000 1 10 08:36 22.03.2020
982 Clouds 33 1008 43 10000 1 10 08:18 22.03.2020
983 Clouds 34 1008 39 10000 4.6 180 07:41 22.03.2020
984 Clouds 35 1008 39 10000 4.6 180 07:18 22.03.2020
985 Clouds 34 1009 36 10000 5.7 130 05:54 22.03.2020
986 Clouds 33 1011 46 10000 3.6 110 04:50 22.03.2020
987 Clouds 32 1012 58 10000 5.1 330 02:43 22.03.2020
988 Clouds 30 1013 62 10000 3.1 70 01:20 22.03.2020
989 Clouds 30 1012 62 10000 4.1 110 00:35 22.03.2020
990 Clouds 28 1012 69 10000 3.1 100 23:57 21.03.2020
991 Clouds 27 1011 65 10000 3.6 130 23:38 21.03.2020
992 Clouds 25 1012 78 10000 4.6 110 23:18 21.03.2020
993 Rain 24 1011 83 10000 5.7 90 22:38 21.03.2020
994 Rain 24 1011 83 10000 5.7 90 22:20 21.03.2020
995 Rain 25 1011 83 10000 2.1 70 21:59 21.03.2020
996 Clouds 26 1011 83 10000 3.1 60 21:39 21.03.2020
997 Clouds 26 1011 83 10000 3.1 60 21:21 21.03.2020
998 Clouds 26 1011 88 10000 4.1 60 20:45 21.03.2020
999 Clouds 27 1011 88 10000 1.5 10 20:23 21.03.2020
1000 Clouds 27 1010 83 10000 0.5 320 19:57 21.03.2020
1001 Rain 27 1011 83 10000 1.5 310 19:38 21.03.2020
1002 Rain 27 1011 83 10000 1.5 310 19:19 21.03.2020
1003 Rain 27 1011 83 10000 1 360 18:54 21.03.2020
1004 Clouds 27 1011 83 10000 2.6 30 18:36 21.03.2020
1005 Clouds 28 1011 83 10000 2.6 30 18:18 21.03.2020
1006 Clouds 28 1011 83 10000 2.6 30 18:18 21.03.2020
1007 Clouds 28 1011 78 10000 3.6 360 17:42 21.03.2020
1008 Clouds 28 1011 78 10000 3.6 360 17:23 21.03.2020
1009 Clouds 28 1012 78 10000 1 30 16:56 21.03.2020
1010 Clouds 28 1012 78 10000 1.5 360 16:38 21.03.2020
1011 Clouds 27 1012 78 10000 1.5 360 16:18 21.03.2020
1012 Clouds 27 1012 70 10000 2.1 260 15:41 21.03.2020
1013 Clouds 28 1012 70 10000 2.1 260 15:23 21.03.2020
1014 Clouds 27 1012 78 10000 1.5 290 14:58 21.03.2020
1015 Clouds 27 1012 78 10000 1.5 290 14:58 21.03.2020
1016 Clouds 28 1012 79 10000 1 340 14:40 21.03.2020
1017 Clouds 28 1012 79 10000 1 340 14:20 21.03.2020
1018 Clouds 28 1012 79 10000 1 340 13:59 21.03.2020
1019 Clouds 28 1012 74 10000 1 340 13:40 21.03.2020
1020 Clouds 28 1012 74 10000 1 340 13:21 21.03.2020
1021 Clouds 28 1012 74 10000 1 340 13:21 21.03.2020
1022 Clouds 28 1011 70 10000 1.5 340 12:58 21.03.2020
1023 Clouds 28 1011 66 10000 1.5 340 12:37 21.03.2020
1024 Clouds 29 1011 66 10000 2.1 350 12:19 21.03.2020
1025 Clouds 29 1011 66 10000 2.1 350 11:55 21.03.2020
1026 Clouds 29 1010 66 10000 2.6 360 11:37 21.03.2020
1027 Clouds 29 1010 66 10000 3.6 350 11:18 21.03.2020
1028 Clouds 29 1010 66 10000 3.6 350 10:56 21.03.2020
1029 Clouds 30 1010 62 10000 4.6 360 10:38 21.03.2020
1030 Clouds 30 1010 62 10000 4.6 360 10:19 21.03.2020
1031 Clouds 31 1009 66 10000 3.6 360 09:55 21.03.2020
1032 Clouds 32 1009 59 10000 4.1 350 09:37 21.03.2020
1033 Clouds 32 1009 59 10000 4.1 350 09:18 21.03.2020
1034 Clouds 33 1009 46 10000 3.1 360 08:43 21.03.2020
1035 Clouds 33 1009 46 10000 2.1 80 08:24 21.03.2020
1036 Clouds 34 1009 44 10000 4.1 80 07:43 21.03.2020
1037 Clouds 34 1009 44 10000 4.6 90 07:23 21.03.2020
1038 Clouds 34 1010 44 10000 3.6 120 06:47 21.03.2020
1039 Clouds 34 1010 44 10000 3.6 120 06:27 21.03.2020
1040 Clouds 34 1011 49 10000 4.6 70 05:46 21.03.2020
1041 Clouds 34 1012 49 10000 6.2 50 04:46 21.03.2020
1042 Clouds 32 1013 59 10000 6.2 50 02:51 21.03.2020
1043 Clouds 31 1013 62 10000 6.2 50 02:33 21.03.2020
1044 Clouds 30 1014 70 10000 5.7 70 01:32 21.03.2020
1045 Clouds 30 1013 74 10000 6.2 90 00:48 21.03.2020
1046 Clouds 29 1013 74 10000 5.1 90 00:26 21.03.2020
1047 Clouds 28 1012 78 10000 5.1 90 23:51 20.03.2020
1048 Clouds 27 1012 83 10000 3.6 110 23:27 20.03.2020
1049 Clouds 27 1012 83 10000 3.6 110 22:57 20.03.2020
1050 Clouds 26 1011 94 10000 2.6 120 22:39 20.03.2020
1051 Clouds 26 1011 94 10000 2.6 120 22:20 20.03.2020
1052 Clouds 26 1011 94 10000 3.6 140 21:55 20.03.2020
1053 Clouds 26 1011 94 10000 3.1 140 21:37 20.03.2020
1054 Clouds 26 1011 94 10000 3.1 140 21:18 20.03.2020
1055 Clouds 26 1011 94 10000 2.6 150 20:55 20.03.2020
1056 Clouds 26 1011 88 10000 2.1 140 20:37 20.03.2020
1057 Rain 26 1011 88 10000 2.1 140 20:18 20.03.2020
1058 Rain 26 1010 88 10000 1.5 130 19:44 20.03.2020
1059 Rain 26 1011 88 10000 1 60 19:18 20.03.2020
1060 Rain 26 1011 88 10000 1 60 18:55 20.03.2020
1061 Rain 26 1011 88 10000 1 60 18:36 20.03.2020
1062 Rain 27 1011 88 10000 2.1 60 18:18 20.03.2020
1063 Rain 27 1011 83 10000 3.1 50 17:39 20.03.2020
1064 Rain 27 1011 83 10000 3.1 50 17:21 20.03.2020
1065 Rain 27 1011 83 10000 3.1 50 16:57 20.03.2020
1066 Rain 27 1012 83 10000 3.1 60 16:39 20.03.2020
1067 Rain 28 1012 83 10000 3.1 60 16:18 20.03.2020
1068 Rain 28 1012 83 10000 2.6 60 15:42 20.03.2020
1069 Rain 28 1012 83 10000 2.6 60 15:22 20.03.2020
1070 Rain 28 1012 83 10000 3.1 50 14:56 20.03.2020
1071 Rain 28 1012 83 10000 2.6 50 14:37 20.03.2020
1072 Rain 28 1012 83 10000 2.6 50 14:18 20.03.2020
1073 Rain 28 1012 79 10000 2.1 50 13:43 20.03.2020
1074 Rain 29 1012 79 10000 2.1 50 13:19 20.03.2020
1075 Rain 29 1012 79 10000 2.6 40 12:41 20.03.2020
1076 Rain 29 1011 79 10000 2.6 30 12:23 20.03.2020
1077 Rain 29 1011 79 10000 2.6 30 11:59 20.03.2020
1078 Rain 29 1011 70 10000 3.1 20 11:38 20.03.2020
1079 Clouds 29 1011 70 10000 4.1 20 11:19 20.03.2020
1080 Clouds 30 1010 62 10000 3.6 50 10:42 20.03.2020
1081 Clouds 30 1010 62 10000 3.6 50 10:21 20.03.2020
1082 Clouds 31 1010 62 10000 4.1 50 09:59 20.03.2020
1083 Clouds 31 1010 55 10000 4.1 40 09:41 20.03.2020
1084 Clouds 32 1010 55 10000 4.1 40 09:19 20.03.2020
1085 Clouds 33 1009 52 10000 4.6 60 08:43 20.03.2020
1086 Clouds 33 1010 52 10000 4.6 30 08:22 20.03.2020
1087 Clouds 33 1010 52 10000 5.1 60 07:57 20.03.2020
1088 Clouds 33 1010 52 10000 5.7 60 07:38 20.03.2020
1089 Clouds 33 1010 52 10000 5.7 60 07:19 20.03.2020
1090 Clouds 33 1010 49 10000 5.7 80 06:42 20.03.2020
1091 Clouds 33 1011 46 10000 5.1 80 04:54 20.03.2020
1092 Clouds 33 1012 49 10000 6.7 70 04:26 20.03.2020
1093 Clouds 32 1013 55 10000 5.7 80 02:27 20.03.2020
1094 Clouds 31 1013 58 10000 5.1 100 01:47 20.03.2020
1095 Clouds 30 1012 66 10000 3.1 120 00:33 20.03.2020
1096 Clouds 28 1012 78 10000 1.5 120 23:55 19.03.2020
1097 Clouds 28 1012 78 10000 1.5 120 23:36 19.03.2020
1098 Clouds 26 1011 83 10000 2.6 100 23:18 19.03.2020
1099 Clouds 25 1011 88 10000 2.1 110 22:38 19.03.2020
1100 Clouds 25 1011 88 10000 2.1 110 22:20 19.03.2020
1101 Clouds 26 1011 88 10000 1.5 120 21:57 19.03.2020
1102 Clouds 26 1011 88 10000 3.6 70 21:38 19.03.2020
1103 Rain 26 1011 88 10000 3.6 70 21:18 19.03.2020
1104 Rain 26 1010 88 10000 1.5 170 20:42 19.03.2020
1105 Rain 26 1010 88 10000 1.5 170 20:42 19.03.2020
1106 Rain 26 1010 88 10000 1.5 170 20:24 19.03.2020
1107 Clear 26 1011 88 10000 1.5 160 19:57 19.03.2020
1108 Clear 27 1010 88 10000 2.1 170 19:38 19.03.2020
1109 Clear 26 1011 88 10000 1.5 170 19:20 19.03.2020
1110 Clear 26 1011 88 10000 1.5 170 18:57 19.03.2020
1111 Clear 26 1011 88 10000 1.5 160 18:38 19.03.2020
1112 Clear 26 1011 88 10000 1.5 160 18:20 19.03.2020
1113 Clear 26 1011 88 10000 1.5 80 17:43 19.03.2020
1114 Clear 26 1011 88 10000 1 50 17:20 19.03.2020
1115 Clear 26 1011 88 10000 1 50 16:57 19.03.2020
1116 Clear 26 1012 88 10000 0.5 50 16:39 19.03.2020
1117 Clear 27 1012 88 10000 0.5 50 16:21 19.03.2020
1118 Clear 27 1012 88 10000 1.56 64 15:41 19.03.2020
1119 Clear 26 1012 88 10000 1.56 64 15:23 19.03.2020
1120 Clear 27 1012 83 10000 1 50 14:43 19.03.2020
1121 Clear 28 1012 83 10000 1.5 20 14:22 19.03.2020
1122 Clouds 28 1012 74 10000 1 350 13:56 19.03.2020
1123 Clouds 28 1012 74 10000 1 320 13:37 19.03.2020
1124 Clouds 28 1012 74 10000 1 360 13:18 19.03.2020
1125 Clouds 28 1012 74 10000 3.1 30 12:40 19.03.2020
1126 Clouds 28 1012 74 10000 3.1 30 12:22 19.03.2020
1127 Clouds 29 1011 70 10000 3.1 20 11:57 19.03.2020
1128 Clouds 29 1011 70 10000 3.1 20 11:38 19.03.2020
1129 Clouds 30 1010 70 10000 3.1 30 11:19 19.03.2020
1130 Clouds 30 1010 66 10000 3.1 10 10:41 19.03.2020
1131 Clouds 31 1010 66 10000 3.1 10 10:20 19.03.2020
1132 Clouds 32 1010 43 10000 3.1 90 09:57 19.03.2020
1133 Clouds 32 1009 43 10000 3.6 90 09:37 19.03.2020
1134 Clouds 33 1009 43 10000 3.6 90 09:18 19.03.2020
1135 Clouds 33 1010 43 10000 4.6 90 08:42 19.03.2020
1136 Clouds 34 1010 43 10000 4.6 90 08:21 19.03.2020
1137 Clear 33 1010 46 10000 4.1 70 07:46 19.03.2020
1138 Clouds 34 1010 41 10000 5.7 70 07:28 19.03.2020
1139 Clouds 34 1010 46 10000 5.1 80 06:43 19.03.2020
1140 Clouds 34 1011 46 10000 3.6 80 05:48 19.03.2020
1141 Clouds 33 1012 52 10000 4.1 100 04:57 19.03.2020
1142 Clouds 33 1012 52 10000 5.7 70 04:39 19.03.2020
1143 Clouds 31 1014 58 10000 6.2 100 02:49 19.03.2020
1144 Clouds 30 1014 62 10000 4.6 100 01:21 19.03.2020
1145 Clouds 28 1013 74 10000 3.6 110 00:28 19.03.2020
1146 Clouds 27 1012 88 10000 2.1 150 23:51 18.03.2020
1147 Clouds 26 1012 88 10000 2.1 150 23:30 18.03.2020
1148 Clouds 26 1012 88 10000 2.1 150 23:30 18.03.2020
1149 Clouds 26 1012 88 10000 2.1 150 23:30 18.03.2020
1150 Clouds 25 1012 88 10000 3.1 110 22:56 18.03.2020
1151 Clouds 25 1012 88 10000 2.6 90 22:38 18.03.2020
1152 Clouds 25 1012 88 10000 2.6 90 22:20 18.03.2020
1153 Clouds 25 1011 94 10000 1.5 70 21:42 18.03.2020
1154 Clouds 25 1011 94 10000 1.5 70 21:21 18.03.2020
1155 Clouds 25 1011 94 10000 2.6 80 20:59 18.03.2020
1156 Rain 25 1011 94 10000 3.6 50 20:40 18.03.2020
1157 Rain 25 1011 94 10000 3.6 50 20:20 18.03.2020
1158 Rain 25 1011 88 10000 3.6 140 19:58 18.03.2020
1159 Rain 25 1012 88 7000 7.2 90 19:39 18.03.2020
1160 Rain 25 1012 88 7000 7.2 90 19:20 18.03.2020
1161 Clouds 27 1011 83 10000 2.1 60 18:42 18.03.2020
1162 Clouds 27 1011 83 10000 2.1 60 18:21 18.03.2020
1163 Clouds 27 1011 83 10000 2.1 60 18:21 18.03.2020
1164 Clouds 27 1011 83 10000 2.1 60 17:59 18.03.2020
1165 Clouds 27 1012 78 10000 3.1 50 17:41 18.03.2020
1166 Clouds 27 1012 83 10000 2.6 60 17:22 18.03.2020
1167 Clouds 27 1012 83 10000 2.6 60 17:22 18.03.2020
1168 Clouds 27 1012 83 10000 2.6 60 16:58 18.03.2020
1169 Clouds 26 1012 83 10000 2.1 70 16:40 18.03.2020
1170 Clouds 27 1012 83 10000 2.1 70 16:20 18.03.2020
1171 Rain 27 1013 78 10000 2.1 90 15:45 18.03.2020
1172 Rain 27 1013 78 10000 2.1 90 15:23 18.03.2020
1173 Rain 27 1013 78 10000 1.5 110 14:57 18.03.2020
1174 Rain 27 1012 74 10000 1.5 80 14:39 18.03.2020
1175 Rain 28 1012 74 10000 1.5 80 14:20 18.03.2020
1176 Clouds 28 1012 74 10000 2.1 70 13:39 18.03.2020
1177 Clouds 28 1012 74 10000 2.1 70 13:19 18.03.2020
1178 Clouds 28 1012 74 10000 2.1 70 13:19 18.03.2020
1179 Clouds 28 1012 70 10000 1.5 50 12:42 18.03.2020
1180 Clouds 29 1012 70 10000 1.5 50 12:20 18.03.2020
1181 Clouds 29 1011 66 10000 2.1 70 11:57 18.03.2020
1182 Clouds 29 1011 66 10000 2.1 70 11:37 18.03.2020
1183 Clouds 29 1011 62 10000 2.1 70 11:18 18.03.2020
1184 Clouds 29 1011 62 10000 2.1 70 10:54 18.03.2020
1185 Clouds 30 1010 52 10000 2.6 70 10:36 18.03.2020
1186 Clouds 30 1010 52 10000 2.6 70 10:36 18.03.2020
1187 Clouds 30 1010 52 10000 2.6 70 10:18 18.03.2020
1188 Clouds 32 1009 46 10000 1 320 09:41 18.03.2020
1189 Clouds 32 1009 46 10000 1 320 09:22 18.03.2020
1190 Clouds 33 1009 62 10000 3.1 310 08:40 18.03.2020
1191 Clouds 32 1009 62 10000 3.1 310 08:21 18.03.2020
1192 Rain 31 1010 66 10000 3.6 290 07:49 18.03.2020
1193 Rain 31 1010 66 10000 3.1 300 07:31 18.03.2020
1194 Rain 31 1010 66 10000 2.6 340 06:55 18.03.2020
1195 Rain 31 1010 74 10000 2.6 310 06:37 18.03.2020
1196 Rain 29 1010 83 5000 6.7 30 05:37 18.03.2020
1197 Clouds 32 1012 58 10000 3.1 60 04:38 18.03.2020
1198 Clouds 32 1013 66 10000 3.1 50 03:21 18.03.2020
1199 Rain 32 1013 57 10000 1.5 130 02:36 18.03.2020
1200 Clouds 30 1014 70 10000 1.5 60 01:42 18.03.2020
1201 Rain 29 1014 88 10000 2.1 60 00:43 18.03.2020
1202 Rain 28 1014 88 10000 2.1 60 00:21 18.03.2020
1203 Rain 27 1013 83 10000 1 80 23:42 17.03.2020
1204 Rain 26 1013 88 10000 2.1 80 23:20 17.03.2020
1205 Clouds 26 1012 94 10000 1.5 100 22:45 17.03.2020
1206 Clouds 26 1012 94 10000 1.5 100 22:26 17.03.2020
1207 Clouds 26 1012 94 10000 0.5 40 21:43 17.03.2020
1208 Clouds 25 1012 94 10000 1.5 10 21:23 17.03.2020
1209 Clouds 26 1011 94 10000 0.5 10 20:58 17.03.2020
1210 Clouds 26 1011 88 10000 0.5 20 20:38 17.03.2020
1211 Clouds 26 1011 88 10000 0.5 20 20:19 17.03.2020
1212 Clouds 26 1011 88 10000 2.6 40 19:42 17.03.2020
1213 Rain 27 1011 88 10000 1.5 10 19:20 17.03.2020
1214 Rain 27 1011 88 10000 1.5 10 18:57 17.03.2020
1215 Rain 27 1012 88 10000 2.1 60 18:39 17.03.2020
1216 Rain 27 1012 88 10000 1.5 70 18:21 17.03.2020
1217 Rain 27 1012 88 10000 1.5 70 17:56 17.03.2020
1218 Rain 27 1012 88 10000 1 70 17:38 17.03.2020
1219 Rain 28 1012 78 10000 2.1 340 17:18 17.03.2020
1220 Clouds 28 1012 78 10000 2.1 350 16:42 17.03.2020
1221 Clouds 28 1012 78 10000 2.1 350 16:19 17.03.2020
1222 Clouds 28 1012 78 10000 2.1 350 16:19 17.03.2020
1223 Clouds 28 1013 74 10000 2.1 350 15:45 17.03.2020
1224 Clouds 28 1013 74 10000 2.1 350 15:23 17.03.2020
1225 Clouds 27 1013 78 10000 1.5 360 14:47 17.03.2020
1226 Clouds 27 1013 74 10000 1.5 350 14:27 17.03.2020
1227 Rain 28 1012 74 10000 1.5 340 13:58 17.03.2020
1228 Rain 27 1012 66 10000 2.1 350 13:40 17.03.2020
1229 Rain 28 1012 66 10000 2.1 350 13:21 17.03.2020
1230 Clouds 28 1011 66 10000 2.6 350 12:47 17.03.2020
1231 Clouds 28 1011 66 10000 2.6 350 12:25 17.03.2020
1232 Clouds 28 1011 66 10000 1.5 270 11:56 17.03.2020
1233 Rain 29 1011 58 10000 1.5 290 11:38 17.03.2020
1234 Clouds 29 1010 58 10000 2.1 280 11:20 17.03.2020
1235 Clouds 30 1010 58 10000 2.1 280 10:54 17.03.2020
1236 Clouds 30 1010 55 10000 3.1 300 10:36 17.03.2020
1237 Clouds 31 1010 55 10000 3.1 300 10:18 17.03.2020
1238 Clouds 32 1010 52 10000 3.1 330 09:44 17.03.2020
1239 Clouds 34 1010 49 10000 3.6 340 09:20 17.03.2020
1240 Clouds 34 1009 49 10000 3.1 330 08:51 17.03.2020
1241 Clouds 33 1010 46 10000 3.6 290 08:24 17.03.2020
1242 Clouds 34 1010 49 10000 3.1 310 07:58 17.03.2020
1243 Clouds 33 1010 46 10000 2.6 300 07:40 17.03.2020
1244 Clouds 34 1010 49 10000 3.6 300 07:19 17.03.2020
1245 Clouds 34 1010 52 10000 3.6 300 06:41 17.03.2020
1246 Clouds 34 1010 52 10000 3.6 300 06:19 17.03.2020
1247 Clouds 34 1012 55 10000 2.1 270 04:51 17.03.2020
1248 Clouds 33 1013 55 10000 0.5 330 03:26 17.03.2020
1249 Clouds 29 1014 69 10000 5.1 330 01:50 17.03.2020
1250 Clouds 28 1014 78 10000 5.1 330 01:29 17.03.2020
1251 Clouds 26 1014 83 10000 2.6 110 00:50 17.03.2020
1252 Clouds 26 1013 94 10000 2.1 110 23:52 16.03.2020
1253 Clouds 26 1013 94 10000 2.1 110 23:34 16.03.2020
1254 Clouds 26 1012 94 10000 1.23 111 22:55 16.03.2020
1255 Clouds 26 1012 88 10000 2.1 220 22:36 16.03.2020
1256 Clouds 26 1012 88 10000 2.1 220 22:18 16.03.2020
1257 Clouds 26 1011 83 10000 1.5 210 21:41 16.03.2020
1258 Clouds 27 1011 83 10000 1.5 210 21:23 16.03.2020
1259 Clouds 27 1011 78 10000 2.1 230 20:58 16.03.2020
1260 Clouds 27 1011 83 10000 1.5 230 20:38 16.03.2020
1261 Rain 27 1011 83 10000 1.5 230 20:20 16.03.2020
1262 Clouds 26 1011 88 10000 1 260 19:42 16.03.2020
1263 Clouds 26 1011 88 10000 1 260 19:23 16.03.2020
1264 Clouds 26 1011 88 10000 1.5 300 18:57 16.03.2020
1265 Clouds 26 1011 88 10000 1.5 300 18:37 16.03.2020
1266 Clouds 27 1011 88 10000 1.5 310 18:18 16.03.2020
1267 Clouds 27 1011 83 10000 2.1 310 17:43 16.03.2020
1268 Clouds 27 1011 83 10000 2.1 310 17:24 16.03.2020
1269 Clouds 27 1011 83 10000 2.1 290 16:47 16.03.2020
1270 Clouds 27 1011 83 10000 2.6 280 16:29 16.03.2020
1271 Clouds 28 1011 79 10000 3.6 280 15:57 16.03.2020
1272 Clouds 28 1011 79 10000 3.1 280 15:39 16.03.2020
1273 Clouds 28 1011 79 10000 3.1 280 15:19 16.03.2020
1274 Clouds 28 1011 79 10000 2.6 290 14:43 16.03.2020
1275 Clouds 28 1011 83 10000 3.1 290 14:19 16.03.2020
1276 Clouds 28 1011 83 10000 3.6 290 13:42 16.03.2020
1277 Clouds 29 1011 79 10000 3.1 290 13:24 16.03.2020
1278 Clouds 29 1011 66 10000 2.6 340 12:55 16.03.2020
1279 Clouds 28 1011 70 10000 2.6 350 12:36 16.03.2020
1280 Clouds 29 1010 62 10000 1.5 350 12:18 16.03.2020
1281 Clouds 29 1010 55 10000 1.5 330 11:41 16.03.2020
1282 Clouds 30 1010 46 10000 2.1 320 11:19 16.03.2020
1283 Clouds 31 1009 41 10000 3.1 350 10:43 16.03.2020
1284 Clouds 31 1009 41 10000 3.1 350 10:24 16.03.2020
1285 Clouds 33 1009 41 10000 4.1 10 09:46 16.03.2020
1286 Clouds 33 1009 41 10000 4.1 30 09:28 16.03.2020
1287 Clouds 34 1009 41 10000 4.6 10 08:59 16.03.2020
1288 Clouds 34 1009 44 10000 3.6 20 08:26 16.03.2020
1289 Clouds 34 1009 44 10000 4.6 20 07:56 16.03.2020
1290 Clouds 34 1009 46 10000 3.6 10 07:38 16.03.2020
1291 Clouds 34 1009 46 10000 3.6 10 07:18 16.03.2020
1292 Clouds 34 1009 49 10000 2.6 30 06:27 16.03.2020
1293 Clouds 34 1010 46 10000 3.6 360 05:54 16.03.2020
1294 Clear 33 1011 49 10000 4.1 70 03:31 16.03.2020
1295 Clouds 30 1012 62 10000 4.1 70 01:20 16.03.2020
1296 Clouds 28 1012 78 10000 2.6 100 00:43 16.03.2020
1297 Clouds 26 1011 83 10000 4.6 70 23:49 15.03.2020
1298 Clouds 25 1011 83 10000 4.6 70 23:22 15.03.2020
1299 Clouds 25 1011 83 10000 3.1 270 22:58 15.03.2020
1300 Clouds 25 1010 78 10000 4.1 130 22:37 15.03.2020
1301 Clouds 25 1010 78 10000 4.1 130 22:19 15.03.2020
1302 Clouds 25 1010 78 10000 2.1 190 21:39 15.03.2020
1303 Clouds 25 1010 78 10000 2.1 190 21:19 15.03.2020
1304 Rain 25 1009 83 10000 1 310 20:44 15.03.2020
1305 Clouds 25 1009 83 10000 3.1 320 20:22 15.03.2020
1306 Rain 25 1010 88 10000 2.1 310 19:59 15.03.2020
1307 Rain 25 1010 88 10000 3.1 150 19:40 15.03.2020
1308 Rain 25 1010 88 10000 3.1 150 19:22 15.03.2020
1309 Rain 25 1010 83 10000 7.2 110 18:58 15.03.2020
1310 Rain 25 1010 83 10000 6.7 120 18:39 15.03.2020
1311 Rain 25 1010 83 10000 6.7 120 18:21 15.03.2020
1312 Clouds 25 1010 88 10000 5.1 110 17:54 15.03.2020
1313 Clouds 25 1010 83 10000 4.1 120 17:36 15.03.2020
1314 Clouds 25 1010 83 10000 5.1 360 17:18 15.03.2020
1315 Rain 24 1011 94 10000 1.5 90 16:42 15.03.2020
1316 Rain 24 1011 94 10000 1.5 90 16:23 15.03.2020
1317 Rain 25 1012 88 9000 4.6 130 15:57 15.03.2020
1318 Rain 25 1011 94 3000 6.2 150 15:38 15.03.2020
1319 Rain 25 1011 94 3000 6.2 150 15:19 15.03.2020
1320 Thunderstorm 27 1011 83 10000 7.7 150 14:43 15.03.2020
1321 Clouds 29 1010 79 10000 2.1 290 14:24 15.03.2020
1322 Clouds 28 1010 79 10000 2.6 290 13:57 15.03.2020
1323 Clouds 28 1009 83 10000 3.1 280 13:38 15.03.2020
1324 Clouds 28 1009 83 10000 3.1 280 13:19 15.03.2020
1325 Clouds 28 1009 83 10000 2.6 280 12:41 15.03.2020
1326 Clouds 29 1009 83 10000 2.6 280 12:23 15.03.2020
1327 Clouds 29 1008 79 10000 3.1 280 11:45 15.03.2020
1328 Clouds 29 1008 79 10000 3.1 280 11:26 15.03.2020
1329 Clouds 29 1008 74 10000 2.6 290 10:59 15.03.2020
1330 Rain 30 1007 62 10000 1 260 10:41 15.03.2020
1331 Rain 30 1007 62 10000 1 260 10:22 15.03.2020
1332 Rain 30 1007 62 10000 1 260 10:22 15.03.2020
1333 Rain 30 1007 62 10000 1.5 270 09:59 15.03.2020
1334 Rain 30 1007 62 10000 1.5 270 09:59 15.03.2020
1335 Clouds 31 1007 62 10000 3.1 270 09:39 15.03.2020
1336 Clouds 31 1007 62 10000 3.1 270 09:20 15.03.2020
1337 Clouds 31 1007 70 10000 5.1 270 08:41 15.03.2020
1338 Clouds 32 1007 70 10000 6.2 290 08:20 15.03.2020
1339 Clouds 33 1007 70 10000 6.7 300 07:50 15.03.2020
1340 Clouds 33 1007 66 10000 6.2 300 07:23 15.03.2020
1341 Clouds 33 1007 66 10000 4.6 310 06:44 15.03.2020
1342 Clouds 33 1008 66 10000 2.1 300 05:49 15.03.2020
1343 Clouds 32 1008 70 10000 2.6 300 04:58 15.03.2020
1344 Clouds 32 1009 66 10000 2.6 310 04:40 15.03.2020
1345 Clouds 32 1009 66 10000 2.6 310 04:20 15.03.2020
1346 Clouds 32 1010 66 10000 3.1 290 03:24 15.03.2020
1347 Clouds 30 1010 70 10000 5.1 300 02:28 15.03.2020
1348 Clouds 27 1010 94 10000 5.1 300 00:59 15.03.2020
1349 Clouds 26 1010 94 10000 1.5 300 00:41 15.03.2020
1350 Clouds 26 1009 88 10000 1 320 00:19 15.03.2020
1351 Clouds 25 1009 94 10000 1 10 23:41 14.03.2020
1352 Clouds 24 1009 94 10000 1 10 23:20 14.03.2020
1353 Clouds 24 1008 100 10000 0.5 310 22:56 14.03.2020
1354 Clouds 24 1008 100 10000 2.1 310 22:38 14.03.2020
1355 Clouds 23 1008 100 10000 2.1 310 22:20 14.03.2020
1356 Rain 23 1008 100 10000 3.1 250 21:55 14.03.2020
1357 Rain 23 1008 100 10000 2.1 320 21:36 14.03.2020
1358 Rain 23 1008 100 10000 2.1 320 21:18 14.03.2020
1359 Thunderstorm 23 1009 100 3000 5.7 230 20:58 14.03.2020
1360 Rain 24 1007 88 6000 7.2 120 20:39 14.03.2020
1361 Rain 25 1007 88 6000 7.2 120 20:18 14.03.2020
1362 Clouds 27 1007 79 10000 4.1 270 19:42 14.03.2020
1363 Clouds 28 1007 79 10000 4.1 270 19:24 14.03.2020
1364 Clouds 28 1007 83 10000 2.6 290 18:41 14.03.2020
1365 Clouds 28 1007 83 10000 2.6 290 18:21 14.03.2020
1366 Clouds 28 1008 83 10000 3.1 330 17:43 14.03.2020
1367 Clouds 28 1008 83 10000 2.6 320 17:24 14.03.2020
1368 Clouds 28 1008 83 10000 2.6 320 16:59 14.03.2020
1369 Clouds 28 1008 83 10000 3.6 290 16:40 14.03.2020
1370 Clouds 28 1008 83 10000 3.6 290 16:21 14.03.2020
1371 Clouds 28 1008 83 10000 3.6 290 16:21 14.03.2020
1372 Clouds 28 1008 79 10000 3.6 280 15:51 14.03.2020
1373 Clouds 28 1009 79 10000 3.6 290 15:25 14.03.2020
1374 Clouds 28 1009 79 10000 3.6 290 14:45 14.03.2020
1375 Clouds 28 1009 74 10000 4.1 290 14:23 14.03.2020
1376 Rain 28 1008 79 10000 4.1 290 13:57 14.03.2020
1377 Rain 28 1008 79 10000 2.6 290 13:39 14.03.2020
1378 Clouds 28 1007 74 10000 2.6 260 13:20 14.03.2020
1379 Clouds 28 1007 78 10000 1.5 290 12:45 14.03.2020
1380 Clouds 27 1007 78 10000 1.5 290 12:26 14.03.2020
1381 Clouds 28 1006 66 10000 2.1 310 11:56 14.03.2020
1382 Clouds 28 1006 66 10000 2.1 310 11:56 14.03.2020
1383 Clouds 28 1006 66 10000 2.1 310 11:38 14.03.2020
1384 Clouds 28 1006 69 10000 3.6 230 11:19 14.03.2020
1385 Clouds 28 1006 69 10000 2.1 270 10:42 14.03.2020
1386 Clouds 28 1006 69 10000 2.1 270 10:23 14.03.2020
1387 Clouds 28 1005 78 10000 3.6 290 09:47 14.03.2020
1388 Clouds 27 1005 78 10000 3.6 290 09:24 14.03.2020
1389 Rain 28 1005 69 10000 5.1 280 08:54 14.03.2020
1390 Rain 27 1005 83 10000 3.6 130 08:35 14.03.2020
1391 Thunderstorm 30 1006 62 10000 5.1 280 07:56 14.03.2020
1392 Rain 30 1005 62 10000 5.1 280 07:38 14.03.2020
1393 Rain 31 1005 62 10000 5.1 280 07:19 14.03.2020
1394 Clouds 33 1006 63 10000 6.7 310 06:40 14.03.2020
1395 Clouds 34 1007 63 10000 6.2 300 05:43 14.03.2020
1396 Clouds 33 1008 59 10000 5.7 300 04:42 14.03.2020
1397 Clouds 33 1008 62 10000 5.1 290 03:24 14.03.2020
1398 Clouds 32 1009 66 10000 4.1 250 02:23 14.03.2020
1399 Clouds 31 1009 74 10000 3.1 250 00:57 14.03.2020
1400 Clouds 29 1008 83 10000 2.1 240 23:51 13.03.2020
1401 Clouds 28 1008 83 10000 2.1 240 23:30 13.03.2020
1402 Clouds 27 1008 83 10000 2.6 240 22:52 13.03.2020
1403 Clouds 27 1008 83 10000 2.6 240 22:52 13.03.2020
1404 Clouds 27 1008 83 10000 3.1 260 22:26 13.03.2020
1405 Clouds 27 1007 83 10000 3.1 260 21:44 13.03.2020
1406 Clouds 27 1007 83 10000 3.1 260 21:22 13.03.2020
1407 Clouds 27 1007 83 10000 3.1 260 20:59 13.03.2020
1408 Clouds 28 1007 83 10000 3.6 270 20:41 13.03.2020
1409 Clouds 28 1007 83 10000 3.6 270 20:21 13.03.2020
1410 Clouds 27 1007 83 10000 3.1 250 19:49 13.03.2020
1411 Clouds 28 1007 83 10000 3.1 270 19:30 13.03.2020
1412 Clouds 28 1007 74 10000 4.1 310 18:55 13.03.2020
1413 Clouds 28 1008 74 10000 4.1 300 18:36 13.03.2020
1414 Clouds 28 1008 79 10000 2.6 280 18:18 13.03.2020
1415 Clouds 28 1009 79 10000 3.1 280 17:41 13.03.2020
1416 Clouds 28 1009 79 10000 3.6 280 17:21 13.03.2020
1417 Clouds 28 1009 79 10000 3.6 280 16:55 13.03.2020
1418 Clouds 28 1009 74 10000 3.1 290 16:36 13.03.2020
1419 Clouds 28 1009 74 10000 3.1 290 16:18 13.03.2020
1420 Clouds 28 1010 74 10000 3.1 280 15:41 13.03.2020
1421 Clouds 28 1010 74 10000 3.1 280 15:20 13.03.2020
1422 Clouds 28 1010 74 10000 3.1 280 14:44 13.03.2020
1423 Clouds 28 1010 74 10000 3.1 270 14:23 13.03.2020
1424 Rain 28 1010 74 10000 3.6 270 13:58 13.03.2020
1425 Rain 29 1010 74 10000 3.6 270 13:40 13.03.2020
1426 Clouds 29 1010 74 10000 3.6 270 13:20 13.03.2020
1427 Clouds 29 1009 70 10000 3.1 280 12:55 13.03.2020
1428 Clouds 29 1009 70 10000 3.1 280 12:55 13.03.2020
1429 Clouds 29 1009 70 10000 3.6 270 12:37 13.03.2020
1430 Clouds 29 1009 70 10000 3.6 270 12:18 13.03.2020
1431 Clouds 29 1008 74 10000 4.6 260 11:43 13.03.2020
1432 Clouds 29 1008 74 10000 4.6 270 11:25 13.03.2020
1433 Clouds 30 1008 74 10000 4.6 270 10:57 13.03.2020
1434 Clouds 30 1008 66 10000 5.1 260 10:39 13.03.2020
1435 Clouds 30 1008 66 10000 5.1 260 10:21 13.03.2020
1436 Clouds 31 1007 66 10000 5.1 270 09:44 13.03.2020
1437 Clouds 32 1007 66 10000 5.1 270 09:25 13.03.2020
1438 Clouds 32 1008 62 10000 5.7 270 08:47 13.03.2020
1439 Clouds 33 1008 66 10000 7.2 290 08:23 13.03.2020
1440 Clouds 33 1008 63 10000 7.2 290 07:58 13.03.2020
1441 Clouds 33 1008 63 10000 7.2 300 07:38 13.03.2020
1442 Clouds 33 1008 63 10000 6.7 290 07:19 13.03.2020
1443 Clouds 33 1009 63 10000 7.2 300 06:44 13.03.2020
1444 Clouds 33 1009 63 10000 7.2 300 06:44 13.03.2020
1445 Clouds 33 1010 59 10000 5.7 300 05:56 13.03.2020
1446 Clouds 33 1010 59 10000 5.7 300 05:37 13.03.2020
1447 Clouds 33 1010 63 10000 4.6 310 04:38 13.03.2020
1448 Clouds 33 1011 62 10000 4.6 300 03:46 13.03.2020
1449 Clouds 31 1011 66 10000 3.6 290 01:48 13.03.2020
1450 Clouds 31 1011 66 10000 3.6 290 01:19 13.03.2020
1451 Clouds 31 1011 70 10000 3.1 270 00:56 13.03.2020
1452 Clouds 30 1011 74 10000 3.1 280 00:37 13.03.2020
1453 Clouds 30 1011 74 10000 3.1 280 00:18 13.03.2020
1454 Clouds 28 1011 83 10000 1.5 270 23:29 12.03.2020
1455 Clouds 27 1011 88 10000 1.5 260 22:59 12.03.2020
1456 Clouds 26 1010 88 10000 1.5 240 22:41 12.03.2020
1457 Clouds 26 1010 88 10000 1.5 240 22:23 12.03.2020
1458 Clear 26 1010 88 10000 2.1 250 21:54 12.03.2020
1459 Clear 26 1010 88 10000 1.5 250 21:36 12.03.2020
1460 Clear 27 1010 88 10000 1.5 250 21:18 12.03.2020
1461 Clear 27 1010 83 10000 2.1 240 20:42 12.03.2020
1462 Clear 27 1010 83 10000 2.1 240 20:42 12.03.2020
1463 Clear 27 1010 83 10000 2.1 240 20:19 12.03.2020
1464 Clear 27 1010 83 10000 2.6 250 19:42 12.03.2020
1465 Clear 27 1010 83 10000 2.6 250 19:21 12.03.2020
1466 Clear 27 1010 83 10000 2.6 250 19:21 12.03.2020
1467 Clear 27 1010 83 10000 2.6 250 18:45 12.03.2020
1468 Clear 28 1010 83 10000 2.6 250 18:25 12.03.2020
1469 Clear 28 1011 83 10000 3.1 270 17:58 12.03.2020
1470 Clear 27 1011 83 10000 3.1 270 17:40 12.03.2020
1471 Clear 27 1011 83 10000 2.6 270 17:21 12.03.2020
1472 Clear 27 1011 83 10000 2.6 270 16:58 12.03.2020
1473 Clear 28 1011 74 10000 2.6 260 16:39 12.03.2020
1474 Clear 28 1011 74 10000 2.6 260 16:20 12.03.2020
1475 Clouds 28 1011 74 10000 3.1 260 15:47 12.03.2020
1476 Clouds 29 1012 79 10000 3.1 270 15:27 12.03.2020
1477 Clouds 28 1012 79 10000 3.6 280 14:54 12.03.2020
1478 Clouds 29 1012 79 10000 3.6 290 14:36 12.03.2020
1479 Clouds 28 1012 79 10000 3.6 290 14:18 12.03.2020
1480 Clouds 28 1011 74 10000 3.1 280 13:38 12.03.2020
1481 Clouds 29 1011 74 10000 3.1 280 13:20 12.03.2020
1482 Clouds 29 1011 74 10000 3.6 280 12:43 12.03.2020
1483 Clouds 29 1010 74 10000 3.1 290 12:23 12.03.2020
1484 Clouds 29 1010 74 10000 3.1 290 11:59 12.03.2020
1485 Clouds 30 1010 74 10000 3.1 280 11:39 12.03.2020
1486 Clouds 30 1010 70 10000 2.6 270 11:21 12.03.2020
1487 Clouds 30 1010 70 10000 2.6 270 10:59 12.03.2020
1488 Rain 30 1009 66 10000 3.1 250 10:41 12.03.2020
1489 Rain 31 1009 66 10000 3.1 250 10:22 12.03.2020
1490 Rain 31 1009 66 10000 3.1 250 10:22 12.03.2020
1491 Rain 31 1009 62 10000 6.7 290 09:49 12.03.2020
1492 Clouds 32 1009 62 10000 6.7 290 09:29 12.03.2020
1493 Clouds 32 1009 59 10000 5.7 300 08:55 12.03.2020
1494 Clouds 33 1009 59 10000 5.1 270 08:37 12.03.2020
1495 Clouds 33 1009 59 10000 5.1 270 08:18 12.03.2020
1496 Rain 33 1009 59 10000 5.7 290 07:46 12.03.2020
1497 Clouds 33 1009 62 10000 6.7 290 07:21 12.03.2020
1498 Clouds 33 1010 59 10000 5.1 310 05:59 12.03.2020
1499 Clouds 34 1010 59 10000 5.1 310 05:33 12.03.2020
1500 Clouds 33 1011 55 10000 2.1 290 02:54 12.03.2020
1501 Clouds 32 1011 58 10000 2.6 270 01:43 12.03.2020
1502 Clouds 31 1011 58 10000 2.6 270 01:21 12.03.2020
1503 Clouds 30 1011 79 10000 2.6 240 00:41 12.03.2020
1504 Clouds 29 1011 79 10000 2.6 230 23:57 11.03.2020
1505 Clouds 27 1010 83 10000 2.1 230 23:28 11.03.2020
1506 Clouds 26 1010 88 10000 2.1 230 22:58 11.03.2020
1507 Clear 26 1010 94 10000 1.5 240 22:39 11.03.2020
1508 Clear 25 1010 94 10000 1.5 240 22:21 11.03.2020
1509 Clear 25 1010 94 10000 1.5 240 21:56 11.03.2020
1510 Clear 25 1009 94 10000 1.5 210 21:37 11.03.2020
1511 Clear 26 1010 88 10000 1.5 220 21:19 11.03.2020
1512 Clear 26 1010 88 10000 1.5 220 20:55 11.03.2020
1513 Clear 26 1010 88 10000 1.5 220 20:55 11.03.2020
1514 Clear 26 1010 88 10000 1.5 220 20:55 11.03.2020
1515 Clear 26 1010 83 10000 1.5 230 20:36 11.03.2020
1516 Clouds 26 1010 83 10000 1.5 230 20:18 11.03.2020
1517 Clouds 27 1010 78 10000 2.1 250 19:42 11.03.2020
1518 Clouds 27 1010 78 10000 2.1 250 19:24 11.03.2020
1519 Clouds 27 1010 83 10000 2.6 260 18:56 11.03.2020
1520 Clouds 27 1010 83 10000 2.6 270 18:37 11.03.2020
1521 Clouds 27 1010 83 10000 2.6 280 18:18 11.03.2020
1522 Clouds 27 1011 83 10000 2.1 270 17:40 11.03.2020
1523 Clouds 28 1011 83 10000 2.6 260 17:21 11.03.2020
1524 Clouds 28 1011 83 10000 2.6 260 16:56 11.03.2020
1525 Clouds 28 1011 79 10000 3.1 260 16:38 11.03.2020
1526 Clouds 28 1011 79 10000 3.1 260 16:19 11.03.2020
1527 Clouds 29 1011 74 10000 3.1 260 15:42 11.03.2020
1528 Clouds 29 1011 74 10000 3.1 260 15:23 11.03.2020
1529 Clouds 28 1011 78 10000 2.6 260 14:46 11.03.2020
1530 Clouds 27 1011 78 10000 0.5 50 14:24 11.03.2020
1531 Clouds 27 1011 83 10000 2.27 270 13:59 11.03.2020
1532 Clouds 27 1010 83 10000 1 80 13:40 11.03.2020
1533 Clouds 27 1010 83 10000 1 80 13:22 11.03.2020
1534 Clouds 28 1010 74 10000 2.1 110 12:56 11.03.2020
1535 Clouds 28 1010 78 10000 1.5 240 12:37 11.03.2020
1536 Clouds 28 1010 78 10000 1.5 240 12:18 11.03.2020
1537 Clouds 29 1009 74 10000 4.1 260 11:40 11.03.2020
1538 Clouds 29 1009 74 10000 4.1 260 11:20 11.03.2020
1539 Clouds 30 1008 70 10000 4.6 280 10:47 11.03.2020
1540 Clouds 30 1008 74 10000 5.1 290 10:21 11.03.2020
1541 Clouds 31 1008 70 10000 5.7 290 09:59 11.03.2020
1542 Clouds 30 1008 70 10000 6.7 300 09:40 11.03.2020
1543 Clouds 31 1008 70 10000 6.7 300 09:21 11.03.2020
1544 Clouds 32 1008 59 10000 6.7 290 08:43 11.03.2020
1545 Clouds 33 1008 59 10000 6.7 290 08:24 11.03.2020
1546 Clouds 33 1007 59 10000 5.7 280 07:47 11.03.2020
1547 Clouds 33 1008 59 10000 6.7 300 07:20 11.03.2020
1548 Clouds 34 1008 59 10000 5.7 300 06:50 11.03.2020
1549 Rain 34 1008 59 10000 5.1 300 06:31 11.03.2020
1550 Clouds 33 1009 66 10000 4.6 290 05:32 11.03.2020
1551 Clouds 32 1010 66 10000 3.1 310 02:45 11.03.2020
1552 Clouds 31 1010 74 10000 2.6 290 01:52 11.03.2020
1553 Clouds 31 1010 74 10000 3.1 300 01:23 11.03.2020
1554 Clouds 29 1010 79 10000 1.5 270 00:37 11.03.2020
1555 Clouds 27 1009 94 10000 0.5 270 23:50 10.03.2020
1556 Clouds 26 1009 94 10000 0.5 270 23:28 10.03.2020
1557 Clouds 25 1009 100 10000 0.5 270 22:58 10.03.2020
1558 Clouds 25 1008 94 10000 1.5 270 22:37 10.03.2020
1559 Clouds 25 1008 94 10000 1.5 270 22:19 10.03.2020
1560 Clouds 25 1008 94 10000 1 230 21:56 10.03.2020
1561 Clouds 26 1008 88 10000 0.5 230 21:38 10.03.2020
1562 Clouds 26 1008 88 10000 0.5 230 21:18 10.03.2020
1563 Clouds 26 1008 88 10000 0.5 230 21:18 10.03.2020
1564 Clouds 25 1008 94 10000 1.5 230 20:42 10.03.2020
1565 Clouds 26 1008 88 10000 1.5 230 20:20 10.03.2020
1566 Clouds 26 1008 88 10000 1.5 220 19:59 10.03.2020
1567 Clouds 26 1008 88 10000 2.1 210 19:40 10.03.2020
1568 Clouds 26 1008 88 10000 2.1 210 19:22 10.03.2020
1569 Clouds 26 1008 88 10000 2.1 240 18:56 10.03.2020
1570 Clouds 26 1008 88 10000 2.1 270 18:37 10.03.2020
1571 Clouds 26 1008 88 10000 2.1 270 18:19 10.03.2020
1572 Clouds 27 1008 83 10000 2.1 250 17:55 10.03.2020
1573 Clouds 27 1008 83 10000 2.1 250 17:37 10.03.2020
1574 Clouds 27 1009 78 10000 2.6 260 17:18 10.03.2020
1575 Clouds 27 1009 78 10000 2.6 260 16:37 10.03.2020
1576 Clouds 28 1009 78 10000 2.6 260 16:18 10.03.2020
1577 Clouds 28 1009 78 10000 2.6 260 16:18 10.03.2020
1578 Clouds 28 1009 78 10000 3.1 270 15:42 10.03.2020
1579 Clouds 28 1009 78 10000 3.1 270 15:20 10.03.2020
1580 Clouds 28 1010 78 10000 3.6 270 14:59 10.03.2020
1581 Clouds 28 1010 78 10000 3.6 270 14:40 10.03.2020
1582 Clouds 28 1010 78 10000 3.6 270 14:19 10.03.2020
1583 Clouds 28 1009 83 10000 3.6 270 13:44 10.03.2020
1584 Clouds 29 1009 74 10000 3.6 280 13:26 10.03.2020
1585 Clouds 28 1009 74 10000 3.6 280 12:56 10.03.2020
1586 Clouds 28 1009 74 10000 3.6 280 12:37 10.03.2020
1587 Clouds 29 1008 74 10000 4.1 270 12:18 10.03.2020
1588 Clouds 29 1008 74 10000 4.1 260 11:42 10.03.2020
1589 Clouds 29 1008 74 10000 4.1 260 11:24 10.03.2020
1590 Clouds 29 1007 74 10000 5.1 270 10:57 10.03.2020
1591 Clouds 29 1007 74 10000 5.1 270 10:57 10.03.2020
1592 Clouds 29 1007 70 10000 4.6 270 10:39 10.03.2020
1593 Clouds 30 1007 70 10000 4.6 270 10:19 10.03.2020
1594 Clouds 30 1006 70 10000 5.1 270 09:45 10.03.2020
1595 Clouds 30 1006 70 10000 5.1 280 09:20 10.03.2020
1596 Clouds 31 1006 66 10000 5.7 290 08:58 10.03.2020
1597 Clouds 31 1006 70 10000 6.2 290 08:40 10.03.2020
1598 Clouds 31 1006 70 10000 6.2 290 08:20 10.03.2020
1599 Rain 32 1006 66 10000 6.7 300 07:42 10.03.2020
1600 Rain 32 1006 66 10000 6.7 300 07:23 10.03.2020
1601 Clouds 32 1007 66 10000 5.1 300 06:38 10.03.2020
1602 Clouds 32 1008 70 10000 4.1 300 05:55 10.03.2020
1603 Clouds 32 1008 70 10000 4.1 300 05:36 10.03.2020
1604 Clouds 32 1009 58 10000 3.1 270 04:31 10.03.2020
1605 Clouds 32 1009 62 10000 2.6 270 03:19 10.03.2020
1606 Clouds 29 1010 74 10000 0.5 180 01:36 10.03.2020
1607 Clouds 28 1010 88 10000 1.88 201 00:51 10.03.2020
1608 Clouds 27 1009 88 10000 1.5 170 00:29 10.03.2020
1609 Rain 25 1008 94 10000 1 110 23:43 09.03.2020
1610 Rain 25 1008 100 10000 1.5 130 23:23 09.03.2020
1611 Rain 24 1008 100 10000 1.5 130 22:58 09.03.2020
1612 Rain 24 1008 100 10000 1 120 22:38 09.03.2020
1613 Clouds 24 1008 100 10000 1 120 22:20 09.03.2020
1614 Clouds 24 1008 94 10000 1.5 110 21:45 09.03.2020
1615 Clouds 24 1008 94 10000 1.5 110 21:22 09.03.2020
1616 Clouds 24 1008 94 10000 1.5 110 21:22 09.03.2020
1617 Clouds 24 1007 94 10000 1.5 120 20:59 09.03.2020
1618 Clouds 24 1007 94 10000 1 120 20:41 09.03.2020
1619 Clear 24 1007 94 10000 1 120 20:22 09.03.2020
1620 Clouds 25 1007 94 10000 1.5 110 19:59 09.03.2020
1621 Clouds 25 1007 94 10000 1.5 200 19:41 09.03.2020
1622 Clouds 24 1007 94 10000 1.5 200 19:19 09.03.2020
1623 Clouds 25 1007 94 10000 1.5 240 18:56 09.03.2020
1624 Clouds 25 1007 94 10000 1.5 240 18:56 09.03.2020
1625 Clouds 25 1008 94 10000 1.19 184 18:38 09.03.2020
1626 Clouds 25 1008 94 10000 1.19 184 18:18 09.03.2020
1627 Clouds 25 1008 94 10000 1.19 184 17:55 09.03.2020
1628 Clouds 25 1008 94 10000 1.5 260 17:37 09.03.2020
1629 Clouds 25 1008 94 10000 0.5 130 17:19 09.03.2020
1630 Clouds 25 1008 94 10000 0.5 130 16:56 09.03.2020
1631 Clouds 25 1009 94 10000 0.72 57 16:37 09.03.2020
1632 Clouds 25 1009 94 10000 0.72 57 16:19 09.03.2020
1633 Clouds 25 1009 94 10000 0.72 57 15:55 09.03.2020
1634 Clouds 25 1009 94 10000 1.5 120 15:37 09.03.2020
1635 Clouds 25 1009 94 10000 1.5 120 15:18 09.03.2020
1636 Clouds 25 1009 94 10000 2.1 130 14:39 09.03.2020
1637 Rain 25 1009 94 10000 2.1 130 14:20 09.03.2020
1638 Rain 25 1008 94 10000 2.1 140 13:59 09.03.2020
1639 Rain 25 1008 94 10000 1.5 120 13:39 09.03.2020
1640 Rain 25 1008 94 10000 1.5 120 13:21 09.03.2020
1641 Rain 25 1008 94 10000 1.5 120 12:58 09.03.2020
1642 Rain 25 1008 94 10000 2.1 140 12:39 09.03.2020
1643 Rain 25 1008 94 10000 2.1 140 12:39 09.03.2020
1644 Rain 25 1008 94 10000 2.1 140 12:19 09.03.2020
1645 Clouds 25 1007 88 10000 2.1 130 11:40 09.03.2020
1646 Clouds 25 1007 88 10000 2.1 130 11:20 09.03.2020
1647 Clouds 25 1007 88 10000 1 80 10:57 09.03.2020
1648 Clouds 25 1007 88 10000 1.5 70 10:39 09.03.2020
1649 Clouds 26 1007 88 10000 1.5 70 10:19 09.03.2020
1650 Clouds 26 1007 88 10000 1 290 09:42 09.03.2020
1651 Clouds 26 1007 88 10000 1 290 09:24 09.03.2020
1652 Clouds 26 1007 88 10000 1.5 280 08:47 09.03.2020
1653 Clouds 26 1007 88 10000 2.6 290 08:29 09.03.2020
1654 Clouds 26 1007 88 10000 3.1 290 07:58 09.03.2020
1655 Rain 26 1008 88 10000 4.1 310 07:37 09.03.2020
1656 Rain 26 1008 88 10000 4.1 310 07:18 09.03.2020
1657 Rain 25 1008 94 10000 3.6 300 06:40 09.03.2020
1658 Rain 25 1008 94 10000 3.6 300 06:21 09.03.2020
1659 Rain 25 1008 94 8000 2.1 310 05:45 09.03.2020
1660 Rain 24 1009 100 10000 1.5 330 04:59 09.03.2020
1661 Rain 24 1010 100 8000 1 320 04:39 09.03.2020
1662 Rain 24 1010 100 8000 1 320 04:20 09.03.2020
1663 Rain 24 1010 100 8000 1 320 04:20 09.03.2020
1664 Rain 23 1011 100 5000 2.1 10 02:53 09.03.2020
1665 Rain 24 1010 100 300 4.6 110 00:44 09.03.2020
1666 Rain 24 1010 94 300 2.6 120 00:25 09.03.2020
1667 Rain 25 1008 94 10000 0.5 320 23:58 08.03.2020
1668 Rain 25 1008 94 10000 3.6 280 23:38 08.03.2020
1669 Rain 25 1008 94 10000 3.6 280 23:18 08.03.2020
1670 Rain 25 1007 88 10000 3.1 330 22:41 08.03.2020
1671 Rain 25 1007 88 10000 3.1 330 22:41 08.03.2020
1672 Rain 25 1007 88 10000 3.1 330 22:22 08.03.2020
1673 Thunderstorm 25 1008 94 10000 2.1 40 21:59 08.03.2020
1674 Rain 25 1007 94 10000 1 180 21:40 08.03.2020
1675 Rain 25 1007 94 10000 1 180 21:20 08.03.2020
1676 Rain 25 1007 100 10000 1.5 150 20:57 08.03.2020
1677 Rain 25 1006 94 10000 1 250 20:37 08.03.2020
1678 Rain 26 1007 94 10000 0.5 250 20:19 08.03.2020
1679 Clouds 26 1007 100 10000 1.7 226 19:40 08.03.2020
1680 Clouds 26 1007 100 10000 1.7 226 19:19 08.03.2020
1681 Clouds 26 1007 94 10000 0.5 250 18:55 08.03.2020
1682 Clouds 26 1008 94 10000 0.5 190 18:37 08.03.2020
1683 Rain 25 1013 94 0 0.45 190 18:18 08.03.2020
1684 Clouds 26 1008 94 10000 1.5 90 17:40 08.03.2020
1685 Clouds 25 1008 94 10000 1.5 90 17:21 08.03.2020
1686 Clouds 26 1008 94 10000 1.5 90 16:58 08.03.2020
1687 Clouds 26 1008 94 10000 1.5 90 16:40 08.03.2020
1688 Clouds 26 1008 94 10000 1.5 260 16:21 08.03.2020
1689 Clouds 25 1008 94 10000 2.1 260 15:41 08.03.2020
1690 Clouds 25 1008 94 10000 2.1 260 15:41 08.03.2020
1691 Clouds 25 1008 94 10000 2.1 260 15:22 08.03.2020
1692 Rain 25 1009 94 10000 3.1 270 14:57 08.03.2020
1693 Rain 25 1009 94 10000 3.1 270 14:37 08.03.2020
1694 Rain 25 1009 94 10000 3.1 270 14:19 08.03.2020
1695 Rain 25 1009 100 10000 1.5 280 13:41 08.03.2020
1696 Rain 25 1010 100 10000 1.5 240 13:20 08.03.2020
1697 Rain 25 1010 100 10000 1.5 220 12:49 08.03.2020
1698 Rain 25 1009 94 10000 1.5 220 12:30 08.03.2020
1699 Rain 24 1009 100 10000 1.5 200 11:59 08.03.2020
1700 Rain 24 1009 100 9000 3.6 220 11:41 08.03.2020
1701 Rain 24 1009 100 9000 3.6 220 11:21 08.03.2020
1702 Rain 24 1009 100 9000 3.6 220 11:21 08.03.2020
1703 Rain 24 1009 100 9000 3.6 220 10:42 08.03.2020
1704 Rain 24 1009 100 9000 3.6 220 10:42 08.03.2020
1705 Rain 27 1008 94 1500 3.6 80 10:24 08.03.2020
1706 Rain 27 1007 88 5000 3.1 230 09:59 08.03.2020
1707 Rain 27 1007 88 5000 3.1 230 09:38 08.03.2020
1708 Rain 27 1007 88 9000 3.6 270 09:20 08.03.2020
1709 Rain 28 1006 83 10000 3.6 280 08:42 08.03.2020
1710 Rain 28 1006 83 10000 3.6 280 08:21 08.03.2020
1711 Rain 28 1006 83 10000 4.6 280 07:45 08.03.2020
1712 Rain 28 1006 83 10000 4.6 280 07:45 08.03.2020
1713 Rain 28 1006 88 10000 4.6 280 07:26 08.03.2020
1714 Rain 28 1006 88 10000 5.7 290 06:43 08.03.2020
1715 Rain 27 1007 88 10000 5.7 300 06:24 08.03.2020
1716 Rain 28 1008 88 3000 4.6 320 05:43 08.03.2020
1717 Clouds 31 1009 70 10000 4.1 340 03:52 08.03.2020
1718 Clouds 30 1009 79 10000 2.1 10 02:40 08.03.2020
1719 Rain 28 1010 94 10000 3.1 60 01:37 08.03.2020
1720 Rain 27 1010 94 10000 3.1 60 01:18 08.03.2020
1721 Clouds 26 1009 94 10000 0.5 120 00:30 08.03.2020
1722 Clouds 26 1009 94 10000 0.5 120 23:49 07.03.2020
1723 Clouds 26 1009 94 10000 1 120 23:27 07.03.2020
1724 Clouds 26 1009 94 10000 1 100 22:58 07.03.2020
1725 Clouds 25 1008 94 10000 1.58 105 22:37 07.03.2020
1726 Clouds 25 1008 94 10000 1.58 105 22:19 07.03.2020
1727 Clouds 25 1007 94 10000 1.5 110 21:43 07.03.2020
1728 Clouds 25 1008 88 10000 1.5 90 21:43 07.03.2020
1729 Clouds 25 1007 94 10000 1.5 110 21:22 07.03.2020
1730 Clouds 25 1007 100 10000 1.5 100 20:41 07.03.2020
1731 Clouds 25 1007 100 10000 1.5 100 20:21 07.03.2020
1732 Clouds 25 1007 100 10000 2.1 160 19:42 07.03.2020
1733 Clouds 25 1007 100 10000 2.1 160 19:23 07.03.2020
1734 Rain 25 1007 94 10000 2.1 140 18:59 07.03.2020
1735 Drizzle 25 1007 94 10000 2.6 140 18:39 07.03.2020
1736 Drizzle 25 1007 94 10000 2.6 140 18:20 07.03.2020
1737 Drizzle 25 1009 88 10000 3.1 110 17:42 07.03.2020
1738 Drizzle 26 1009 88 10000 3.1 110 17:20 07.03.2020
1739 Rain 26 1009 94 10000 2.6 70 16:56 07.03.2020
1740 Drizzle 25 1010 94 10000 2.1 70 16:38 07.03.2020
1741 Drizzle 25 1010 94 10000 2.1 70 16:20 07.03.2020
1742 Rain 25 1010 94 10000 2.1 70 15:55 07.03.2020
1743 Rain 25 1010 94 10000 2.1 80 15:36 07.03.2020
1744 Rain 25 1010 94 10000 2.1 80 15:18 07.03.2020
1745 Rain 25 1010 94 10000 2.6 110 14:42 07.03.2020
1746 Rain 26 1011 94 10000 2.6 110 14:23 07.03.2020
1747 Rain 26 1010 94 10000 1.5 80 13:44 07.03.2020
1748 Rain 26 1010 94 10000 2.6 80 13:22 07.03.2020
1749 Rain 26 1010 94 10000 2.1 100 12:59 07.03.2020
1750 Clouds 26 1009 94 10000 3.6 100 12:39 07.03.2020
1751 Clouds 26 1009 94 10000 3.6 100 12:19 07.03.2020
1752 Rain 26 1009 88 10000 2.1 170 11:55 07.03.2020
1753 Rain 26 1008 88 10000 2.6 240 11:36 07.03.2020
1754 Rain 26 1008 88 10000 2.6 240 11:36 07.03.2020
1755 Rain 26 1008 88 10000 2.6 240 11:18 07.03.2020
1756 Rain 25 1008 94 9000 4.1 170 10:39 07.03.2020
1757 Rain 26 1008 94 9000 4.1 170 10:19 07.03.2020
1758 Thunderstorm 29 1007 79 10000 4.6 290 09:41 07.03.2020
1759 Thunderstorm 30 1007 79 10000 4.6 290 09:20 07.03.2020
1760 Clouds 31 1007 79 10000 5.1 290 08:59 07.03.2020
1761 Rain 31 1007 70 10000 5.7 300 08:41 07.03.2020
1762 Rain 32 1007 70 10000 5.7 300 08:20 07.03.2020
1763 Clouds 32 1007 74 10000 5.1 310 07:48 07.03.2020
1764 Rain 32 1012 70 0 4.47 310 07:22 07.03.2020
1765 Rain 33 1015 62 0 1.19 71 06:54 07.03.2020
1766 Rain 33 1008 76 0 1.34 289 06:29 07.03.2020
1767 Clouds 33 1009 66 10000 1.5 210 05:45 07.03.2020
1768 Clouds 32 1010 70 10000 1 200 04:34 07.03.2020
1769 Clouds 29 1011 83 10000 1.5 190 02:46 07.03.2020
1770 Clouds 29 1011 83 10000 1.5 190 02:23 07.03.2020
1771 Clouds 27 1010 88 10000 2.1 140 01:23 07.03.2020
1772 Clouds 26 1010 94 10000 3.1 150 00:38 07.03.2020
1773 Clouds 26 1010 94 10000 3.1 150 00:19 07.03.2020
1774 Clouds 26 1009 94 10000 0.5 200 23:43 06.03.2020
1775 Clouds 26 1009 94 10000 0.5 200 23:24 06.03.2020
1776 Clouds 25 1009 94 10000 1.5 330 22:47 06.03.2020
1777 Clouds 25 1009 94 10000 1.5 330 22:47 06.03.2020
1778 Rain 25 1009 94 10000 1.5 330 22:21 06.03.2020
1779 Rain 25 1008 94 10000 2.6 150 21:50 06.03.2020
1780 Rain 25 1009 94 9000 2.1 160 21:21 06.03.2020
1781 Rain 25 1009 94 10000 1.5 220 20:56 06.03.2020
1782 Rain 25 1009 94 9000 2.1 270 20:36 06.03.2020
1783 Rain 25 1009 94 9000 2.1 270 20:18 06.03.2020
1784 Rain 25 1010 94 6000 0.5 320 19:43 06.03.2020
1785 Rain 25 1010 94 6000 0.5 320 19:24 06.03.2020
1786 Rain 24 1010 94 5000 1.5 10 18:43 06.03.2020
1787 Rain 25 1011 94 900 2.1 150 18:21 06.03.2020
1788 Rain 25 1011 100 500 3.6 130 17:58 06.03.2020
1789 Rain 25 1011 94 1000 4.6 70 17:40 06.03.2020
1790 Rain 26 1011 94 10000 0.5 210 17:21 06.03.2020
1791 Rain 26 1011 94 10000 0.5 210 16:57 06.03.2020
1792 Rain 26 1011 94 10000 0.5 210 16:39 06.03.2020
1793 Rain 26 1011 94 10000 0.5 210 16:19 06.03.2020
1794 Thunderstorm 26 1011 88 10000 1 200 15:44 06.03.2020
1795 Rain 26 1011 88 10000 3.6 120 15:24 06.03.2020
1796 Thunderstorm 28 1010 79 10000 1.5 230 14:43 06.03.2020
1797 Thunderstorm 30 1010 79 10000 1.5 230 14:24 06.03.2020
1798 Clouds 30 1010 79 10000 2.6 270 13:59 06.03.2020
1799 Clouds 29 1010 74 10000 2.6 260 13:40 06.03.2020
1800 Clouds 30 1010 74 10000 2.6 260 13:20 06.03.2020
1801 Clouds 29 1009 79 10000 3.1 260 12:55 06.03.2020
1802 Clouds 29 1009 74 10000 3.6 270 12:36 06.03.2020
1803 Clouds 29 1009 74 10000 3.6 270 12:18 06.03.2020
1804 Clouds 30 1008 74 10000 3.6 270 11:43 06.03.2020
1805 Clouds 30 1008 74 10000 3.6 280 11:21 06.03.2020
1806 Clouds 30 1007 74 10000 3.6 280 10:58 06.03.2020
1807 Clouds 30 1007 70 10000 4.1 280 10:37 06.03.2020
1808 Clouds 31 1007 70 10000 4.1 280 10:18 06.03.2020
1809 Clouds 31 1007 70 10000 4.1 280 10:18 06.03.2020
1810 Clouds 31 1006 66 10000 2.6 230 09:42 06.03.2020
1811 Clouds 32 1006 66 10000 2.6 230 09:24 06.03.2020
1812 Clouds 32 1006 59 10000 2.6 230 08:58 06.03.2020
1813 Rain 32 1006 59 10000 4.1 250 08:39 06.03.2020
1814 Rain 33 1006 59 10000 4.1 250 08:20 06.03.2020
1815 Thunderstorm 33 1006 63 10000 6.2 280 07:47 06.03.2020
1816 Rain 32 1006 66 10000 7.2 300 07:25 06.03.2020
1817 Rain 32 1006 63 10000 7.2 290 06:51 06.03.2020
1818 Rain 32 1007 63 10000 7.2 290 06:32 06.03.2020
1819 Rain 33 1008 62 10000 5.7 290 05:39 06.03.2020
1820 Rain 33 1008 62 10000 5.7 290 05:20 06.03.2020
1821 Clouds 33 1009 59 10000 3.1 250 04:41 06.03.2020
1822 Clouds 31 1009 70 10000 4.1 220 01:45 06.03.2020
1823 Clouds 30 1010 70 10000 3.6 220 01:26 06.03.2020
1824 Clouds 30 1009 79 10000 2.6 200 00:59 06.03.2020
1825 Clouds 29 1009 79 10000 3.1 190 00:31 06.03.2020
1826 Clouds 28 1009 83 10000 2.6 190 23:44 05.03.2020
1827 Clouds 27 1008 83 10000 2.1 190 23:25 05.03.2020
1828 Clouds 27 1008 88 10000 1.5 210 22:56 05.03.2020
1829 Clouds 26 1008 88 10000 1.5 210 22:37 05.03.2020
1830 Clouds 26 1008 88 10000 1.5 210 22:18 05.03.2020
1831 Clouds 26 1007 88 10000 2.1 220 21:56 05.03.2020
1832 Clouds 26 1007 88 10000 1.5 230 21:37 05.03.2020
1833 Clouds 26 1007 88 10000 1.5 230 21:19 05.03.2020
1834 Clouds 27 1007 78 10000 2.1 240 20:55 05.03.2020
1835 Clouds 27 1007 83 10000 1.5 250 20:36 05.03.2020
1836 Clouds 27 1007 83 10000 1.5 250 20:18 05.03.2020
1837 Clouds 26 1007 88 10000 1.5 250 19:55 05.03.2020
1838 Clouds 26 1007 88 10000 1 250 19:37 05.03.2020
1839 Clouds 26 1007 88 10000 1 250 19:18 05.03.2020
1840 Clouds 26 1008 88 10000 1 210 18:38 05.03.2020
1841 Clouds 26 1008 88 10000 1 210 18:19 05.03.2020
1842 Clouds 26 1008 88 10000 1 230 17:58 05.03.2020
1843 Clouds 26 1008 88 10000 1.5 280 17:40 05.03.2020
1844 Clouds 27 1008 88 10000 1.5 280 17:21 05.03.2020
1845 Clouds 27 1008 83 10000 1.5 280 16:42 05.03.2020
1846 Rain 27 1009 83 10000 2.1 260 16:42 05.03.2020
1847 Rain 27 1009 83 10000 2.1 260 16:24 05.03.2020
1848 Clouds 27 1009 83 10000 1.5 290 15:59 05.03.2020
1849 Clouds 27 1009 78 10000 1 300 15:40 05.03.2020
1850 Clouds 27 1009 78 10000 1 300 15:21 05.03.2020
1851 Rain 28 1009 79 10000 2.1 280 14:55 05.03.2020
1852 Rain 28 1009 74 10000 2.1 280 14:36 05.03.2020
1853 Clouds 28 1009 74 10000 2.1 280 14:18 05.03.2020
1854 Clouds 29 1009 74 10000 2.1 270 13:43 05.03.2020
1855 Clouds 28 1009 74 10000 1.5 270 13:21 05.03.2020
1856 Clouds 28 1009 74 10000 1.5 270 13:21 05.03.2020
1857 Clouds 28 1008 74 10000 2.1 290 12:57 05.03.2020
1858 Clouds 28 1008 74 10000 2.6 270 12:38 05.03.2020
1859 Clouds 29 1008 74 10000 2.6 270 12:19 05.03.2020
1860 Clouds 29 1008 74 10000 2.6 260 11:56 05.03.2020
1861 Clouds 29 1007 70 10000 3.1 270 11:37 05.03.2020
1862 Clouds 30 1007 70 10000 3.1 270 11:18 05.03.2020
1863 Clouds 30 1007 70 10000 4.1 270 10:56 05.03.2020
1864 Clouds 30 1006 66 10000 4.1 280 10:38 05.03.2020
1865 Clouds 30 1006 66 10000 4.1 280 10:38 05.03.2020
1866 Clouds 30 1006 66 10000 4.1 280 10:20 05.03.2020
1867 Clouds 30 1006 70 10000 3.1 240 09:44 05.03.2020
1868 Rain 31 1005 70 10000 3.1 240 09:26 05.03.2020
1869 Clouds 32 1005 62 10000 3.1 240 08:47 05.03.2020
1870 Clouds 32 1005 62 10000 4.6 300 08:29 05.03.2020
1871 Clouds 33 1005 62 10000 4.1 300 07:48 05.03.2020
1872 Clouds 33 1005 55 10000 1.5 270 07:22 05.03.2020
1873 Clouds 33 1005 62 10000 1 260 06:49 05.03.2020
1874 Rain 31 1006 74 10000 3.1 230 06:22 05.03.2020
1875 Rain 31 1006 70 10000 6.2 250 05:57 05.03.2020
1876 Rain 33 1006 59 10000 2.6 290 05:31 05.03.2020
1877 Rain 31 1007 62 10000 4.6 250 04:23 05.03.2020
1878 Clouds 31 1007 58 10000 7.2 290 03:56 05.03.2020
1879 Clouds 31 1008 70 10000 2.6 200 02:21 05.03.2020
1880 Clouds 31 1008 70 10000 3.1 210 01:22 05.03.2020
1881 Clouds 29 1007 74 10000 3.1 200 00:26 05.03.2020
1882 Clouds 27 1007 83 10000 2.1 190 23:43 04.03.2020
1883 Clouds 27 1007 83 10000 2.1 190 23:24 04.03.2020
1884 Rain 26 1006 88 10000 3.1 190 22:59 04.03.2020
1885 Rain 26 1006 88 10000 2.6 180 22:40 04.03.2020
1886 Rain 26 1006 88 10000 2.6 180 22:19 04.03.2020
1887 Clouds 26 1006 88 10000 3.1 210 21:59 04.03.2020
1888 Rain 26 1005 88 10000 2.1 200 21:41 04.03.2020
1889 Rain 26 1005 88 10000 2.1 200 21:20 04.03.2020
1890 Clouds 27 1005 88 10000 2.1 220 20:57 04.03.2020
1891 Clouds 26 1005 88 10000 1 210 20:39 04.03.2020
1892 Clouds 26 1005 88 10000 1 210 20:20 04.03.2020
1893 Clouds 26 1005 88 10000 2.1 210 19:42 04.03.2020
1894 Clouds 27 1005 83 10000 2.1 220 19:24 04.03.2020
1895 Clouds 27 1005 83 10000 1.5 230 18:57 04.03.2020
1896 Clouds 27 1005 83 10000 1.5 230 18:38 04.03.2020
1897 Clouds 27 1005 83 10000 1.5 230 18:20 04.03.2020
1898 Clouds 27 1006 83 10000 1.5 220 17:56 04.03.2020
1899 Clouds 27 1006 83 10000 1 240 17:37 04.03.2020
1900 Clouds 27 1006 83 10000 1 240 17:19 04.03.2020
1901 Clouds 27 1006 83 10000 1.5 240 16:44 04.03.2020
1902 Clouds 27 1006 83 10000 1.5 250 16:25 04.03.2020
1903 Clouds 27 1006 83 10000 1.5 260 15:59 04.03.2020
1904 Clouds 27 1007 83 10000 2.6 250 15:41 04.03.2020
1905 Clouds 27 1007 83 10000 2.6 250 15:22 04.03.2020
1906 Clouds 28 1007 83 10000 2.1 260 14:55 04.03.2020
1907 Clouds 28 1007 79 10000 2.6 250 14:37 04.03.2020
1908 Clouds 28 1007 79 10000 2.6 250 14:18 04.03.2020
1909 Clouds 28 1007 79 10000 2.1 260 13:56 04.03.2020
1910 Clouds 28 1006 79 10000 2.1 270 13:37 04.03.2020
1911 Clouds 28 1006 79 10000 2.1 270 13:19 04.03.2020
1912 Clouds 28 1006 74 10000 3.1 270 12:44 04.03.2020
1913 Clouds 28 1006 74 10000 2.6 280 12:26 04.03.2020
1914 Clouds 28 1005 74 10000 2.6 290 11:56 04.03.2020
1915 Clouds 29 1005 74 10000 3.1 280 11:38 04.03.2020
1916 Clouds 29 1005 74 10000 3.1 280 11:38 04.03.2020
1917 Clouds 29 1005 74 10000 3.1 280 11:19 04.03.2020
1918 Clouds 29 1005 74 10000 3.1 280 11:19 04.03.2020
1919 Clouds 30 1005 70 10000 3.1 290 10:47 04.03.2020
1920 Clouds 30 1004 70 10000 3.6 280 10:26 04.03.2020
1921 Clouds 31 1004 70 10000 3.6 290 09:58 04.03.2020
1922 Clouds 31 1004 70 10000 3.6 290 09:58 04.03.2020
1923 Clouds 31 1004 70 10000 4.1 290 09:40 04.03.2020
1924 Clouds 31 1004 70 10000 4.1 290 09:20 04.03.2020
1925 Clouds 31 1003 66 10000 4.6 290 08:44 04.03.2020
1926 Clouds 32 1003 62 10000 4.6 300 08:26 04.03.2020
1927 Clouds 32 1003 62 10000 4.6 300 07:54 04.03.2020
1928 Clouds 33 1003 62 10000 5.1 300 07:35 04.03.2020
1929 Clouds 32 1004 62 10000 4.6 310 06:58 04.03.2020
1930 Clouds 32 1004 66 10000 3.6 320 06:40 04.03.2020
1931 Clouds 33 1004 66 10000 3.6 320 06:20 04.03.2020
1932 Clouds 33 1004 62 10000 3.6 300 05:45 04.03.2020
1933 Clouds 32 1005 66 10000 3.1 260 04:21 04.03.2020
1934 Clouds 32 1006 70 10000 2.6 210 03:38 04.03.2020
1935 Clouds 31 1006 66 10000 3.1 190 02:59 04.03.2020
1936 Clouds 30 1006 78 10000 3.1 190 02:37 04.03.2020
1937 Rain 29 1006 78 10000 3.1 190 02:18 04.03.2020
1938 Rain 28 1007 88 10000 5.1 270 01:50 04.03.2020
1939 Rain 30 1006 79 10000 6.2 280 00:44 04.03.2020
1940 Clouds 30 1006 79 10000 4.6 280 00:24 04.03.2020
1941 Clouds 29 1006 79 10000 4.6 270 23:45 03.03.2020
1942 Rain 29 1005 79 10000 4.6 280 23:27 03.03.2020
1943 Rain 29 1005 79 10000 4.6 280 23:27 03.03.2020
1944 Rain 28 1005 83 10000 4.6 270 22:57 03.03.2020
1945 Clouds 28 1005 79 10000 3.6 270 22:39 03.03.2020
1946 Clouds 28 1005 79 10000 3.6 270 22:19 03.03.2020
1947 Clouds 29 1005 79 10000 5.1 280 21:56 03.03.2020
1948 Clouds 29 1004 79 10000 4.6 290 21:37 03.03.2020
1949 Clouds 29 1004 79 10000 4.6 290 21:18 03.03.2020
1950 Clouds 28 1004 79 10000 5.1 290 20:41 03.03.2020
1951 Clouds 29 1004 79 10000 5.1 290 20:21 03.03.2020
1952 Clouds 28 1004 79 10000 5.1 290 19:59 03.03.2020
1953 Clouds 28 1004 79 10000 6.2 290 19:37 03.03.2020
1954 Clouds 29 1004 79 10000 6.2 290 19:19 03.03.2020
1955 Clouds 28 1005 88 10000 5.1 290 18:58 03.03.2020
1956 Clouds 28 1005 83 10000 5.7 280 18:40 03.03.2020
1957 Clouds 28 1005 83 10000 5.7 280 18:21 03.03.2020
1958 Rain 27 1005 88 10000 5.1 290 17:57 03.03.2020
1959 Rain 27 1005 88 10000 5.1 290 17:57 03.03.2020
1960 Rain 27 1006 88 10000 4.6 310 17:39 03.03.2020
1961 Rain 27 1006 88 10000 4.6 310 17:21 03.03.2020
1962 Rain 27 1006 88 10000 3.6 290 16:57 03.03.2020
1963 Rain 27 1006 94 10000 3.6 300 16:37 03.03.2020
1964 Rain 27 1006 94 10000 3.6 300 16:19 03.03.2020
1965 Rain 26 1006 94 10000 2.6 280 15:45 03.03.2020
1966 Rain 26 1007 94 9000 5.1 240 15:22 03.03.2020
1967 Rain 28 1007 79 9000 7.7 260 14:57 03.03.2020
1968 Rain 29 1007 83 10000 5.7 290 14:38 03.03.2020
1969 Rain 29 1007 83 10000 5.7 290 14:19 03.03.2020
1970 Clouds 29 1007 83 10000 6.2 290 13:56 03.03.2020
1971 Rain 29 1006 83 10000 6.2 300 13:38 03.03.2020
1972 Rain 29 1006 83 10000 6.2 300 13:19 03.03.2020
1973 Clouds 29 1006 79 10000 6.2 300 12:43 03.03.2020
1974 Clouds 29 1006 79 10000 6.2 290 12:24 03.03.2020
1975 Clouds 29 1006 83 10000 5.7 290 11:56 03.03.2020
1976 Clouds 29 1005 83 10000 5.7 290 11:37 03.03.2020
1977 Clouds 29 1005 83 10000 5.7 290 11:18 03.03.2020
1978 Rain 29 1005 83 10000 6.7 290 10:55 03.03.2020
1979 Rain 29 1005 83 10000 5.7 290 10:37 03.03.2020
1980 Rain 29 1005 83 10000 5.7 290 10:18 03.03.2020
1981 Rain 29 1005 83 10000 5.7 290 10:18 03.03.2020
1982 Rain 28 1004 88 8000 5.7 270 09:43 03.03.2020
1983 Rain 29 1004 88 8000 5.7 270 09:21 03.03.2020
1984 Rain 29 1004 83 10000 6.7 290 08:43 03.03.2020
1985 Rain 29 1004 88 8000 9.3 300 08:24 03.03.2020
1986 Rain 30 1004 83 10000 7.7 290 07:58 03.03.2020
1987 Rain 30 1004 70 10000 8.7 290 07:39 03.03.2020
1988 Rain 31 1004 70 10000 8.7 290 07:19 03.03.2020
1989 Rain 30 1005 79 10000 8.2 300 06:40 03.03.2020
1990 Rain 31 1005 79 10000 8.2 300 06:21 03.03.2020
1991 Rain 31 1005 74 9000 5.1 340 05:46 03.03.2020
1992 Rain 31 1006 74 2000 8.7 310 04:57 03.03.2020
1993 Rain 31 1007 79 10000 5.7 310 03:32 03.03.2020
1994 Clouds 30 1007 79 10000 6.7 300 01:39 03.03.2020
1995 Rain 29 1007 79 10000 5.7 290 00:48 03.03.2020
1996 Rain 28 1007 83 10000 6.2 310 00:26 03.03.2020
1997 Rain 28 1006 83 8000 7.7 290 23:51 02.03.2020
1998 Rain 28 1006 79 10000 6.7 290 23:23 02.03.2020
1999 Rain 27 1006 88 10000 4.6 290 22:58 02.03.2020
2000 Rain 27 1006 88 10000 4.6 290 22:58 02.03.2020
2001 Rain 27 1005 88 10000 3.6 290 22:39 02.03.2020
2002 Rain 26 1005 88 10000 3.6 290 22:20 02.03.2020
2003 Thunderstorm 26 1006 94 10000 4.1 270 21:58 02.03.2020
2004 Rain 26 1006 94 8000 7.7 270 21:39 02.03.2020
2005 Rain 26 1006 94 8000 7.7 270 21:39 02.03.2020
2006 Rain 26 1006 94 8000 7.7 270 21:20 02.03.2020
2007 Rain 26 1006 88 8000 4.6 270 20:57 02.03.2020
2008 Rain 26 1006 88 8000 4.6 270 20:57 02.03.2020
2009 Clouds 27 1005 83 10000 5.7 320 20:38 02.03.2020
2010 Clouds 27 1005 83 10000 5.7 320 20:38 02.03.2020
2011 Clouds 28 1005 83 10000 5.7 320 20:19 02.03.2020
2012 Rain 28 1005 83 10000 5.7 320 19:54 02.03.2020
2013 Rain 28 1005 83 10000 5.7 330 19:36 02.03.2020
2014 Clouds 28 1005 83 10000 5.7 330 19:18 02.03.2020
2015 Clouds 28 1006 83 10000 5.7 320 18:44 02.03.2020
2016 Clouds 28 1006 83 10000 5.7 320 18:19 02.03.2020
2017 Clouds 28 1006 83 10000 5.7 320 18:19 02.03.2020
2018 Clouds 27 1006 83 10000 4.1 330 17:58 02.03.2020
2019 Clouds 27 1007 83 10000 4.1 340 17:40 02.03.2020
2020 Clouds 27 1007 83 10000 4.1 340 17:21 02.03.2020
2021 Clouds 28 1007 83 10000 4.1 330 16:55 02.03.2020
2022 Clouds 27 1007 83 10000 3.6 330 16:36 02.03.2020
2023 Clouds 27 1007 83 10000 3.6 330 16:18 02.03.2020
2024 Clouds 27 1007 83 10000 3.6 330 16:18 02.03.2020
2025 Clouds 28 1007 83 10000 3.6 330 15:42 02.03.2020
2026 Clouds 27 1007 83 10000 3.6 330 15:19 02.03.2020
2027 Clouds 28 1007 83 10000 2.6 340 14:41 02.03.2020
2028 Clouds 27 1007 83 10000 2.6 340 14:20 02.03.2020
2029 Clouds 28 1007 83 10000 3.6 350 13:59 02.03.2020
2030 Clouds 27 1007 83 10000 3.6 340 13:38 02.03.2020
2031 Clouds 27 1007 83 10000 3.6 340 13:18 02.03.2020
2032 Clouds 28 1007 83 10000 3.6 340 12:43 02.03.2020
2033 Clouds 27 1006 83 10000 3.6 340 12:19 02.03.2020
2034 Clouds 28 1006 83 10000 4.6 330 11:55 02.03.2020
2035 Clouds 28 1006 83 10000 4.6 320 11:36 02.03.2020
2036 Clouds 28 1006 83 10000 4.6 320 11:18 02.03.2020
2037 Clouds 28 1006 83 10000 4.6 320 10:42 02.03.2020
2038 Clouds 28 1006 78 10000 3.6 300 10:20 02.03.2020
2039 Rain 28 1007 78 10000 5.1 320 09:58 02.03.2020
2040 Clouds 28 1006 74 10000 6.2 310 09:39 02.03.2020
2041 Clouds 28 1006 74 10000 6.2 310 09:20 02.03.2020
2042 Clouds 29 1006 79 10000 6.2 300 08:41 02.03.2020
2043 Rain 29 1006 79 10000 6.2 300 08:19 02.03.2020
2044 Rain 29 1006 83 10000 7.2 300 07:42 02.03.2020
2045 Clouds 31 1006 70 10000 6.7 290 06:57 02.03.2020
2046 Rain 31 1007 74 10000 6.2 290 06:38 02.03.2020
2047 Clouds 31 1007 70 10000 5.7 290 05:53 02.03.2020
2048 Clouds 33 1008 62 10000 6.2 310 04:23 02.03.2020
2049 Clouds 32 1008 66 10000 5.1 350 03:20 02.03.2020
2050 Clouds 32 1009 70 10000 4.1 350 02:37 02.03.2020
2051 Clouds 31 1009 74 10000 4.1 360 01:47 02.03.2020
2052 Clouds 31 1009 74 10000 3.6 350 01:28 02.03.2020
2053 Clouds 31 1008 84 10000 3.6 350 00:23 02.03.2020
2054 Clouds 29 1008 89 10000 3.6 360 23:56 01.03.2020
2055 Clouds 29 1008 94 10000 2.6 350 23:38 01.03.2020
2056 Clouds 28 1008 94 10000 2.6 350 23:19 01.03.2020
2057 Clouds 28 1007 94 10000 2.6 350 22:43 01.03.2020
2058 Rain 28 1007 94 10000 3.1 350 22:20 01.03.2020
2059 Rain 27 1007 100 10000 3.1 350 21:55 01.03.2020
2060 Rain 27 1006 94 10000 1 30 21:37 01.03.2020
2061 Rain 27 1006 94 10000 1 30 21:18 01.03.2020
2062 Rain 27 1007 94 10000 0.5 50 20:43 01.03.2020
2063 Clouds 26 1006 94 10000 1 150 20:25 01.03.2020
2064 Clouds 27 1006 94 10000 2.1 80 19:55 01.03.2020
2065 Rain 27 1006 94 10000 2.1 150 19:36 01.03.2020
2066 Rain 27 1006 94 10000 2.1 150 19:18 01.03.2020
2067 Rain 26 1007 94 10000 0.84 325 18:40 01.03.2020
2068 Rain 26 1007 94 10000 0.84 325 18:20 01.03.2020
2069 Rain 26 1007 100 2800 2.1 80 17:58 01.03.2020
2070 Rain 26 1007 94 6000 1.5 70 17:40 01.03.2020
2071 Rain 27 1007 94 6000 1.5 70 17:21 01.03.2020
2072 Rain 27 1008 94 10000 1.5 110 16:57 01.03.2020
2073 Rain 27 1008 88 10000 2.6 200 16:39 01.03.2020
2074 Rain 27 1008 88 10000 2.6 200 16:18 01.03.2020
2075 Rain 27 1008 88 10000 2.6 200 16:18 01.03.2020
2076 Clouds 27 1008 94 10000 1 160 15:57 01.03.2020
2077 Rain 27 1009 94 10000 1 90 15:39 01.03.2020
2078 Rain 27 1009 94 10000 1 90 15:20 01.03.2020
2079 Clouds 27 1009 88 10000 1.5 80 14:57 01.03.2020
2080 Clouds 27 1008 94 10000 1 30 14:38 01.03.2020
2081 Clouds 27 1008 94 10000 1 30 14:20 01.03.2020
2082 Rain 27 1008 88 10000 2.1 10 13:56 01.03.2020
2083 Rain 27 1008 94 10000 2.6 20 13:37 01.03.2020
2084 Rain 27 1008 94 10000 2.6 20 13:37 01.03.2020
2085 Rain 27 1008 94 10000 2.6 20 13:19 01.03.2020
2086 Rain 29 1007 79 10000 3.6 270 12:43 01.03.2020
2087 Rain 30 1007 79 10000 2.6 270 12:21 01.03.2020
2088 Clouds 30 1007 79 10000 2.6 270 11:58 01.03.2020
2089 Clouds 30 1006 79 10000 2.6 280 11:39 01.03.2020
2090 Clouds 30 1006 79 10000 2.6 280 11:18 01.03.2020
2091 Clouds 30 1006 79 10000 3.1 290 10:55 01.03.2020
2092 Clouds 31 1006 74 10000 3.6 290 10:36 01.03.2020
2093 Clouds 30 1006 74 10000 3.6 290 10:18 01.03.2020
2094 Clouds 30 1006 70 10000 4.1 300 09:41 01.03.2020
2095 Clouds 30 1006 70 10000 4.1 300 09:22 01.03.2020
2096 Clouds 31 1005 66 10000 3.6 290 08:45 01.03.2020
2097 Clouds 32 1005 66 10000 4.6 300 08:26 01.03.2020
2098 Clouds 33 1005 62 10000 5.1 310 07:45 01.03.2020
2099 Clouds 33 1005 66 10000 5.1 300 07:27 01.03.2020
2100 Clouds 34 1006 63 10000 4.6 300 06:58 01.03.2020
2101 Clouds 33 1006 66 10000 4.1 310 06:40 01.03.2020
2102 Clouds 32 1008 66 10000 4.6 290 04:47 01.03.2020
2103 Clouds 32 1009 70 10000 4.1 300 02:58 01.03.2020
2104 Clouds 31 1010 74 10000 4.1 330 02:18 01.03.2020
2105 Clouds 31 1009 83 10000 3.6 340 01:36 01.03.2020
2106 Clouds 30 1009 79 10000 4.6 330 00:49 01.03.2020
2107 Clouds 30 1009 83 10000 1 10 00:25 01.03.2020
2108 Clouds 28 1008 88 10000 1.5 50 23:58 29.02.2020
2109 Clouds 27 1008 94 10000 2.1 40 23:40 29.02.2020
2110 Clouds 27 1008 94 10000 2.1 40 23:21 29.02.2020
2111 Clouds 26 1007 94 10000 1 60 22:37 29.02.2020
2112 Clouds 26 1007 94 10000 1 60 22:19 29.02.2020
2113 Clouds 26 1007 100 10000 1.5 40 21:39 29.02.2020
2114 Clouds 26 1007 100 10000 1.5 40 21:19 29.02.2020
2115 Clouds 26 1006 94 10000 2.1 60 20:41 29.02.2020
2116 Clouds 26 1006 94 10000 2.1 60 20:20 29.02.2020
2117 Clouds 26 1006 94 10000 2.1 90 19:55 29.02.2020
2118 Clouds 26 1007 94 10000 1 90 19:36 29.02.2020
2119 Clouds 26 1007 94 10000 1 90 19:18 29.02.2020
2120 Clouds 26 1007 94 10000 0.5 100 18:42 29.02.2020
2121 Clouds 26 1007 94 10000 0.5 100 18:22 29.02.2020
2122 Clouds 26 1008 94 10000 1 100 17:56 29.02.2020
2123 Clouds 26 1008 94 10000 1.5 130 17:37 29.02.2020
2124 Clouds 26 1008 94 10000 1.5 130 17:19 29.02.2020
2125 Clouds 26 1008 94 10000 1.52 186 16:44 29.02.2020
2126 Clouds 26 1008 88 10000 1.5 100 16:19 29.02.2020
2127 Clouds 26 1008 88 10000 1.5 90 15:56 29.02.2020
2128 Clouds 27 1008 94 10000 1.5 70 15:36 29.02.2020
2129 Clouds 27 1008 94 10000 1.5 70 15:18 29.02.2020
2130 Clouds 27 1008 94 10000 1.5 70 14:39 29.02.2020
2131 Clouds 27 1008 94 10000 1.5 70 14:21 29.02.2020
2132 Clouds 27 1008 88 10000 1.5 100 13:45 29.02.2020
2133 Clouds 27 1008 88 10000 1.5 100 13:45 29.02.2020
2134 Clouds 27 1008 88 10000 1.5 100 13:27 29.02.2020
2135 Clouds 27 1007 88 10000 1.5 130 12:57 29.02.2020
2136 Clouds 27 1007 88 10000 2.1 110 12:38 29.02.2020
2137 Clouds 27 1007 88 10000 2.1 110 12:20 29.02.2020
2138 Clouds 28 1007 88 10000 1.5 90 11:45 29.02.2020
2139 Clouds 28 1007 88 10000 1.5 100 11:26 29.02.2020
2140 Clouds 28 1006 83 10000 0.5 130 10:51 29.02.2020
2141 Clouds 28 1006 83 10000 1.5 160 10:31 29.02.2020
2142 Clouds 28 1006 83 10000 1.5 160 10:31 29.02.2020
2143 Clouds 29 1006 83 10000 1.5 140 09:56 29.02.2020
2144 Clouds 29 1006 79 10000 2.1 190 09:38 29.02.2020
2145 Clouds 29 1006 79 10000 2.1 190 09:18 29.02.2020
2146 Clouds 29 1006 83 10000 3.6 150 08:40 29.02.2020
2147 Clouds 29 1006 83 10000 3.6 150 08:21 29.02.2020
2148 Clouds 29 1006 83 10000 1.5 120 07:52 29.02.2020
2149 Rain 29 1006 88 10000 4.1 100 07:25 29.02.2020
2150 Rain 30 1006 79 10000 2.6 350 06:55 29.02.2020
2151 Rain 31 1006 74 10000 2.6 340 06:29 29.02.2020
2152 Thunderstorm 31 1007 70 10000 3.1 290 05:52 29.02.2020
2153 Rain 31 1007 66 10000 4.6 300 05:32 29.02.2020
2154 Clouds 31 1008 66 10000 4.1 350 04:18 29.02.2020
2155 Clouds 32 1008 66 10000 4.1 350 03:24 29.02.2020
2156 Clouds 31 1008 70 10000 3.6 350 02:59 29.02.2020
2157 Clouds 29 1009 79 10000 2.6 40 01:59 29.02.2020
2158 Clouds 29 1009 83 10000 3.1 40 00:52 29.02.2020
2159 Clouds 29 1008 88 10000 3.1 20 00:28 29.02.2020
2160 Clouds 28 1007 94 10000 2.1 60 23:41 28.02.2020
2161 Clouds 27 1007 94 10000 2.1 60 23:23 28.02.2020
2162 Clouds 26 1006 94 10000 2.6 50 22:43 28.02.2020
2163 Clouds 26 1006 94 10000 2.6 50 22:23 28.02.2020
2164 Clouds 26 1006 94 10000 2.1 40 21:56 28.02.2020
2165 Clouds 26 1006 88 10000 2.6 50 21:38 28.02.2020
2166 Clouds 26 1006 88 10000 2.6 50 21:19 28.02.2020
2167 Clouds 26 1006 88 10000 2.6 40 20:39 28.02.2020
2168 Clouds 26 1006 88 10000 2.6 40 20:21 28.02.2020
2169 Clouds 26 1006 88 10000 2.6 30 19:57 28.02.2020
2170 Rain 26 1006 88 10000 2.1 10 19:39 28.02.2020
2171 Rain 26 1006 88 10000 2.1 10 19:39 28.02.2020
2172 Rain 26 1006 88 10000 2.1 10 19:39 28.02.2020
2173 Rain 26 1006 88 10000 2.1 10 19:20 28.02.2020
2174 Clouds 26 1006 88 10000 2.6 350 18:48 28.02.2020
2175 Clouds 27 1006 88 10000 2.1 20 18:29 28.02.2020
2176 Clouds 27 1007 88 10000 2.6 20 17:59 28.02.2020
2177 Clouds 27 1007 83 10000 3.1 20 17:40 28.02.2020
2178 Clouds 27 1007 83 10000 3.1 20 17:21 28.02.2020
2179 Rain 27 1007 83 10000 3.1 10 16:44 28.02.2020
2180 Rain 27 1007 83 10000 2.6 360 16:20 28.02.2020
2181 Rain 27 1007 88 8000 2.6 300 15:58 28.02.2020
2182 Thunderstorm 27 1008 83 10000 2.1 350 15:39 28.02.2020
2183 Thunderstorm 27 1008 83 10000 2.1 350 15:19 28.02.2020
2184 Rain 27 1007 94 10000 2.6 360 14:57 28.02.2020
2185 Clouds 26 1007 94 10000 1 60 14:38 28.02.2020
2186 Clouds 26 1007 94 10000 1 60 14:18 28.02.2020
2187 Clouds 26 1007 88 10000 0.5 240 13:41 28.02.2020
2188 Clouds 26 1007 88 10000 0.5 240 13:20 28.02.2020
2189 Rain 26 1006 88 10000 2.12 356 12:58 28.02.2020
2190 Rain 26 1006 88 9000 3.1 300 12:39 28.02.2020
2191 Rain 27 1006 88 9000 3.1 300 12:21 28.02.2020
2192 Rain 27 1005 94 10000 2.6 20 11:41 28.02.2020
2193 Rain 27 1005 94 10000 2.6 20 11:22 28.02.2020
2194 Rain 27 1005 94 10000 2.6 30 10:55 28.02.2020
2195 Clouds 27 1004 88 10000 2.6 10 10:36 28.02.2020
2196 Clouds 27 1004 88 10000 2.6 10 10:18 28.02.2020
2197 Rain 27 1004 83 10000 4.6 360 09:42 28.02.2020
2198 Rain 27 1004 83 10000 4.6 360 09:20 28.02.2020
2199 Rain 29 1004 83 10000 3.6 350 08:42 28.02.2020
2200 Rain 28 1004 83 10000 3.6 350 08:22 28.02.2020
2201 Rain 28 1004 83 10000 4.6 360 07:47 28.02.2020
2202 Rain 28 1003 74 10000 7.2 350 07:27 28.02.2020
2203 Rain 30 1004 83 10000 5.1 350 06:59 28.02.2020
2204 Rain 30 1004 79 10000 5.1 350 06:38 28.02.2020
2205 Rain 30 1005 79 10000 7.2 360 05:37 28.02.2020
2206 Clouds 30 1005 79 10000 6.7 20 04:32 28.02.2020
2207 Clouds 30 1006 83 10000 7.2 20 03:34 28.02.2020
2208 Clouds 29 1006 83 10000 6.7 20 02:42 28.02.2020
2209 Clouds 29 1006 83 10000 5.7 20 02:18 28.02.2020
2210 Rain 28 1005 88 10000 5.1 360 00:35 28.02.2020
2211 Rain 28 1005 88 10000 4.6 360 23:57 27.02.2020
2212 Rain 27 1004 94 10000 4.1 10 23:38 27.02.2020
2213 Rain 27 1004 94 10000 4.1 10 23:18 27.02.2020
2214 Rain 26 1004 94 5000 5.1 10 22:40 27.02.2020
2215 Rain 27 1004 94 5000 5.1 10 22:22 27.02.2020
2216 Rain 27 1004 88 6000 5.7 20 21:55 27.02.2020
2217 Rain 27 1003 88 10000 4.6 10 21:37 27.02.2020
2218 Rain 27 1003 88 10000 4.6 10 21:18 27.02.2020
2219 Clouds 27 1003 88 10000 4.6 350 20:42 27.02.2020
2220 Clouds 27 1003 88 10000 4.6 350 20:23 27.02.2020
2221 Clouds 27 1003 88 10000 4.6 360 19:59 27.02.2020
2222 Clouds 27 1002 88 10000 5.7 340 19:41 27.02.2020
2223 Rain 27 1002 88 10000 5.7 340 19:23 27.02.2020
2224 Rain 27 1003 88 10000 6.7 330 18:58 27.02.2020
2225 Rain 28 1003 88 9000 5.1 340 18:39 27.02.2020
2226 Clouds 27 1003 88 9000 5.1 340 18:20 27.02.2020
2227 Rain 27 1003 88 9000 5.1 320 17:56 27.02.2020
2228 Rain 27 1004 94 10000 3.1 350 17:37 27.02.2020
2229 Rain 27 1004 94 10000 3.1 350 17:18 27.02.2020
2230 Rain 26 1004 88 5000 6.7 340 16:54 27.02.2020
2231 Rain 26 1004 88 10000 5.7 350 16:36 27.02.2020
2232 Rain 27 1004 88 10000 5.7 350 16:18 27.02.2020
2233 Rain 28 1004 83 10000 8.2 320 15:39 27.02.2020
2234 Rain 28 1004 83 10000 8.2 320 15:20 27.02.2020
2235 Rain 28 1004 94 10000 4.6 340 14:59 27.02.2020
2236 Rain 28 1004 89 10000 8.2 320 14:39 27.02.2020
2237 Rain 28 1004 89 10000 8.2 320 14:21 27.02.2020
2238 Rain 28 1004 89 10000 5.7 330 13:43 27.02.2020
2239 Rain 28 1004 88 0 6.7 310 13:23 27.02.2020
2240 Rain 28 1003 83 10000 6.2 340 12:59 27.02.2020
2241 Rain 28 1003 88 10000 7.2 340 12:41 27.02.2020
2242 Rain 28 1003 88 10000 7.2 340 12:19 27.02.2020
2243 Rain 29 1002 74 10000 8.2 310 11:45 27.02.2020
2244 Rain 29 1002 79 10000 9.8 310 11:23 27.02.2020
2245 Rain 29 1002 79 10000 8.7 310 10:55 27.02.2020
2246 Rain 29 1002 83 10000 6.7 340 10:37 27.02.2020
2247 Rain 29 1002 83 10000 6.7 340 10:18 27.02.2020
2248 Rain 29 1001 79 10000 8.7 330 09:40 27.02.2020
2249 Rain 29 1001 79 10000 8.7 330 09:40 27.02.2020
2250 Rain 29 1001 79 10000 8.7 330 09:22 27.02.2020
2251 Rain 29 1001 79 10000 8.2 300 08:42 27.02.2020
2252 Rain 29 1001 79 10000 8.2 300 08:23 27.02.2020
2253 Rain 30 1001 79 10000 8.7 300 07:48 27.02.2020
2254 Rain 31 1002 74 10000 8.7 310 07:26 27.02.2020
2255 Clouds 30 1002 79 10000 8.7 310 06:54 27.02.2020
2256 Clouds 30 1002 79 10000 9.8 300 06:19 27.02.2020
2257 Rain 29 1004 83 10000 8.2 290 04:21 27.02.2020
2258 Rain 25 1005 100 6000 7.7 200 02:35 27.02.2020
2259 Thunderstorm 25 1005 100 7000 2.1 300 00:47 27.02.2020
2260 Rain 25 1004 94 10000 4.1 280 00:28 27.02.2020
2261 Rain 25 1004 94 7000 8.7 270 23:40 26.02.2020
2262 Rain 25 1004 94 7000 8.7 270 23:20 26.02.2020
2263 Rain 25 1004 94 2000 11.3 270 22:59 26.02.2020
2264 Rain 25 1004 94 8000 8.2 290 22:40 26.02.2020
2265 Rain 27 1004 94 8000 8.2 290 22:21 26.02.2020
2266 Rain 29 1002 83 10000 10.3 300 21:57 26.02.2020
2267 Rain 29 1003 78 9000 9.8 290 21:38 26.02.2020
2268 Rain 28 1003 78 9000 9.8 290 21:19 26.02.2020
2269 Rain 28 1002 83 10000 10.3 290 20:56 26.02.2020
2270 Rain 28 1002 88 5000 10.3 290 20:37 26.02.2020
2271 Rain 28 1002 88 5000 10.3 290 20:18 26.02.2020
2272 Rain 29 1002 79 10000 9.8 300 19:47 26.02.2020
2273 Rain 29 1002 83 10000 9.8 290 19:21 26.02.2020
2274 Clouds 30 1002 74 10000 10.3 300 18:59 26.02.2020
2275 Clouds 30 1002 74 10000 10.3 310 18:41 26.02.2020
2276 Clouds 30 1002 74 10000 10.3 310 18:41 26.02.2020
2277 Clouds 30 1002 74 10000 10.3 310 18:22 26.02.2020
2278 Clouds 30 1003 74 10000 10.3 300 17:59 26.02.2020
2279 Clouds 30 1003 74 10000 10.8 300 17:39 26.02.2020
2280 Clouds 30 1003 74 10000 10.8 300 17:18 26.02.2020
2281 Clouds 30 1003 74 10000 10.8 300 17:18 26.02.2020
2282 Clouds 30 1003 74 10000 9.8 290 16:56 26.02.2020
2283 Clouds 30 1004 74 10000 10.3 290 16:37 26.02.2020
2284 Clouds 30 1004 74 10000 10.3 290 16:18 26.02.2020
2285 Clouds 30 1004 74 10000 8.7 290 15:42 26.02.2020
2286 Clouds 30 1004 74 10000 8.7 290 15:23 26.02.2020
2287 Clouds 30 1005 74 10000 9.3 290 14:43 26.02.2020
2288 Clouds 30 1004 74 10000 10.8 300 14:23 26.02.2020
2289 Clouds 30 1004 74 10000 10.3 290 13:43 26.02.2020
2290 Clouds 30 1005 74 10000 8.7 290 13:23 26.02.2020
2291 Clouds 30 1004 74 10000 9.3 290 12:58 26.02.2020
2292 Clouds 30 1003 74 10000 9.8 290 12:37 26.02.2020
2293 Clouds 30 1003 74 10000 9.8 290 12:18 26.02.2020
2294 Clouds 30 1002 74 10000 9.8 290 11:42 26.02.2020
2295 Clouds 30 1002 74 10000 9.8 290 11:22 26.02.2020
2296 Clouds 30 1003 74 10000 9.3 290 10:58 26.02.2020
2297 Clouds 30 1002 74 10000 9.8 280 10:39 26.02.2020
2298 Clouds 30 1002 74 10000 9.8 280 10:20 26.02.2020
2299 Clouds 31 1002 70 10000 9.3 280 09:43 26.02.2020
2300 Clouds 31 1002 70 10000 9.3 280 09:22 26.02.2020
2301 Clouds 31 1002 70 10000 8.7 280 08:56 26.02.2020
2302 Clouds 31 1002 74 10000 8.2 280 08:36 26.02.2020
2303 Clouds 32 1002 74 10000 8.2 280 08:18 26.02.2020
2304 Rain 31 1002 84 10000 8.7 270 07:42 26.02.2020
2305 Rain 31 1002 84 10000 8.7 270 07:23 26.02.2020
2306 Rain 32 1002 70 10000 10.3 290 06:50 26.02.2020
2307 Rain 32 1003 75 10000 9.8 290 06:31 26.02.2020
2308 Clouds 32 1003 70 10000 9.8 290 05:49 26.02.2020
2309 Clouds 32 1003 70 10000 9.8 290 05:23 26.02.2020
2310 Rain 32 1004 79 10000 8.2 290 04:19 26.02.2020
2311 Clouds 31 1006 79 10000 7.7 290 02:21 26.02.2020
2312 Clouds 32 1005 74 10000 5.7 290 01:40 26.02.2020
2313 Clouds 30 1006 79 10000 7.2 290 00:48 26.02.2020
2314 Clouds 30 1005 79 10000 7.7 290 00:22 26.02.2020
2315 Clouds 30 1005 79 10000 7.7 280 23:45 25.02.2020
2316 Clouds 30 1005 79 10000 8.2 290 23:26 25.02.2020
2317 Clouds 30 1004 79 10000 8.2 290 22:59 25.02.2020
2318 Clouds 30 1004 79 10000 8.2 290 22:41 25.02.2020
2319 Clouds 30 1004 79 10000 8.2 290 22:19 25.02.2020
2320 Clouds 30 1004 79 10000 7.7 290 21:40 25.02.2020
2321 Clouds 30 1004 79 10000 7.7 290 21:21 25.02.2020
2322 Clouds 30 1004 79 10000 7.7 290 20:59 25.02.2020
2323 Clouds 30 1003 79 10000 7.2 290 20:40 25.02.2020
2324 Clouds 30 1003 79 10000 7.2 290 20:21 25.02.2020
2325 Clouds 30 1004 79 10000 7.2 290 19:59 25.02.2020
2326 Clouds 30 1004 79 10000 7.2 280 19:40 25.02.2020
2327 Clouds 30 1004 79 10000 7.2 280 19:19 25.02.2020
2328 Clouds 30 1005 74 10000 7.2 280 18:42 25.02.2020
2329 Clouds 30 1005 74 10000 7.2 280 18:21 25.02.2020
2330 Clouds 30 1005 74 10000 7.2 280 18:21 25.02.2020
2331 Clouds 30 1005 74 10000 7.2 280 17:58 25.02.2020
2332 Clouds 30 1005 74 10000 7.7 280 17:38 25.02.2020
2333 Clouds 30 1005 74 10000 7.7 280 17:19 25.02.2020
2334 Clouds 30 1006 74 10000 7.7 290 16:58 25.02.2020
2335 Clouds 30 1006 74 10000 7.7 290 16:58 25.02.2020
2336 Clouds 30 1006 74 10000 7.7 290 16:40 25.02.2020
2337 Clouds 30 1006 74 10000 7.7 290 16:22 25.02.2020
2338 Clouds 30 1006 74 10000 7.7 290 16:22 25.02.2020
2339 Clouds 30 1006 74 10000 8.2 290 15:56 25.02.2020
2340 Clouds 30 1006 74 10000 7.2 290 15:38 25.02.2020
2341 Clouds 30 1006 74 10000 7.2 290 15:18 25.02.2020
2342 Clouds 30 1006 74 10000 7.2 280 14:56 25.02.2020
2343 Clouds 30 1006 74 10000 7.2 280 14:37 25.02.2020
2344 Clouds 30 1006 74 10000 7.2 280 14:37 25.02.2020
2345 Clouds 30 1006 74 10000 7.2 280 14:37 25.02.2020
2346 Clouds 30 1006 74 10000 7.2 280 14:18 25.02.2020
2347 Clouds 30 1006 74 10000 7.2 280 14:18 25.02.2020
2348 Clouds 30 1006 74 10000 7.2 280 14:18 25.02.2020
2349 Clouds 30 1006 74 10000 8.2 280 13:55 25.02.2020
2350 Clouds 30 1006 74 10000 6.7 280 13:37 25.02.2020
2351 Clouds 30 1006 74 10000 6.7 280 13:18 25.02.2020
2352 Rain 30 1005 74 10000 6.7 280 12:41 25.02.2020
2353 Rain 30 1005 74 10000 6.7 280 12:21 25.02.2020
2354 Clouds 30 1005 74 10000 7.2 270 11:56 25.02.2020
2355 Clouds 30 1005 74 10000 6.2 270 11:38 25.02.2020
2356 Clouds 30 1005 74 10000 6.2 270 11:19 25.02.2020
2357 Clouds 30 1005 74 10000 6.2 270 11:19 25.02.2020
2358 Clouds 30 1005 70 10000 5.7 270 10:59 25.02.2020
2359 Clouds 30 1005 70 10000 5.7 270 10:59 25.02.2020
2360 Clouds 31 1004 70 10000 7.7 270 10:40 25.02.2020
2361 Clouds 31 1004 70 10000 7.7 270 10:21 25.02.2020
2362 Clouds 32 1004 62 10000 8.2 270 09:41 25.02.2020
2363 Clouds 32 1004 62 10000 8.2 270 09:21 25.02.2020
2364 Clouds 32 1004 62 10000 9.3 260 08:45 25.02.2020
2365 Clouds 32 1004 62 10000 8.7 270 08:27 25.02.2020
2366 Clouds 33 1004 63 10000 8.7 270 07:56 25.02.2020
2367 Clouds 33 1004 63 10000 9.8 270 07:36 25.02.2020
2368 Clouds 33 1004 63 10000 9.8 270 07:18 25.02.2020
2369 Clouds 33 1005 59 10000 9.3 270 06:27 25.02.2020
2370 Clouds 33 1006 63 10000 9.3 270 05:25 25.02.2020
2371 Clouds 32 1007 66 10000 7.2 270 02:54 25.02.2020
2372 Clouds 31 1007 66 10000 6.7 270 01:30 25.02.2020
2373 Clouds 30 1007 74 10000 6.2 270 00:34 25.02.2020
2374 Clouds 30 1006 74 10000 5.7 270 23:59 24.02.2020
2375 Clouds 30 1006 79 10000 5.1 270 23:40 24.02.2020
2376 Clouds 29 1006 79 10000 5.1 270 23:19 24.02.2020
2377 Clouds 29 1006 79 10000 5.1 270 22:38 24.02.2020
2378 Clouds 29 1006 79 10000 5.1 270 22:19 24.02.2020
2379 Clouds 29 1005 79 10000 5.7 270 21:57 24.02.2020
2380 Clouds 29 1005 79 10000 5.1 270 21:39 24.02.2020
2381 Clouds 29 1005 79 10000 5.1 270 21:19 24.02.2020
2382 Clouds 29 1005 79 10000 5.1 280 20:57 24.02.2020
2383 Clouds 29 1005 79 10000 4.6 270 20:38 24.02.2020
2384 Clouds 29 1005 79 10000 4.6 270 20:19 24.02.2020
2385 Clouds 29 1005 79 10000 5.1 270 19:56 24.02.2020
2386 Clouds 29 1005 79 10000 5.1 270 19:37 24.02.2020
2387 Clouds 29 1005 79 10000 5.1 270 19:19 24.02.2020
2388 Clouds 29 1006 79 10000 5.1 280 18:42 24.02.2020
2389 Clouds 29 1006 79 10000 5.1 280 18:24 24.02.2020
2390 Clouds 29 1006 79 10000 5.7 280 17:57 24.02.2020
2391 Clouds 29 1007 79 10000 5.1 270 17:39 24.02.2020
2392 Clouds 29 1007 79 10000 5.1 270 17:19 24.02.2020
2393 Clouds 29 1007 83 10000 5.7 280 16:55 24.02.2020
2394 Clouds 29 1008 79 10000 6.2 280 16:37 24.02.2020
2395 Clouds 29 1008 79 10000 6.2 280 16:18 24.02.2020
2396 Clouds 29 1008 79 10000 4.6 280 15:57 24.02.2020
2397 Clouds 29 1008 79 10000 4.6 270 15:38 24.02.2020
2398 Clouds 29 1008 79 10000 4.6 270 15:20 24.02.2020
2399 Clouds 29 1008 74 10000 5.7 270 14:42 24.02.2020
2400 Clouds 29 1008 74 10000 5.7 270 14:23 24.02.2020
2401 Clouds 29 1008 74 10000 5.1 280 13:59 24.02.2020
2402 Clouds 30 1008 74 10000 5.1 270 13:41 24.02.2020
2403 Clouds 30 1008 74 10000 5.1 270 13:23 24.02.2020
2404 Clouds 30 1007 74 10000 5.7 270 12:59 24.02.2020
2405 Clouds 30 1007 74 10000 6.7 270 12:41 24.02.2020
2406 Clouds 30 1007 74 10000 6.7 270 12:22 24.02.2020
2407 Clouds 30 1007 74 10000 6.2 270 11:49 24.02.2020
2408 Clouds 30 1006 74 10000 6.7 270 11:31 24.02.2020
2409 Clouds 30 1006 74 10000 6.7 270 10:52 24.02.2020
2410 Clouds 30 1006 74 10000 6.7 260 10:32 24.02.2020
2411 Clouds 31 1006 70 10000 7.7 270 09:58 24.02.2020
2412 Clouds 32 1006 66 10000 7.2 270 09:39 24.02.2020
2413 Clouds 32 1006 66 10000 7.2 270 09:19 24.02.2020
2414 Clouds 32 1006 66 10000 7.2 270 09:19 24.02.2020
2415 Clouds 32 1006 66 10000 7.2 280 08:48 24.02.2020
2416 Clouds 33 1006 63 10000 7.7 270 08:28 24.02.2020
2417 Clouds 33 1006 63 10000 7.7 270 07:54 24.02.2020
2418 Clouds 33 1006 63 10000 8.2 270 07:32 24.02.2020
2419 Clouds 33 1007 63 10000 8.2 280 06:49 24.02.2020
2420 Clouds 33 1006 59 10000 8.7 270 06:22 24.02.2020
2421 Clouds 33 1007 59 10000 7.7 270 05:41 24.02.2020
2422 Clouds 33 1007 59 10000 7.7 270 05:23 24.02.2020
2423 Clouds 32 1009 66 10000 6.7 270 02:57 24.02.2020
2424 Clouds 31 1009 66 10000 6.7 270 01:53 24.02.2020
2425 Clouds 31 1009 70 10000 6.2 260 01:28 24.02.2020
2426 Clouds 30 1008 74 10000 5.7 270 00:38 24.02.2020
2427 Clouds 30 1008 74 10000 5.7 270 00:19 24.02.2020
2428 Clouds 29 1008 79 10000 4.6 270 23:42 23.02.2020
2429 Clouds 29 1008 79 10000 4.6 270 23:23 23.02.2020
2430 Clouds 29 1007 79 10000 5.1 270 22:58 23.02.2020
2431 Clouds 29 1007 79 10000 6.2 280 22:40 23.02.2020
2432 Clouds 29 1007 79 10000 6.2 280 22:21 23.02.2020
2433 Clouds 29 1007 79 10000 4.6 270 21:46 23.02.2020
2434 Clouds 29 1007 79 10000 4.6 280 21:21 23.02.2020
2435 Clouds 29 1007 79 10000 4.1 270 20:58 23.02.2020
2436 Clouds 29 1006 79 10000 4.6 270 20:40 23.02.2020
2437 Clouds 29 1006 79 10000 4.6 270 20:22 23.02.2020
2438 Clouds 29 1006 79 10000 4.6 270 19:59 23.02.2020
2439 Clouds 29 1007 79 10000 4.6 270 19:40 23.02.2020
2440 Clouds 29 1007 79 10000 4.6 270 19:19 23.02.2020
2441 Clouds 29 1007 79 10000 4.6 270 18:59 23.02.2020
2442 Clouds 29 1007 79 10000 4.1 270 18:37 23.02.2020
2443 Clouds 29 1007 79 10000 4.1 270 18:19 23.02.2020
2444 Clouds 29 1007 79 10000 4.6 270 17:58 23.02.2020
2445 Clouds 29 1008 79 10000 5.1 270 17:39 23.02.2020
2446 Clouds 29 1008 79 10000 5.1 270 17:21 23.02.2020
2447 Clouds 30 1008 74 10000 5.7 270 16:56 23.02.2020
2448 Clouds 29 1008 79 10000 5.1 270 16:36 23.02.2020
2449 Clouds 29 1008 79 10000 5.1 270 16:18 23.02.2020
2450 Clouds 30 1008 79 10000 6.2 270 15:40 23.02.2020
2451 Clouds 30 1008 79 10000 6.2 270 15:40 23.02.2020
2452 Clouds 30 1008 79 10000 6.2 270 15:21 23.02.2020
2453 Clouds 30 1008 79 10000 6.2 270 14:59 23.02.2020
2454 Clouds 30 1008 79 10000 6.7 280 14:41 23.02.2020
2455 Clouds 30 1008 79 10000 6.7 280 14:22 23.02.2020
2456 Clouds 30 1008 79 10000 6.7 280 14:22 23.02.2020
2457 Clouds 30 1007 79 10000 6.2 280 13:57 23.02.2020
2458 Clouds 30 1007 79 10000 5.7 280 13:39 23.02.2020
2459 Clouds 30 1007 79 10000 5.7 280 13:21 23.02.2020
2460 Clouds 30 1007 74 10000 5.7 270 12:43 23.02.2020
2461 Clouds 30 1007 74 10000 6.2 270 12:23 23.02.2020
2462 Clouds 30 1007 74 10000 6.7 270 11:59 23.02.2020
2463 Clouds 30 1006 74 10000 6.7 280 11:38 23.02.2020
2464 Clouds 30 1006 74 10000 6.7 280 11:19 23.02.2020
2465 Clouds 30 1006 79 10000 7.2 280 10:56 23.02.2020
2466 Clouds 30 1006 74 10000 6.2 280 10:38 23.02.2020
2467 Clouds 30 1006 74 10000 6.2 280 10:20 23.02.2020
2468 Clouds 31 1005 66 10000 7.7 280 09:41 23.02.2020
2469 Clouds 32 1005 66 10000 7.7 280 09:21 23.02.2020
2470 Clouds 32 1005 70 10000 7.2 280 08:59 23.02.2020
2471 Clouds 32 1006 70 10000 7.7 290 08:41 23.02.2020
2472 Clouds 32 1006 70 10000 7.7 290 08:21 23.02.2020
2473 Clouds 32 1006 70 10000 7.7 290 07:40 23.02.2020
2474 Clouds 32 1006 70 10000 7.7 290 07:18 23.02.2020
2475 Clouds 32 1006 70 10000 8.2 290 05:54 23.02.2020
2476 Clouds 33 1007 63 10000 7.7 290 04:48 23.02.2020
2477 Clouds 32 1008 66 10000 6.2 270 03:35 23.02.2020
2478 Clouds 32 1008 74 10000 5.7 270 02:38 23.02.2020
2479 Clouds 31 1008 74 10000 6.7 270 01:27 23.02.2020
2480 Clouds 31 1008 74 10000 6.2 270 00:55 23.02.2020
2481 Clouds 31 1008 79 10000 5.7 270 00:36 23.02.2020
2482 Clouds 30 1008 79 10000 5.7 270 00:18 23.02.2020
2483 Clouds 30 1007 79 10000 5.7 260 23:41 22.02.2020
2484 Clouds 30 1007 79 10000 5.7 260 23:19 22.02.2020
2485 Clouds 29 1006 83 10000 4.1 270 22:44 22.02.2020
2486 Clouds 29 1006 83 10000 4.1 270 22:19 22.02.2020
2487 Clouds 29 1006 83 10000 4.6 270 21:43 22.02.2020
2488 Clouds 29 1006 83 10000 4.6 270 21:24 22.02.2020
2489 Clouds 29 1005 83 10000 5.1 270 20:54 22.02.2020
2490 Clouds 29 1006 83 10000 5.1 280 20:36 22.02.2020
2491 Clouds 29 1006 83 10000 5.1 280 20:18 22.02.2020
2492 Clouds 29 1006 83 10000 6.7 280 19:42 22.02.2020
2493 Clouds 29 1006 83 10000 6.7 280 19:21 22.02.2020
2494 Clouds 29 1007 83 10000 5.1 280 18:41 22.02.2020
2495 Clouds 29 1007 83 10000 5.1 280 18:22 22.02.2020
2496 Clouds 29 1007 83 10000 6.2 280 17:58 22.02.2020
2497 Clouds 29 1007 83 10000 6.2 280 17:58 22.02.2020
2498 Clouds 29 1007 83 10000 5.1 280 17:40 22.02.2020
2499 Clouds 29 1007 83 10000 5.1 280 17:22 22.02.2020
2500 Clouds 29 1007 83 10000 5.7 280 16:58 22.02.2020
2501 Clouds 29 1007 83 10000 5.7 280 16:39 22.02.2020
2502 Clouds 29 1007 83 10000 5.7 280 16:20 22.02.2020
2503 Clouds 29 1008 83 10000 6.2 280 15:45 22.02.2020
2504 Clouds 29 1008 83 10000 6.2 280 15:45 22.02.2020
2505 Clouds 30 1008 79 10000 6.2 280 15:27 22.02.2020
2506 Clouds 30 1008 79 10000 6.2 280 14:57 22.02.2020
2507 Clouds 30 1008 79 10000 5.7 280 14:39 22.02.2020
2508 Clouds 30 1008 79 10000 5.7 280 14:19 22.02.2020
2509 Clouds 30 1008 79 10000 5.1 280 13:41 22.02.2020
2510 Clouds 30 1008 79 10000 5.1 280 13:20 22.02.2020
2511 Clouds 30 1007 79 10000 4.6 280 12:48 22.02.2020
2512 Clouds 30 1007 79 10000 5.1 280 12:26 22.02.2020
2513 Clouds 30 1006 79 10000 5.1 270 11:56 22.02.2020
2514 Clouds 30 1006 79 10000 5.7 270 11:38 22.02.2020
2515 Clouds 30 1006 79 10000 5.7 270 11:20 22.02.2020
2516 Clouds 30 1005 74 10000 6.7 270 10:42 22.02.2020
2517 Clouds 30 1005 74 10000 6.7 270 10:42 22.02.2020
2518 Clouds 31 1005 74 10000 6.7 270 10:21 22.02.2020
2519 Clouds 31 1005 74 10000 6.2 280 09:59 22.02.2020
2520 Clouds 31 1005 74 10000 6.2 280 09:40 22.02.2020
2521 Clouds 31 1005 74 10000 6.2 280 09:21 22.02.2020
2522 Clouds 32 1005 70 10000 7.2 280 08:51 22.02.2020
2523 Clouds 32 1005 70 10000 6.7 290 08:28 22.02.2020
2524 Clouds 32 1005 70 10000 6.7 290 08:28 22.02.2020
2525 Clouds 32 1005 70 10000 7.2 280 07:54 22.02.2020
2526 Clouds 33 1005 70 10000 7.2 280 07:20 22.02.2020
2527 Clouds 33 1006 66 10000 6.7 270 06:53 22.02.2020
2528 Clouds 33 1006 66 10000 7.2 270 06:34 22.02.2020
2529 Clouds 34 1008 66 10000 6.7 270 04:42 22.02.2020
2530 Clouds 33 1008 66 10000 5.7 260 03:45 22.02.2020
2531 Clouds 32 1009 70 10000 6.7 250 02:34 22.02.2020
2532 Clouds 31 1009 74 10000 6.7 250 01:47 22.02.2020
2533 Clouds 31 1009 70 10000 7.2 250 01:27 22.02.2020
2534 Clouds 31 1008 74 10000 6.2 240 00:46 22.02.2020
2535 Clouds 30 1008 79 10000 6.7 250 00:28 22.02.2020
2536 Clouds 30 1008 79 10000 5.7 250 23:52 21.02.2020
2537 Clouds 29 1008 83 10000 5.1 260 23:24 21.02.2020
2538 Clouds 29 1007 79 10000 4.6 260 22:57 21.02.2020
2539 Clouds 29 1007 79 10000 5.1 260 22:39 21.02.2020
2540 Clouds 28 1007 79 10000 5.1 260 22:21 21.02.2020
2541 Clouds 29 1007 83 10000 4.6 270 21:42 21.02.2020
2542 Clouds 29 1007 83 10000 4.6 270 21:24 21.02.2020
2543 Clouds 29 1007 83 10000 4.6 270 21:24 21.02.2020
2544 Clouds 29 1007 79 10000 4.6 270 20:56 21.02.2020
2545 Clouds 29 1007 79 10000 4.1 270 20:38 21.02.2020
2546 Clouds 29 1007 79 10000 4.1 270 20:19 21.02.2020
2547 Clouds 28 1007 88 10000 3.6 270 19:39 21.02.2020
2548 Clouds 28 1007 88 10000 3.6 270 19:19 21.02.2020
2549 Clouds 28 1008 88 10000 3.1 310 18:40 21.02.2020
2550 Clouds 28 1008 88 10000 3.1 310 18:22 21.02.2020
2551 Clouds 28 1008 88 10000 3.1 310 18:22 21.02.2020
2552 Clouds 27 1008 88 10000 2.1 330 17:56 21.02.2020
2553 Clouds 27 1009 88 10000 2.6 330 17:36 21.02.2020
2554 Clouds 27 1009 88 10000 2.6 330 17:18 21.02.2020
2555 Clouds 28 1010 83 10000 4.1 290 16:41 21.02.2020
2556 Clouds 28 1010 83 10000 4.1 290 16:22 21.02.2020
2557 Rain 27 1010 88 10000 2.6 280 15:57 21.02.2020
2558 Rain 27 1010 94 10000 3.1 280 15:38 21.02.2020
2559 Rain 27 1010 94 10000 3.1 280 15:18 21.02.2020
2560 Rain 27 1010 94 10000 3.1 280 15:18 21.02.2020
2561 Rain 27 1010 94 10000 3.1 280 15:18 21.02.2020
2562 Clouds 27 1009 94 10000 0.5 40 14:42 21.02.2020
2563 Clouds 27 1009 94 10000 0.5 40 14:21 21.02.2020
2564 Clouds 27 1010 88 10000 1.5 280 13:45 21.02.2020
2565 Clouds 28 1009 88 10000 2.1 280 13:24 21.02.2020
2566 Clouds 28 1008 88 10000 3.1 270 12:59 21.02.2020
2567 Clouds 27 1008 88 10000 2.6 270 12:40 21.02.2020
2568 Rain 27 1008 88 10000 2.6 270 12:22 21.02.2020
2569 Rain 27 1007 83 10000 4.6 260 11:55 21.02.2020
2570 Rain 27 1008 88 10000 2.6 270 11:36 21.02.2020
2571 Rain 27 1008 88 10000 2.6 270 11:18 21.02.2020
2572 Rain 26 1007 88 10000 6.7 290 10:41 21.02.2020
2573 Rain 26 1007 88 10000 6.7 290 10:20 21.02.2020
2574 Thunderstorm 26 1007 83 6000 6.2 290 09:58 21.02.2020
2575 Thunderstorm 26 1006 94 10000 8.7 280 09:38 21.02.2020
2576 Thunderstorm 26 1006 94 10000 8.7 280 09:38 21.02.2020
2577 Thunderstorm 27 1006 94 10000 8.7 280 09:20 21.02.2020
2578 Rain 28 1006 94 2000 4.1 300 08:45 21.02.2020
2579 Rain 28 1007 94 700 8.7 270 08:23 21.02.2020
2580 Rain 30 1006 79 10000 5.7 300 07:59 21.02.2020
2581 Rain 31 1006 59 10000 1.5 260 07:41 21.02.2020
2582 Rain 32 1006 59 10000 1.5 260 07:20 21.02.2020
2583 Clouds 32 1007 59 10000 1.5 290 06:55 21.02.2020
2584 Rain 32 1007 59 10000 1.5 170 06:31 21.02.2020
2585 Rain 32 1007 62 10000 2.6 200 05:52 21.02.2020
2586 Clouds 31 1008 66 10000 3.6 190 04:39 21.02.2020
2587 Clouds 32 1008 66 10000 3.6 190 04:20 21.02.2020
2588 Clouds 31 1009 70 10000 4.6 210 03:44 21.02.2020
2589 Clouds 30 1009 79 10000 4.6 210 02:58 21.02.2020
2590 Clouds 29 1009 83 10000 4.1 190 01:28 21.02.2020
2591 Clouds 28 1009 78 10000 3.1 220 00:46 21.02.2020
2592 Clouds 27 1008 83 10000 2.1 240 00:24 21.02.2020
2593 Clouds 26 1008 88 10000 1.5 240 23:57 20.02.2020
2594 Clouds 26 1007 88 10000 1.5 200 23:39 20.02.2020
2595 Clouds 25 1007 88 10000 1.5 200 23:20 20.02.2020
2596 Rain 25 1007 94 10000 1.5 290 22:39 20.02.2020
2597 Rain 24 1007 94 10000 1.5 290 22:21 20.02.2020
2598 Rain 24 1007 94 10000 1.5 290 22:21 20.02.2020
2599 Rain 24 1007 94 10000 1.5 290 22:21 20.02.2020
2600 Rain 24 1007 94 10000 1.5 270 21:57 20.02.2020
2601 Rain 24 1007 94 10000 1.5 270 21:57 20.02.2020
2602 Rain 24 1007 100 10000 2.1 230 21:37 20.02.2020
2603 Rain 24 1007 100 10000 2.1 230 21:37 20.02.2020
2604 Rain 24 1007 100 10000 2.1 230 21:19 20.02.2020
2605 Clouds 24 1007 94 10000 2.6 180 20:56 20.02.2020
2606 Clouds 24 1008 94 10000 3.1 170 20:38 20.02.2020
2607 Rain 24 1008 94 10000 3.1 170 20:19 20.02.2020
2608 Rain 24 1008 94 10000 4.1 170 19:58 20.02.2020
2609 Rain 25 1008 88 10000 5.1 150 19:40 20.02.2020
2610 Rain 25 1008 88 10000 5.1 150 19:22 20.02.2020
2611 Rain 25 1007 78 10000 3.6 20 18:40 20.02.2020
2612 Rain 25 1007 78 10000 3.6 20 18:21 20.02.2020
2613 Rain 25 1008 94 10000 5.1 10 17:56 20.02.2020
2614 Rain 25 1008 94 10000 5.1 10 17:38 20.02.2020
2615 Rain 25 1009 88 10000 5.7 30 17:18 20.02.2020
2616 Rain 25 1009 88 10000 5.7 30 16:56 20.02.2020
2617 Rain 25 1009 100 10000 7.7 40 16:37 20.02.2020
2618 Rain 24 1009 100 10000 7.7 40 16:18 20.02.2020
2619 Rain 24 1010 100 10000 6.2 50 15:42 20.02.2020
2620 Rain 24 1010 100 10000 6.2 50 15:22 20.02.2020
2621 Rain 24 1010 100 10000 3.1 50 14:57 20.02.2020
2622 Rain 24 1010 94 8000 3.1 70 14:39 20.02.2020
2623 Rain 24 1010 94 8000 3.1 70 14:39 20.02.2020
2624 Rain 24 1010 94 8000 3.1 70 14:20 20.02.2020
2625 Rain 24 1010 94 10000 4.1 110 13:46 20.02.2020
2626 Rain 24 1010 94 6000 5.1 120 13:21 20.02.2020
2627 Rain 24 1009 94 10000 6.7 130 12:59 20.02.2020
2628 Rain 24 1008 94 1200 9.3 130 12:40 20.02.2020
2629 Rain 24 1008 94 1200 9.3 130 12:20 20.02.2020
2630 Thunderstorm 25 1007 94 1500 10.8 170 11:57 20.02.2020
2631 Rain 27 1006 88 10000 7.2 300 11:39 20.02.2020
2632 Rain 28 1006 88 10000 7.2 300 11:19 20.02.2020
2633 Rain 28 1006 88 8000 7.2 250 10:55 20.02.2020
2634 Rain 29 1006 79 3500 7.7 260 10:36 20.02.2020
2635 Rain 29 1006 79 3500 7.7 260 10:18 20.02.2020
2636 Clouds 31 1004 66 10000 7.7 270 09:37 20.02.2020
2637 Clouds 32 1004 66 10000 7.7 270 09:19 20.02.2020
2638 Clouds 31 1004 70 10000 7.7 270 08:41 20.02.2020
2639 Clouds 32 1004 70 10000 7.7 270 08:23 20.02.2020
2640 Clouds 32 1004 74 10000 6.2 280 07:47 20.02.2020
2641 Clouds 31 1005 74 10000 5.7 270 07:27 20.02.2020
2642 Rain 32 1006 74 10000 6.2 250 06:57 20.02.2020
2643 Clouds 32 1006 70 10000 6.7 260 06:31 20.02.2020
2644 Clouds 31 1006 70 10000 6.7 260 05:47 20.02.2020
2645 Clouds 32 1007 66 10000 7.2 250 05:20 20.02.2020
2646 Clouds 32 1007 66 10000 7.2 260 04:37 20.02.2020
2647 Clouds 32 1007 62 10000 6.7 240 03:40 20.02.2020
2648 Clouds 30 1008 70 10000 5.1 260 02:45 20.02.2020
2649 Clouds 29 1008 74 10000 2.6 220 01:23 20.02.2020
2650 Clouds 27 1007 74 10000 2.1 260 00:37 20.02.2020
2651 Clouds 26 1007 83 10000 2.1 260 23:55 19.02.2020
2652 Clouds 25 1007 83 10000 3.1 270 23:24 19.02.2020
2653 Rain 24 1007 94 10000 1.5 330 22:59 19.02.2020
2654 Rain 24 1007 94 10000 3.6 280 22:41 19.02.2020
2655 Rain 24 1007 94 10000 3.6 280 22:21 19.02.2020
2656 Rain 23 1007 94 10000 1.5 70 21:57 19.02.2020
2657 Rain 23 1007 100 8000 1 110 21:38 19.02.2020
2658 Rain 23 1007 100 8000 1 110 21:18 19.02.2020
2659 Rain 23 1008 100 6000 2.1 160 20:56 19.02.2020
2660 Rain 23 1007 94 8000 1.5 150 20:37 19.02.2020
2661 Rain 23 1007 94 8000 1.5 150 20:18 19.02.2020
2662 Rain 23 1008 100 6000 5.7 180 19:56 19.02.2020
2663 Rain 22 1008 94 8000 2.6 110 19:37 19.02.2020
2664 Rain 22 1008 94 8000 2.6 110 19:18 19.02.2020
2665 Rain 22 1008 94 6000 5.7 120 18:56 19.02.2020
2666 Rain 22 1008 94 6000 5.7 120 18:56 19.02.2020
2667 Rain 22 1008 94 2600 7.7 120 18:38 19.02.2020
2668 Rain 22 1008 94 2600 7.7 120 18:20 19.02.2020
2669 Clouds 30 1007 79 10000 3.1 300 17:43 19.02.2020
2670 Clouds 28 1007 79 10000 3.1 300 17:20 19.02.2020
2671 Clouds 29 1007 79 10000 4.6 300 16:45 19.02.2020
2672 Clouds 29 1007 79 10000 4.6 300 16:20 19.02.2020
2673 Clouds 29 1007 79 10000 4.1 290 15:59 19.02.2020
2674 Clouds 29 1008 79 10000 2.6 280 15:41 19.02.2020
2675 Clouds 29 1008 79 10000 2.6 280 15:23 19.02.2020
2676 Clouds 29 1007 79 10000 4.6 290 14:55 19.02.2020
2677 Clouds 29 1007 79 10000 4.6 290 14:37 19.02.2020
2678 Clouds 30 1007 79 10000 4.6 290 14:18 19.02.2020
2679 Clouds 30 1007 79 10000 4.6 270 13:41 19.02.2020
2680 Clouds 30 1007 79 10000 4.6 270 13:21 19.02.2020
2681 Clouds 30 1006 79 10000 4.6 270 12:42 19.02.2020
2682 Clouds 30 1006 79 10000 4.6 270 12:19 19.02.2020
2683 Clouds 30 1006 79 10000 4.6 280 11:59 19.02.2020
2684 Clouds 30 1005 70 10000 4.6 280 11:37 19.02.2020
2685 Clouds 30 1005 70 10000 4.6 280 11:19 19.02.2020
2686 Clouds 31 1005 70 10000 5.1 270 10:58 19.02.2020
2687 Rain 31 1005 77 0 3.39 262 10:38 19.02.2020
2688 Rain 31 1005 77 0 3.39 262 10:38 19.02.2020
2689 Clouds 32 1004 66 10000 5.7 270 10:19 19.02.2020
2690 Clouds 32 1004 66 10000 5.7 270 09:58 19.02.2020
2691 Clouds 32 1003 66 10000 5.7 270 09:37 19.02.2020
2692 Clouds 33 1003 66 10000 5.7 270 09:19 19.02.2020
2693 Clouds 33 1003 63 10000 7.2 290 08:45 19.02.2020
2694 Clouds 33 1003 63 10000 7.2 290 08:24 19.02.2020
2695 Clouds 34 1004 63 10000 6.7 290 07:43 19.02.2020
2696 Clouds 34 1005 63 10000 6.7 300 07:25 19.02.2020
2697 Clouds 33 1005 70 10000 7.7 300 06:53 19.02.2020
2698 Clouds 34 1005 63 10000 6.2 300 06:27 19.02.2020
2699 Clouds 34 1006 59 10000 3.6 240 04:25 19.02.2020
2700 Clouds 32 1007 70 10000 3.6 230 02:58 19.02.2020
2701 Clouds 32 1007 66 10000 3.6 260 02:31 19.02.2020
2702 Clouds 31 1007 70 10000 3.6 260 01:24 19.02.2020
2703 Clouds 30 1007 62 10000 3.6 240 00:51 19.02.2020
2704 Clouds 30 1007 70 10000 3.6 260 00:32 19.02.2020
2705 Clouds 29 1007 79 10000 3.6 250 23:56 18.02.2020
2706 Clouds 28 1007 83 10000 1.5 250 23:37 18.02.2020
2707 Clouds 28 1007 83 10000 1.5 250 23:19 18.02.2020
2708 Clouds 26 1007 88 10000 1.5 250 22:43 18.02.2020
2709 Clouds 26 1006 88 10000 1 360 22:20 18.02.2020
2710 Rain 26 1006 88 10000 1.5 360 21:58 18.02.2020
2711 Rain 26 1006 94 10000 0.97 34 21:38 18.02.2020
2712 Rain 26 1006 94 10000 0.97 34 21:38 18.02.2020
2713 Rain 26 1006 94 10000 0.97 34 21:19 18.02.2020
2714 Rain 26 1006 94 10000 0.97 34 20:58 18.02.2020
2715 Rain 26 1006 88 10000 1 360 20:38 18.02.2020
2716 Rain 26 1006 88 10000 1 360 20:20 18.02.2020
2717 Rain 26 1006 88 10000 2.1 60 19:56 18.02.2020
2718 Rain 26 1007 88 10000 1.5 60 19:37 18.02.2020
2719 Rain 26 1007 88 10000 1.5 60 19:18 18.02.2020
2720 Clouds 25 1008 88 10000 2.1 70 18:41 18.02.2020
2721 Clouds 25 1008 88 10000 2.1 70 18:21 18.02.2020
2722 Clouds 25 1008 88 10000 2.6 110 17:57 18.02.2020
2723 Clouds 25 1008 88 10000 3.1 100 17:38 18.02.2020
2724 Clouds 26 1008 88 10000 3.1 100 17:19 18.02.2020
2725 Rain 26 1008 88 10000 1.5 60 16:40 18.02.2020
2726 Rain 26 1008 88 10000 1.5 60 16:21 18.02.2020
2727 Rain 25 1009 88 10000 1.5 80 15:42 18.02.2020
2728 Rain 26 1009 88 10000 1.5 80 15:21 18.02.2020
2729 Rain 25 1009 88 10000 1 130 14:59 18.02.2020
2730 Rain 25 1008 88 10000 2.6 110 14:41 18.02.2020
2731 Rain 26 1008 88 10000 2.6 110 14:21 18.02.2020
2732 Drizzle 26 1008 88 10000 1.5 150 13:59 18.02.2020
2733 Rain 26 1007 88 10000 2.6 90 13:40 18.02.2020
2734 Rain 26 1007 88 10000 2.6 90 13:21 18.02.2020
2735 Rain 26 1007 88 10000 2.6 100 12:44 18.02.2020
2736 Rain 26 1007 88 10000 2.6 100 12:25 18.02.2020
2737 Rain 26 1006 88 10000 0.5 350 11:56 18.02.2020
2738 Clouds 26 1005 83 10000 0.5 350 11:38 18.02.2020
2739 Clouds 27 1005 83 10000 0.5 350 11:20 18.02.2020
2740 Clouds 26 1005 83 10000 2.6 350 10:44 18.02.2020
2741 Rain 26 1005 88 10000 1 20 10:23 18.02.2020
2742 Rain 26 1005 83 10000 3.1 280 09:56 18.02.2020
2743 Clouds 25 1004 88 10000 2.1 230 09:38 18.02.2020
2744 Clouds 25 1004 88 10000 2.1 230 09:19 18.02.2020
2745 Rain 25 1005 88 10000 5.1 220 08:55 18.02.2020
2746 Rain 26 1006 88 10000 5.7 230 08:37 18.02.2020
2747 Rain 26 1006 88 10000 5.7 230 08:19 18.02.2020
2748 Thunderstorm 26 1006 83 10000 5.7 180 07:46 18.02.2020
2749 Rain 27 1006 88 5000 6.7 130 07:25 18.02.2020
2750 Rain 29 1007 74 7000 10.3 130 06:51 18.02.2020
2751 Clouds 32 1005 55 10000 6.7 270 06:28 18.02.2020
2752 Clouds 34 1006 56 10000 7.7 290 05:48 18.02.2020
2753 Clouds 33 1007 56 10000 6.7 270 05:20 18.02.2020
2754 Clouds 34 1008 56 10000 5.7 250 03:49 18.02.2020
2755 Clouds 33 1008 66 10000 5.1 270 02:58 18.02.2020
2756 Clouds 32 1008 70 10000 6.2 280 01:25 18.02.2020
2757 Clouds 31 1008 74 10000 5.1 280 00:43 18.02.2020
2758 Clouds 31 1008 74 10000 5.1 280 00:18 18.02.2020
2759 Clouds 29 1007 74 10000 4.1 290 23:39 17.02.2020
2760 Clouds 28 1007 74 10000 4.1 290 23:20 17.02.2020
2761 Clouds 27 1007 83 10000 3.1 270 22:58 17.02.2020
2762 Clouds 28 1007 83 10000 2.1 280 22:39 17.02.2020
2763 Clouds 28 1007 83 10000 2.1 280 22:18 17.02.2020
2764 Clouds 28 1007 83 10000 2.1 280 22:18 17.02.2020
2765 Clouds 27 1006 83 10000 2.1 270 21:39 17.02.2020
2766 Clouds 27 1006 83 10000 2.1 270 21:19 17.02.2020
2767 Clouds 27 1007 78 10000 1.5 240 20:55 17.02.2020
2768 Clouds 27 1007 78 10000 1.5 240 20:55 17.02.2020
2769 Clouds 26 1006 88 10000 0.5 330 20:37 17.02.2020
2770 Clouds 26 1006 88 10000 0.5 330 20:37 17.02.2020
2771 Rain 26 1006 88 10000 0.5 330 20:19 17.02.2020
2772 Rain 26 1007 88 10000 1 330 19:43 17.02.2020
2773 Rain 27 1007 83 10000 1.5 330 19:21 17.02.2020
2774 Rain 27 1007 79 10000 2.6 290 18:57 17.02.2020
2775 Rain 27 1007 74 10000 2.6 310 18:36 17.02.2020
2776 Rain 28 1007 74 10000 2.6 310 18:18 17.02.2020
2777 Rain 27 1008 74 10000 1.5 330 17:38 17.02.2020
2778 Rain 27 1008 74 10000 1.5 330 17:20 17.02.2020
2779 -273 0 0 0 0 0 16:59 17.02.2020
2780 Rain 27 1009 78 10000 2.1 30 16:41 17.02.2020
2781 Rain 27 1009 78 10000 2.1 30 16:22 17.02.2020
2782 Clouds 27 1009 78 10000 4.1 30 15:56 17.02.2020
2783 Thunderstorm 28 1010 74 10000 4.6 40 15:37 17.02.2020
2784 Thunderstorm 28 1010 74 10000 4.6 40 15:37 17.02.2020
2785 Thunderstorm 28 1010 74 10000 4.6 40 15:19 17.02.2020
2786 Clouds 28 1010 79 10000 1.5 330 14:42 17.02.2020
2787 Clouds 28 1010 79 10000 1.5 330 14:42 17.02.2020
2788 Clouds 28 1010 79 10000 1.5 330 14:24 17.02.2020
2789 Clouds 29 1009 83 10000 2.1 290 13:58 17.02.2020
2790 Clouds 28 1008 74 10000 2.1 260 13:38 17.02.2020
2791 Clouds 28 1008 74 10000 2.1 260 13:19 17.02.2020
2792 Clouds 28 1008 74 10000 1.5 260 12:44 17.02.2020
2793 Clouds 28 1008 69 10000 2.1 270 12:25 17.02.2020
2794 Clouds 28 1007 69 10000 2.1 290 11:58 17.02.2020
2795 Clouds 27 1006 65 10000 1.5 220 11:39 17.02.2020
2796 Clouds 28 1006 65 10000 1.5 220 11:21 17.02.2020
2797 Clouds 29 1006 62 10000 1.5 240 10:55 17.02.2020
2798 Clouds 28 1007 65 10000 3.6 250 10:37 17.02.2020
2799 Clouds 28 1007 65 10000 3.6 250 10:18 17.02.2020
2800 Clouds 28 1007 65 10000 3.6 250 10:18 17.02.2020
2801 Rain 28 1007 69 10000 4.1 230 09:41 17.02.2020
2802 Rain 28 1007 69 10000 4.1 230 09:21 17.02.2020
2803 Thunderstorm 28 1008 74 10000 5.1 270 08:58 17.02.2020
2804 Thunderstorm 29 1007 62 10000 13.4 210 08:40 17.02.2020
2805 Thunderstorm 31 1007 62 10000 13.4 210 08:20 17.02.2020
2806 Clouds 34 1005 63 10000 7.2 290 07:47 17.02.2020
2807 Clouds 34 1006 63 10000 7.7 290 07:24 17.02.2020
2808 Clouds 35 1006 63 10000 7.7 290 06:52 17.02.2020
2809 Clouds 35 1006 63 10000 7.7 290 06:33 17.02.2020
2810 Clouds 35 1007 63 10000 7.7 290 05:58 17.02.2020
2811 Clouds 34 1007 66 10000 7.7 300 05:38 17.02.2020
2812 Clouds 34 1009 66 10000 3.6 300 03:22 17.02.2020
2813 Clouds 32 1010 74 10000 2.1 260 01:58 17.02.2020
2814 Clouds 31 1010 79 10000 2.6 210 00:51 17.02.2020
2815 Clouds 30 1010 79 10000 3.1 160 00:22 17.02.2020
2816 Clouds 30 1009 79 10000 1.5 290 23:54 16.02.2020
2817 Clouds 30 1009 79 10000 1.5 290 23:54 16.02.2020
2818 Clouds 29 1008 83 10000 2.1 260 23:32 16.02.2020
2819 Clouds 29 1008 83 10000 2.6 290 22:58 16.02.2020
2820 Clouds 29 1007 83 10000 2.6 270 22:39 16.02.2020
2821 Clouds 29 1007 83 10000 2.6 270 22:39 16.02.2020
2822 Clouds 29 1007 83 10000 2.6 270 22:39 16.02.2020
2823 Clouds 28 1007 83 10000 2.6 270 22:21 16.02.2020
2824 Clouds 29 1007 83 10000 2.6 270 21:58 16.02.2020
2825 Clouds 29 1007 83 10000 2.6 270 21:58 16.02.2020
2826 Clouds 29 1007 83 10000 3.1 270 21:40 16.02.2020
2827 Clouds 28 1007 83 10000 3.1 270 21:22 16.02.2020
2828 Rain 29 1007 83 10000 3.1 270 20:58 16.02.2020
2829 Clouds 28 1007 83 10000 3.1 280 20:39 16.02.2020
2830 Clouds 28 1007 83 10000 3.1 280 20:21 16.02.2020
2831 Clouds 28 1006 83 10000 3.1 270 19:58 16.02.2020
2832 Clouds 28 1006 83 10000 3.6 290 19:38 16.02.2020
2833 Clouds 28 1006 83 10000 3.6 290 19:19 16.02.2020
2834 Clouds 28 1007 79 10000 2.1 260 18:45 16.02.2020
2835 Clouds 28 1007 79 10000 2.1 260 18:26 16.02.2020
2836 Clouds 28 1007 79 10000 3.6 260 17:57 16.02.2020
2837 Clouds 29 1007 79 10000 3.6 250 17:39 16.02.2020
2838 Rain 29 1007 79 10000 3.6 250 17:19 16.02.2020
2839 Rain 29 1008 83 10000 3.6 250 16:56 16.02.2020
2840 Clouds 29 1008 79 10000 3.6 250 16:37 16.02.2020
2841 Clouds 29 1008 79 10000 3.6 250 16:19 16.02.2020
2842 Clouds 29 1008 84 10000 4.1 270 15:41 16.02.2020
2843 Clouds 29 1008 84 10000 4.1 270 15:22 16.02.2020
2844 Clouds 29 1009 79 10000 4.1 280 14:55 16.02.2020
2845 Rain 29 1009 79 10000 3.6 270 14:36 16.02.2020
2846 Clouds 30 1009 79 10000 3.6 270 14:18 16.02.2020
2847 Clouds 30 1008 79 10000 3.6 270 13:42 16.02.2020
2848 Clouds 30 1008 79 10000 3.6 270 13:23 16.02.2020
2849 Clouds 30 1007 84 10000 5.7 280 12:41 16.02.2020
2850 Clouds 30 1007 84 10000 5.7 280 12:20 16.02.2020
2851 Clouds 30 1007 79 10000 5.1 280 11:57 16.02.2020
2852 Clouds 30 1006 79 10000 6.2 290 11:37 16.02.2020
2853 Clouds 30 1006 79 10000 6.2 290 11:18 16.02.2020
2854 Clouds 30 1006 74 10000 6.2 280 10:56 16.02.2020
2855 Clouds 30 1006 74 10000 6.2 290 10:37 16.02.2020
2856 Clouds 31 1006 74 10000 6.2 290 10:18 16.02.2020
2857 Clouds 31 1006 74 10000 5.7 300 09:39 16.02.2020
2858 Clouds 31 1006 74 10000 5.7 300 09:39 16.02.2020
2859 Clouds 31 1006 74 10000 5.7 300 09:21 16.02.2020
2860 Clouds 31 1006 74 10000 6.2 300 08:58 16.02.2020
2861 Clouds 32 1006 70 10000 5.7 310 08:40 16.02.2020
2862 Clouds 32 1006 70 10000 5.7 310 08:19 16.02.2020
2863 Clouds 32 1006 70 10000 5.7 310 08:19 16.02.2020
2864 Clouds 32 1006 70 10000 5.7 290 07:43 16.02.2020
2865 Clouds 32 1006 70 10000 6.7 290 07:23 16.02.2020
2866 Clouds 33 1007 66 10000 7.7 300 06:32 16.02.2020
2867 Clouds 32 1008 70 10000 6.7 290 04:37 16.02.2020
2868 Clouds 31 1010 74 10000 4.1 230 03:23 16.02.2020
2869 Clouds 30 1010 74 10000 4.1 240 02:24 16.02.2020
2870 Clouds 29 1010 79 10000 2.1 230 01:40 16.02.2020
2871 Clouds 29 1010 79 10000 2.1 230 01:21 16.02.2020
2872 -273 0 0 0 0 0 00:51 16.02.2020
2873 Clouds 29 1009 79 10000 2.6 280 00:28 16.02.2020
2874 Clouds 28 1008 83 10000 3.6 270 23:44 15.02.2020
2875 Clouds 27 1008 83 10000 3.6 300 23:25 15.02.2020
2876 Clouds 27 1007 83 10000 4.1 260 22:59 15.02.2020
2877 Clouds 27 1007 74 10000 3.1 290 22:40 15.02.2020
2878 Clouds 27 1007 74 10000 3.1 290 22:21 15.02.2020
2879 Clouds 26 1007 74 10000 1 350 21:56 15.02.2020
2880 Rain 26 1006 78 10000 3.1 340 21:37 15.02.2020
2881 Rain 26 1006 78 10000 3.1 340 21:19 15.02.2020
2882 Clouds 26 1009 83 10000 7.7 150 20:39 15.02.2020
2883 Clouds 26 1009 83 10000 7.7 150 20:39 15.02.2020
2884 Clouds 26 1009 83 10000 7.7 150 20:21 15.02.2020
2885 Clouds 26 1009 83 10000 7.7 150 20:21 15.02.2020
2886 Rain 27 1009 83 10000 8.2 190 19:44 15.02.2020
2887 Clouds 29 1008 79 10000 3.6 240 19:22 15.02.2020
2888 Clouds 30 1008 79 10000 3.6 240 19:22 15.02.2020
2889 Clouds 29 1007 83 10000 4.1 270 18:44 15.02.2020
2890 Clouds 29 1007 83 10000 3.6 290 18:23 15.02.2020
2891 Clouds 29 1007 83 10000 2.6 280 17:58 15.02.2020
2892 Clouds 29 1007 83 10000 2.6 280 17:58 15.02.2020
2893 Clouds 29 1007 83 10000 2.6 280 17:58 15.02.2020
2894 Clouds 29 1008 83 10000 2.1 270 17:39 15.02.2020
2895 Clouds 29 1008 83 10000 2.1 270 17:21 15.02.2020
2896 Clouds 29 1008 83 10000 3.6 270 16:43 15.02.2020
2897 Clouds 29 1008 83 10000 3.6 270 16:25 15.02.2020
2898 Clouds 29 1008 79 10000 4.1 270 15:59 15.02.2020
2899 Clouds 29 1008 79 10000 4.6 270 15:41 15.02.2020
2900 Clouds 29 1008 79 10000 4.6 270 15:22 15.02.2020
2901 Clouds 29 1008 79 10000 4.1 270 14:45 15.02.2020
2902 Clouds 30 1008 79 10000 4.6 270 14:19 15.02.2020
2903 Clouds 30 1008 79 10000 4.1 270 13:56 15.02.2020
2904 Clouds 30 1008 79 10000 4.1 270 13:56 15.02.2020
2905 Clouds 30 1007 74 10000 4.1 270 13:38 15.02.2020
2906 Clouds 30 1007 74 10000 4.1 270 13:20 15.02.2020
2907 Clouds 30 1007 79 10000 5.1 280 12:42 15.02.2020
2908 Clouds 30 1007 79 10000 5.1 280 12:24 15.02.2020
2909 Clouds 30 1006 74 10000 5.1 280 11:52 15.02.2020
2910 Clouds 30 1006 74 10000 5.1 280 11:33 15.02.2020
2911 Clouds 30 1006 70 10000 5.1 280 10:57 15.02.2020
2912 Clear 31 1006 70 0 4.92 280 10:38 15.02.2020
2913 Clouds 32 1006 66 10000 5.7 270 10:20 15.02.2020
2914 Clouds 32 1006 66 10000 6.2 280 09:44 15.02.2020
2915 Clouds 32 1006 66 10000 6.2 280 09:25 15.02.2020
2916 Clouds 32 1006 66 10000 6.2 270 08:45 15.02.2020
2917 Clouds 33 1006 63 10000 6.7 270 08:26 15.02.2020
2918 Clouds 33 1007 63 10000 8.2 290 07:59 15.02.2020
2919 Clouds 33 1007 66 10000 8.2 290 07:39 15.02.2020
2920 Clouds 33 1007 66 10000 8.2 290 07:18 15.02.2020
2921 Clouds 34 1007 63 10000 8.2 290 06:37 15.02.2020
2922 Clouds 34 1008 59 10000 7.7 290 05:55 15.02.2020
2923 Clouds 33 1009 66 10000 7.7 300 04:48 15.02.2020
2924 Clouds 33 1010 63 10000 7.2 300 03:58 15.02.2020
2925 Clouds 33 1010 66 10000 7.2 290 02:58 15.02.2020
2926 Clouds 33 1010 66 10000 6.7 290 02:24 15.02.2020
2927 Clouds 32 1011 66 10000 6.7 290 01:43 15.02.2020
2928 Clouds 31 1010 74 10000 5.7 280 00:58 15.02.2020
2929 Clouds 31 1010 74 10000 5.7 280 00:27 15.02.2020
2930 Clouds 30 1010 79 10000 5.7 270 23:44 14.02.2020
2931 Clouds 29 1009 79 10000 5.1 280 23:21 14.02.2020
2932 Clouds 29 1009 83 10000 4.6 270 22:54 14.02.2020
2933 Clouds 29 1008 83 10000 5.1 280 22:36 14.02.2020
2934 Clouds 29 1008 83 10000 5.1 280 22:36 14.02.2020
2935 Clouds 29 1008 83 10000 5.1 280 22:18 14.02.2020
2936 Clouds 29 1008 83 10000 5.1 270 21:41 14.02.2020
2937 Clouds 29 1008 83 10000 5.1 270 21:23 14.02.2020
2938 Clear 29 1007 83 10000 4.6 280 20:44 14.02.2020
2939 Clouds 29 1007 83 10000 4.6 280 20:20 14.02.2020
2940 Clouds 29 1007 83 10000 4.6 280 19:58 14.02.2020
2941 Clouds 29 1007 83 10000 4.6 280 19:40 14.02.2020
2942 Clouds 29 1007 83 10000 4.6 280 19:40 14.02.2020
2943 Clouds 29 1007 83 10000 4.6 280 19:20 14.02.2020
2944 Clouds 28 1007 83 10000 4.6 280 18:56 14.02.2020
2945 Clouds 28 1007 83 10000 3.6 280 18:38 14.02.2020
2946 Clouds 29 1007 83 10000 3.6 280 18:19 14.02.2020
2947 Clouds 29 1008 83 10000 3.6 280 17:42 14.02.2020
2948 Clouds 28 1008 83 10000 3.6 280 17:21 14.02.2020
2949 Clouds 29 1008 83 10000 3.1 270 16:58 14.02.2020
2950 Clouds 28 1008 83 10000 3.1 270 16:39 14.02.2020
2951 Clouds 28 1008 83 10000 3.1 270 16:21 14.02.2020
2952 Clouds 29 1009 83 10000 4.1 270 15:56 14.02.2020
2953 Clouds 29 1009 83 10000 4.6 280 15:37 14.02.2020
2954 Clouds 29 1009 83 10000 4.6 280 15:37 14.02.2020
2955 Clouds 29 1009 83 10000 4.6 280 15:37 14.02.2020
2956 Clouds 29 1009 83 10000 4.6 280 15:37 14.02.2020
2957 Clouds 29 1009 83 10000 4.6 280 15:19 14.02.2020
2958 Clouds 29 1009 83 10000 4.1 270 14:57 14.02.2020
2959 Clouds 29 1009 83 10000 3.1 270 14:38 14.02.2020
2960 Clouds 29 1009 83 10000 3.1 270 14:20 14.02.2020
2961 Clouds 29 1008 79 10000 4.6 280 13:40 14.02.2020
2962 Clouds 29 1008 79 10000 4.6 280 13:21 14.02.2020
2963 Clouds 29 1008 74 10000 4.1 280 12:58 14.02.2020
2964 Clouds 29 1008 74 10000 4.1 270 12:40 14.02.2020
2965 Clouds 30 1008 74 10000 4.1 270 12:21 14.02.2020
2966 Clouds 30 1007 74 10000 4.1 270 11:58 14.02.2020
2967 Clouds 30 1007 70 10000 4.6 270 11:40 14.02.2020
2968 Clouds 30 1007 70 10000 4.6 270 11:20 14.02.2020
2969 Clouds 30 1007 70 10000 4.6 270 10:56 14.02.2020
2970 Clouds 31 1006 66 10000 5.1 270 10:37 14.02.2020
2971 Clouds 32 1006 66 10000 5.1 270 10:19 14.02.2020
2972 Clouds 32 1006 55 10000 6.2 260 09:42 14.02.2020
2973 Clouds 33 1006 55 10000 6.2 260 09:21 14.02.2020
2974 Clouds 33 1006 63 10000 7.2 290 08:44 14.02.2020
2975 Clouds 33 1006 63 10000 7.2 290 08:25 14.02.2020
2976 Clouds 34 1006 56 10000 6.7 290 07:57 14.02.2020
2977 Clouds 33 1007 59 10000 6.2 290 07:38 14.02.2020
2978 Clouds 33 1007 59 10000 6.2 290 07:19 14.02.2020
2979 Clouds 34 1007 59 10000 6.2 270 06:30 14.02.2020
2980 Clouds 34 1007 59 10000 6.7 280 05:47 14.02.2020
2981 Clouds 33 1009 59 10000 6.2 270 04:47 14.02.2020
2982 Clouds 33 1010 66 10000 5.7 270 03:29 14.02.2020
2983 Clouds 32 1010 62 10000 5.7 270 02:32 14.02.2020
2984 Clouds 31 1010 70 10000 5.7 270 01:28 14.02.2020
2985 Clouds 31 1010 74 10000 5.7 260 00:43 14.02.2020
2986 Clouds 30 1009 79 10000 5.7 270 00:24 14.02.2020
2987 Clouds 30 1009 79 10000 5.1 270 23:46 13.02.2020
2988 Clouds 29 1009 83 10000 4.6 280 23:23 13.02.2020
2989 Clouds 29 1008 83 10000 3.1 270 22:56 13.02.2020
2990 Clouds 29 1008 83 10000 3.6 270 22:37 13.02.2020
2991 Clouds 29 1008 83 10000 3.6 270 22:18 13.02.2020
2992 Clouds 28 1007 83 10000 3.1 270 21:41 13.02.2020
2993 Clouds 28 1007 83 10000 3.1 270 21:23 13.02.2020
2994 Clouds 28 1007 83 10000 3.6 260 20:58 13.02.2020
2995 Clouds 29 1007 83 10000 4.6 270 20:39 13.02.2020
2996 Clouds 29 1007 83 10000 4.6 270 20:39 13.02.2020
2997 Clouds 29 1007 83 10000 4.6 270 20:21 13.02.2020
2998 Clouds 29 1006 83 10000 5.1 280 19:56 13.02.2020
2999 Clouds 29 1006 83 10000 4.6 280 19:37 13.02.2020
3000 Clouds 29 1006 83 10000 4.6 280 19:19 13.02.2020
3001 Clouds 29 1007 83 10000 5.7 280 18:44 13.02.2020
3002 Clouds 29 1007 83 10000 5.1 270 18:44 13.02.2020
3003 Clouds 29 1007 83 10000 5.7 280 18:24 13.02.2020
3004 Clouds 29 1007 83 10000 5.7 280 18:24 13.02.2020
3005 Clouds 29 1008 83 10000 5.7 280 17:59 13.02.2020
3006 Clouds 29 1008 83 10000 3.6 270 17:40 13.02.2020
3007 Rain 29 1008 83 10000 3.6 270 17:21 13.02.2020
3008 Rain 29 1009 83 10000 4.1 270 16:58 13.02.2020
3009 Rain 29 1009 83 10000 4.1 270 16:38 13.02.2020
3010 Rain 29 1009 83 10000 4.1 270 16:38 13.02.2020
3011 Rain 29 1009 83 10000 4.1 270 16:19 13.02.2020
3012 Clouds 29 1009 79 10000 4.1 270 15:56 13.02.2020
3013 Clouds 29 1009 79 10000 4.1 270 15:38 13.02.2020
3014 Clouds 30 1009 79 10000 4.1 270 15:19 13.02.2020
3015 Clouds 29 1009 79 10000 4.6 280 14:57 13.02.2020
3016 Clouds 30 1009 79 10000 5.1 280 14:38 13.02.2020
3017 Clouds 29 1009 79 10000 5.1 280 14:20 13.02.2020
3018 Clouds 30 1009 79 10000 5.7 280 13:46 13.02.2020
3019 Clouds 30 1009 79 10000 4.6 280 13:18 13.02.2020
3020 Clouds 30 1009 79 10000 4.6 280 13:18 13.02.2020
3021 Clouds 30 1009 79 10000 4.6 280 13:18 13.02.2020
3022 Clouds 30 1009 74 10000 5.1 280 12:56 13.02.2020
3023 Clouds 30 1008 79 10000 4.1 280 12:37 13.02.2020
3024 Clouds 30 1008 79 10000 4.1 280 12:19 13.02.2020
3025 Clouds 30 1008 74 10000 5.1 270 11:43 13.02.2020
3026 Clouds 30 1008 74 10000 5.1 270 11:20 13.02.2020
3027 Clouds 31 1007 70 10000 5.7 280 10:48 13.02.2020
3028 Clouds 31 1006 70 10000 6.7 260 10:28 13.02.2020
3029 Clouds 32 1007 66 10000 6.2 260 09:57 13.02.2020
3030 Clouds 32 1006 66 10000 7.2 270 09:38 13.02.2020
3031 Clouds 32 1006 66 10000 7.2 270 09:20 13.02.2020
3032 Clouds 33 1006 66 10000 7.2 270 08:41 13.02.2020
3033 Clouds 33 1006 66 10000 7.2 270 08:19 13.02.2020
3034 Clouds 34 1006 59 10000 7.7 290 07:40 13.02.2020
3035 Clouds 34 1006 59 10000 7.7 290 07:22 13.02.2020
3036 Clouds 33 1007 63 10000 7.2 280 06:49 13.02.2020
3037 Clouds 33 1007 63 10000 6.7 270 06:29 13.02.2020
3038 Clouds 33 1007 66 10000 6.7 260 05:37 13.02.2020
3039 Clouds 33 1008 66 10000 7.7 290 04:28 13.02.2020
3040 Clouds 33 1008 63 10000 5.7 270 03:57 13.02.2020
3041 Clouds 33 1009 63 10000 5.7 270 03:29 13.02.2020
3042 Clouds 32 1009 70 10000 6.2 270 02:55 13.02.2020
3043 Clouds 32 1009 70 10000 6.7 280 02:19 13.02.2020
3044 Clouds 32 1009 74 10000 5.7 270 01:37 13.02.2020
3045 Clouds 31 1009 74 10000 5.1 270 00:44 13.02.2020
3046 Clouds 31 1009 79 10000 4.6 260 00:25 13.02.2020
3047 Clouds 29 1008 83 10000 3.1 270 23:42 12.02.2020
3048 Clouds 29 1008 83 10000 3.1 270 23:23 12.02.2020
3049 Clouds 29 1008 83 10000 3.6 270 22:56 12.02.2020
3050 Clouds 29 1008 79 10000 3.6 270 22:38 12.02.2020
3051 Clouds 29 1008 79 10000 3.6 270 22:20 12.02.2020
3052 Clouds 29 1008 83 10000 3.6 270 21:55 12.02.2020
3053 Clouds 29 1007 83 10000 3.6 270 21:36 12.02.2020
3054 Clouds 29 1007 83 10000 3.6 270 21:18 12.02.2020
3055 Clouds 29 1007 83 10000 3.6 280 20:42 12.02.2020
3056 Clouds 29 1007 83 10000 3.6 280 20:23 12.02.2020
3057 Clouds 29 1007 83 10000 4.6 270 19:57 12.02.2020
3058 Clouds 29 1007 83 10000 4.6 270 19:37 12.02.2020
3059 Clouds 29 1007 83 10000 4.6 270 19:19 12.02.2020
3060 Clouds 29 1007 83 10000 4.1 280 18:47 12.02.2020
3061 Clouds 29 1007 83 10000 4.6 280 18:20 12.02.2020
3062 Clouds 29 1008 83 10000 4.1 280 17:58 12.02.2020
3063 Clouds 29 1008 89 10000 4.1 270 17:38 12.02.2020
3064 Clouds 29 1008 89 10000 4.1 270 17:19 12.02.2020
3065 Clouds 29 1009 83 10000 3.1 270 16:40 12.02.2020
3066 Clouds 29 1009 83 10000 3.1 270 16:22 12.02.2020
3067 Clouds 29 1009 83 10000 3.1 270 15:58 12.02.2020
3068 Clouds 29 1009 83 10000 3.1 270 15:58 12.02.2020
3069 Clouds 29 1009 83 10000 3.6 270 15:37 12.02.2020
3070 Clouds 29 1009 83 10000 3.6 270 15:18 12.02.2020
3071 Clouds 29 1009 79 10000 3.1 270 14:42 12.02.2020
3072 Clouds 29 1009 79 10000 3.1 270 14:21 12.02.2020
3073 Clouds 29 1009 79 10000 3.1 270 13:58 12.02.2020
3074 Clouds 29 1009 79 10000 2.6 270 13:40 12.02.2020
3075 Clouds 30 1009 79 10000 2.6 270 13:21 12.02.2020
3076 Clouds 30 1008 74 10000 3.6 270 12:58 12.02.2020
3077 Clouds 30 1008 74 10000 4.1 280 12:39 12.02.2020
3078 Clouds 30 1008 74 10000 4.1 280 12:19 12.02.2020
3079 Clouds 30 1008 74 10000 4.1 270 11:58 12.02.2020
3080 Clouds 30 1008 74 10000 4.1 270 11:58 12.02.2020
3081 Clouds 30 1008 74 10000 4.6 270 11:40 12.02.2020
3082 Clouds 30 1008 74 10000 4.6 270 11:20 12.02.2020
3083 Clouds 30 1007 74 10000 5.1 270 10:56 12.02.2020
3084 Clouds 31 1007 70 10000 6.2 270 10:38 12.02.2020
3085 Clouds 31 1007 70 10000 6.2 270 10:20 12.02.2020
3086 Clouds 31 1007 70 10000 6.2 270 10:20 12.02.2020
3087 Clouds 32 1007 66 10000 6.7 270 09:42 12.02.2020
3088 Clouds 32 1007 66 10000 6.7 270 09:42 12.02.2020
3089 Clouds 33 1007 55 10000 5.1 280 09:24 12.02.2020
3090 Clouds 33 1007 55 10000 5.1 280 09:24 12.02.2020
3091 Clouds 34 1007 52 10000 5.1 260 08:58 12.02.2020
3092 Clouds 33 1007 55 10000 5.1 260 08:38 12.02.2020
3093 Clouds 33 1007 55 10000 5.1 260 08:20 12.02.2020
3094 Clouds 33 1007 55 10000 5.1 260 08:20 12.02.2020
3095 Clouds 33 1007 52 10000 4.6 240 07:47 12.02.2020
3096 Clouds 33 1007 52 10000 4.6 240 07:47 12.02.2020
3097 Clouds 33 1007 49 10000 5.1 220 07:24 12.02.2020
3098 Clouds 34 1008 55 10000 4.6 210 06:59 12.02.2020
3099 Clouds 33 1008 55 10000 3.6 250 06:25 12.02.2020
3100 Clouds 32 1008 59 10000 4.1 220 05:47 12.02.2020
3101 Clouds 32 1009 59 10000 5.1 230 05:21 12.02.2020
3102 Clouds 32 1009 62 10000 4.6 250 04:41 12.02.2020
3103 Clouds 32 1010 66 10000 5.1 240 03:57 12.02.2020
3104 Clouds 32 1010 66 10000 5.1 250 03:28 12.02.2020
3105 Clouds 32 1010 70 10000 4.6 250 02:43 12.02.2020
3106 Clouds 31 1010 70 10000 4.6 250 02:24 12.02.2020
3107 Clouds 30 1011 74 10000 3.6 220 01:29 12.02.2020
3108 Clouds 30 1010 79 10000 5.1 260 00:41 12.02.2020
3109 Clouds 29 1010 79 10000 5.1 260 00:22 12.02.2020
3110 Clouds 28 1010 83 10000 4.1 210 23:47 11.02.2020
3111 Clouds 28 1010 83 10000 2.6 180 23:29 11.02.2020
3112 Clouds 28 1010 83 10000 4.1 190 22:57 11.02.2020
3113 Clouds 28 1009 88 10000 3.1 210 22:39 11.02.2020
3114 Clouds 28 1009 88 10000 3.1 210 22:20 11.02.2020
3115 Clouds 28 1009 83 10000 2.6 220 21:57 11.02.2020
3116 Clouds 28 1008 83 10000 3.1 250 21:38 11.02.2020
3117 Clouds 28 1008 83 10000 3.1 250 21:18 11.02.2020
3118 Clouds 28 1008 83 10000 3.1 260 20:57 11.02.2020
3119 Clouds 28 1008 83 10000 2.6 270 20:38 11.02.2020
3120 Clouds 28 1008 83 10000 2.6 270 20:19 11.02.2020
3121 Clouds 28 1008 83 10000 3.1 270 19:56 11.02.2020
3122 Clouds 28 1008 83 10000 3.6 260 19:38 11.02.2020
3123 Clouds 28 1008 83 10000 3.6 260 19:20 11.02.2020
3124 Clouds 29 1009 79 10000 3.6 270 18:44 11.02.2020
3125 Clouds 29 1009 79 10000 3.6 270 18:25 11.02.2020
3126 Clouds 29 1009 79 10000 4.1 280 17:56 11.02.2020
3127 Clouds 29 1009 79 10000 4.1 280 17:56 11.02.2020
3128 Clouds 29 1009 79 10000 3.1 270 17:38 11.02.2020
3129 Rain 28 1009 79 10000 3.1 270 17:18 11.02.2020
3130 Rain 28 1009 79 10000 3.1 260 16:58 11.02.2020
3131 Rain 28 1009 79 10000 4.6 280 16:38 11.02.2020
3132 Rain 29 1009 79 10000 4.6 280 16:20 11.02.2020
3133 Rain 29 1009 79 10000 4.1 290 15:48 11.02.2020
3134 Rain 28 1010 79 10000 4.6 280 15:29 11.02.2020
3135 Rain 28 1010 79 10000 4.1 280 14:59 11.02.2020
3136 Rain 28 1010 79 10000 3.6 280 14:41 11.02.2020
3137 Rain 29 1010 79 10000 3.6 280 14:19 11.02.2020
3138 Clouds 29 1010 79 10000 4.6 260 13:42 11.02.2020
3139 Clouds 29 1010 79 10000 4.6 260 13:23 11.02.2020
3140 Clouds 29 1009 79 10000 4.6 260 12:59 11.02.2020
3141 Clouds 29 1009 79 10000 4.1 260 12:41 11.02.2020
3142 Clouds 29 1009 79 10000 4.1 260 12:21 11.02.2020
3143 Clouds 29 1009 79 10000 5.1 250 11:57 11.02.2020
3144 Clouds 29 1009 83 10000 5.1 260 11:39 11.02.2020
3145 Clouds 29 1009 83 10000 5.1 260 11:19 11.02.2020
3146 Clouds 29 1008 74 10000 5.1 280 10:40 11.02.2020
3147 Clouds 30 1008 74 10000 5.1 280 10:21 11.02.2020
3148 Clouds 30 1008 74 10000 5.1 280 09:58 11.02.2020
3149 Clouds 30 1007 74 10000 4.6 280 09:40 11.02.2020
3150 Clouds 30 1007 74 10000 4.6 280 09:21 11.02.2020
3151 Clouds 30 1008 74 10000 4.6 270 08:49 11.02.2020
3152 Clouds 30 1007 74 10000 5.7 290 08:25 11.02.2020
3153 Clouds 30 1007 74 10000 5.7 290 08:25 11.02.2020
3154 Clouds 31 1007 70 10000 4.6 300 07:55 11.02.2020
3155 Clouds 31 1007 74 10000 5.7 280 07:34 11.02.2020
3156 Clouds 31 1008 74 10000 4.6 290 06:58 11.02.2020
3157 Clouds 31 1009 74 10000 4.6 270 06:38 11.02.2020
3158 Clouds 31 1009 74 10000 4.6 270 06:20 11.02.2020
3159 Clouds 30 1009 74 10000 4.6 280 05:44 11.02.2020
3160 Clouds 30 1010 74 10000 4.6 270 05:20 11.02.2020
3161 Clouds 30 1010 74 10000 5.7 270 04:18 11.02.2020
3162 Clouds 31 1010 74 10000 5.1 270 02:38 11.02.2020
3163 Clouds 30 1010 79 10000 5.7 270 01:53 11.02.2020
3164 Clouds 29 1010 79 10000 5.7 270 01:30 11.02.2020
3165 Rain 29 1010 83 10000 6.2 260 00:26 11.02.2020
3166 Clouds 28 1010 79 10000 4.1 260 23:48 10.02.2020
3167 Clouds 28 1009 78 10000 7.7 310 23:30 10.02.2020
3168 Clouds 27 1009 78 10000 7.7 300 22:57 10.02.2020
3169 Clouds 27 1009 83 10000 5.1 300 22:37 10.02.2020
3170 Clouds 27 1009 83 10000 5.1 300 22:37 10.02.2020
3171 Rain 27 1009 83 10000 5.1 300 22:19 10.02.2020
3172 Clouds 26 1008 78 10000 5.7 310 21:41 10.02.2020
3173 Clouds 26 1008 78 10000 5.7 310 21:23 10.02.2020
3174 Clouds 26 1007 83 10000 5.1 310 20:56 10.02.2020
3175 Clouds 25 1007 88 10000 5.7 320 20:38 10.02.2020
3176 Clouds 25 1007 88 10000 5.7 320 20:38 10.02.2020
3177 Rain 25 1007 88 10000 5.7 320 20:19 10.02.2020
3178 Rain 25 1008 88 10000 5.1 310 19:58 10.02.2020
3179 Rain 25 1008 94 10000 3.1 300 19:37 10.02.2020
3180 Rain 25 1008 94 10000 3.1 300 19:18 10.02.2020
3181 Rain 25 1008 94 10000 2.6 10 18:58 10.02.2020
3182 Rain 25 1009 94 10000 1.5 310 18:39 10.02.2020
3183 Rain 25 1009 94 10000 1.5 310 18:20 10.02.2020
3184 Rain 25 1009 94 10000 0.5 360 17:55 10.02.2020
3185 Rain 25 1009 88 10000 1 40 17:37 10.02.2020
3186 Rain 25 1009 88 10000 1 40 17:18 10.02.2020
3187 Rain 25 1009 88 10000 1 40 17:18 10.02.2020
3188 Rain 24 1010 94 10000 1 30 16:56 10.02.2020
3189 Rain 25 1010 88 10000 2.1 60 16:38 10.02.2020
3190 Rain 25 1010 88 10000 2.1 60 16:18 10.02.2020
3191 Thunderstorm 25 1010 94 10000 1.5 130 15:42 10.02.2020
3192 Thunderstorm 25 1010 94 10000 1.5 130 15:22 10.02.2020
3193 Thunderstorm 25 1010 94 10000 2.1 20 14:59 10.02.2020
3194 Rain 25 1010 94 0 3.1 309 14:41 10.02.2020
3195 Rain 27 1009 88 0 3.53 296 14:19 10.02.2020
3196 Rain 27 1010 74 10000 7.7 60 13:56 10.02.2020
3197 Clouds 29 1009 74 10000 4.6 300 13:37 10.02.2020
3198 Clouds 29 1009 74 10000 4.6 300 13:18 10.02.2020
3199 Clouds 29 1009 79 10000 4.1 280 12:43 10.02.2020
3200 Clouds 30 1008 79 10000 4.6 280 12:24 10.02.2020
3201 Clouds 30 1007 74 10000 5.7 280 11:55 10.02.2020
3202 Clouds 30 1007 74 10000 4.1 270 11:36 10.02.2020
3203 Clouds 30 1007 74 10000 4.1 270 11:18 10.02.2020
3204 Clouds 30 1006 70 10000 6.2 270 10:44 10.02.2020
3205 Clouds 31 1006 66 10000 6.2 270 10:26 10.02.2020
3206 Clouds 31 1006 66 10000 6.2 280 09:45 10.02.2020
3207 Clouds 32 1005 66 10000 6.7 270 09:24 10.02.2020
3208 Clouds 32 1005 63 10000 7.7 280 08:45 10.02.2020
3209 Clouds 33 1005 63 10000 7.7 280 08:22 10.02.2020
3210 Clouds 33 1005 63 10000 7.7 270 07:58 10.02.2020
3211 Clouds 33 1006 63 10000 7.2 270 07:38 10.02.2020
3212 Clouds 33 1006 63 10000 6.7 260 06:59 10.02.2020
3213 Clouds 34 1007 66 10000 6.7 260 05:42 10.02.2020
3214 Clouds 33 1007 63 10000 6.2 260 04:26 10.02.2020
3215 Clouds 33 1008 62 10000 6.2 250 03:31 10.02.2020
3216 Clouds 32 1008 62 10000 6.7 260 02:54 10.02.2020
3217 Clouds 31 1008 70 10000 5.7 250 01:36 10.02.2020
3218 Clouds 31 1008 70 10000 5.7 250 01:36 10.02.2020
3219 Clouds 31 1008 70 10000 6.2 250 00:48 10.02.2020
3220 Clouds 30 1008 74 10000 5.7 250 00:28 10.02.2020
3221 Clouds 30 1007 74 10000 4.1 250 23:45 09.02.2020
3222 Clouds 30 1007 74 10000 4.1 250 23:45 09.02.2020
3223 Clouds 30 1007 79 10000 4.6 250 23:26 09.02.2020
3224 Clouds 29 1007 83 10000 4.6 260 22:59 09.02.2020
3225 Clouds 29 1006 83 10000 3.6 260 22:38 09.02.2020
3226 Clouds 28 1006 83 10000 3.6 260 22:19 09.02.2020
3227 Rain 28 1006 83 10000 2.6 240 21:41 09.02.2020
3228 Rain 28 1006 83 10000 2.6 240 21:22 09.02.2020
3229 Rain 28 1006 83 10000 2.6 240 21:22 09.02.2020
3230 Clouds 29 1006 79 10000 3.6 270 20:47 09.02.2020
3231 Rain 29 1006 83 10000 5.1 260 20:23 09.02.2020
3232 Clouds 29 1006 83 10000 5.1 280 19:58 09.02.2020
3233 Clouds 29 1006 83 10000 5.1 280 19:39 09.02.2020
3234 Clouds 29 1006 83 10000 5.1 280 19:20 09.02.2020
3235 Clouds 28 1006 83 10000 4.6 280 18:54 09.02.2020
3236 Clouds 28 1006 83 10000 2.6 270 18:36 09.02.2020
3237 Clouds 28 1006 83 10000 2.6 270 18:18 09.02.2020
3238 Clouds 28 1007 79 10000 2.6 260 17:40 09.02.2020
3239 Clouds 28 1007 79 10000 2.6 260 17:21 09.02.2020
3240 Clouds 28 1007 74 10000 2.6 250 16:44 09.02.2020
3241 Clouds 28 1007 74 10000 3.6 280 16:25 09.02.2020
3242 Clouds 28 1007 74 10000 3.6 280 16:25 09.02.2020
3243 Clouds 28 1007 74 10000 3.6 270 15:59 09.02.2020
3244 Rain 28 1007 83 10000 3.1 280 15:41 09.02.2020
3245 Rain 27 1007 83 10000 3.1 280 15:22 09.02.2020
3246 Rain 27 1008 83 10000 2.6 280 14:57 09.02.2020
3247 Rain 27 1008 83 10000 1.5 280 14:39 09.02.2020
3248 Rain 27 1008 83 10000 1.5 280 14:39 09.02.2020
3249 Rain 27 1008 83 10000 1.5 280 14:21 09.02.2020
3250 Rain 27 1007 83 10000 3.1 260 13:44 09.02.2020
3251 Rain 27 1007 83 10000 3.1 260 13:26 09.02.2020
3252 Rain 27 1007 83 10000 3.6 260 12:57 09.02.2020
3253 Clouds 27 1006 83 10000 4.1 260 12:38 09.02.2020
3254 Clouds 27 1006 83 10000 4.1 260 12:19 09.02.2020
3255 Clouds 27 1006 83 10000 4.1 260 12:19 09.02.2020
3256 Clouds 27 1006 88 10000 6.7 280 11:41 09.02.2020
3257 Clouds 27 1006 88 10000 6.7 280 11:22 09.02.2020
3258 Clouds 27 1007 78 10000 7.7 300 10:59 09.02.2020
3259 Clouds 27 1007 88 10000 8.2 290 10:41 09.02.2020
3260 Rain 27 1007 88 0 8.05 290 10:21 09.02.2020
3261 Clouds 27 1006 88 10000 7.2 290 09:46 09.02.2020
3262 Rain 27 1006 83 10000 7.7 270 09:27 09.02.2020
3263 Thunderstorm 26 1005 88 7000 6.2 280 08:46 09.02.2020
3264 Thunderstorm 27 1005 88 10000 6.2 330 08:28 09.02.2020
3265 Rain 27 1005 83 10000 6.2 280 07:59 09.02.2020
3266 Rain 29 1005 89 10000 5.1 310 07:41 09.02.2020
3267 Rain 28 1005 94 10000 3.6 290 06:49 09.02.2020
3268 Thunderstorm 27 1006 88 9000 3.6 300 06:29 09.02.2020
3269 Thunderstorm 29 1006 84 5000 4.1 300 05:43 09.02.2020
3270 Thunderstorm 32 1005 66 10000 9.3 290 05:19 09.02.2020
3271 Clouds 33 1007 70 10000 5.7 260 03:53 09.02.2020
3272 Clouds 32 1007 70 10000 4.6 260 02:46 09.02.2020
3273 Clouds 32 1007 74 10000 5.7 260 02:26 09.02.2020
3274 Clouds 31 1008 74 10000 5.1 270 01:35 09.02.2020
3275 Clouds 31 1008 74 10000 5.1 270 00:47 09.02.2020
3276 Clouds 31 1008 74 10000 4.6 280 00:25 09.02.2020
3277 Clouds 30 1008 79 10000 4.6 270 23:44 08.02.2020
3278 Clouds 29 1007 79 10000 3.1 280 23:22 08.02.2020
3279 Clouds 29 1007 83 10000 2.1 270 22:43 08.02.2020
3280 Clouds 28 1007 83 10000 2.6 270 22:22 08.02.2020
3281 Clouds 28 1007 83 10000 2.6 250 21:59 08.02.2020
3282 Clouds 28 1006 83 10000 2.1 240 21:40 08.02.2020
3283 Clouds 28 1006 83 10000 2.1 240 21:40 08.02.2020
3284 Clouds 28 1006 83 10000 2.1 240 21:21 08.02.2020
3285 Clouds 28 1006 83 10000 3.1 260 20:57 08.02.2020
3286 Clouds 28 1006 83 10000 3.1 250 20:38 08.02.2020
3287 Clouds 28 1006 83 10000 3.1 250 20:19 08.02.2020
3288 Clouds 28 1006 83 10000 3.1 250 19:55 08.02.2020
3289 Clouds 28 1007 79 10000 2.6 250 19:37 08.02.2020
3290 Clouds 28 1007 79 10000 2.6 250 19:19 08.02.2020
3291 Clouds 28 1007 79 10000 2.6 260 18:43 08.02.2020
3292 Clouds 28 1007 79 10000 2.6 260 18:43 08.02.2020
3293 Clouds 28 1007 79 10000 2.6 260 18:24 08.02.2020
3294 Clouds 29 1008 79 10000 3.1 270 17:44 08.02.2020
3295 Clouds 29 1008 79 10000 3.1 270 17:22 08.02.2020
3296 Clouds 29 1008 79 10000 2.1 250 16:59 08.02.2020
3297 Clouds 29 1009 74 10000 3.1 250 16:40 08.02.2020
3298 Clouds 29 1009 74 10000 3.1 250 16:21 08.02.2020
3299 Clouds 29 1008 79 10000 3.6 240 15:43 08.02.2020
3300 Clouds 29 1009 79 10000 3.1 220 15:19 08.02.2020
3301 Clouds 29 1009 74 10000 3.6 250 14:59 08.02.2020
3302 Clouds 29 1009 74 10000 3.6 240 14:41 08.02.2020
3303 Clouds 29 1009 74 10000 3.6 240 14:19 08.02.2020
3304 Clouds 29 1009 74 10000 3.6 240 13:55 08.02.2020
3305 Clouds 30 1008 70 10000 4.6 260 13:37 08.02.2020
3306 Clouds 30 1008 70 10000 4.6 260 13:18 08.02.2020
3307 Rain 30 1008 70 10000 4.6 260 12:38 08.02.2020
3308 Rain 30 1008 70 10000 4.6 260 12:38 08.02.2020
3309 Rain 30 1008 70 10000 4.6 260 12:19 08.02.2020
3310 Clouds 30 1008 70 10000 5.1 250 11:43 08.02.2020
3311 Clouds 30 1008 70 10000 5.1 250 11:22 08.02.2020
3312 Clouds 30 1008 66 10000 5.7 260 10:57 08.02.2020
3313 Clouds 30 1007 66 10000 6.2 260 10:39 08.02.2020
3314 Clouds 31 1007 66 10000 6.2 260 10:20 08.02.2020
3315 Clouds 31 1007 66 10000 7.2 270 09:50 08.02.2020
3316 Clouds 32 1006 59 10000 6.2 270 09:24 08.02.2020
3317 Clouds 33 1006 52 10000 7.7 260 08:47 08.02.2020
3318 Clouds 33 1006 52 10000 7.7 260 08:27 08.02.2020
3319 Clouds 33 1006 55 10000 7.2 270 07:53 08.02.2020
3320 Clouds 34 1006 56 10000 7.2 270 07:34 08.02.2020
3321 Clouds 34 1007 52 10000 7.7 270 06:55 08.02.2020
3322 Clouds 34 1007 52 10000 7.2 280 06:23 08.02.2020
3323 Clouds 34 1008 59 10000 6.2 280 05:37 08.02.2020
3324 Clouds 33 1008 59 10000 6.2 280 05:18 08.02.2020
3325 Clouds 34 1009 56 10000 5.7 290 04:26 08.02.2020
3326 Clouds 33 1009 66 10000 4.6 300 03:39 08.02.2020
3327 Clouds 31 1010 70 10000 3.1 250 02:29 08.02.2020
3328 Clouds 31 1009 74 10000 2.6 250 01:35 08.02.2020
3329 Clouds 30 1009 79 10000 2.1 230 00:57 08.02.2020
3330 Clouds 29 1009 74 10000 1.5 250 00:25 08.02.2020
3331 Clouds 28 1009 83 10000 1.5 210 23:59 07.02.2020
3332 Clouds 27 1008 78 10000 1.5 220 23:39 07.02.2020
3333 Clouds 27 1008 78 10000 1.5 220 23:20 07.02.2020
3334 Clouds 26 1008 88 10000 1.5 230 22:55 07.02.2020
3335 Clouds 26 1008 94 10000 1.93 219 22:37 07.02.2020
3336 Clouds 26 1008 94 10000 1.93 219 22:18 07.02.2020
3337 Rain 27 1007 88 10000 3.6 230 21:41 07.02.2020
3338 Rain 27 1007 88 10000 3.6 230 21:21 07.02.2020
3339 Rain 27 1007 94 10000 2.1 260 20:40 07.02.2020
3340 Rain 26 1007 94 10000 2.1 260 20:21 07.02.2020
3341 Rain 26 1008 94 10000 1 180 19:56 07.02.2020
3342 Drizzle 26 1009 94 10000 1.5 170 19:37 07.02.2020
3343 Drizzle 26 1009 94 10000 1.5 170 19:19 07.02.2020
3344 Rain 26 1010 83 10000 1 310 18:46 07.02.2020
3345 Rain 26 1010 94 10000 2.6 40 18:26 07.02.2020
3346 Rain 27 1010 88 10000 3.6 80 17:57 07.02.2020
3347 Rain 28 1010 83 10000 1.5 90 17:39 07.02.2020
3348 Rain 28 1010 83 10000 1.5 90 17:19 07.02.2020
3349 Rain 28 1011 83 10000 0.5 270 16:50 07.02.2020
3350 Clouds 29 1011 74 10000 2.42 282 16:24 07.02.2020
3351 Rain 29 1010 74 10000 2.1 250 15:55 07.02.2020
3352 Clouds 29 1011 74 10000 2.6 250 15:29 07.02.2020
3353 Clouds 30 1011 70 10000 2.6 250 14:58 07.02.2020
3354 Clouds 29 1010 74 10000 3.1 240 14:40 07.02.2020
3355 Rain 29 1010 74 10000 3.1 240 14:21 07.02.2020
3356 Rain 30 1010 70 10000 3.1 270 13:57 07.02.2020
3357 Rain 29 1010 70 10000 2.6 260 13:38 07.02.2020
3358 Rain 30 1010 70 10000 2.6 260 13:20 07.02.2020
3359 Clouds 30 1009 70 10000 4.6 270 12:42 07.02.2020
3360 Clouds 30 1009 70 10000 4.6 270 12:24 07.02.2020
3361 Clouds 30 1009 70 10000 4.1 270 11:58 07.02.2020
3362 Clouds 30 1008 70 10000 5.7 270 11:39 07.02.2020
3363 Clouds 30 1008 70 10000 5.7 270 11:18 07.02.2020
3364 Clouds 31 1007 62 10000 5.1 270 10:40 07.02.2020
3365 Clouds 31 1007 62 10000 5.1 270 10:20 07.02.2020
3366 Clouds 32 1006 62 10000 6.7 290 09:46 07.02.2020
3367 Rain 32 1006 62 0 6.71 290 09:26 07.02.2020
3368 Clouds 32 1006 62 10000 7.7 290 08:58 07.02.2020
3369 Clouds 33 1006 63 10000 7.7 300 08:37 07.02.2020
3370 Clouds 33 1006 63 10000 7.7 300 08:19 07.02.2020
3371 Clouds 33 1007 59 10000 8.2 300 07:40 07.02.2020
3372 Clouds 33 1007 59 10000 8.2 300 07:22 07.02.2020
3373 Rain 33 1007 59 10000 7.7 300 06:43 07.02.2020
3374 Clouds 34 1007 59 10000 7.2 300 06:23 07.02.2020
3375 Clouds 34 1007 56 10000 6.7 300 05:43 07.02.2020
3376 Clouds 33 1009 55 10000 3.6 230 03:58 07.02.2020
3377 Clouds 32 1010 70 10000 4.6 220 02:30 07.02.2020
3378 Clouds 31 1011 70 10000 4.1 190 01:34 07.02.2020
3379 Clouds 30 1010 79 10000 2.6 230 00:38 07.02.2020
3380 Clouds 29 1010 79 10000 2.6 230 23:56 06.02.2020
3381 Clouds 29 1009 79 10000 2.6 230 23:36 06.02.2020
3382 Clouds 29 1009 79 10000 2.6 230 23:36 06.02.2020
3383 Clouds 29 1009 79 10000 2.6 230 23:18 06.02.2020
3384 Clouds 28 1008 79 10000 2.1 230 22:42 06.02.2020
3385 Clouds 28 1008 79 10000 2.1 230 22:42 06.02.2020
3386 Clouds 28 1008 79 10000 2.1 230 22:23 06.02.2020
3387 Clouds 28 1007 79 10000 2.1 240 21:37 06.02.2020
3388 Clouds 28 1007 79 10000 2.1 240 21:19 06.02.2020
3389 Clouds 28 1007 83 10000 2.1 240 20:56 06.02.2020
3390 Clouds 28 1007 83 10000 2.1 230 20:37 06.02.2020
3391 Clouds 28 1007 83 10000 2.1 230 20:18 06.02.2020
3392 Clouds 28 1007 83 10000 2.1 240 19:58 06.02.2020
3393 Clouds 27 1007 83 10000 2.1 250 19:39 06.02.2020
3394 Clouds 27 1007 83 10000 2.1 250 19:21 06.02.2020
3395 Clouds 28 1007 79 10000 1.5 260 18:57 06.02.2020
3396 Clouds 28 1008 83 10000 2.1 260 18:38 06.02.2020
3397 Clouds 28 1008 83 10000 2.1 260 18:20 06.02.2020
3398 Clouds 28 1008 74 10000 2.1 260 17:42 06.02.2020
3399 Clouds 29 1008 74 10000 2.1 260 17:21 06.02.2020
3400 Clouds 28 1009 79 10000 2.1 260 16:57 06.02.2020
3401 Clouds 28 1009 79 10000 1.5 260 16:39 06.02.2020
3402 Clouds 29 1009 79 10000 1.5 260 16:20 06.02.2020
3403 Clouds 29 1010 79 10000 1.5 260 15:42 06.02.2020
3404 Clouds 29 1010 79 10000 1.5 260 15:21 06.02.2020
3405 Clouds 29 1010 79 10000 1.5 280 14:48 06.02.2020
3406 Clouds 29 1009 74 10000 2.1 260 14:27 06.02.2020
3407 Clouds 29 1009 74 10000 2.1 270 13:55 06.02.2020
3408 Clouds 29 1009 70 10000 2.1 270 13:37 06.02.2020
3409 Clouds 29 1009 70 10000 2.1 270 13:19 06.02.2020
3410 Clouds 29 1008 70 10000 3.1 260 12:43 06.02.2020
3411 Clouds 29 1008 70 10000 3.1 270 12:19 06.02.2020
3412 Clouds 30 1008 66 10000 3.1 260 11:56 06.02.2020
3413 Clouds 30 1007 62 10000 3.1 260 11:38 06.02.2020
3414 Clouds 30 1007 62 10000 3.1 260 11:18 06.02.2020
3415 Clouds 31 1007 58 10000 4.6 260 10:56 06.02.2020
3416 Clouds 31 1006 62 10000 5.1 280 10:37 06.02.2020
3417 Clouds 31 1006 62 10000 5.1 280 10:18 06.02.2020
3418 Clouds 32 1006 59 10000 5.1 300 09:43 06.02.2020
3419 Clouds 32 1006 59 10000 6.2 300 09:43 06.02.2020
3420 Clouds 32 1006 59 10000 6.2 300 09:20 06.02.2020
3421 Clouds 34 1006 55 10000 5.1 300 08:47 06.02.2020
3422 Clouds 34 1006 55 10000 5.1 300 08:47 06.02.2020
3423 Clouds 34 1007 49 10000 5.1 300 08:25 06.02.2020
3424 Clouds 34 1007 49 10000 5.1 290 07:58 06.02.2020
3425 Clouds 34 1007 44 10000 4.6 300 07:33 06.02.2020
3426 Clouds 34 1007 52 10000 4.1 300 06:59 06.02.2020
3427 Clouds 34 1007 49 10000 4.6 300 06:21 06.02.2020
3428 Clouds 34 1008 55 10000 3.6 310 05:41 06.02.2020
3429 Clouds 33 1009 59 10000 3.1 310 04:18 06.02.2020
3430 Clouds 33 1009 55 10000 3.6 320 03:18 06.02.2020
3431 Clouds 32 1010 62 10000 2.6 290 02:20 06.02.2020
3432 Clouds 32 1010 62 10000 2.6 300 01:25 06.02.2020
3433 Clouds 30 1009 70 10000 2.1 270 00:42 06.02.2020
3434 Clouds 30 1009 70 10000 2.1 270 00:21 06.02.2020
3435 Clouds 29 1009 83 10000 1.5 230 23:43 05.02.2020
3436 Clouds 28 1009 83 10000 1.5 230 23:24 05.02.2020
3437 Clouds 27 1009 83 10000 1.5 240 22:56 05.02.2020
3438 Clouds 27 1009 94 10000 1.5 260 22:37 05.02.2020
3439 Clouds 26 1009 94 10000 1.5 260 22:19 05.02.2020
3440 Clouds 27 1008 88 10000 1.53 224 21:41 05.02.2020
3441 Clouds 26 1008 88 10000 1.53 224 21:22 05.02.2020
3442 Clouds 26 1008 88 10000 1.53 224 20:55 05.02.2020
3443 Clouds 26 1008 88 10000 1 290 20:37 05.02.2020
3444 Clouds 26 1008 88 10000 1 290 20:18 05.02.2020
3445 Clouds 27 1007 88 10000 1 290 19:55 05.02.2020
3446 Clouds 27 1007 88 10000 1.5 300 19:36 05.02.2020
3447 Clouds 27 1007 88 10000 1.5 300 19:18 05.02.2020
3448 Clouds 27 1007 83 10000 1.5 300 18:43 05.02.2020
3449 Clouds 27 1007 83 10000 1.5 300 18:21 05.02.2020
3450 Clouds 27 1008 83 10000 1.5 280 17:58 05.02.2020
3451 Clouds 28 1008 79 10000 2.1 280 17:37 05.02.2020
3452 Clouds 28 1008 79 10000 2.1 270 17:18 05.02.2020
3453 Clouds 28 1009 79 10000 2.6 290 16:43 05.02.2020
3454 Clouds 28 1009 79 10000 2.6 290 16:25 05.02.2020
3455 Clouds 28 1009 79 10000 2.6 280 15:59 05.02.2020
3456 Clouds 28 1009 74 10000 3.1 270 15:39 05.02.2020
3457 Clouds 28 1009 74 10000 3.1 270 15:18 05.02.2020
3458 Clouds 28 1009 74 10000 2.6 280 14:43 05.02.2020
3459 Clouds 28 1009 74 10000 2.6 280 14:24 05.02.2020
3460 Clouds 28 1009 74 10000 2.6 270 13:58 05.02.2020
3461 Clouds 29 1009 79 10000 2.6 270 13:38 05.02.2020
3462 Clouds 29 1009 79 10000 2.6 270 13:19 05.02.2020
3463 Clouds 29 1008 74 10000 2.1 270 12:43 05.02.2020
3464 Clouds 29 1008 74 10000 2.1 270 12:23 05.02.2020
3465 Clouds 29 1008 70 10000 3.6 280 11:55 05.02.2020
3466 Clouds 29 1007 70 10000 3.6 280 11:36 05.02.2020
3467 Clouds 30 1007 70 10000 3.6 280 11:18 05.02.2020
3468 Clouds 30 1007 62 10000 4.1 280 10:42 05.02.2020
3469 Clouds 31 1007 62 10000 4.1 280 10:24 05.02.2020
3470 Clouds 31 1007 59 10000 4.6 270 09:57 05.02.2020
3471 Clouds 32 1006 62 10000 5.7 290 09:37 05.02.2020
3472 Clouds 32 1006 62 10000 5.7 290 09:19 05.02.2020
3473 Clouds 33 1006 59 10000 5.7 290 08:41 05.02.2020
3474 Clouds 32 1006 59 10000 5.7 290 08:23 05.02.2020
3475 Clouds 32 1006 62 10000 5.1 290 07:48 05.02.2020
3476 Clouds 32 1006 66 10000 5.7 300 07:29 05.02.2020
3477 Clouds 32 1006 62 10000 6.2 290 06:49 05.02.2020
3478 Clouds 32 1007 62 10000 4.6 290 06:23 05.02.2020
3479 Clouds 33 1007 62 10000 4.6 300 05:52 05.02.2020
3480 Rain 33 1008 62 10000 4.6 290 05:18 05.02.2020
3481 Rain 32 1008 66 10000 5.1 310 04:45 05.02.2020
3482 Clouds 32 1008 66 10000 4.1 330 03:48 05.02.2020
3483 Clouds 31 1009 70 10000 3.6 330 02:25 05.02.2020
3484 Rain 30 1009 83 10000 4.1 330 01:36 05.02.2020
3485 Thunderstorm 29 1009 79 10000 4.6 340 00:42 05.02.2020
3486 Rain 29 1008 83 10000 3.6 350 23:57 04.02.2020
3487 Rain 28 1008 88 10000 2.6 350 23:37 04.02.2020
3488 Rain 28 1008 88 10000 2.6 350 23:18 04.02.2020
3489 Rain 27 1008 94 10000 4.1 330 22:42 04.02.2020
3490 Rain 27 1008 94 10000 4.1 330 22:21 04.02.2020
3491 Clouds 27 1007 94 10000 2.1 340 21:59 04.02.2020
3492 Clouds 27 1007 94 10000 2.1 340 21:41 04.02.2020
3493 Clouds 27 1007 94 10000 2.1 340 21:19 04.02.2020
3494 Clouds 27 1007 94 10000 2.1 330 20:59 04.02.2020
3495 Clouds 27 1006 94 10000 2.6 340 20:38 04.02.2020
3496 Clouds 27 1006 94 10000 2.6 340 20:20 04.02.2020
3497 Clouds 27 1006 94 10000 2.6 340 20:20 04.02.2020
3498 Clouds 27 1006 94 10000 2.6 330 19:56 04.02.2020
3499 Clouds 27 1006 94 10000 2.6 330 19:56 04.02.2020
3500 Clouds 27 1006 94 10000 2.1 350 19:38 04.02.2020
3501 Clouds 27 1006 94 10000 2.1 350 19:20 04.02.2020
3502 Clouds 27 1006 94 10000 1 360 18:54 04.02.2020
3503 Clouds 27 1007 94 10000 1.5 10 18:36 04.02.2020
3504 Clouds 27 1007 94 10000 1.5 10 18:18 04.02.2020
3505 Clouds 27 1007 94 10000 1.5 10 17:42 04.02.2020
3506 Clouds 27 1007 94 10000 1.5 10 17:20 04.02.2020
3507 Clouds 27 1008 94 10000 1.5 360 16:54 04.02.2020
3508 Clouds 27 1008 94 10000 1.5 20 16:36 04.02.2020
3509 Clouds 27 1008 94 10000 1.5 20 16:18 04.02.2020
3510 Rain 27 1008 94 8000 2.6 20 15:55 04.02.2020
3511 Rain 27 1009 88 6000 3.6 350 15:37 04.02.2020
3512 Rain 27 1009 88 6000 3.6 350 15:18 04.02.2020
3513 Rain 27 1009 88 10000 2.6 330 14:41 04.02.2020
3514 Clouds 28 1009 88 10000 2.6 330 14:20 04.02.2020
3515 Rain 28 1008 88 10000 3.1 300 13:55 04.02.2020
3516 Rain 27 1008 83 10000 4.1 330 13:36 04.02.2020
3517 Rain 28 1008 83 10000 4.1 330 13:18 04.02.2020
3518 Clouds 28 1007 78 10000 2.1 350 12:42 04.02.2020
3519 Clouds 28 1007 78 10000 2.1 350 12:42 04.02.2020
3520 Clouds 28 1007 78 10000 2.1 350 12:24 04.02.2020
3521 Rain 28 1007 70 10000 5.1 300 11:57 04.02.2020
3522 Rain 29 1007 74 8000 4.1 290 11:38 04.02.2020
3523 Rain 29 1007 74 8000 4.1 290 11:19 04.02.2020
3524 Rain 29 1006 70 10000 5.1 300 10:49 04.02.2020
3525 Clouds 30 1006 74 10000 4.6 300 10:27 04.02.2020
3526 Clouds 30 1006 66 10000 5.7 310 09:58 04.02.2020
3527 Rain 30 1006 66 10000 5.1 300 09:39 04.02.2020
3528 Rain 31 1006 66 10000 5.1 300 09:21 04.02.2020
3529 Rain 31 1006 66 10000 6.7 300 08:47 04.02.2020
3530 Rain 31 1005 66 10000 6.2 310 08:28 04.02.2020
3531 Rain 32 1005 66 10000 5.7 310 07:53 04.02.2020
3532 Clouds 32 1005 66 10000 3.1 300 07:25 04.02.2020
3533 Clouds 31 1005 66 10000 5.1 300 06:58 04.02.2020
3534 Rain 31 1006 83 10000 2.6 330 06:40 04.02.2020
3535 Rain 29 1006 74 10000 5.1 350 05:35 04.02.2020
3536 Rain 31 1007 66 10000 5.1 310 04:28 04.02.2020
3537 Rain 32 1007 70 10000 5.1 310 03:48 04.02.2020
3538 Rain 31 1007 66 10000 4.6 300 03:29 04.02.2020
3539 Clouds 31 1008 66 10000 4.6 290 02:42 04.02.2020
3540 Clouds 30 1008 66 10000 4.6 290 02:24 04.02.2020
3541 Rain 31 1008 62 10000 4.6 290 01:45 04.02.2020
3542 Clouds 30 1008 74 10000 3.1 300 00:56 04.02.2020
3543 Rain 29 1007 79 10000 2.1 350 00:23 04.02.2020
3544 Rain 27 1007 88 10000 2.1 340 23:49 03.02.2020
3545 Rain 26 1007 88 10000 3.1 340 23:30 03.02.2020
3546 Rain 26 1007 88 10000 3.6 360 22:58 03.02.2020
3547 Rain 26 1007 94 10000 2.42 299 22:38 03.02.2020
3548 Rain 26 1007 94 10000 2.42 299 22:19 03.02.2020
3549 Rain 27 1006 83 6000 6.2 320 21:41 03.02.2020
3550 Rain 28 1006 83 6000 6.2 320 21:20 03.02.2020
3551 Clouds 29 1006 74 10000 4.1 290 20:55 03.02.2020
3552 Clouds 28 1005 74 10000 4.1 290 20:37 03.02.2020
3553 Clouds 29 1005 74 10000 4.1 290 20:18 03.02.2020
3554 Clouds 29 1006 74 10000 5.1 300 19:41 03.02.2020
3555 Clouds 29 1006 74 10000 5.1 300 19:22 03.02.2020
3556 Clouds 29 1006 79 10000 4.1 320 18:57 03.02.2020
3557 Clouds 29 1006 70 10000 4.6 320 18:39 03.02.2020
3558 Clouds 29 1006 70 10000 4.6 320 18:21 03.02.2020
3559 Clouds 29 1006 74 10000 6.7 310 17:57 03.02.2020
3560 Clouds 29 1007 74 10000 5.1 320 17:38 03.02.2020
3561 Clouds 29 1007 74 10000 5.1 320 17:19 03.02.2020
3562 Clouds 29 1007 66 10000 4.6 320 16:40 03.02.2020
3563 Clouds 29 1007 66 10000 4.6 320 16:21 03.02.2020
3564 Clouds 29 1008 74 10000 5.1 320 15:56 03.02.2020
3565 Clouds 29 1008 70 10000 4.1 310 15:38 03.02.2020
3566 Clouds 29 1008 70 10000 4.1 310 15:19 03.02.2020
3567 Clouds 29 1008 70 10000 5.1 310 14:56 03.02.2020
3568 Clouds 29 1008 70 10000 4.6 300 14:37 03.02.2020
3569 Clouds 29 1008 70 10000 4.6 300 14:19 03.02.2020
3570 Clouds 29 1008 66 10000 4.6 300 13:41 03.02.2020
3571 Clouds 29 1008 66 10000 4.6 300 13:21 03.02.2020
3572 Clouds 29 1008 66 10000 4.6 300 12:57 03.02.2020
3573 Clouds 29 1007 66 10000 5.1 290 12:38 03.02.2020
3574 Clouds 30 1007 66 10000 5.1 290 12:20 03.02.2020
3575 Clouds 29 1007 66 10000 4.6 290 11:40 03.02.2020
3576 Clouds 29 1007 66 10000 4.6 290 11:20 03.02.2020
3577 Clouds 30 1007 66 10000 4.6 300 10:58 03.02.2020
3578 Clouds 30 1006 58 10000 5.7 290 10:40 03.02.2020
3579 Clouds 30 1006 58 10000 5.7 290 10:40 03.02.2020
3580 Clouds 30 1006 58 10000 5.7 290 10:21 03.02.2020
3581 Clouds 31 1005 59 10000 6.7 290 09:42 03.02.2020
3582 Clouds 31 1005 59 10000 6.7 290 09:21 03.02.2020
3583 Clouds 32 1005 58 10000 6.7 290 08:42 03.02.2020
3584 Clouds 32 1005 58 10000 6.7 290 08:23 03.02.2020
3585 Clouds 32 1006 59 10000 7.2 290 07:58 03.02.2020
3586 Clouds 32 1006 59 10000 6.7 290 07:39 03.02.2020
3587 Clouds 32 1006 59 10000 6.7 290 07:20 03.02.2020
3588 Clouds 32 1006 59 10000 6.7 290 07:20 03.02.2020
3589 Clouds 32 1006 59 10000 6.7 290 07:20 03.02.2020
3590 Clouds 32 1006 62 10000 6.7 280 06:47 03.02.2020
3591 Clouds 32 1007 62 10000 6.7 290 06:27 03.02.2020
3592 Clouds 32 1007 66 10000 7.2 280 05:36 03.02.2020
3593 Clouds 31 1008 66 10000 6.7 280 04:56 03.02.2020
3594 Rain 29 1009 70 10000 7.2 290 02:58 03.02.2020
3595 Rain 29 1009 70 10000 6.2 280 02:34 03.02.2020
3596 Rain 29 1009 74 10000 9.3 290 01:30 03.02.2020
3597 Rain 30 1008 74 10000 5.7 280 00:46 03.02.2020
3598 Rain 30 1008 74 10000 5.7 280 00:22 03.02.2020
3599 Rain 29 1008 74 10000 8.2 310 23:38 02.02.2020
3600 Rain 29 1008 74 10000 8.2 310 23:20 02.02.2020
3601 Rain 29 1008 79 10000 6.2 300 22:57 02.02.2020
3602 Rain 29 1007 74 10000 6.2 300 22:38 02.02.2020
3603 Rain 29 1007 74 10000 6.2 300 22:19 02.02.2020
3604 Rain 29 1007 79 10000 5.7 300 21:54 02.02.2020
3605 Clouds 29 1007 79 10000 6.2 310 21:36 02.02.2020
3606 Clouds 29 1007 79 10000 6.2 310 21:18 02.02.2020
3607 Clouds 29 1007 79 10000 6.7 300 20:55 02.02.2020
3608 Clouds 29 1006 79 10000 7.2 300 20:36 02.02.2020
3609 Clouds 29 1006 79 10000 7.2 300 20:18 02.02.2020
3610 Clouds 29 1006 79 10000 5.7 300 19:42 02.02.2020
3611 Clouds 29 1006 79 10000 5.7 300 19:23 02.02.2020
3612 Clouds 29 1006 74 10000 6.2 300 18:59 02.02.2020
3613 Clouds 29 1006 79 10000 5.1 310 18:39 02.02.2020
3614 Clouds 29 1006 79 10000 5.1 310 18:20 02.02.2020
3615 Clouds 29 1007 79 10000 5.1 310 17:58 02.02.2020
3616 Clouds 29 1007 74 10000 5.1 320 17:38 02.02.2020
3617 Clouds 29 1007 74 10000 5.1 320 17:19 02.02.2020
3618 Clouds 29 1008 74 10000 4.6 320 16:58 02.02.2020
3619 Clouds 29 1008 74 10000 5.1 310 16:39 02.02.2020
3620 Clouds 29 1008 74 10000 5.1 310 16:19 02.02.2020
3621 Clouds 30 1009 74 10000 4.1 310 15:57 02.02.2020
3622 Clouds 30 1009 70 10000 5.1 300 15:39 02.02.2020
3623 Clouds 30 1009 70 10000 5.1 300 15:19 02.02.2020
3624 Clouds 30 1009 74 10000 4.1 300 14:54 02.02.2020
3625 Clouds 29 1009 74 10000 3.6 290 14:36 02.02.2020
3626 Clouds 29 1009 74 10000 3.6 290 14:18 02.02.2020
3627 Clouds 29 1009 79 10000 3.6 270 13:54 02.02.2020
3628 Clouds 29 1008 79 10000 3.1 280 13:36 02.02.2020
3629 Clouds 29 1008 79 10000 3.1 280 13:36 02.02.2020
3630 Clouds 29 1008 79 10000 3.1 280 13:18 02.02.2020
3631 Clouds 29 1008 74 10000 3.1 280 12:40 02.02.2020
3632 Clouds 30 1008 74 10000 3.1 280 12:22 02.02.2020
3633 Clouds 29 1007 74 10000 3.6 280 11:55 02.02.2020
3634 Clouds 30 1007 74 10000 4.6 270 11:36 02.02.2020
3635 Clouds 30 1007 74 10000 4.6 270 11:18 02.02.2020
3636 Clouds 30 1007 74 10000 3.6 270 10:54 02.02.2020
3637 Clouds 30 1006 70 10000 5.7 270 10:36 02.02.2020
3638 Clouds 30 1006 70 10000 5.7 270 10:18 02.02.2020
3639 Clouds 31 1006 66 10000 6.2 270 09:40 02.02.2020
3640 Clouds 31 1006 66 10000 6.2 270 09:21 02.02.2020
3641 Clouds 32 1006 62 10000 7.2 270 08:56 02.02.2020
3642 Clouds 32 1006 62 10000 7.2 280 08:37 02.02.2020
3643 Clouds 32 1006 62 10000 7.2 280 08:37 02.02.2020
3644 Clouds 32 1006 62 10000 7.2 280 08:18 02.02.2020
3645 Rain 32 1006 66 10000 8.2 290 07:42 02.02.2020
3646 Rain 32 1006 66 10000 8.2 290 07:42 02.02.2020
3647 Rain 31 1006 66 10000 8.2 290 07:24 02.02.2020
3648 Rain 33 1007 59 10000 7.2 290 06:38 02.02.2020
3649 Rain 33 1007 59 10000 7.2 290 06:18 02.02.2020
3650 Clouds 32 1008 62 10000 7.7 280 05:23 02.02.2020
3651 Clouds 32 1009 70 10000 6.7 280 04:30 02.02.2020
3652 Rain 30 1010 69 10000 7.2 230 03:24 02.02.2020
3653 Rain 32 1009 66 10000 6.7 290 02:22 02.02.2020
3654 Clouds 31 1009 70 10000 7.2 290 01:51 02.02.2020
3655 Clouds 31 1009 70 10000 6.2 290 00:56 02.02.2020
3656 Clouds 31 1008 74 10000 5.1 300 00:37 02.02.2020
3657 Clouds 30 1008 74 10000 5.1 300 00:18 02.02.2020
3658 Clouds 30 1008 74 10000 4.6 290 23:41 01.02.2020
3659 Clouds 30 1008 74 10000 4.6 290 23:21 01.02.2020
3660 Clouds 29 1008 79 10000 5.1 290 22:45 01.02.2020
3661 Rain 29 1008 74 10000 6.2 300 22:19 01.02.2020
3662 Clouds 29 1008 79 10000 3.6 290 21:42 01.02.2020
3663 Clouds 29 1008 79 10000 3.6 290 21:19 01.02.2020
3664 Clouds 29 1008 74 10000 5.1 290 20:56 01.02.2020
3665 Clouds 29 1008 79 10000 5.7 290 20:38 01.02.2020
3666 Clouds 29 1008 79 10000 5.7 290 20:19 01.02.2020
3667 Clouds 29 1007 79 10000 4.6 280 19:56 01.02.2020
3668 Clouds 29 1007 83 10000 5.7 310 19:37 01.02.2020
3669 Clouds 29 1007 83 10000 5.7 310 19:18 01.02.2020
3670 Clouds 29 1007 79 10000 3.6 290 18:55 01.02.2020
3671 Clouds 29 1007 79 10000 4.6 290 18:37 01.02.2020
3672 Clouds 29 1007 79 10000 4.6 290 18:19 01.02.2020
3673 Clouds 29 1008 79 10000 4.6 290 17:55 01.02.2020
3674 Clouds 29 1008 74 10000 5.1 300 17:36 01.02.2020
3675 Clouds 29 1008 74 10000 5.1 300 17:18 01.02.2020
3676 Clouds 29 1009 74 10000 3.6 290 16:41 01.02.2020
3677 Clouds 29 1009 74 10000 3.6 290 16:21 01.02.2020
3678 Clouds 29 1009 74 10000 3.1 300 15:47 01.02.2020
3679 Clouds 29 1009 79 10000 3.6 270 15:29 01.02.2020
3680 Clouds 29 1010 79 10000 3.6 280 14:59 01.02.2020
3681 Clouds 29 1010 74 10000 3.6 280 14:40 01.02.2020
3682 Clouds 29 1010 74 10000 3.6 280 14:20 01.02.2020
3683 Clouds 29 1010 74 10000 4.1 270 13:45 01.02.2020
3684 Clouds 29 1010 74 10000 3.6 270 13:23 01.02.2020
3685 Clouds 29 1010 74 10000 3.6 270 13:23 01.02.2020
3686 Clouds 29 1010 74 10000 4.1 280 12:50 01.02.2020
3687 Clouds 29 1009 74 10000 3.6 280 12:31 01.02.2020
3688 Clouds 29 1009 74 10000 3.6 270 11:59 01.02.2020
3689 Clouds 30 1008 70 10000 3.6 260 11:39 01.02.2020
3690 Clouds 30 1008 70 10000 3.6 260 11:20 01.02.2020
3691 Clouds 30 1008 70 10000 3.6 260 11:20 01.02.2020
3692 Clouds 30 1008 70 10000 4.6 270 10:58 01.02.2020
3693 Clouds 30 1008 66 10000 5.1 270 10:39 01.02.2020
3694 Clouds 31 1008 66 10000 5.1 270 10:21 01.02.2020
3695 Clouds 31 1007 66 10000 6.2 260 09:58 01.02.2020
3696 Clouds 31 1007 66 10000 6.2 270 09:39 01.02.2020
3697 Clouds 31 1007 66 10000 6.2 270 09:20 01.02.2020
3698 Clouds 32 1007 59 10000 5.7 280 08:46 01.02.2020
3699 Clouds 33 1006 59 10000 7.7 290 07:50 01.02.2020
3700 Clouds 33 1006 63 10000 7.7 290 07:27 01.02.2020
3701 Clouds 33 1006 63 10000 7.2 290 06:56 01.02.2020
3702 Clouds 33 1006 63 10000 7.2 290 06:56 01.02.2020
3703 Clouds 33 1007 63 10000 6.7 300 06:33 01.02.2020
3704 Clouds 33 1007 59 10000 6.7 290 05:52 01.02.2020
3705 Clouds 33 1009 62 10000 6.7 300 03:56 01.02.2020
3706 Clouds 34 1009 63 10000 5.7 300 03:21 01.02.2020
3707 Clouds 33 1009 62 10000 5.7 310 02:46 01.02.2020
3708 Clouds 33 1010 62 10000 5.7 300 02:28 01.02.2020
3709 Clouds 32 1010 66 10000 4.1 270 01:55 01.02.2020
3710 Clouds 32 1010 66 10000 4.6 270 01:33 01.02.2020
3711 Clouds 31 1010 70 10000 4.1 280 00:30 01.02.2020
3712 Clouds 30 1010 70 10000 3.1 270 23:59 31.01.2020
3713 Clouds 29 1009 79 10000 3.1 260 23:37 31.01.2020
3714 Clouds 28 1009 79 10000 3.1 260 23:18 31.01.2020
3715 Clouds 29 1009 79 10000 3.6 270 22:41 31.01.2020
3716 Clouds 29 1009 79 10000 3.6 270 22:41 31.01.2020
3717 Clouds 29 1009 79 10000 3.6 270 22:22 31.01.2020
3718 Clouds 29 1008 79 10000 3.6 270 21:59 31.01.2020
3719 Clouds 29 1008 79 10000 2.6 270 21:39 31.01.2020
3720 Clouds 29 1008 79 10000 2.6 270 21:20 31.01.2020
3721 Clouds 29 1008 79 10000 4.6 280 20:57 31.01.2020
3722 Clouds 29 1008 79 10000 4.6 280 20:57 31.01.2020
3723 Clouds 29 1008 79 10000 4.6 280 20:39 31.01.2020
3724 Clouds 29 1007 74 10000 5.1 290 20:20 31.01.2020
3725 Clouds 29 1007 74 10000 5.1 290 19:56 31.01.2020
3726 Clouds 29 1008 74 10000 4.6 280 19:38 31.01.2020
3727 Clouds 29 1008 74 10000 4.6 280 19:19 31.01.2020
3728 Clouds 29 1008 74 10000 5.1 290 18:43 31.01.2020
3729 Clouds 29 1008 70 10000 4.1 280 18:25 31.01.2020
3730 Clouds 29 1009 74 10000 5.1 290 17:56 31.01.2020
3731 Clouds 29 1009 74 10000 4.1 290 17:37 31.01.2020
3732 Clouds 29 1009 74 10000 4.1 290 17:19 31.01.2020
3733 Clouds 29 1009 79 10000 4.1 280 16:56 31.01.2020
3734 Clouds 29 1009 79 10000 4.1 280 16:37 31.01.2020
3735 Clouds 28 1009 79 10000 4.1 280 16:18 31.01.2020
3736 Clouds 29 1009 79 10000 3.6 270 15:41 31.01.2020
3737 Clouds 29 1009 79 10000 3.6 270 15:21 31.01.2020
3738 Clouds 29 1009 79 10000 4.1 270 14:58 31.01.2020
3739 Clouds 29 1009 79 10000 4.1 280 14:40 31.01.2020
3740 Clouds 29 1009 79 10000 4.1 280 14:20 31.01.2020
3741 Clouds 30 1009 74 10000 4.6 290 13:44 31.01.2020
3742 Clouds 29 1009 70 10000 3.6 290 13:25 31.01.2020
3743 Clouds 29 1009 74 10000 3.6 280 12:46 31.01.2020
3744 Clouds 29 1008 74 10000 4.1 290 12:26 31.01.2020
3745 Clouds 29 1008 74 10000 4.6 290 11:59 31.01.2020
3746 Clouds 29 1007 74 10000 4.6 290 11:40 31.01.2020
3747 Clouds 30 1007 74 10000 4.6 290 11:22 31.01.2020
3748 Clouds 30 1007 74 10000 5.1 290 10:57 31.01.2020
3749 Clouds 30 1007 70 10000 5.7 300 10:37 31.01.2020
3750 Clouds 31 1007 70 10000 5.7 300 10:19 31.01.2020
3751 Clouds 32 1006 66 10000 6.2 300 09:42 31.01.2020
3752 Clouds 32 1006 66 10000 6.2 300 09:22 31.01.2020
3753 Clouds 32 1006 66 10000 6.7 300 08:57 31.01.2020
3754 Clouds 33 1006 62 10000 5.7 290 08:39 31.01.2020
3755 Clouds 33 1006 62 10000 5.7 290 08:20 31.01.2020
3756 Clouds 33 1006 59 10000 6.2 300 07:49 31.01.2020
3757 Clouds 33 1006 59 10000 7.2 290 07:19 31.01.2020
3758 Clouds 33 1006 59 10000 7.2 300 06:37 31.01.2020
3759 Clouds 33 1007 59 10000 6.7 290 05:56 31.01.2020
3760 Clouds 33 1007 59 10000 7.2 300 05:26 31.01.2020
3761 Clouds 32 1008 62 10000 7.7 290 04:36 31.01.2020
3762 Clouds 32 1009 66 10000 6.7 300 02:50 31.01.2020
3763 Clouds 32 1009 70 10000 6.2 290 01:31 31.01.2020
3764 Rain 31 1008 74 10000 6.2 300 00:40 31.01.2020
3765 Rain 30 1008 74 10000 6.2 300 00:22 31.01.2020
3766 Clouds 29 1007 79 10000 5.1 290 23:42 30.01.2020
3767 Clouds 29 1007 79 10000 5.1 290 23:23 30.01.2020
3768 Clouds 29 1007 74 10000 3.6 280 22:39 30.01.2020
3769 Clouds 29 1007 74 10000 3.6 280 22:21 30.01.2020
3770 Rain 28 1007 74 10000 5.1 290 21:59 30.01.2020
3771 Clouds 29 1006 74 10000 5.1 290 21:40 30.01.2020
3772 Clouds 28 1006 79 10000 5.1 290 21:19 30.01.2020
3773 Clouds 28 1006 79 10000 5.1 290 20:57 30.01.2020
3774 Clouds 28 1006 79 10000 4.6 290 20:38 30.01.2020
3775 Clouds 28 1006 79 10000 4.6 290 20:20 30.01.2020
3776 Clouds 28 1006 79 10000 5.7 300 19:44 30.01.2020
3777 Clouds 29 1006 79 10000 5.7 300 19:19 30.01.2020
3778 Clouds 29 1006 79 10000 5.7 300 19:19 30.01.2020
3779 Clouds 29 1006 79 10000 5.1 290 18:59 30.01.2020
3780 Clouds 29 1006 79 10000 5.7 300 18:38 30.01.2020
3781 Clouds 29 1006 79 10000 5.7 300 18:19 30.01.2020
3782 Clouds 29 1006 79 10000 5.7 300 17:54 30.01.2020
3783 Clouds 29 1006 79 10000 5.1 300 17:36 30.01.2020
3784 Clouds 29 1006 79 10000 5.1 300 17:18 30.01.2020
3785 Clouds 29 1007 74 10000 5.7 290 16:40 30.01.2020
3786 Clouds 29 1007 74 10000 5.7 290 16:21 30.01.2020
3787 Clouds 29 1007 79 10000 5.7 290 15:45 30.01.2020
3788 Clouds 30 1007 74 10000 6.2 290 15:22 30.01.2020
3789 Clouds 30 1007 74 10000 6.2 290 15:22 30.01.2020
3790 Clouds 29 1007 79 10000 6.2 290 14:58 30.01.2020
3791 Clouds 29 1007 79 10000 6.7 290 14:40 30.01.2020
3792 Clouds 29 1007 79 10000 6.7 290 14:22 30.01.2020
3793 Clouds 29 1007 79 10000 6.2 300 13:43 30.01.2020
3794 Clouds 30 1007 74 10000 6.2 290 13:24 30.01.2020
3795 Clouds 30 1007 74 10000 5.1 290 12:57 30.01.2020
3796 Clouds 29 1007 79 10000 5.1 300 12:38 30.01.2020
3797 Clouds 29 1007 79 10000 5.1 300 12:38 30.01.2020
3798 Clouds 29 1007 79 10000 5.1 300 12:20 30.01.2020
3799 Clouds 30 1006 79 10000 4.6 290 11:41 30.01.2020
3800 Clouds 30 1006 79 10000 4.6 290 11:23 30.01.2020
3801 Clouds 30 1006 79 10000 4.6 290 10:59 30.01.2020
3802 Clouds 30 1005 79 10000 3.6 280 10:40 30.01.2020
3803 Clouds 30 1005 79 10000 3.6 280 10:21 30.01.2020
3804 Clouds 30 1005 74 10000 6.2 290 09:46 30.01.2020
3805 Clouds 31 1004 70 10000 7.7 290 09:27 30.01.2020
3806 Clouds 31 1004 70 10000 7.7 290 08:55 30.01.2020
3807 Clouds 31 1004 74 10000 8.2 290 08:36 30.01.2020
3808 Clouds 31 1004 74 10000 8.2 290 08:18 30.01.2020
3809 Rain 31 1005 89 10000 7.2 290 07:44 30.01.2020
3810 Rain 30 1005 89 10000 7.2 290 07:20 30.01.2020
3811 Rain 30 1005 83 3000 4.6 270 06:46 30.01.2020
3812 Rain 30 1005 83 3000 4.6 270 06:26 30.01.2020
3813 Rain 30 1005 83 3000 4.6 270 06:26 30.01.2020
3814 Rain 32 1005 63 10000 8.7 290 05:43 30.01.2020
3815 Rain 33 1005 63 10000 8.7 290 05:19 30.01.2020
3816 Rain 33 1006 66 10000 8.7 290 03:48 30.01.2020
3817 Rain 32 1007 66 10000 8.2 290 03:26 30.01.2020
3818 Clouds 31 1007 74 10000 6.7 290 01:41 30.01.2020
3819 Clouds 31 1006 74 10000 8.2 280 00:37 30.01.2020
3820 Clouds 30 1006 74 10000 8.2 280 00:19 30.01.2020
3821 Clouds 30 1006 74 10000 8.2 280 00:19 30.01.2020
3822 Clouds 30 1006 74 10000 6.7 280 23:44 29.01.2020
3823 Clouds 30 1005 74 10000 8.2 290 23:20 29.01.2020
3824 Clouds 29 1005 79 10000 7.7 290 22:56 29.01.2020
3825 Clouds 29 1005 79 10000 7.2 300 22:38 29.01.2020
3826 Clouds 29 1005 79 10000 7.2 300 22:19 29.01.2020
3827 Clouds 29 1004 83 10000 7.7 310 21:57 29.01.2020
3828 Rain 29 1004 79 10000 6.7 320 21:37 29.01.2020
3829 Rain 29 1004 79 10000 6.7 320 21:18 29.01.2020
3830 Rain 29 1004 79 10000 7.7 300 20:57 29.01.2020
3831 Rain 29 1004 79 10000 7.7 300 20:57 29.01.2020
3832 Rain 29 1004 79 10000 6.2 310 20:37 29.01.2020
3833 Rain 29 1004 79 10000 6.2 310 20:37 29.01.2020
3834 Rain 29 1004 79 10000 6.2 310 20:18 29.01.2020
3835 Rain 29 1004 79 10000 6.2 310 20:18 29.01.2020
3836 Rain 29 1003 79 10000 7.2 310 19:55 29.01.2020
3837 Rain 29 1004 79 10000 6.2 310 19:36 29.01.2020
3838 Rain 29 1004 79 10000 6.2 310 19:18 29.01.2020
3839 Clouds 29 1005 83 10000 5.7 290 18:40 29.01.2020
3840 Clouds 29 1005 83 10000 5.7 290 18:19 29.01.2020
3841 Clouds 29 1005 83 10000 6.2 280 17:41 29.01.2020
3842 Clouds 29 1005 83 10000 6.2 280 17:23 29.01.2020
3843 Clouds 29 1006 79 10000 4.6 270 16:59 29.01.2020
3844 Clouds 29 1006 79 10000 7.7 280 16:40 29.01.2020
3845 Clouds 29 1006 79 10000 7.7 280 16:20 29.01.2020
3846 Clouds 29 1006 74 10000 8.7 280 15:40 29.01.2020
3847 Clouds 30 1006 74 10000 8.7 280 15:22 29.01.2020
3848 Clouds 29 1006 74 10000 8.7 290 14:58 29.01.2020
3849 Clouds 29 1005 74 10000 7.7 290 14:40 29.01.2020
3850 Clouds 30 1005 74 10000 7.7 290 14:18 29.01.2020
3851 Clouds 29 1004 83 10000 7.7 290 13:41 29.01.2020
3852 Clouds 29 1004 83 10000 7.7 290 13:22 29.01.2020
3853 Clouds 30 1005 79 10000 6.7 300 12:57 29.01.2020
3854 Clouds 30 1005 79 10000 5.1 290 12:39 29.01.2020
3855 Clouds 29 1005 79 10000 5.1 290 12:21 29.01.2020
3856 Clouds 29 1004 83 10000 3.6 310 11:56 29.01.2020
3857 Clouds 29 1005 79 10000 4.1 270 11:37 29.01.2020
3858 Clouds 30 1005 79 10000 4.1 270 11:19 29.01.2020
3859 Rain 30 1010 81 0 5.82 296 10:45 29.01.2020
3860 Rain 30 1004 74 10000 6.2 300 10:22 29.01.2020
3861 Rain 31 1004 74 10000 6.2 300 09:40 29.01.2020
3862 Rain 31 1004 74 10000 6.2 300 09:40 29.01.2020
3863 Rain 31 1004 74 10000 6.2 300 09:22 29.01.2020
3864 Rain 31 1004 74 10000 6.2 300 08:58 29.01.2020
3865 Clouds 32 1004 74 10000 6.7 300 08:39 29.01.2020
3866 Clouds 32 1004 74 10000 6.7 300 08:20 29.01.2020
3867 Clouds 32 1004 74 10000 6.7 290 07:45 29.01.2020
3868 Clouds 32 1004 66 10000 6.7 290 07:25 29.01.2020
3869 Clouds 32 1004 70 10000 7.7 300 06:55 29.01.2020
3870 Clouds 32 1004 66 10000 9.8 290 06:37 29.01.2020
3871 Clouds 32 1004 66 10000 9.8 290 06:18 29.01.2020
3872 Rain 32 1004 55 10000 3.6 280 05:45 29.01.2020
3873 Rain 31 1004 66 10000 2.6 300 05:26 29.01.2020
3874 Clouds 27 1006 83 10000 0.5 350 04:38 29.01.2020
3875 Clouds 26 1006 83 10000 2.6 10 03:49 29.01.2020
3876 Thunderstorm 23 1009 94 5000 9.8 190 02:33 29.01.2020
3877 Rain 28 1007 83 10000 5.1 300 00:44 29.01.2020
3878 Rain 27 1007 83 10000 5.1 290 00:25 29.01.2020
3879 Rain 28 1007 83 10000 5.1 300 23:58 28.01.2020
3880 Rain 28 1007 79 10000 6.7 290 23:37 28.01.2020
3881 Rain 29 1007 79 10000 6.7 290 23:18 28.01.2020
3882 Clouds 29 1006 79 10000 3.1 270 22:41 28.01.2020
3883 Clouds 30 1006 79 10000 3.1 270 22:21 28.01.2020
3884 Clouds 29 1005 79 10000 5.7 270 21:54 28.01.2020
3885 Clouds 29 1004 79 10000 7.2 280 21:36 28.01.2020
3886 Clouds 29 1004 79 10000 7.2 280 21:18 28.01.2020
3887 Clouds 29 1004 79 10000 7.2 280 21:18 28.01.2020
3888 Clouds 29 1004 79 10000 8.7 290 20:42 28.01.2020
3889 Clouds 29 1004 79 10000 8.7 290 20:42 28.01.2020
3890 Clouds 29 1004 79 10000 8.7 290 20:23 28.01.2020
3891 Clouds 29 1004 79 10000 7.7 290 19:55 28.01.2020
3892 Clouds 29 1004 74 10000 7.7 290 19:36 28.01.2020
3893 Clouds 29 1004 74 10000 7.7 290 19:18 28.01.2020
3894 Clouds 29 1005 74 10000 7.7 290 18:41 28.01.2020
3895 Clouds 29 1005 74 10000 7.7 290 18:22 28.01.2020
3896 Clouds 30 1005 79 10000 7.2 290 17:59 28.01.2020
3897 Clouds 30 1005 74 10000 9.3 300 17:39 28.01.2020
3898 Clouds 30 1005 74 10000 9.3 300 17:21 28.01.2020
3899 Clouds 30 1005 79 10000 7.7 290 16:56 28.01.2020
3900 Clouds 30 1005 74 10000 8.2 300 16:37 28.01.2020
3901 Clouds 29 1005 74 10000 8.2 300 16:19 28.01.2020
3902 Clouds 30 1006 79 10000 7.2 300 15:44 28.01.2020
3903 Clouds 30 1006 79 10000 7.2 300 15:19 28.01.2020
3904 Clouds 30 1006 79 10000 6.7 290 14:57 28.01.2020
3905 Clouds 30 1006 79 10000 6.7 290 14:38 28.01.2020
3906 Clouds 30 1006 79 10000 6.7 290 14:38 28.01.2020
3907 Clouds 30 1006 79 10000 6.7 290 14:18 28.01.2020
3908 Clouds 30 1006 79 10000 6.7 290 13:39 28.01.2020
3909 Clouds 30 1006 79 10000 6.7 290 13:21 28.01.2020
3910 Clouds 30 1006 79 10000 5.7 290 12:42 28.01.2020
3911 Clouds 30 1006 79 10000 5.7 290 12:24 28.01.2020
3912 Clouds 30 1005 79 10000 6.7 290 11:55 28.01.2020
3913 Clouds 30 1005 79 10000 7.2 290 11:37 28.01.2020
3914 Clouds 30 1005 79 10000 7.2 290 11:19 28.01.2020
3915 Clouds 31 1004 74 0 7.15 290 10:41 28.01.2020
3916 Clouds 31 1004 74 10000 6.7 290 10:22 28.01.2020
3917 Clouds 31 1004 74 10000 6.7 290 09:56 28.01.2020
3918 Clouds 31 1004 74 10000 7.2 290 09:37 28.01.2020
3919 Clouds 31 1004 74 10000 7.2 290 09:19 28.01.2020
3920 Clouds 32 1004 70 10000 7.7 300 08:41 28.01.2020
3921 Clouds 33 1004 70 10000 7.7 300 08:20 28.01.2020
3922 Clouds 33 1004 70 10000 8.2 290 07:38 28.01.2020
3923 Clouds 33 1004 70 10000 7.7 290 06:51 28.01.2020
3924 Clouds 33 1005 66 10000 7.7 290 06:29 28.01.2020
3925 Clouds 33 1005 66 10000 8.7 300 05:56 28.01.2020
3926 Clouds 33 1006 66 10000 8.2 290 05:34 28.01.2020
3927 Clouds 33 1006 63 10000 7.2 270 04:39 28.01.2020
3928 Clouds 33 1007 63 10000 7.2 270 03:36 28.01.2020
3929 Clouds 33 1007 66 10000 7.2 270 02:32 28.01.2020
3930 Clouds 32 1008 66 10000 6.7 270 01:58 28.01.2020
3931 Clouds 32 1008 70 10000 6.7 280 01:40 28.01.2020
3932 Clouds 31 1007 74 10000 6.7 270 00:51 28.01.2020
3933 Clouds 31 1007 74 10000 6.2 280 00:30 28.01.2020
3934 Clouds 30 1007 74 10000 6.2 280 23:53 27.01.2020
3935 Clouds 30 1007 79 10000 5.1 280 23:31 27.01.2020
3936 Clouds 30 1007 79 10000 5.1 280 23:31 27.01.2020
3937 Clouds 29 1007 83 10000 6.2 280 22:59 27.01.2020
3938 Clouds 29 1006 83 10000 5.7 290 22:41 27.01.2020
3939 Clouds 29 1006 83 10000 5.7 290 22:20 27.01.2020
3940 Clouds 29 1006 83 10000 5.7 290 21:57 27.01.2020
3941 Clouds 29 1005 83 10000 5.1 290 21:38 27.01.2020
3942 Clouds 29 1005 83 10000 5.1 290 21:18 27.01.2020
3943 Clouds 29 1005 83 10000 5.7 290 20:55 27.01.2020
3944 Clouds 29 1005 83 10000 5.1 290 20:37 27.01.2020
3945 Clouds 29 1005 83 10000 5.1 290 20:18 27.01.2020
3946 Clouds 29 1005 83 10000 4.6 290 19:41 27.01.2020
3947 Clouds 29 1005 83 10000 4.6 290 19:23 27.01.2020
3948 Clouds 29 1006 83 10000 4.1 290 18:56 27.01.2020
3949 Clouds 29 1006 83 10000 4.1 280 18:38 27.01.2020
3950 Clouds 29 1006 83 10000 4.1 280 18:20 27.01.2020
3951 Clouds 29 1007 83 10000 4.1 280 17:40 27.01.2020
3952 Clouds 29 1007 83 10000 4.1 280 17:22 27.01.2020
3953 Clouds 29 1007 83 10000 4.1 280 16:59 27.01.2020
3954 Clouds 29 1008 79 10000 4.1 280 16:41 27.01.2020
3955 Clouds 29 1008 79 10000 4.1 280 16:41 27.01.2020
3956 Clouds 29 1008 79 10000 4.1 280 16:23 27.01.2020
3957 Clouds 29 1008 83 10000 4.1 280 15:55 27.01.2020
3958 Clouds 29 1008 83 10000 3.6 280 15:37 27.01.2020
3959 Clouds 29 1008 83 10000 3.6 280 15:19 27.01.2020
3960 Clouds 29 1008 83 10000 3.1 280 14:54 27.01.2020
3961 Clouds 29 1008 83 10000 2.6 280 14:36 27.01.2020
3962 Clouds 29 1008 83 10000 2.6 280 14:18 27.01.2020
3963 Clouds 29 1007 79 10000 2.1 270 13:41 27.01.2020
3964 Clouds 29 1007 79 10000 2.1 270 13:20 27.01.2020
3965 Clouds 29 1007 74 10000 3.6 270 12:56 27.01.2020
3966 Clouds 29 1006 74 10000 4.1 270 12:37 27.01.2020
3967 Clouds 29 1006 74 10000 4.1 270 12:19 27.01.2020
3968 Clouds 30 1006 74 10000 5.1 270 11:41 27.01.2020
3969 Clouds 30 1006 74 10000 5.1 270 11:21 27.01.2020
3970 Clouds 30 1006 70 10000 5.1 270 10:43 27.01.2020
3971 Clouds 31 1006 70 10000 5.7 270 10:25 27.01.2020
3972 Clouds 32 1005 70 10000 6.7 290 09:57 27.01.2020
3973 Clouds 31 1005 74 10000 7.7 290 09:38 27.01.2020
3974 Clouds 31 1005 74 10000 7.7 290 09:18 27.01.2020
3975 Clouds 33 1005 63 10000 7.7 290 08:43 27.01.2020
3976 Clouds 33 1005 66 10000 7.7 290 08:22 27.01.2020
3977 Clouds 33 1006 59 10000 7.2 300 07:54 27.01.2020
3978 Clouds 33 1006 63 10000 7.2 300 07:35 27.01.2020
3979 Clouds 33 1006 66 10000 7.7 300 06:54 27.01.2020
3980 Clouds 33 1006 63 10000 7.2 300 06:27 27.01.2020
3981 Clouds 34 1007 63 10000 7.2 300 05:28 27.01.2020
3982 Clouds 33 1008 66 10000 6.7 300 03:58 27.01.2020
3983 Clouds 33 1009 70 10000 6.2 290 02:43 27.01.2020
3984 Clouds 32 1009 70 10000 5.7 290 01:31 27.01.2020
3985 Clouds 31 1009 74 10000 4.6 280 00:59 27.01.2020
3986 Clouds 31 1009 74 10000 3.6 280 00:37 27.01.2020
3987 Clouds 30 1009 74 10000 3.6 280 00:19 27.01.2020
3988 Clouds 29 1008 79 10000 4.1 280 23:41 26.01.2020
3989 Clouds 29 1008 79 10000 4.1 280 23:19 26.01.2020
3990 Clouds 29 1008 79 10000 4.1 290 22:55 26.01.2020
3991 Clouds 28 1008 79 10000 3.6 290 22:37 26.01.2020
3992 Clouds 28 1008 79 10000 3.6 290 22:18 26.01.2020
3993 Clouds 28 1007 79 10000 3.6 280 21:56 26.01.2020
3994 Clouds 28 1007 79 10000 3.6 280 21:38 26.01.2020
3995 Clouds 28 1007 79 10000 3.6 280 21:19 26.01.2020
3996 Clouds 28 1007 79 10000 4.1 290 20:55 26.01.2020
3997 Clouds 28 1007 74 10000 4.1 290 20:37 26.01.2020
3998 Clouds 28 1007 74 10000 4.1 290 20:18 26.01.2020
3999 Clouds 28 1007 79 10000 4.6 290 19:56 26.01.2020
4000 Clouds 28 1007 79 10000 4.6 290 19:37 26.01.2020
4001 Clouds 28 1007 79 10000 4.6 290 19:18 26.01.2020
4002 Clouds 29 1008 79 10000 4.1 290 18:41 26.01.2020
4003 Clouds 28 1008 79 10000 4.1 290 18:22 26.01.2020
4004 Clouds 28 1008 74 10000 3.6 290 17:58 26.01.2020
4005 Clouds 28 1008 79 10000 3.6 300 17:39 26.01.2020
4006 Clouds 28 1008 79 10000 3.6 300 17:20 26.01.2020
4007 Clouds 28 1008 79 10000 3.1 290 16:58 26.01.2020
4008 Clouds 28 1008 79 10000 3.1 290 16:40 26.01.2020
4009 Clouds 29 1008 79 10000 3.1 290 16:21 26.01.2020
4010 Clouds 28 1009 79 0 2.68 280 15:58 26.01.2020
4011 Clouds 28 1009 79 0 2.68 280 15:39 26.01.2020
4012 Clouds 28 1010 79 0 2.68 280 15:19 26.01.2020
4013 Clouds 29 1009 79 0 2.68 290 14:41 26.01.2020
4014 Clouds 29 1008 79 0 2.68 300 14:21 26.01.2020
4015 Clouds 29 1008 79 0 2.24 280 13:57 26.01.2020
4016 Clouds 29 1014 83 0 2.72 277 13:37 26.01.2020
4017 Clouds 29 1014 81 0 2.58 286 13:18 26.01.2020
4018 Clouds 29 1013 81 0 2.58 286 12:42 26.01.2020
4019 Clouds 29 1013 78 0 2.58 286 12:24 26.01.2020
4020 Clouds 29 1013 78 0 2.58 286 12:24 26.01.2020
4021 Clouds 29 1013 75 0 2.58 286 11:58 26.01.2020
4022 Clouds 29 1013 74 0 2.58 286 11:39 26.01.2020
4023 Clouds 30 1006 66 10000 5.7 290 11:19 26.01.2020
4024 Clouds 30 1006 66 10000 5.7 290 10:58 26.01.2020
4025 Clouds 31 1006 66 10000 5.7 290 10:38 26.01.2020
4026 Clouds 31 1006 66 10000 5.7 290 10:38 26.01.2020
4027 Clouds 31 1006 66 10000 5.7 290 10:20 26.01.2020
4028 Clouds 31 1006 66 10000 6.2 290 09:57 26.01.2020
4029 Clouds 31 1006 66 10000 6.7 300 09:39 26.01.2020
4030 Clouds 31 1006 66 10000 6.7 300 09:39 26.01.2020
4031 Clouds 32 1006 66 10000 6.7 300 09:21 26.01.2020
4032 Clouds 32 1006 66 10000 7.2 300 08:43 26.01.2020
4033 Clouds 33 1006 66 10000 7.7 300 08:23 26.01.2020
4034 Clouds 33 1005 62 10000 6.7 300 07:57 26.01.2020
4035 Clouds 33 1006 55 10000 7.2 290 07:39 26.01.2020
4036 Clouds 33 1006 55 10000 7.2 290 07:21 26.01.2020
4037 Clouds 33 1007 59 10000 7.2 300 06:31 26.01.2020
4038 Clouds 33 1008 59 10000 7.7 300 05:32 26.01.2020
4039 Clouds 33 1008 59 10000 7.7 300 05:32 26.01.2020
4040 Clouds 33 1009 66 10000 6.7 300 04:45 26.01.2020
4041 Clouds 33 1009 62 10000 6.2 300 02:54 26.01.2020
4042 Rain 31 1010 66 10000 5.1 290 01:49 26.01.2020
4043 Rain 31 1009 70 10000 5.1 290 01:25 26.01.2020
4044 Clouds 31 1009 74 10000 4.6 280 00:53 26.01.2020
4045 Clouds 30 1009 74 10000 4.1 260 00:31 26.01.2020
4046 Clouds 29 1009 79 0 3.58 260 23:41 25.01.2020
4047 Clouds 28 1009 86 0 2.68 291 23:23 25.01.2020
4048 Clouds 28 1009 88 0 1.34 273 22:59 25.01.2020
4049 Clouds 28 1008 87 0 2.9 295 22:40 25.01.2020
4050 Clouds 27 1009 87 0 0.45 287 22:19 25.01.2020
4051 Clouds 27 1013 86 0 2.9 295 21:57 25.01.2020
4052 Clouds 27 1013 86 0 2.9 295 21:38 25.01.2020
4053 Clouds 27 1008 87 0 0.89 274 21:20 25.01.2020
4054 Clouds 28 1013 85 0 2.9 295 20:44 25.01.2020
4055 Clouds 28 1007 83 0 3.58 270 20:44 25.01.2020
4056 Clouds 28 1012 86 0 2.9 295 20:25 25.01.2020
4057 Clouds 28 1012 86 0 2.9 295 20:25 25.01.2020
4058 Rain 27 1006 91 0 2.4 286 19:55 25.01.2020
4059 Rain 28 1012 83 0 3.58 270 19:37 25.01.2020
4060 Rain 28 1013 87 0 2.4 286 19:18 25.01.2020
4061 Rain 28 1013 88 0 2.92 304 18:42 25.01.2020
4062 Rain 28 1013 87 0 2.4 286 18:22 25.01.2020
4063 Rain 28 1012 79 0 2.24 260 17:58 25.01.2020
4064 Rain 28 1012 79 0 2.24 260 17:38 25.01.2020
4065 Rain 28 1009 87 0 1.34 292 17:19 25.01.2020
4066 Rain 28 1008 86 0 2.38 281 16:43 25.01.2020
4067 Rain 28 1014 84 0 2.38 281 16:23 25.01.2020
4068 Rain 28 1009 86 0 1.34 222 15:58 25.01.2020
4069 Rain 28 1014 83 0 2.38 281 15:58 25.01.2020
4070 Rain 28 1015 82 0 2.38 281 15:40 25.01.2020
4071 Rain 28 1010 87 0 0.45 283 15:21 25.01.2020
4072 Rain 28 1015 81 0 2.38 281 14:44 25.01.2020
4073 Clouds 28 1009 79 0 3.58 270 14:19 25.01.2020
4074 Clouds 29 1009 85 0 0.89 292 13:54 25.01.2020
4075 Clouds 28 1014 82 0 2.67 269 13:36 25.01.2020
4076 Clouds 29 1009 85 0 1.34 262 13:18 25.01.2020
4077 Clouds 29 1009 85 0 1.34 262 13:18 25.01.2020
4078 Clouds 29 1007 79 10000 2.6 270 12:41 25.01.2020
4079 Clouds 29 1007 79 10000 2.6 270 12:20 25.01.2020
4080 Clouds 29 1007 70 10000 3.1 270 11:40 25.01.2020
4081 Clouds 29 1007 70 10000 3.1 270 11:20 25.01.2020
4082 Clouds 30 1007 70 10000 3.6 260 10:56 25.01.2020
4083 Clouds 30 1007 70 10000 4.1 260 10:38 25.01.2020
4084 Clouds 30 1007 70 10000 4.1 260 10:38 25.01.2020
4085 Clouds 30 1007 70 10000 4.1 260 10:18 25.01.2020
4086 Clouds 31 1006 70 10000 5.7 280 09:40 25.01.2020
4087 Clouds 31 1006 70 10000 5.7 280 09:20 25.01.2020
4088 Clouds 31 1005 70 10000 8.2 300 08:43 25.01.2020
4089 Clouds 32 1006 66 10000 6.7 290 08:00 25.01.2020
4090 Clouds 32 1007 62 10000 7.2 290 07:40 25.01.2020
4091 Clouds 32 1007 66 10000 6.2 290 06:44 25.01.2020
4092 Rain 32 1007 62 10000 7.2 300 06:24 25.01.2020
4093 Clouds 33 1008 63 10000 6.7 290 05:44 25.01.2020
4094 Clouds 33 1009 55 10000 6.7 300 04:24 25.01.2020
4095 Clouds 33 1009 66 10000 6.2 280 03:50 25.01.2020
4096 Clouds 32 1010 70 10000 5.7 290 02:40 25.01.2020
4097 Clouds 31 1010 74 10000 5.1 290 01:58 25.01.2020
4098 Clouds 31 1010 74 10000 4.6 280 01:34 25.01.2020
4099 Rain 30 1009 83 10000 3.6 320 00:41 25.01.2020
4100 Rain 29 1009 83 10000 3.6 320 00:23 25.01.2020
4101 Rain 28 1008 79 10000 4.6 290 23:42 24.01.2020
4102 Rain 29 1008 79 10000 4.6 290 23:24 24.01.2020
4103 Clouds 29 1008 79 10000 4.6 290 22:47 24.01.2020
4104 Clouds 29 1008 83 10000 3.1 300 22:29 24.01.2020
4105 Clouds 29 1007 83 10000 3.6 300 21:59 24.01.2020
4106 Clouds 28 1007 83 10000 3.6 310 21:41 24.01.2020
4107 Clouds 28 1007 83 10000 3.6 310 21:41 24.01.2020
4108 Clouds 28 1007 83 10000 3.6 310 21:19 24.01.2020
4109 Clouds 29 1007 83 10000 3.6 310 20:44 24.01.2020
4110 Clouds 28 1007 89 10000 3.1 330 20:23 24.01.2020
4111 Clouds 29 1007 89 10000 3.6 340 19:59 24.01.2020
4112 Clouds 28 1008 83 10000 3.6 330 19:41 24.01.2020
4113 Clouds 28 1008 83 10000 3.6 330 19:22 24.01.2020
4114 Clouds 29 1008 79 10000 4.1 320 18:58 24.01.2020
4115 Clouds 29 1008 79 10000 4.6 320 18:40 24.01.2020
4116 Clouds 29 1008 79 10000 4.6 320 18:22 24.01.2020
4117 Clouds 28 1008 79 10000 3.6 310 17:44 24.01.2020
4118 Rain 28 1008 83 10000 2.6 290 17:22 24.01.2020
4119 Rain 29 1009 83 10000 2.1 290 16:57 24.01.2020
4120 Rain 29 1010 79 10000 1.5 290 16:38 24.01.2020
4121 Rain 29 1010 79 10000 1.5 290 16:19 24.01.2020
4122 Clouds 28 1010 79 10000 2.1 250 15:42 24.01.2020
4123 Clouds 29 1010 79 10000 2.1 250 15:21 24.01.2020
4124 Clouds 29 1009 79 10000 3.1 280 14:43 24.01.2020
4125 Clouds 29 1009 79 10000 3.1 280 14:24 24.01.2020
4126 Clouds 29 1009 79 10000 3.1 280 13:59 24.01.2020
4127 Clouds 29 1009 79 10000 3.6 290 13:40 24.01.2020
4128 Clouds 29 1009 79 10000 3.6 290 13:21 24.01.2020
4129 Clouds 29 1009 79 10000 3.1 280 12:43 24.01.2020
4130 Clouds 29 1008 74 10000 4.6 290 12:20 24.01.2020
4131 Clouds 30 1008 74 10000 3.6 290 11:45 24.01.2020
4132 Clouds 30 1008 74 10000 4.6 290 11:19 24.01.2020
4133 Clouds 30 1008 74 10000 4.6 290 11:19 24.01.2020
4134 Clouds 30 1007 74 10000 5.7 280 10:58 24.01.2020
4135 Clouds 30 1007 74 10000 6.2 280 10:40 24.01.2020
4136 Clouds 30 1007 74 10000 6.2 280 10:19 24.01.2020
4137 Clouds 31 1006 70 10000 6.7 300 09:41 24.01.2020
4138 Clouds 31 1006 70 10000 6.7 300 09:23 24.01.2020
4139 Clouds 31 1006 66 10000 8.2 300 08:41 24.01.2020
4140 Clouds 31 1006 66 10000 8.2 300 08:41 24.01.2020
4141 Clouds 32 1006 66 10000 8.2 300 08:21 24.01.2020
4142 Clouds 32 1006 62 10000 8.7 290 07:58 24.01.2020
4143 Clouds 32 1006 66 10000 8.7 290 07:39 24.01.2020
4144 Clouds 33 1006 63 10000 8.7 280 06:54 24.01.2020
4145 Clouds 32 1007 62 10000 8.7 290 06:33 24.01.2020
4146 Clouds 32 1007 66 10000 8.2 290 05:59 24.01.2020
4147 Clouds 33 1007 66 10000 7.7 290 05:18 24.01.2020
4148 Clouds 32 1009 70 10000 7.7 290 02:54 24.01.2020
4149 Clouds 32 1009 70 10000 6.7 290 02:27 24.01.2020
4150 Clouds 32 1009 70 10000 6.7 290 01:56 24.01.2020
4151 Clouds 31 1009 74 10000 5.7 280 01:35 24.01.2020
4152 Clouds 29 1008 83 10000 5.1 300 00:33 24.01.2020
4153 Clouds 29 1007 83 10000 5.7 300 23:58 23.01.2020
4154 Clouds 29 1007 83 10000 6.2 320 23:40 23.01.2020
4155 Rain 28 1007 83 10000 6.2 320 23:20 23.01.2020
4156 Rain 28 1007 88 10000 7.2 320 22:55 23.01.2020
4157 Rain 28 1007 88 10000 7.2 320 22:55 23.01.2020
4158 Rain 28 1006 88 10000 4.6 300 22:36 23.01.2020
4159 Rain 27 1006 88 10000 4.6 300 22:18 23.01.2020
4160 Clouds 27 1006 88 10000 2.1 350 21:54 23.01.2020
4161 Clouds 27 1006 88 10000 1.5 360 21:36 23.01.2020
4162 Clouds 27 1006 88 10000 1.5 360 21:18 23.01.2020
4163 Clouds 27 1006 78 10000 4.1 240 20:40 23.01.2020
4164 Clouds 27 1006 78 10000 4.1 240 20:22 23.01.2020
4165 Rain 28 1006 83 10000 4.1 250 19:57 23.01.2020
4166 Clouds 29 1006 83 10000 3.1 250 19:39 23.01.2020
4167 Clouds 29 1006 83 10000 3.1 250 19:21 23.01.2020
4168 Rain 29 1007 83 10000 3.6 240 18:56 23.01.2020
4169 Rain 29 1007 83 10000 3.1 250 18:37 23.01.2020
4170 Rain 29 1007 83 10000 3.1 250 18:19 23.01.2020
4171 Rain 29 1007 83 10000 3.1 250 18:19 23.01.2020
4172 Clouds 29 1007 83 10000 3.6 290 17:44 23.01.2020
4173 Clouds 29 1007 83 10000 3.6 290 17:21 23.01.2020
4174 Clouds 29 1007 83 10000 2.6 270 16:59 23.01.2020
4175 Clouds 29 1008 83 10000 2.6 260 16:39 23.01.2020
4176 Clouds 29 1008 83 10000 2.6 260 16:19 23.01.2020
4177 Clouds 29 1008 83 10000 3.1 270 15:58 23.01.2020
4178 Clouds 29 1009 83 10000 2.6 260 15:38 23.01.2020
4179 Clouds 29 1009 83 10000 2.6 260 15:38 23.01.2020
4180 Clouds 28 1009 83 10000 2.6 260 15:19 23.01.2020
4181 Rain 28 1008 83 10000 3.1 260 14:58 23.01.2020
4182 Rain 28 1008 83 10000 3.6 260 14:40 23.01.2020
4183 Rain 29 1008 83 10000 3.6 260 14:21 23.01.2020
4184 Clouds 29 1008 83 10000 3.6 270 13:46 23.01.2020
4185 Clouds 29 1007 83 10000 5.7 290 13:21 23.01.2020
4186 Rain 29 1007 83 10000 5.1 280 12:57 23.01.2020
4187 Rain 29 1007 83 10000 5.1 280 12:57 23.01.2020
4188 Rain 29 1006 83 10000 4.6 290 12:39 23.01.2020
4189 Rain 29 1006 83 10000 4.6 290 12:21 23.01.2020
4190 Clouds 29 1006 83 10000 6.2 290 11:54 23.01.2020
4191 Clouds 29 1006 83 10000 3.6 290 11:36 23.01.2020
4192 Clouds 29 1006 83 10000 3.6 290 11:18 23.01.2020
4193 Clouds 29 1005 74 10000 4.6 280 10:41 23.01.2020
4194 Clouds 29 1005 74 10000 4.6 280 10:19 23.01.2020
4195 Clouds 29 1005 74 10000 4.6 280 10:19 23.01.2020
4196 Rain 30 1005 74 10000 6.2 280 09:41 23.01.2020
4197 Rain 31 1005 74 10000 6.2 280 09:22 23.01.2020
4198 Rain 32 1005 66 10000 6.7 290 08:57 23.01.2020
4199 Clouds 32 1005 66 10000 6.2 280 08:38 23.01.2020
4200 Clouds 32 1005 66 10000 6.2 280 08:19 23.01.2020
4201 Rain 32 1005 66 10000 7.2 270 07:42 23.01.2020
4202 Clouds 32 1005 70 10000 6.2 280 07:21 23.01.2020
4203 Clouds 32 1005 70 10000 6.2 280 07:21 23.01.2020
4204 Clouds 32 1006 70 10000 8.2 290 06:44 23.01.2020
4205 Clouds 32 1006 70 10000 8.2 290 06:19 23.01.2020
4206 Clouds 32 1007 66 10000 7.7 290 04:44 23.01.2020
4207 Clouds 31 1008 74 10000 5.7 280 03:48 23.01.2020
4208 Clouds 30 1009 74 10000 3.1 280 01:58 23.01.2020
4209 Clouds 28 1009 78 10000 3.1 230 00:47 23.01.2020
4210 Clouds 28 1009 83 10000 4.1 250 00:26 23.01.2020
4211 Clouds 28 1008 83 10000 2.1 270 23:47 22.01.2020
4212 Clouds 27 1008 83 10000 2.1 270 23:28 22.01.2020
4213 Clouds 26 1008 88 10000 2.6 270 22:55 22.01.2020
4214 Rain 26 1007 83 10000 2.6 280 22:37 22.01.2020
4215 Rain 25 1007 83 10000 2.6 280 22:19 22.01.2020
4216 Clouds 26 1006 83 10000 4.6 250 21:38 22.01.2020
4217 Clouds 26 1006 83 10000 4.6 250 21:20 22.01.2020
4218 Rain 26 1006 83 10000 5.7 250 20:56 22.01.2020
4219 Rain 26 1006 83 0 5.36 250 20:36 22.01.2020
4220 Rain 26 1006 83 0 5.36 250 20:36 22.01.2020
4221 Rain 27 1006 88 10000 5.1 280 20:18 22.01.2020
4222 Clouds 28 1007 88 10000 4.6 280 19:55 22.01.2020
4223 Clouds 28 1006 88 10000 4.6 270 19:36 22.01.2020
4224 Clouds 28 1006 88 10000 4.6 270 19:36 22.01.2020
4225 Clouds 28 1006 88 10000 4.6 270 19:18 22.01.2020
4226 Clouds 28 1007 88 10000 4.6 270 18:54 22.01.2020
4227 Clouds 28 1007 88 10000 5.7 270 18:36 22.01.2020
4228 Clouds 28 1007 88 10000 5.7 270 18:18 22.01.2020
4229 Clouds 28 1008 88 10000 5.1 270 17:39 22.01.2020
4230 Clouds 28 1008 88 10000 5.1 270 17:20 22.01.2020
4231 Clouds 28 1008 88 10000 4.1 270 16:57 22.01.2020
4232 Clouds 27 1008 88 10000 4.1 270 16:39 22.01.2020
4233 Clouds 27 1008 88 10000 4.1 270 16:20 22.01.2020
4234 Clouds 28 1009 88 10000 5.1 280 15:55 22.01.2020
4235 Clouds 27 1008 94 10000 4.1 270 15:37 22.01.2020
4236 Clouds 27 1008 94 10000 4.1 270 15:18 22.01.2020
4237 Clouds 26 1009 100 10000 2.1 280 14:39 22.01.2020
4238 Clouds 25 1009 100 10000 2.1 280 14:20 22.01.2020
4239 Clouds 25 1008 100 10000 0.5 220 13:57 22.01.2020
4240 Clouds 25 1008 100 10000 1.5 50 13:37 22.01.2020
4241 Clouds 25 1008 100 10000 1.5 50 13:19 22.01.2020
4242 Clouds 25 1008 100 10000 1 270 12:57 22.01.2020
4243 Rain 25 1008 94 10000 2.6 280 12:38 22.01.2020
4244 Rain 25 1008 94 10000 2.6 280 12:19 22.01.2020
4245 Rain 25 1007 100 10000 3.65 323 11:57 22.01.2020
4246 Rain 25 1007 100 10000 3.65 323 11:39 22.01.2020
4247 Rain 25 1007 100 10000 2.92 323 11:19 22.01.2020
4248 Rain 25 1007 94 5000 2.1 260 10:45 22.01.2020
4249 Rain 24 1007 100 8000 1.5 330 10:21 22.01.2020
4250 Rain 24 1007 100 7000 2.6 340 09:58 22.01.2020
4251 Rain 24 1007 100 2000 1.5 350 09:40 22.01.2020
4252 Rain 24 1007 100 2000 1.5 350 09:21 22.01.2020
4253 Rain 24 1007 94 10000 2.1 330 08:55 22.01.2020
4254 Rain 24 1007 100 10000 5.7 190 08:37 22.01.2020
4255 Rain 24 1007 100 10000 5.7 190 08:19 22.01.2020
4256 Rain 24 1008 100 8000 2.6 160 07:44 22.01.2020
4257 Rain 24 1008 100 8000 2.6 160 07:26 22.01.2020
4258 Rain 24 1009 100 10000 2.1 60 06:34 22.01.2020
4259 Rain 24 1009 94 10000 2.6 40 05:54 22.01.2020
4260 Rain 23 1011 100 3000 5.1 200 04:25 22.01.2020
4261 Rain 24 1012 100 500 8.7 180 03:26 22.01.2020
4262 Rain 26 1010 94 9000 6.2 280 02:42 22.01.2020
4263 Rain 25 1010 94 10000 6.2 280 00:47 22.01.2020
4264 Thunderstorm 24 1010 100 9000 3.1 10 00:27 22.01.2020
4265 Rain 24 1009 100 9000 3.6 100 23:57 21.01.2020
4266 Rain 24 1010 100 1200 2.1 340 23:37 21.01.2020
4267 Rain 24 1010 100 1200 2.1 340 23:19 21.01.2020
4268 Rain 24 1009 100 9000 3.6 160 22:40 21.01.2020
4269 Rain 24 1009 100 9000 3.6 160 22:21 21.01.2020
4270 Rain 24 1009 100 9000 4.6 190 21:58 21.01.2020
4271 Rain 24 1009 100 2500 5.7 180 21:39 21.01.2020
4272 Rain 24 1009 100 2500 5.7 180 21:20 21.01.2020
4273 Rain 26 1008 83 10000 5.7 260 20:57 21.01.2020
4274 Drizzle 25 1008 94 10000 2.1 260 20:38 21.01.2020
4275 Drizzle 25 1008 94 10000 2.1 260 20:20 21.01.2020
4276 Rain 25 1009 94 4800 6.7 290 19:57 21.01.2020
4277 Rain 25 1008 94 2400 3.6 280 19:39 21.01.2020
4278 Rain 25 1008 94 2400 3.6 280 19:20 21.01.2020
4279 Rain 26 1008 94 1500 9.3 290 18:55 21.01.2020
4280 Rain 26 1008 94 6000 8.2 300 18:37 21.01.2020
4281 Rain 26 1008 94 6000 8.2 300 18:19 21.01.2020
4282 Rain 26 1009 94 8000 7.2 290 17:45 21.01.2020
4283 Rain 25 1009 94 8000 7.2 290 17:20 21.01.2020
4284 Rain 25 1010 100 10000 8.7 280 16:59 21.01.2020
4285 Rain 25 1010 100 6000 10.8 280 16:37 21.01.2020
4286 Rain 26 1010 100 6000 10.8 280 16:19 21.01.2020
4287 Thunderstorm 25 1010 100 1500 11.8 270 15:56 21.01.2020
4288 Rain 26 1010 83 10000 5.1 280 15:36 21.01.2020
4289 Rain 27 1010 83 10000 5.1 280 15:18 21.01.2020
4290 Rain 26 1010 78 10000 10.3 260 14:38 21.01.2020
4291 Rain 26 1010 78 10000 10.3 260 14:20 21.01.2020
4292 Rain 26 1009 88 9000 7.2 270 13:40 21.01.2020
4293 Rain 25 1009 88 9000 7.2 270 13:19 21.01.2020
4294 Rain 26 1009 83 10000 7.7 250 12:56 21.01.2020
4295 Clouds 27 1009 79 10000 8.7 300 12:37 21.01.2020
4296 Rain 28 1009 79 10000 8.7 300 12:19 21.01.2020
4297 Rain 27 1008 83 10000 8.7 280 11:40 21.01.2020
4298 Rain 27 1008 83 10000 8.7 280 11:21 21.01.2020
4299 Rain 26 1008 88 9000 9.3 300 10:57 21.01.2020
4300 Rain 27 1008 88 9000 9.3 300 10:57 21.01.2020
4301 Rain 26 1008 88 9000 9.3 300 10:57 21.01.2020
4302 Rain 27 1008 78 10000 9.3 280 10:39 21.01.2020
4303 Rain 27 1008 78 10000 9.3 280 10:20 21.01.2020
4304 Clouds 29 1007 74 10000 7.2 290 09:42 21.01.2020
4305 Clouds 29 1007 74 10000 7.2 290 09:23 21.01.2020
4306 Rain 28 1008 78 10000 5.7 310 08:50 21.01.2020
4307 Rain 27 1008 88 10000 8.7 290 08:32 21.01.2020
4308 Rain 28 1007 69 10000 7.7 300 07:59 21.01.2020
4309 Thunderstorm 28 1008 83 10000 8.2 300 07:40 21.01.2020
4310 Thunderstorm 28 1008 83 10000 8.2 300 07:22 21.01.2020
4311 Thunderstorm 29 1008 83 10000 8.2 270 06:49 21.01.2020
4312 Thunderstorm 29 1008 74 10000 7.2 310 06:29 21.01.2020
4313 Thunderstorm 29 1008 74 10000 7.2 310 06:29 21.01.2020
4314 Thunderstorm 29 1008 74 10000 7.2 310 06:29 21.01.2020
4315 Clouds 30 1009 79 10000 6.7 350 05:42 21.01.2020
4316 Clouds 30 1010 74 10000 5.1 300 04:40 21.01.2020
4317 Rain 25 1011 94 10000 4.1 340 02:57 21.01.2020
4318 Rain 24 1012 94 6000 9.3 300 01:56 21.01.2020
4319 Rain 23 1012 100 1000 12.9 320 01:26 21.01.2020
4320 Clouds 27 1010 88 10000 5.1 330 00:37 21.01.2020
4321 Rain 27 1010 83 10000 5.1 330 23:59 20.01.2020
4322 Rain 26 1010 88 10000 5.1 330 23:41 20.01.2020
4323 Rain 25 1010 88 10000 5.1 330 23:19 20.01.2020
4324 Clouds 25 1009 88 10000 3.6 340 22:56 20.01.2020
4325 Thunderstorm 25 1009 88 10000 3.1 330 22:38 20.01.2020
4326 Thunderstorm 25 1009 88 10000 3.1 330 22:20 20.01.2020
4327 Thunderstorm 26 1008 88 10000 3.6 340 21:57 20.01.2020
4328 Thunderstorm 24 1008 94 10000 2.6 350 21:37 20.01.2020
4329 Thunderstorm 24 1008 94 10000 2.6 350 21:19 20.01.2020
4330 Rain 24 1008 88 10000 2.6 350 20:56 20.01.2020
4331 Rain 24 1008 88 10000 2.6 350 20:56 20.01.2020
4332 Rain 24 1008 88 10000 4.1 360 20:38 20.01.2020
4333 Rain 24 1008 88 10000 4.1 360 20:18 20.01.2020
4334 Rain 25 1009 94 1900 6.2 320 19:56 20.01.2020
4335 Clouds 26 1007 94 10000 4.89 289 19:37 20.01.2020
4336 Clouds 26 1007 94 10000 4.89 289 19:18 20.01.2020
4337 Clouds 26 1008 88 10000 2.1 230 18:43 20.01.2020
4338 Rain 26 1008 83 6000 4.6 290 18:22 20.01.2020
4339 Rain 25 1009 94 10000 3.1 320 17:41 20.01.2020
4340 Rain 25 1009 94 10000 3.1 320 17:20 20.01.2020
4341 Rain 25 1009 94 10000 3.1 320 17:20 20.01.2020
4342 Rain 25 1009 94 10000 1.5 90 16:59 20.01.2020
4343 Rain 24 1009 100 10000 0.5 300 16:37 20.01.2020
4344 Rain 24 1009 100 10000 0.5 300 16:18 20.01.2020
4345 Rain 24 1009 100 10000 0.5 300 16:18 20.01.2020
4346 Rain 25 1010 94 9000 1 290 15:54 20.01.2020
4347 Thunderstorm 24 1010 94 4000 6.7 290 15:36 20.01.2020
4348 Thunderstorm 24 1010 94 4000 6.7 290 15:18 20.01.2020
4349 Thunderstorm 24 1010 100 7000 1.5 100 14:41 20.01.2020
4350 Thunderstorm 24 1010 100 7000 1.5 100 14:41 20.01.2020
4351 Thunderstorm 25 1010 100 7000 1.5 100 14:22 20.01.2020
4352 Thunderstorm 25 1010 100 2000 0.5 320 13:58 20.01.2020
4353 Thunderstorm 24 1010 100 1000 7.7 290 13:40 20.01.2020
4354 Thunderstorm 24 1010 100 1000 7.7 290 13:21 20.01.2020
4355 Thunderstorm 26 1009 100 1000 12.3 310 12:46 20.01.2020
4356 Rain 26 1009 94 1500 4.6 260 12:28 20.01.2020
4357 Rain 27 1008 79 6000 5.7 290 11:57 20.01.2020
4358 Clouds 27 1008 83 10000 3.1 270 11:38 20.01.2020
4359 Clouds 27 1008 83 10000 3.1 270 11:19 20.01.2020
4360 Clouds 27 1007 83 10000 3.1 270 10:48 20.01.2020
4361 Rain 26 1007 94 10000 3.6 310 10:22 20.01.2020
4362 Rain 26 1007 94 10000 1 290 09:54 20.01.2020
4363 Rain 26 1007 88 8000 4.6 300 09:36 20.01.2020
4364 Rain 26 1007 88 8000 4.6 300 09:18 20.01.2020
4365 Rain 26 1007 88 3000 2.6 240 08:42 20.01.2020
4366 Rain 27 1007 83 8000 9.8 250 08:24 20.01.2020
4367 Clouds 28 1007 88 10000 4.1 270 07:43 20.01.2020
4368 Rain 28 1007 88 10000 4.1 270 07:23 20.01.2020
4369 Thunderstorm 29 1007 88 10000 6.2 260 06:45 20.01.2020
4370 Rain 30 1007 79 10000 5.7 310 06:25 20.01.2020
4371 Rain 29 1008 83 10000 7.2 310 05:41 20.01.2020
4372 Rain 28 1008 83 10000 7.2 310 05:21 20.01.2020
4373 Rain 28 1009 94 10000 2.6 280 04:34 20.01.2020
4374 Rain 26 1010 94 6000 3.1 290 02:55 20.01.2020
4375 Rain 26 1010 94 6000 3.1 290 02:55 20.01.2020
4376 Thunderstorm 26 1010 88 1500 8.7 250 01:42 20.01.2020
4377 Thunderstorm 26 1010 88 1500 8.7 250 01:23 20.01.2020
4378 Rain 27 1009 88 10000 3.6 310 00:43 20.01.2020
4379 Rain 26 1009 94 10000 3.6 300 00:22 20.01.2020
4380 Rain 26 1008 88 9000 7.2 290 23:39 19.01.2020
4381 Rain 26 1008 88 9000 7.2 290 23:19 19.01.2020
4382 Thunderstorm 25 1008 94 10000 5.7 290 22:56 19.01.2020
4383 Thunderstorm 26 1008 83 3000 3.6 260 22:38 19.01.2020
4384 Thunderstorm 26 1008 83 3000 3.6 260 22:38 19.01.2020
4385 Thunderstorm 25 1008 83 3000 3.6 260 22:38 19.01.2020
4386 Thunderstorm 26 1008 83 3000 3.6 260 22:19 19.01.2020
4387 Thunderstorm 26 1008 83 10000 6.2 240 21:56 19.01.2020
4388 Thunderstorm 26 1008 83 10000 6.2 240 21:56 19.01.2020
4389 Thunderstorm 25 1007 94 10000 3.6 290 21:38 19.01.2020
4390 Thunderstorm 26 1007 94 10000 3.6 290 21:19 19.01.2020
4391 Rain 25 1007 94 10000 6.7 330 20:57 19.01.2020
4392 Rain 25 1007 88 9000 2.1 340 20:38 19.01.2020
4393 Rain 25 1007 88 9000 2.1 340 20:20 19.01.2020
4394 Rain 25 1006 94 2900 1 350 19:56 19.01.2020
4395 Rain 26 1007 94 5000 8.2 300 19:38 19.01.2020
4396 Rain 26 1007 94 5000 8.2 300 19:19 19.01.2020
4397 Rain 26 1007 88 10000 8.7 320 18:55 19.01.2020
4398 Rain 27 1007 88 10000 3.6 340 18:37 19.01.2020
4399 Rain 27 1007 88 10000 3.6 340 18:19 19.01.2020
4400 Rain 27 1007 78 10000 6.7 310 17:58 19.01.2020
4401 Rain 27 1008 88 10000 5.1 320 17:39 19.01.2020
4402 Clouds 28 1008 88 10000 5.1 320 17:20 19.01.2020
4403 Clouds 28 1008 79 10000 5.1 280 16:57 19.01.2020
4404 Clouds 28 1008 79 10000 4.6 280 16:38 19.01.2020
4405 Clouds 28 1008 79 10000 4.6 280 16:19 19.01.2020
4406 Rain 28 1009 83 10000 4.1 300 15:57 19.01.2020
4407 Rain 27 1009 83 10000 4.6 300 15:37 19.01.2020
4408 Rain 27 1009 83 10000 4.6 300 15:19 19.01.2020
4409 Rain 27 1009 83 9000 6.2 300 14:57 19.01.2020
4410 Rain 28 1009 83 3000 3.1 310 14:38 19.01.2020
4411 Rain 28 1009 83 3000 3.1 310 14:18 19.01.2020
4412 Rain 28 1008 83 10000 3.1 290 13:55 19.01.2020
4413 Rain 28 1008 83 10000 5.1 290 13:37 19.01.2020
4414 Rain 28 1008 83 10000 5.1 290 13:18 19.01.2020
4415 Rain 28 1008 88 9000 5.1 290 12:54 19.01.2020
4416 Rain 28 1008 79 10000 4.6 290 12:36 19.01.2020
4417 Rain 29 1008 79 10000 4.6 290 12:18 19.01.2020
4418 Clouds 28 1007 79 10000 4.1 290 11:39 19.01.2020
4419 Clouds 29 1007 79 10000 4.1 290 11:20 19.01.2020
4420 Clouds 29 1007 79 10000 4.6 290 10:56 19.01.2020
4421 Clouds 29 1007 79 10000 4.6 290 10:56 19.01.2020
4422 Clouds 29 1006 79 10000 5.1 290 10:37 19.01.2020
4423 Clouds 29 1006 79 10000 5.1 290 10:19 19.01.2020
4424 Clouds 29 1006 79 10000 5.7 290 09:45 19.01.2020
4425 Clouds 29 1006 79 10000 5.7 290 09:45 19.01.2020
4426 Clouds 30 1006 79 10000 5.7 300 09:27 19.01.2020
4427 Clouds 30 1006 74 10000 6.7 290 08:58 19.01.2020
4428 Clouds 30 1006 70 10000 6.2 290 08:39 19.01.2020
4429 Clouds 31 1006 70 10000 6.2 290 08:21 19.01.2020
4430 Clouds 31 1006 74 10000 3.6 280 07:42 19.01.2020
4431 Clouds 30 1006 74 10000 3.6 280 07:22 19.01.2020
4432 Clouds 30 1006 74 10000 3.6 280 07:22 19.01.2020
4433 Clouds 30 1006 74 10000 4.6 250 06:51 19.01.2020
4434 Rain 29 1007 74 10000 5.1 260 06:21 19.01.2020
4435 Rain 31 1009 70 10000 4.1 280 02:44 19.01.2020
4436 Rain 30 1009 70 10000 5.7 270 02:21 19.01.2020
4437 Rain 32 1009 70 10000 4.6 270 01:25 19.01.2020
4438 Rain 31 1009 70 10000 3.6 270 00:50 19.01.2020
4439 Rain 30 1008 74 10000 5.1 270 00:29 19.01.2020
4440 Rain 30 1008 74 10000 5.1 270 23:57 18.01.2020
4441 Rain 30 1008 74 10000 3.1 270 23:38 18.01.2020
4442 Rain 30 1008 74 10000 3.1 270 23:19 18.01.2020
4443 Rain 29 1008 79 10000 5.1 280 22:55 18.01.2020
4444 Rain 28 1007 79 10000 3.6 270 22:37 18.01.2020
4445 Rain 28 1007 79 10000 3.6 270 22:19 18.01.2020
4446 Rain 28 1007 79 10000 4.1 270 21:56 18.01.2020
4447 Clouds 28 1007 79 10000 4.6 270 21:37 18.01.2020
4448 Clouds 28 1007 79 10000 4.6 270 21:19 18.01.2020
4449 Rain 28 1006 83 10000 5.1 280 20:42 18.01.2020
4450 Rain 28 1006 83 10000 5.1 280 20:21 18.01.2020
4451 Clouds 29 1006 74 10000 5.1 290 19:57 18.01.2020
4452 Clouds 29 1006 74 10000 5.1 290 19:39 18.01.2020
4453 Clouds 29 1006 74 10000 5.1 290 19:21 18.01.2020
4454 Clouds 29 1007 79 10000 5.7 280 18:42 18.01.2020
4455 Clouds 29 1007 79 10000 5.7 280 18:21 18.01.2020
4456 Clouds 29 1007 79 10000 5.1 290 17:55 18.01.2020
4457 Clouds 29 1007 79 10000 4.6 290 17:37 18.01.2020
4458 Clouds 29 1007 79 10000 4.6 290 17:18 18.01.2020
4459 Clouds 29 1008 79 10000 5.1 290 16:42 18.01.2020
4460 Clouds 29 1008 79 10000 5.1 290 16:24 18.01.2020
4461 Clouds 29 1009 74 10000 4.6 280 15:59 18.01.2020
4462 Clouds 29 1009 74 10000 5.7 280 15:41 18.01.2020
4463 Clouds 30 1009 74 10000 5.7 280 15:22 18.01.2020
4464 Clouds 29 1009 74 10000 4.6 280 14:54 18.01.2020
4465 Clouds 30 1009 74 10000 3.1 270 14:36 18.01.2020
4466 Clouds 30 1009 74 10000 3.1 270 14:18 18.01.2020
4467 Clouds 30 1008 74 10000 4.1 270 13:43 18.01.2020
4468 Clouds 30 1008 74 10000 4.6 280 13:24 18.01.2020
4469 Clouds 30 1008 74 10000 4.1 280 12:56 18.01.2020
4470 Clouds 30 1007 74 10000 4.6 280 12:38 18.01.2020
4471 Clouds 30 1007 74 10000 4.6 280 12:19 18.01.2020
4472 Clouds 30 1007 74 10000 4.1 280 11:44 18.01.2020
4473 Clouds 30 1006 79 10000 4.1 280 11:21 18.01.2020
4474 Clouds 31 1006 70 10000 4.6 280 10:56 18.01.2020
4475 Clouds 31 1006 70 10000 4.6 270 10:38 18.01.2020
4476 Clouds 31 1006 70 10000 4.6 270 10:18 18.01.2020
4477 Clouds 31 1006 70 10000 4.6 270 10:18 18.01.2020
4478 Clouds 31 1005 62 10000 5.7 280 09:42 18.01.2020
4479 Clouds 32 1005 62 10000 5.7 280 09:20 18.01.2020
4480 Clouds 32 1005 66 10000 6.2 290 08:55 18.01.2020
4481 Clouds 33 1006 59 10000 6.2 290 08:36 18.01.2020
4482 Clouds 33 1006 59 10000 6.2 290 08:18 18.01.2020
4483 Clouds 33 1006 63 10000 7.7 300 07:40 18.01.2020
4484 Clouds 33 1006 63 10000 7.7 300 07:20 18.01.2020
4485 Clouds 34 1006 59 10000 7.2 290 06:45 18.01.2020
4486 Clouds 34 1006 59 10000 7.2 290 06:45 18.01.2020
4487 Clouds 34 1007 63 10000 6.7 290 05:53 18.01.2020
4488 Clouds 34 1008 66 10000 5.7 310 04:29 18.01.2020
4489 Clouds 33 1009 62 10000 5.1 270 02:49 18.01.2020
4490 Clouds 32 1009 66 10000 5.1 280 01:51 18.01.2020
4491 Clouds 31 1009 74 10000 4.1 270 00:40 18.01.2020
4492 Clouds 30 1009 74 10000 4.1 270 00:21 18.01.2020
4493 Clouds 30 1009 74 10000 2.1 260 23:59 17.01.2020
4494 Clouds 29 1008 83 10000 1.5 250 23:40 17.01.2020
4495 Clouds 29 1008 83 10000 1.5 250 23:19 17.01.2020
4496 Clouds 28 1008 83 10000 2.1 260 22:43 17.01.2020
4497 Clouds 27 1007 83 10000 2.6 250 22:21 17.01.2020
4498 Clouds 27 1007 83 10000 2.1 250 21:57 17.01.2020
4499 Clouds 27 1007 83 10000 2.1 260 21:39 17.01.2020
4500 Clouds 27 1007 83 10000 2.1 260 21:20 17.01.2020
4501 Clouds 27 1006 88 10000 2.1 260 20:55 17.01.2020
4502 Clouds 27 1007 88 10000 2.6 270 20:36 17.01.2020
4503 Clouds 27 1007 88 10000 2.6 270 20:18 17.01.2020
4504 Clouds 27 1007 88 10000 2.1 270 19:54 17.01.2020
4505 Clouds 27 1007 83 10000 2.6 270 19:36 17.01.2020
4506 Clouds 27 1007 83 10000 2.6 270 19:18 17.01.2020
4507 Clouds 27 1007 83 10000 2.1 260 18:44 17.01.2020
4508 Clouds 27 1007 83 10000 1.5 260 18:26 17.01.2020
4509 Clouds 27 1007 83 10000 2.1 240 17:56 17.01.2020
4510 Clouds 27 1007 83 10000 2.6 250 17:38 17.01.2020
4511 Clouds 27 1007 83 10000 2.6 250 17:19 17.01.2020
4512 Clouds 28 1008 74 10000 2.6 260 16:41 17.01.2020
4513 Clouds 28 1008 74 10000 2.6 260 16:20 17.01.2020
4514 Clouds 28 1008 74 10000 3.6 270 15:48 17.01.2020
4515 Clouds 28 1008 74 10000 4.1 270 15:27 17.01.2020
4516 Clouds 28 1008 79 10000 3.6 290 14:56 17.01.2020
4517 Clouds 28 1008 79 10000 3.6 320 14:38 17.01.2020
4518 Clouds 28 1008 79 10000 3.6 320 14:19 17.01.2020
4519 Clouds 28 1008 79 10000 3.1 320 13:39 17.01.2020
4520 Clouds 29 1008 79 10000 3.1 320 13:21 17.01.2020
4521 Clouds 29 1008 79 10000 3.1 320 13:21 17.01.2020
4522 Clouds 29 1008 79 10000 3.6 320 12:45 17.01.2020
4523 Clouds 29 1007 79 10000 3.1 310 12:23 17.01.2020
4524 Clouds 29 1006 79 10000 2.6 330 11:41 17.01.2020
4525 Clouds 29 1006 79 10000 2.6 330 11:19 17.01.2020
4526 Clouds 29 1006 74 10000 3.1 330 10:54 17.01.2020
4527 Clouds 29 1006 74 10000 3.1 330 10:54 17.01.2020
4528 Clouds 29 1006 74 10000 3.1 330 10:54 17.01.2020
4529 Clouds 30 1005 70 10000 5.1 350 10:36 17.01.2020
4530 Clouds 30 1005 70 10000 5.1 350 10:18 17.01.2020
4531 Clouds 30 1006 74 10000 3.1 350 09:41 17.01.2020
4532 Clouds 30 1006 74 10000 3.1 350 09:20 17.01.2020
4533 Clouds 30 1006 74 10000 2.6 360 08:55 17.01.2020
4534 Clouds 30 1006 74 10000 2.1 300 08:37 17.01.2020
4535 Clouds 30 1006 74 10000 2.1 300 08:18 17.01.2020
4536 Clouds 29 1006 74 10000 2.6 280 07:43 17.01.2020
4537 Clouds 28 1006 88 10000 2.6 290 07:24 17.01.2020
4538 Rain 27 1006 88 10000 4.66 285 06:47 17.01.2020
4539 Clouds 26 1007 94 10000 2.6 120 06:29 17.01.2020
4540 Clouds 32 1008 68 0 4.75 294 04:26 17.01.2020
4541 Clouds 32 1012 75 0 0.89 350 02:56 17.01.2020
4542 Clouds 32 1013 76 0 0.89 162 02:56 17.01.2020
4543 Rain 30 1005 84 0 4.92 110 02:32 17.01.2020
4544 Clouds 32 1009 76 0 4.63 292 01:33 17.01.2020
4545 Clouds 31 1009 74 0 3.58 270 00:59 17.01.2020
4546 Clouds 30 1009 74 0 3.58 270 00:37 17.01.2020
4547 Clouds 29 1009 83 10000 3.6 300 23:59 16.01.2020
4548 Clouds 28 1009 83 10000 3.6 300 23:41 16.01.2020
4549 Clouds 27 1009 83 10000 3.6 300 23:22 16.01.2020
4550 Clouds 27 1007 78 10000 2.1 30 22:41 16.01.2020
4551 Clouds 26 1007 78 10000 2.1 30 22:21 16.01.2020
4552 Rain 27 1006 74 10000 2.1 290 21:57 16.01.2020
4553 Rain 27 1005 66 10000 2.6 300 21:38 16.01.2020
4554 Rain 28 1005 66 10000 2.6 300 21:19 16.01.2020
4555 Rain 27 1004 74 10000 4.1 280 20:56 16.01.2020
4556 Rain 27 1004 74 10000 4.1 250 20:38 16.01.2020
4557 Clouds 27 1004 74 10000 4.1 250 20:19 16.01.2020
4558 Clouds 26 1005 74 10000 4.1 240 19:56 16.01.2020
4559 Clouds 26 1005 78 10000 2.6 230 19:37 16.01.2020
4560 Clouds 26 1005 78 10000 2.6 230 19:19 16.01.2020
4561 Clouds 26 1006 78 10000 2.1 180 18:55 16.01.2020
4562 Clouds 26 1007 78 10000 3.1 170 18:36 16.01.2020
4563 Clouds 26 1007 78 10000 3.1 170 18:18 16.01.2020
4564 Clouds 26 1010 69 10000 5.7 150 17:42 16.01.2020
4565 Clouds 26 1010 69 10000 5.7 150 17:23 16.01.2020
4566 Clouds 27 1010 69 10000 2.6 150 16:57 16.01.2020
4567 Clouds 27 1010 74 10000 2.6 90 16:38 16.01.2020
4568 Clouds 27 1010 74 10000 2.6 90 16:19 16.01.2020
4569 Clouds 27 1010 74 10000 2.6 90 16:19 16.01.2020
4570 Clouds 27 1010 65 10000 3.6 90 15:44 16.01.2020
4571 Rain 27 1010 69 10000 6.2 100 15:23 16.01.2020
4572 Rain 28 1010 79 10000 5.1 100 14:57 16.01.2020
4573 Clouds 29 1010 74 10000 2.1 310 14:39 16.01.2020
4574 Clouds 30 1010 74 10000 2.1 310 14:20 16.01.2020
4575 Clouds 29 1009 79 10000 2.6 290 13:45 16.01.2020
4576 Clouds 30 1008 74 10000 3.6 280 13:26 16.01.2020
4577 Clouds 30 1008 74 10000 3.1 280 12:47 16.01.2020
4578 Clouds 30 1008 74 10000 4.1 280 12:47 16.01.2020
4579 Clouds 30 1008 74 10000 3.1 280 12:28 16.01.2020
4580 Clouds 30 1007 74 10000 4.6 280 11:59 16.01.2020
4581 Clouds 30 1007 70 10000 5.1 280 11:40 16.01.2020
4582 Clouds 30 1007 70 10000 5.1 280 11:22 16.01.2020
4583 Clouds 31 1006 66 10000 5.1 280 10:55 16.01.2020
4584 Clouds 31 1006 59 10000 4.6 280 10:36 16.01.2020
4585 Clouds 32 1006 59 10000 4.6 280 10:18 16.01.2020
4586 Clouds 33 1005 59 10000 6.2 290 09:41 16.01.2020
4587 Clouds 33 1005 59 10000 6.2 290 09:23 16.01.2020
4588 Clouds 34 1005 59 10000 5.7 290 08:55 16.01.2020
4589 Clouds 34 1006 56 10000 6.2 290 08:36 16.01.2020
4590 Clouds 34 1006 56 10000 6.2 290 08:18 16.01.2020
4591 Clouds 34 1006 63 10000 6.7 300 07:42 16.01.2020
4592 Clouds 33 1006 63 10000 6.7 300 07:23 16.01.2020
4593 Clouds 35 1007 56 10000 6.7 300 06:48 16.01.2020
4594 Clouds 35 1007 56 10000 6.7 300 06:28 16.01.2020
4595 Clouds 35 1007 59 10000 6.7 290 05:46 16.01.2020
4596 Clouds 34 1008 63 10000 6.7 290 04:46 16.01.2020
4597 Clouds 34 1009 63 10000 5.7 300 03:29 16.01.2020
4598 Clouds 33 1009 66 10000 5.7 300 02:45 16.01.2020
4599 Clouds 31 1009 70 10000 5.1 290 01:28 16.01.2020
4600 Clouds 32 1009 70 10000 4.6 290 00:42 16.01.2020
4601 Clouds 31 1009 70 10000 4.6 290 00:22 16.01.2020
4602 Clouds 29 1009 79 10000 3.6 290 23:40 15.01.2020
4603 Clouds 29 1009 79 10000 3.6 290 23:21 15.01.2020
4604 -273 0 0 0 0 0 23:20 15.01.2020
4605 Clouds 29 1008 83 10000 2.6 280 22:56 15.01.2020
4606 Clouds 28 1008 83 10000 3.1 290 22:37 15.01.2020
4607 Clouds 28 1008 83 10000 3.1 290 22:18 15.01.2020
4608 Clouds 28 1007 79 10000 2.6 280 21:55 15.01.2020
4609 Clouds 28 1007 83 10000 2.6 280 21:36 15.01.2020
4610 Clouds 28 1007 83 10000 2.6 280 21:18 15.01.2020
4611 Clouds 28 1007 83 10000 2.6 280 20:54 15.01.2020
4612 Clouds 28 1007 83 10000 3.1 270 20:36 15.01.2020
4613 Clouds 29 1007 83 10000 3.1 270 20:18 15.01.2020
4614 Clouds 29 1007 83 10000 3.1 280 19:54 15.01.2020
4615 Clouds 29 1007 83 10000 3.6 280 19:36 15.01.2020
4616 Clouds 29 1007 83 10000 3.6 280 19:36 15.01.2020
4617 Clouds 29 1007 83 10000 3.6 280 19:18 15.01.2020
4618 Clouds 29 1006 83 10000 3.6 290 18:55 15.01.2020
4619 Clouds 29 1006 83 10000 3.6 290 18:55 15.01.2020
4620 Clouds 29 1006 83 10000 3.6 290 18:55 15.01.2020
4621 Rain 28 1006 83 10000 4.1 300 18:36 15.01.2020
4622 Rain 28 1006 83 10000 4.1 300 18:18 15.01.2020
4623 Rain 28 1006 83 10000 4.1 300 18:18 15.01.2020
4624 Rain 29 1007 83 10000 3.6 290 17:40 15.01.2020
4625 Rain 29 1007 83 10000 3.6 290 17:22 15.01.2020
4626 Rain 29 1007 83 10000 3.6 290 17:22 15.01.2020
4627 Rain 29 1007 83 10000 3.1 290 16:57 15.01.2020
4628 Clouds 29 1007 79 10000 3.6 290 16:38 15.01.2020
4629 Clouds 29 1007 79 10000 3.6 290 16:20 15.01.2020
4630 Clouds 29 1007 79 10000 3.6 290 16:20 15.01.2020
4631 Clouds 29 1007 79 10000 3.6 290 16:20 15.01.2020
4632 Clouds 29 1007 79 10000 3.6 290 16:20 15.01.2020
4633 Clouds 29 1008 79 10000 3.1 290 15:43 15.01.2020
4634 Clouds 29 1008 79 10000 3.6 280 15:21 15.01.2020
4635 Clouds 29 1008 70 10000 3.1 310 14:57 15.01.2020
4636 Clouds 29 1008 66 10000 3.6 320 14:39 15.01.2020
4637 Clouds 29 1008 66 10000 3.6 320 14:18 15.01.2020
4638 Clouds 29 1007 66 10000 4.1 320 13:44 15.01.2020
4639 Clouds 29 1008 79 10000 4.6 290 13:44 15.01.2020
4640 Clouds 29 1008 79 10000 4.6 290 13:23 15.01.2020
4641 Clouds 30 1008 79 10000 6.2 300 12:57 15.01.2020
4642 Clouds 30 1008 79 10000 3.1 270 12:39 15.01.2020
4643 Clouds 30 1008 79 10000 3.1 270 12:19 15.01.2020
4644 Clouds 30 1007 74 10000 4.1 260 11:55 15.01.2020
4645 Clouds 30 1007 74 10000 3.6 270 11:36 15.01.2020
4646 Clouds 30 1007 74 10000 3.6 270 11:36 15.01.2020
4647 Clouds 30 1007 74 10000 3.6 270 11:18 15.01.2020
4648 Clouds 31 1006 70 10000 7.2 300 10:41 15.01.2020
4649 Clouds 32 1006 70 10000 7.2 300 10:21 15.01.2020
4650 Clouds 32 1005 66 10000 5.1 300 09:42 15.01.2020
4651 Clouds 33 1005 66 10000 5.1 300 09:22 15.01.2020
4652 Clouds 33 1005 59 10000 5.1 290 08:46 15.01.2020
4653 Clouds 33 1005 52 10000 5.1 290 08:28 15.01.2020
4654 Clouds 34 1005 52 10000 5.7 300 07:59 15.01.2020
4655 Clouds 34 1006 50 10000 5.1 290 07:40 15.01.2020
4656 Clouds 35 1006 50 10000 5.1 290 07:21 15.01.2020
4657 Clouds 35 1006 49 10000 4.6 300 06:43 15.01.2020
4658 Clouds 34 1007 56 10000 4.6 310 05:57 15.01.2020
4659 Clouds 34 1009 66 10000 4.1 290 03:56 15.01.2020
4660 Clouds 33 1009 66 10000 2.1 270 02:28 15.01.2020
4661 Clouds 32 1009 74 10000 1.5 270 01:22 15.01.2020
4662 Clouds 31 1009 79 10000 0.5 270 00:45 15.01.2020
4663 Clouds 30 1009 79 10000 1 150 00:26 15.01.2020
4664 Clouds 28 1009 83 10000 1.5 150 23:47 14.01.2020
4665 Clouds 27 1009 88 10000 1.5 150 23:29 14.01.2020
4666 Clouds 26 1008 94 10000 1 150 22:59 14.01.2020
4667 Clouds 26 1008 94 10000 2.1 180 22:40 14.01.2020
4668 Clouds 26 1008 94 10000 2.1 180 22:19 14.01.2020
4669 Clouds 26 1008 88 10000 2.1 180 21:58 14.01.2020
4670 Clouds 27 1007 83 10000 2.6 190 21:39 14.01.2020
4671 Clouds 27 1007 83 10000 2.6 190 21:20 14.01.2020
4672 Clouds 27 1007 88 10000 3.1 200 20:57 14.01.2020
4673 Rain 28 1006 88 10000 2.1 270 20:39 14.01.2020
4674 Rain 28 1006 88 10000 2.1 270 20:19 14.01.2020
4675 Rain 28 1006 88 10000 2.1 270 19:55 14.01.2020
4676 Rain 28 1006 88 10000 2.1 290 19:37 14.01.2020
4677 Rain 28 1006 88 10000 2.1 290 19:18 14.01.2020
4678 Rain 28 1006 83 10000 3.1 290 18:41 14.01.2020
4679 Rain 28 1006 83 10000 3.1 290 18:20 14.01.2020
4680 Rain 28 1006 83 10000 3.1 290 17:59 14.01.2020
4681 Rain 28 1006 89 10000 2.6 270 17:37 14.01.2020
4682 Rain 29 1006 89 10000 2.6 270 17:18 14.01.2020
4683 Rain 29 1006 89 10000 2.6 270 17:18 14.01.2020
4684 Clouds 29 1006 89 10000 3.1 260 16:54 14.01.2020
4685 Clouds 29 1007 89 10000 3.6 300 16:36 14.01.2020
4686 Clouds 29 1007 89 10000 3.6 300 16:18 14.01.2020
4687 Rain 29 1008 83 10000 1.5 250 15:42 14.01.2020
4688 Rain 29 1008 83 10000 1.5 250 15:19 14.01.2020
4689 Rain 29 1009 83 4000 1.5 260 14:46 14.01.2020
4690 Rain 29 1008 79 10000 1.5 300 14:22 14.01.2020
4691 Clouds 29 1008 79 10000 1.5 290 13:58 14.01.2020
4692 Rain 29 1008 79 10000 1.5 280 13:39 14.01.2020
4693 Rain 30 1008 79 10000 1.5 280 13:19 14.01.2020
4694 Clouds 29 1007 74 10000 2.6 280 12:42 14.01.2020
4695 Clouds 30 1007 74 10000 2.6 280 12:22 14.01.2020
4696 Clouds 30 1006 74 10000 2.1 280 11:56 14.01.2020
4697 Clouds 30 1006 70 10000 3.6 280 11:37 14.01.2020
4698 Clouds 30 1006 70 10000 3.6 280 11:37 14.01.2020
4699 Clouds 30 1006 70 10000 3.6 280 11:19 14.01.2020
4700 Clouds 31 1005 70 10000 5.1 290 10:41 14.01.2020
4701 Clouds 32 1005 70 10000 5.1 290 10:20 14.01.2020
4702 Clouds 32 1005 66 10000 6.7 290 09:59 14.01.2020
4703 Clouds 32 1005 66 10000 6.2 300 09:40 14.01.2020
4704 Clouds 33 1005 66 10000 6.2 300 09:21 14.01.2020
4705 Clouds 33 1005 63 10000 4.6 300 08:56 14.01.2020
4706 Rain 33 1005 66 10000 4.1 260 08:38 14.01.2020
4707 Rain 34 1005 66 10000 4.1 260 08:19 14.01.2020
4708 Rain 34 1006 63 9000 4.6 260 07:38 14.01.2020
4709 Rain 33 1006 66 10000 5.1 260 06:59 14.01.2020
4710 Clouds 33 1006 70 10000 6.2 300 06:40 14.01.2020
4711 Rain 33 1007 66 9000 5.1 300 05:33 14.01.2020
4712 Rain 33 1008 66 8000 3.6 310 04:23 14.01.2020
4713 Clouds 34 1009 66 10000 3.1 280 03:43 14.01.2020
4714 Clouds 33 1009 66 10000 3.6 280 02:26 14.01.2020
4715 Clouds 32 1009 74 10000 2.6 260 01:18 14.01.2020
4716 Clouds 30 1009 74 10000 2.1 240 00:39 14.01.2020
4717 Clouds 30 1009 74 10000 2.1 240 00:21 14.01.2020
4718 Clouds 27 1008 88 10000 1 220 23:38 13.01.2020
4719 Clouds 27 1008 88 10000 1 220 23:18 13.01.2020
4720 Clouds 27 1008 94 10000 1 250 22:54 13.01.2020
4721 Clouds 26 1008 94 10000 1.5 230 22:36 13.01.2020
4722 Clouds 27 1008 94 10000 1.5 230 22:18 13.01.2020
4723 Clouds 26 1008 100 10000 1 250 21:54 13.01.2020
4724 Clouds 26 1008 100 10000 1 250 21:54 13.01.2020
4725 Clouds 26 1008 100 10000 1 250 21:54 13.01.2020
4726 Clouds 26 1007 94 10000 2.1 210 21:36 13.01.2020
4727 Clouds 26 1007 94 10000 2.1 210 21:18 13.01.2020
4728 Rain 26 1007 94 10000 2.1 190 20:42 13.01.2020
4729 Rain 26 1007 94 10000 2.1 190 20:22 13.01.2020
4730 Rain 25 1007 100 10000 1.5 210 19:59 13.01.2020
4731 Rain 26 1007 94 10000 2.48 183 19:40 13.01.2020
4732 Rain 25 1007 94 10000 2.48 183 19:20 13.01.2020
4733 Clouds 25 1007 94 10000 2.48 183 18:58 13.01.2020
4734 Rain 25 1007 94 10000 2.48 183 18:37 13.01.2020
4735 Rain 25 1007 94 10000 2.48 183 18:19 13.01.2020
4736 Rain 25 1007 94 10000 2.48 183 18:19 13.01.2020
4737 Rain 26 1008 94 10000 1 190 17:55 13.01.2020
4738 Rain 26 1008 100 10000 2.48 183 17:36 13.01.2020
4739 Rain 26 1008 100 10000 2.02 241 17:18 13.01.2020
4740 Clouds 26 1008 94 0 0.89 270 16:40 13.01.2020
4741 Clouds 26 1009 92 0 2.02 241 16:40 13.01.2020
4742 Clouds 26 1010 94 0 1.34 230 16:21 13.01.2020
4743 Clouds 26 1013 96 0 2.02 241 15:55 13.01.2020
4744 Clouds 26 1014 96 0 2.02 241 15:36 13.01.2020
4745 Clouds 25 1008 94 0 1.34 270 15:18 13.01.2020
4746 Clouds 25 1014 96 0 2.02 241 14:42 13.01.2020
4747 Clouds 26 1014 96 0 2.02 241 14:23 13.01.2020
4748 Clouds 26 1013 96 0 2.66 247 13:58 13.01.2020
4749 Clouds 26 1009 88 0 2.66 247 13:39 13.01.2020
4750 Clouds 26 1007 83 0 1.34 240 13:21 13.01.2020
4751 Clouds 26 1007 83 10000 1.5 260 12:55 13.01.2020
4752 Clouds 26 1007 83 10000 1.5 260 12:36 13.01.2020
4753 Clouds 26 1007 83 10000 1.5 260 12:18 13.01.2020
4754 Clouds 26 1007 83 10000 1.5 280 11:39 13.01.2020
4755 Clouds 26 1007 83 10000 1.5 280 11:20 13.01.2020
4756 Clouds 26 1006 78 10000 2.6 230 10:57 13.01.2020
4757 Clouds 26 1006 78 10000 2.6 230 10:57 13.01.2020
4758 Clouds 27 1006 74 10000 3.1 250 10:39 13.01.2020
4759 Clouds 27 1006 74 10000 3.1 250 10:20 13.01.2020
4760 Clouds 27 1006 74 10000 3.1 250 10:20 13.01.2020
4761 Rain 26 1005 88 10000 7.2 300 09:56 13.01.2020
4762 Thunderstorm 26 1006 88 10000 6.7 210 09:38 13.01.2020
4763 Thunderstorm 26 1006 88 10000 6.7 210 09:19 13.01.2020
4764 Thunderstorm 29 1005 74 10000 7.2 350 08:39 13.01.2020
4765 Thunderstorm 30 1005 74 10000 7.2 350 08:20 13.01.2020
4766 Thunderstorm 32 1005 63 10000 8.2 310 07:47 13.01.2020
4767 Rain 32 1004 63 10000 7.2 310 07:27 13.01.2020
4768 Clouds 33 1005 63 10000 3.6 310 06:42 13.01.2020
4769 Clouds 33 1005 63 10000 3.6 310 06:20 13.01.2020
4770 Rain 34 1005 52 10000 2.1 290 05:23 13.01.2020
4771 Rain 33 1007 66 10000 3.1 230 03:54 13.01.2020
4772 Rain 32 1007 74 10000 2.1 230 03:22 13.01.2020
4773 Clouds 32 1007 70 10000 2.6 260 02:44 13.01.2020
4774 Clouds 32 1007 66 10000 2.6 300 02:24 13.01.2020
4775 Clouds 31 1008 74 10000 4.1 320 01:18 13.01.2020
4776 Clouds 30 1007 79 10000 1 110 00:41 13.01.2020
4777 Clouds 29 1007 79 10000 1 110 00:22 13.01.2020
4778 Clouds 27 1007 88 10000 0.91 80 23:42 12.01.2020
4779 Clouds 27 1007 88 10000 0.91 80 23:23 12.01.2020
4780 Clouds 26 1006 88 10000 0.5 130 22:58 12.01.2020
4781 Clouds 26 1006 88 10000 1.5 140 22:39 12.01.2020
4782 Clouds 25 1006 88 10000 1.5 140 22:21 12.01.2020
4783 Clouds 25 1006 94 10000 2.6 110 21:56 12.01.2020
4784 Clouds 25 1005 88 10000 1 330 21:38 12.01.2020
4785 Clouds 25 1005 88 10000 1 330 21:19 12.01.2020
4786 Clouds 26 1005 88 10000 1.03 49 20:56 12.01.2020
4787 Clouds 26 1005 88 10000 1.03 49 20:37 12.01.2020
4788 Clouds 26 1005 88 10000 2.01 3 20:19 12.01.2020
4789 Clouds 26 1005 88 10000 2.01 3 20:19 12.01.2020
4790 Clouds 26 1005 94 10000 1.5 350 19:55 12.01.2020
4791 Rain 26 1006 94 10000 1.41 34 19:37 12.01.2020
4792 Rain 26 1006 94 10000 1.41 34 19:18 12.01.2020
4793 Clouds 26 1006 94 10000 1 120 18:57 12.01.2020
4794 Drizzle 26 1006 94 10000 1 120 18:38 12.01.2020
4795 Drizzle 26 1006 94 10000 1 120 18:20 12.01.2020
4796 Rain 26 1006 94 10000 1.5 140 17:42 12.01.2020
4797 Rain 26 1006 94 10000 1.5 140 17:23 12.01.2020
4798 Rain 26 1006 94 10000 0.5 170 16:59 12.01.2020
4799 Clouds 27 1007 94 10000 2.1 160 16:39 12.01.2020
4800 Clouds 26 1007 94 10000 2.1 160 16:20 12.01.2020
4801 Clouds 27 1006 94 10000 1.5 210 15:57 12.01.2020
4802 Clouds 27 1006 94 10000 1.5 170 15:38 12.01.2020
4803 Clouds 27 1006 94 10000 1.5 170 15:20 12.01.2020
4804 Clouds 26 1006 94 10000 0.5 260 14:43 12.01.2020
4805 Clouds 27 1006 94 10000 0.5 260 14:24 12.01.2020
4806 Clouds 27 1006 94 10000 0.33 62 13:57 12.01.2020
4807 Clouds 27 1006 94 10000 0.33 62 13:57 12.01.2020
4808 Clouds 27 1006 94 10000 0.5 160 13:39 12.01.2020
4809 Clouds 27 1006 94 10000 0.5 160 13:20 12.01.2020
4810 Clouds 26 1006 94 10000 0.5 160 13:20 12.01.2020
4811 Clouds 27 1006 88 10000 2.6 160 12:57 12.01.2020
4812 Clouds 27 1006 88 10000 1 280 12:37 12.01.2020
4813 Clouds 27 1006 88 10000 1 280 12:19 12.01.2020
4814 Rain 27 1005 79 10000 1.5 340 11:42 12.01.2020
4815 Rain 28 1005 79 10000 1.5 340 11:22 12.01.2020
4816 Rain 28 1005 79 10000 4.1 360 10:57 12.01.2020
4817 Rain 28 1005 74 10000 3.6 360 10:39 12.01.2020
4818 Rain 28 1005 74 10000 3.6 360 10:39 12.01.2020
4819 Rain 28 1005 74 10000 3.6 360 10:20 12.01.2020
4820 Rain 29 1004 74 10000 4.6 360 09:43 12.01.2020
4821 Rain 29 1004 74 10000 4.1 350 09:24 12.01.2020
4822 Rain 30 1004 74 10000 4.1 360 08:48 12.01.2020
4823 Clouds 31 1004 70 10000 4.6 350 08:25 12.01.2020
4824 Clouds 31 1004 70 10000 5.7 360 07:58 12.01.2020
4825 Clouds 30 1004 74 10000 2.1 180 07:38 12.01.2020
4826 Clouds 30 1004 74 10000 2.1 180 07:19 12.01.2020
4827 Thunderstorm 30 1004 83 10000 5.1 290 06:40 12.01.2020
4828 Thunderstorm 34 1004 55 10000 5.1 290 05:58 12.01.2020
4829 Thunderstorm 34 1004 55 10000 6.2 350 05:20 12.01.2020
4830 Clouds 33 1005 52 10000 3.6 10 03:44 12.01.2020
4831 Clouds 33 1006 62 10000 3.1 30 02:55 12.01.2020
4832 Clouds 31 1006 70 10000 3.6 50 02:30 12.01.2020
4833 Clouds 31 1006 79 10000 3.6 50 01:40 12.01.2020
4834 Clouds 30 1006 79 10000 3.6 50 01:21 12.01.2020
4835 Clouds 29 1006 83 10000 2.1 50 00:40 12.01.2020
4836 Clouds 29 1006 83 10000 2.1 50 00:18 12.01.2020
4837 Clouds 27 1005 88 10000 1.5 80 23:41 11.01.2020
4838 Clouds 26 1005 88 10000 1.5 80 23:19 11.01.2020
4839 Clouds 26 1005 94 10000 2.1 90 22:57 11.01.2020
4840 Clouds 25 1005 100 10000 2.1 70 22:38 11.01.2020
4841 Clouds 25 1005 100 10000 2.1 70 22:20 11.01.2020
4842 Clouds 25 1005 94 10000 2.1 90 21:54 11.01.2020
4843 Clouds 25 1005 94 10000 2.6 40 21:36 11.01.2020
4844 Clouds 25 1005 94 10000 2.6 40 21:18 11.01.2020
4845 Clouds 25 1005 94 10000 2.1 80 20:40 11.01.2020
4846 Clouds 25 1005 94 10000 2.1 80 20:20 11.01.2020
4847 Clouds 25 1005 88 10000 2.6 60 19:58 11.01.2020
4848 Clouds 25 1004 88 10000 2.1 50 19:38 11.01.2020
4849 Clouds 25 1004 88 10000 2.1 50 19:20 11.01.2020
4850 Clouds 25 1005 88 10000 2.1 50 18:57 11.01.2020
4851 Clouds 25 1005 88 10000 2.6 60 18:37 11.01.2020
4852 Clouds 25 1005 88 10000 2.6 60 18:19 11.01.2020
4853 Clouds 25 1005 88 10000 2.6 60 18:19 11.01.2020
4854 Clouds 26 1005 88 10000 3.1 60 17:57 11.01.2020
4855 Clouds 26 1005 88 10000 2.6 70 17:39 11.01.2020
4856 Clouds 25 1005 88 10000 2.6 70 17:19 11.01.2020
4857 Clouds 26 1006 88 10000 3.1 70 16:44 11.01.2020
4858 Clouds 26 1006 88 10000 3.1 70 16:25 11.01.2020
4859 Clouds 26 1007 88 10000 2.1 70 15:57 11.01.2020
4860 Clouds 26 1007 88 10000 2.6 80 15:39 11.01.2020
4861 Clouds 26 1007 88 10000 2.6 80 15:20 11.01.2020
4862 Clouds 26 1007 88 10000 2.6 80 15:20 11.01.2020
4863 Clouds 26 1007 83 10000 3.1 90 14:49 11.01.2020
4864 Clouds 26 1007 83 10000 2.6 100 14:26 11.01.2020
4865 Rain 27 1007 88 10000 2.6 100 13:59 11.01.2020
4866 Clouds 27 1007 88 10000 2.6 80 13:38 11.01.2020
4867 Clouds 27 1007 88 10000 2.6 80 13:20 11.01.2020
4868 Clouds 27 1006 83 10000 2.1 90 12:56 11.01.2020
4869 Clouds 27 1006 88 10000 1.5 50 12:38 11.01.2020
4870 Clouds 27 1005 83 10000 1.5 60 12:20 11.01.2020
4871 Clouds 27 1005 83 10000 1.5 60 11:45 11.01.2020
4872 Clouds 27 1005 83 10000 2.1 50 11:24 11.01.2020
4873 Clouds 28 1005 78 10000 3.1 40 10:50 11.01.2020
4874 Clouds 28 1004 79 10000 3.1 360 10:30 11.01.2020
4875 Clouds 29 1004 74 10000 4.1 30 09:55 11.01.2020
4876 Clouds 29 1004 74 10000 4.1 360 09:37 11.01.2020
4877 Clouds 29 1004 74 10000 4.1 360 09:18 11.01.2020
4878 Clouds 30 1003 74 10000 4.6 30 08:41 11.01.2020
4879 Clouds 30 1003 74 10000 4.6 30 08:21 11.01.2020
4880 Clouds 29 1004 79 10000 4.1 20 07:43 11.01.2020
4881 Clouds 29 1004 79 10000 4.1 10 07:25 11.01.2020
4882 Rain 30 1004 74 10000 4.6 20 06:45 11.01.2020
4883 Rain 29 1005 74 10000 5.1 40 05:33 11.01.2020
4884 Clouds 29 1005 79 10000 5.1 20 04:45 11.01.2020
4885 Rain 29 1005 74 10000 5.7 10 04:27 11.01.2020
4886 Clouds 28 1006 78 10000 5.1 360 02:48 11.01.2020
4887 Rain 28 1006 88 10000 3.1 20 01:51 11.01.2020
4888 Rain 26 1006 94 10000 3.1 60 01:32 11.01.2020
4889 Clouds 26 1006 94 10000 3.6 10 00:58 11.01.2020
4890 Rain 26 1006 88 10000 3.1 10 00:32 11.01.2020
4891 Clouds 26 1005 88 10000 2.6 10 23:59 10.01.2020
4892 Rain 25 1005 94 10000 3.1 10 23:39 10.01.2020
4893 Rain 25 1005 94 10000 3.1 10 23:39 10.01.2020
4894 Rain 25 1005 94 10000 3.1 10 23:21 10.01.2020
4895 Rain 25 1005 88 10000 4.1 360 22:55 10.01.2020
4896 Rain 25 1004 88 7000 5.1 350 22:37 10.01.2020
4897 Rain 25 1004 88 7000 5.1 350 22:18 10.01.2020
4898 Rain 26 1004 94 7000 6.2 350 21:55 10.01.2020
4899 Rain 26 1004 94 6000 5.1 350 21:36 10.01.2020
4900 Rain 26 1004 94 6000 5.1 350 21:18 10.01.2020
4901 Clouds 26 1003 88 10000 2.6 360 20:42 10.01.2020
4902 Clouds 27 1003 88 10000 2.6 360 20:24 10.01.2020
4903 Clouds 26 1003 94 10000 3.1 360 19:55 10.01.2020
4904 Clouds 26 1003 88 10000 2.6 10 19:37 10.01.2020
4905 Clouds 26 1003 88 10000 2.6 10 19:37 10.01.2020
4906 Clouds 26 1003 88 10000 2.6 10 19:19 10.01.2020
4907 Rain 26 1003 94 10000 5.1 360 18:41 10.01.2020
4908 Rain 26 1003 94 10000 5.1 360 18:19 10.01.2020
4909 Rain 26 1003 94 10000 5.1 360 18:19 10.01.2020
4910 Rain 26 1004 94 10000 4.6 360 17:57 10.01.2020
4911 Rain 26 1004 94 2000 8.7 350 17:39 10.01.2020
4912 Rain 26 1004 94 2000 8.7 350 17:20 10.01.2020
4913 Rain 26 1004 94 4500 3.6 340 16:55 10.01.2020
4914 Clouds 27 1004 83 10000 6.7 350 16:37 10.01.2020
4915 Clouds 27 1004 83 10000 6.7 350 16:19 10.01.2020
4916 Clouds 27 1004 83 10000 5.7 360 15:55 10.01.2020
4917 Clouds 26 1004 83 10000 5.7 10 15:36 10.01.2020
4918 Clouds 26 1005 88 10000 4.6 10 15:18 10.01.2020
4919 Clouds 26 1005 88 10000 4.6 10 14:54 10.01.2020
4920 Clouds 26 1005 88 10000 3.6 10 14:36 10.01.2020
4921 Clouds 26 1005 88 10000 3.6 10 14:18 10.01.2020
4922 Clouds 25 1004 88 10000 3.6 20 13:41 10.01.2020
4923 Clouds 26 1004 88 10000 3.6 20 13:23 10.01.2020
4924 Clouds 26 1004 88 10000 4.6 20 12:58 10.01.2020
4925 Clouds 26 1004 94 10000 4.1 10 12:38 10.01.2020
4926 Clouds 26 1004 94 10000 4.1 10 12:19 10.01.2020
4927 Rain 26 1004 94 10000 5.7 360 11:55 10.01.2020
4928 Rain 26 1004 94 8000 4.1 350 11:37 10.01.2020
4929 Rain 26 1004 94 8000 4.1 350 11:18 10.01.2020
4930 Rain 25 1003 88 10000 5.7 350 10:43 10.01.2020
4931 Rain 26 1003 88 10000 5.7 350 10:24 10.01.2020
4932 Rain 25 1003 94 10000 7.2 350 09:59 10.01.2020
4933 Thunderstorm 25 1002 100 8000 7.7 340 09:40 10.01.2020
4934 Thunderstorm 25 1002 100 8000 7.7 340 09:22 10.01.2020
4935 Thunderstorm 25 1002 94 4000 9.3 350 08:43 10.01.2020
4936 Rain 25 1001 94 5000 9.8 350 08:23 10.01.2020
4937 Rain 26 1002 94 5000 7.7 350 07:46 10.01.2020
4938 Rain 26 1002 94 9000 7.7 360 07:28 10.01.2020
4939 Rain 26 1002 94 7000 6.2 10 06:50 10.01.2020
4940 Rain 26 1003 100 5000 7.7 360 06:26 10.01.2020
4941 Rain 26 1003 94 9000 8.7 340 05:52 10.01.2020
4942 Rain 26 1004 94 3500 7.2 310 03:46 10.01.2020
4943 Rain 26 1004 94 3500 7.2 310 03:46 10.01.2020
4944 Rain 26 1004 94 3000 7.7 300 03:27 10.01.2020
4945 Rain 25 1004 94 3000 5.7 340 02:51 10.01.2020
4946 Rain 26 1004 94 7000 6.7 320 01:49 10.01.2020
4947 Thunderstorm 26 1004 83 6000 8.2 300 01:28 10.01.2020
4948 Rain 26 1004 88 10000 7.2 290 00:47 10.01.2020
4949 Rain 27 1004 88 10000 5.1 260 00:29 10.01.2020
4950 Rain 27 1004 83 10000 6.2 280 23:39 09.01.2020
4951 Rain 27 1004 83 10000 6.2 280 23:39 09.01.2020
4952 Rain 27 1004 83 10000 6.2 280 23:39 09.01.2020
4953 Rain 27 1004 83 10000 6.2 280 23:39 09.01.2020
4954 Rain 27 1004 83 10000 6.2 280 23:20 09.01.2020
4955 Rain 27 1003 83 10000 5.1 240 22:58 09.01.2020
4956 Rain 26 1003 88 10000 4.1 280 22:39 09.01.2020
4957 Rain 26 1003 88 10000 4.1 280 22:19 09.01.2020
4958 Clouds 26 1003 88 10000 4.6 270 21:57 09.01.2020
4959 Clouds 26 1003 88 10000 4.6 270 21:38 09.01.2020
4960 Clouds 26 1003 88 10000 4.6 270 21:20 09.01.2020
4961 Clouds 26 1002 88 10000 5.7 270 20:58 09.01.2020
4962 Clouds 26 1002 88 10000 6.2 270 20:39 09.01.2020
4963 Clouds 26 1002 88 10000 6.2 270 20:20 09.01.2020
4964 Clouds 26 1002 94 10000 5.7 270 19:58 09.01.2020
4965 Clouds 26 1003 88 10000 5.1 270 19:39 09.01.2020
4966 Clouds 26 1003 88 10000 5.1 270 19:20 09.01.2020
4967 Drizzle 26 1003 88 10000 6.2 270 18:56 09.01.2020
4968 Drizzle 26 1003 88 10000 6.2 270 18:56 09.01.2020
4969 Clouds 26 1003 88 10000 6.2 280 18:37 09.01.2020
4970 Clouds 26 1003 88 10000 6.2 280 18:19 09.01.2020
4971 Rain 26 1003 88 10000 7.7 280 17:41 09.01.2020
4972 Rain 26 1003 88 10000 7.7 280 17:19 09.01.2020
4973 Drizzle 25 1004 88 10000 5.7 270 16:56 09.01.2020
4974 Rain 26 1004 83 10000 7.2 270 16:37 09.01.2020
4975 Rain 25 1004 83 10000 7.2 270 16:19 09.01.2020
4976 Rain 26 1005 94 8000 5.1 280 15:42 09.01.2020
4977 Rain 25 1005 88 8000 4.6 280 15:21 09.01.2020
4978 Rain 25 1005 100 8000 5.7 270 14:55 09.01.2020
4979 Thunderstorm 25 1005 94 5000 6.2 270 14:37 09.01.2020
4980 Thunderstorm 25 1005 94 5000 6.2 270 14:18 09.01.2020
4981 Thunderstorm 25 1005 100 5000 5.7 270 13:55 09.01.2020
4982 Rain 25 1005 94 3000 4.6 270 13:37 09.01.2020
4983 Rain 25 1005 94 3000 4.6 270 13:18 09.01.2020
4984 Rain 25 1005 94 5000 4.6 280 12:42 09.01.2020
4985 Rain 25 1005 94 5000 4.6 280 12:24 09.01.2020
4986 Rain 25 1004 88 8000 5.1 280 11:59 09.01.2020
4987 Rain 25 1005 88 2000 4.1 260 11:41 09.01.2020
4988 Rain 25 1005 88 2000 4.1 260 11:23 09.01.2020
4989 Rain 25 1005 83 6000 4.1 280 10:56 09.01.2020
4990 Rain 26 1004 78 8000 5.1 270 10:37 09.01.2020
4991 Rain 26 1004 78 8000 5.1 270 10:19 09.01.2020
4992 Rain 26 1004 78 8000 5.1 270 10:19 09.01.2020
4993 Rain 27 1003 94 10000 3.6 280 09:41 09.01.2020
4994 Rain 27 1003 94 10000 3.6 280 09:22 09.01.2020
4995 Rain 26 1003 88 10000 2.1 260 08:56 09.01.2020
4996 Rain 26 1003 88 10000 4.6 240 08:38 09.01.2020
4997 Rain 26 1003 88 10000 4.6 240 08:19 09.01.2020
4998 Rain 26 1003 83 5000 5.1 270 07:45 09.01.2020
4999 Rain 26 1003 88 3000 7.2 220 07:27 09.01.2020
5000 Rain 28 1003 79 10000 6.7 320 06:39 09.01.2020
5001 Rain 29 1003 79 10000 6.7 320 06:21 09.01.2020
5002 Rain 29 1004 79 10000 7.2 310 05:50 09.01.2020
5003 Rain 29 1005 74 10000 7.2 230 04:54 09.01.2020
5004 Rain 29 1005 89 10000 5.7 290 04:36 09.01.2020
5005 Clouds 31 1006 70 10000 5.7 240 03:26 09.01.2020
5006 Rain 30 1006 74 10000 4.6 230 02:33 09.01.2020
5007 Clouds 30 1006 74 10000 4.6 220 01:41 09.01.2020
5008 Clouds 31 1006 74 10000 5.1 220 00:56 09.01.2020
5009 Clouds 30 1006 79 10000 3.6 230 00:36 09.01.2020
5010 Clouds 29 1006 79 10000 3.6 230 00:18 09.01.2020
5011 Clouds 28 1006 83 10000 3.1 210 23:39 08.01.2020
5012 Clouds 28 1006 83 10000 3.1 210 23:20 08.01.2020
5013 Clouds 28 1006 83 10000 4.1 220 22:40 08.01.2020
5014 Clouds 28 1006 83 10000 4.1 220 22:21 08.01.2020
5015 Rain 28 1005 78 10000 4.1 220 21:58 08.01.2020
5016 Clouds 28 1005 78 10000 4.1 220 21:40 08.01.2020
5017 Clouds 28 1005 78 10000 4.1 220 21:40 08.01.2020
5018 Clouds 28 1005 78 10000 4.1 220 21:20 08.01.2020
5019 Rain 28 1005 83 10000 4.6 210 20:59 08.01.2020
5020 Clouds 28 1005 83 10000 3.6 210 20:40 08.01.2020
5021 Clouds 28 1005 83 10000 3.6 210 20:21 08.01.2020
5022 Clouds 29 1005 79 10000 3.1 240 19:58 08.01.2020
5023 Clouds 28 1005 78 10000 3.6 270 19:38 08.01.2020
5024 Clouds 28 1005 78 10000 3.6 270 19:19 08.01.2020
5025 Rain 28 1005 78 10000 3.6 270 18:57 08.01.2020
5026 Clouds 28 1006 78 10000 4.1 270 18:38 08.01.2020
5027 Clouds 28 1006 78 10000 4.1 270 18:19 08.01.2020
5028 Clouds 28 1005 78 10000 5.7 260 17:56 08.01.2020
5029 Clouds 28 1006 78 10000 3.1 250 17:37 08.01.2020
5030 Clouds 28 1006 78 10000 3.1 250 17:18 08.01.2020
5031 Clouds 28 1006 79 10000 3.6 260 16:55 08.01.2020
5032 Clouds 28 1006 83 10000 2.6 240 16:37 08.01.2020
5033 Clouds 28 1006 83 10000 2.6 240 16:18 08.01.2020
5034 Clouds 28 1007 83 10000 3.1 210 15:44 08.01.2020
5035 Clouds 28 1007 79 10000 2.1 180 15:21 08.01.2020
5036 Rain 28 1008 79 10000 2.1 190 14:58 08.01.2020
5037 Rain 28 1008 79 10000 2.6 190 14:39 08.01.2020
5038 Rain 28 1008 79 10000 2.6 190 14:20 08.01.2020
5039 Rain 28 1008 79 10000 2.6 190 14:20 08.01.2020
5040 Rain 28 1008 79 10000 2.6 190 14:20 08.01.2020
5041 Rain 30 1007 66 10000 3.6 240 13:41 08.01.2020
5042 Rain 30 1007 66 10000 3.6 240 13:21 08.01.2020
5043 Rain 30 1007 66 10000 3.6 250 12:54 08.01.2020
5044 Rain 29 1006 66 10000 3.6 270 12:36 08.01.2020
5045 Rain 30 1006 66 10000 3.6 270 12:18 08.01.2020
5046 Clouds 29 1006 70 10000 3.6 260 11:47 08.01.2020
5047 Clouds 30 1006 70 10000 4.1 270 11:19 08.01.2020
5048 Clouds 30 1005 70 10000 4.1 260 10:57 08.01.2020
5049 Clouds 30 1005 70 10000 5.7 250 10:39 08.01.2020
5050 Clouds 30 1005 70 10000 5.7 250 10:19 08.01.2020
5051 Clouds 31 1005 62 10000 5.7 250 09:42 08.01.2020
5052 Rain 31 1005 62 10000 5.7 260 09:20 08.01.2020
5053 Rain 31 1004 62 10000 6.2 270 08:57 08.01.2020
5054 Rain 32 1004 55 10000 5.1 270 08:38 08.01.2020
5055 Clouds 32 1004 55 10000 5.1 270 08:20 08.01.2020
5056 Clouds 32 1004 55 10000 5.7 270 07:50 08.01.2020
5057 Clouds 32 1005 68 0 1.79 282 07:32 08.01.2020
5058 Clouds 32 1005 55 10000 4.1 260 06:50 08.01.2020
5059 Clouds 32 1005 59 10000 5.7 290 06:32 08.01.2020
5060 Rain 32 1006 62 10000 3.6 230 05:54 08.01.2020
5061 Rain 31 1006 66 10000 5.7 220 05:18 08.01.2020
5062 Clouds 32 1007 66 10000 4.1 250 04:27 08.01.2020
5063 Rain 32 1008 74 10000 6.2 240 02:45 08.01.2020
5064 Clouds 32 1008 66 10000 3.1 200 02:27 08.01.2020
5065 Clouds 31 1008 66 10000 6.2 240 01:50 08.01.2020
5066 Clouds 31 1008 70 10000 3.6 180 01:25 08.01.2020
5067 Clouds 31 1008 79 10000 6.2 240 00:42 08.01.2020
5068 Clouds 31 1008 79 10000 6.2 240 00:21 08.01.2020
5069 Clouds 30 1007 79 10000 6.2 240 23:44 07.01.2020
5070 Clouds 28 1007 83 10000 2.6 230 23:20 07.01.2020
5071 Clouds 28 1006 83 10000 1.5 240 22:41 07.01.2020
5072 Clouds 28 1006 83 10000 1.5 240 22:21 07.01.2020
5073 Clouds 28 1005 83 10000 2.6 260 21:57 07.01.2020
5074 Clouds 27 1005 88 10000 2.1 240 21:39 07.01.2020
5075 Clouds 27 1005 88 10000 2.1 240 21:21 07.01.2020
5076 Clouds 27 1005 88 10000 1.5 230 20:57 07.01.2020
5077 Clouds 27 1005 88 10000 0.5 250 20:38 07.01.2020
5078 Rain 27 1005 88 10000 0.5 250 20:20 07.01.2020
5079 Clouds 28 1006 83 10000 2.1 270 19:55 07.01.2020
5080 Rain 28 1006 79 10000 2.1 270 19:36 07.01.2020
5081 Rain 28 1006 79 10000 2.1 270 19:18 07.01.2020
5082 Rain 28 1006 79 10000 2.1 270 19:18 07.01.2020
5083 Rain 28 1006 79 10000 3.1 290 18:55 07.01.2020
5084 Rain 28 1006 79 10000 2.6 290 18:36 07.01.2020
5085 Rain 28 1006 79 10000 2.6 290 18:18 07.01.2020
5086 Rain 28 1006 83 10000 2.1 260 17:40 07.01.2020
5087 Rain 28 1006 83 10000 2.1 260 17:22 07.01.2020
5088 Clouds 28 1007 83 10000 2.6 270 16:57 07.01.2020
5089 Rain 28 1007 88 10000 2.1 280 16:38 07.01.2020
5090 Rain 28 1007 88 10000 2.1 280 16:19 07.01.2020
5091 Rain 29 1007 79 3000 1 260 15:58 07.01.2020
5092 Clouds 29 1007 79 10000 1 250 15:40 07.01.2020
5093 Clouds 29 1007 79 10000 1 250 15:22 07.01.2020
5094 Clouds 29 1007 79 10000 1 250 15:22 07.01.2020
5095 Clouds 29 1007 74 10000 1.5 280 14:55 07.01.2020
5096 Clouds 29 1007 74 10000 3.1 290 14:37 07.01.2020
5097 Clouds 29 1007 74 10000 3.1 290 14:18 07.01.2020
5098 Clouds 29 1007 74 10000 1.5 290 13:39 07.01.2020
5099 Clouds 29 1007 74 10000 1.5 290 13:19 07.01.2020
5100 Clouds 29 1006 70 10000 1.5 290 12:41 07.01.2020
5101 Clouds 29 1006 70 10000 2.6 300 12:20 07.01.2020
5102 Clouds 30 1006 66 10000 2.1 320 11:57 07.01.2020
5103 Clouds 30 1006 66 10000 3.1 310 11:38 07.01.2020
5104 Clouds 30 1006 66 10000 3.1 310 11:20 07.01.2020
5105 Clouds 31 1005 59 10000 3.1 300 10:42 07.01.2020
5106 Clouds 31 1005 59 10000 3.1 300 10:24 07.01.2020
5107 Clouds 32 1005 59 10000 2.6 300 09:59 07.01.2020
5108 Clouds 32 1004 55 10000 4.1 310 09:38 07.01.2020
5109 Clouds 32 1004 55 10000 4.1 310 09:20 07.01.2020
5110 Clouds 32 1004 55 10000 3.1 330 08:46 07.01.2020
5111 Clouds 32 1004 55 10000 3.6 320 08:26 07.01.2020
5112 Clouds 33 1004 49 10000 3.6 340 07:54 07.01.2020
5113 Clouds 33 1004 49 10000 4.1 330 07:28 07.01.2020
5114 Clouds 33 1005 52 10000 4.1 330 06:54 07.01.2020
5115 Clouds 33 1005 52 10000 3.6 320 06:34 07.01.2020
5116 Clouds 33 1005 55 10000 3.1 300 05:55 07.01.2020
5117 Clouds 33 1007 62 10000 1 10 04:41 07.01.2020
5118 Rain 32 1007 70 10000 1.5 30 03:29 07.01.2020
5119 Clouds 31 1008 74 10000 2.1 50 02:24 07.01.2020
5120 Clouds 30 1008 74 10000 2.6 70 01:57 07.01.2020
5121 Clouds 29 1008 74 10000 2.6 90 01:32 07.01.2020
5122 Clouds 28 1008 83 10000 2.6 100 00:37 07.01.2020
5123 Clouds 27 1008 83 10000 2.6 100 00:19 07.01.2020
5124 Clouds 27 1007 88 10000 1 80 23:55 06.01.2020
5125 Clouds 26 1007 94 10000 0.5 90 23:36 06.01.2020
5126 Clouds 26 1007 94 10000 0.5 90 23:36 06.01.2020
5127 Clouds 25 1007 94 10000 0.5 90 23:18 06.01.2020
5128 Clouds 25 1006 88 10000 1.3 83 22:42 06.01.2020
5129 Clouds 25 1006 88 10000 1.3 83 22:22 06.01.2020
5130 Clouds 25 1006 94 10000 1 90 21:57 06.01.2020
5131 Clouds 25 1006 88 10000 1.3 83 21:38 06.01.2020
5132 Clouds 25 1006 88 10000 1.3 83 21:20 06.01.2020
5133 Clouds 25 1006 88 10000 1.3 83 21:20 06.01.2020
5134 Clouds 25 1005 94 10000 0.5 90 20:56 06.01.2020
5135 Clouds 25 1005 94 10000 2.1 90 20:38 06.01.2020
5136 Clouds 25 1005 94 10000 2.1 90 20:20 06.01.2020
5137 Clouds 25 1005 94 10000 2.1 110 19:56 06.01.2020
5138 Clouds 25 1005 94 10000 2.1 110 19:56 06.01.2020
5139 Clouds 25 1005 94 10000 1 110 19:37 06.01.2020
5140 Clouds 25 1005 94 10000 1 110 19:19 06.01.2020
5141 Clouds 25 1005 94 10000 1 110 19:19 06.01.2020
5142 Rain 25 1005 94 10000 1 110 18:46 06.01.2020
5143 Rain 25 1006 94 10000 0.5 100 18:21 06.01.2020
5144 Drizzle 25 1006 94 10000 2.42 303 17:57 06.01.2020
5145 Clouds 25 1006 94 10000 2.6 100 17:37 06.01.2020
5146 Clouds 25 1006 94 10000 2.6 100 17:37 06.01.2020
5147 Rain 25 1007 94 10000 1.5 130 17:18 06.01.2020
5148 Rain 25 1007 94 10000 1.5 130 16:44 06.01.2020
5149 Rain 26 1008 94 10000 1 160 16:24 06.01.2020
5150 Rain 26 1008 94 10000 0.5 70 15:59 06.01.2020
5151 Rain 26 1009 94 10000 1 70 15:38 06.01.2020
5152 Rain 26 1009 94 10000 1 70 15:18 06.01.2020
5153 Rain 26 1009 94 10000 1.5 50 14:56 06.01.2020
5154 Rain 26 1009 94 10000 1.5 90 14:37 06.01.2020
5155 Rain 26 1009 94 10000 1.5 90 14:18 06.01.2020
5156 Rain 26 1009 94 10000 1.5 90 14:18 06.01.2020
5157 Rain 26 1009 94 10000 1.5 90 14:18 06.01.2020
5158 Rain 26 1009 94 10000 0.82 240 13:41 06.01.2020
5159 Rain 26 1009 94 10000 1.3 289 13:22 06.01.2020
5160 Rain 26 1008 94 10000 1.3 289 12:59 06.01.2020
5161 Rain 26 1008 94 10000 1 80 12:41 06.01.2020
5162 Rain 26 1008 94 10000 1 80 12:20 06.01.2020
5163 Rain 26 1008 94 10000 1 80 12:20 06.01.2020
5164 Rain 26 1008 100 10000 1 70 11:55 06.01.2020
5165 Rain 26 1008 94 10000 1 90 11:37 06.01.2020
5166 Rain 26 1008 94 10000 1 90 11:19 06.01.2020
5167 Rain 26 1007 94 10000 3.1 130 10:42 06.01.2020
5168 Rain 26 1007 100 10000 2.1 140 10:21 06.01.2020
5169 Rain 26 1006 94 10000 1.5 20 09:42 06.01.2020
5170 Rain 26 1006 94 10000 1.5 20 09:24 06.01.2020
5171 Rain 26 1006 94 10000 1 330 08:58 06.01.2020
5172 Rain 26 1006 94 10000 1 330 08:58 06.01.2020
5173 Rain 26 1006 88 10000 2.1 300 08:39 06.01.2020
5174 Rain 28 1006 88 10000 2.1 300 08:21 06.01.2020
5175 Rain 29 1006 78 9000 4.1 340 07:45 06.01.2020
5176 Rain 29 1006 79 9000 7.2 350 07:21 06.01.2020
5177 Rain 30 1005 74 6000 10.3 290 06:38 06.01.2020
5178 Rain 34 1006 49 10000 4.6 320 05:49 06.01.2020
5179 Rain 34 1006 49 10000 5.1 350 05:28 06.01.2020
5180 Rain 33 1007 59 10000 4.6 330 04:24 06.01.2020
5181 Clouds 33 1007 62 10000 5.1 360 03:51 06.01.2020
5182 Clouds 32 1008 62 10000 4.1 10 02:29 06.01.2020
5183 Clouds 31 1007 66 10000 5.1 50 01:54 06.01.2020
5184 Clouds 31 1007 70 10000 3.6 50 01:31 06.01.2020
5185 Clouds 30 1008 74 10000 3.6 60 00:48 06.01.2020
5186 Clouds 28 1007 83 10000 2.6 80 00:29 06.01.2020
5187 Clouds 28 1007 78 10000 2.6 70 23:58 05.01.2020
5188 Clouds 27 1007 88 10000 2.6 70 23:39 05.01.2020
5189 Clouds 27 1007 88 10000 2.6 70 23:21 05.01.2020
5190 Clouds 26 1006 83 10000 1.5 30 22:40 05.01.2020
5191 Clouds 26 1006 83 10000 1.5 30 22:21 05.01.2020
5192 Clouds 26 1006 83 10000 1.5 10 21:58 05.01.2020
5193 Clouds 26 1006 94 10000 1.5 40 21:40 05.01.2020
5194 Clouds 26 1006 94 10000 1.5 40 21:20 05.01.2020
5195 Clouds 26 1006 94 10000 1 60 20:58 05.01.2020
5196 Clouds 27 1005 88 10000 1.44 50 20:39 05.01.2020
5197 Rain 26 1005 88 10000 1.61 81 20:19 05.01.2020
5198 Rain 26 1005 88 10000 2.1 70 19:58 05.01.2020
5199 Rain 26 1005 88 10000 2.1 70 19:39 05.01.2020
5200 Rain 26 1005 88 10000 2.1 70 19:39 05.01.2020
5201 Rain 27 1005 88 10000 2.1 70 19:20 05.01.2020
5202 Rain 27 1006 88 10000 2.1 50 18:56 05.01.2020
5203 Rain 27 1006 88 10000 2.1 70 18:38 05.01.2020
5204 Rain 26 1006 88 10000 2.1 70 18:19 05.01.2020
5205 Rain 26 1006 88 10000 2.6 70 17:58 05.01.2020
5206 Rain 26 1006 88 10000 3.1 50 17:39 05.01.2020
5207 Clouds 26 1006 88 10000 3.1 50 17:20 05.01.2020
5208 Clouds 27 1006 88 10000 3.1 60 16:57 05.01.2020
5209 Clouds 27 1006 88 10000 3.1 60 16:57 05.01.2020
5210 Rain 27 1007 83 10000 3.6 80 16:39 05.01.2020
5211 Rain 27 1007 83 10000 3.6 80 16:19 05.01.2020
5212 Clouds 27 1008 78 10000 1.5 110 15:40 05.01.2020
5213 Clouds 27 1008 78 10000 1.5 110 15:20 05.01.2020
5214 Clouds 27 1009 83 10000 1.5 120 14:56 05.01.2020
5215 Clouds 27 1009 83 10000 1 100 14:38 05.01.2020
5216 Clouds 27 1009 83 10000 1 100 14:20 05.01.2020
5217 Rain 27 1009 83 10000 2.6 130 13:56 05.01.2020
5218 Rain 27 1009 83 10000 2.6 120 13:38 05.01.2020
5219 Rain 28 1009 83 10000 2.6 120 13:19 05.01.2020
5220 Rain 28 1009 83 10000 2.6 120 13:19 05.01.2020
5221 Rain 28 1008 70 10000 3.1 90 12:56 05.01.2020
5222 Rain 28 1008 70 10000 3.1 50 12:37 05.01.2020
5223 Rain 28 1008 70 10000 3.1 50 12:19 05.01.2020
5224 Clouds 29 1007 66 10000 4.6 40 11:44 05.01.2020
5225 Clouds 29 1007 66 10000 5.7 40 11:20 05.01.2020
5226 Clouds 30 1007 70 10000 5.7 20 10:59 05.01.2020
5227 Clouds 29 1006 70 10000 5.7 20 10:40 05.01.2020
5228 Clouds 30 1006 70 10000 5.7 20 10:19 05.01.2020
5229 Clouds 30 1005 70 10000 7.2 10 09:42 05.01.2020
5230 Clouds 30 1005 70 10000 7.2 10 09:22 05.01.2020
5231 Clouds 32 1005 66 10000 7.2 360 08:52 05.01.2020
5232 Clouds 32 1004 59 10000 6.7 360 08:32 05.01.2020
5233 Clouds 33 1004 55 10000 5.1 350 07:59 05.01.2020
5234 Clouds 33 1004 59 10000 5.1 360 07:39 05.01.2020
5235 Clouds 33 1004 59 10000 5.1 360 07:20 05.01.2020
5236 Clouds 33 1005 52 10000 5.1 350 06:44 05.01.2020
5237 Clouds 34 1006 55 10000 3.1 70 05:38 05.01.2020
5238 Clouds 33 1006 59 10000 1.5 30 04:55 05.01.2020
5239 Clouds 33 1006 62 10000 1.5 130 04:18 05.01.2020
5240 Clouds 33 1006 62 10000 1.5 130 04:18 05.01.2020
5241 Clouds 31 1007 66 10000 1 190 03:26 05.01.2020
5242 Clouds 31 1008 74 10000 0.5 190 02:32 05.01.2020
5243 Clouds 31 1009 74 10000 1 210 01:49 05.01.2020
5244 Clouds 30 1009 79 10000 2.74 102 01:20 05.01.2020
5245 Clouds 29 1008 74 10000 1 150 00:57 05.01.2020
5246 Clouds 30 1008 74 10000 1 150 00:57 05.01.2020
5247 Clouds 29 1008 78 10000 1 120 00:39 05.01.2020
5248 Clouds 28 1008 78 10000 1 120 00:19 05.01.2020
5249 Clouds 28 1008 78 10000 2.1 130 23:41 04.01.2020
5250 Clouds 28 1008 78 10000 2.1 120 23:41 04.01.2020
5251 Clouds 27 1008 78 10000 2.1 120 23:20 04.01.2020
5252 Clouds 27 1007 83 10000 3.1 100 22:55 04.01.2020
5253 Clouds 26 1007 83 10000 2.6 100 22:37 04.01.2020
5254 Clouds 27 1007 83 10000 2.6 100 22:19 04.01.2020
5255 Clouds 27 1007 88 10000 1.68 114 21:55 04.01.2020
5256 Clouds 27 1006 88 10000 1.5 70 21:36 04.01.2020
5257 Clouds 26 1006 88 10000 1.5 70 21:18 04.01.2020
5258 Rain 27 1005 83 10000 1.5 110 20:41 04.01.2020
5259 Clouds 27 1005 83 10000 1.5 110 20:22 04.01.2020
5260 Rain 27 1006 83 10000 1.5 120 19:57 04.01.2020
5261 Rain 27 1006 83 10000 1.5 120 19:39 04.01.2020
5262 Rain 27 1006 83 10000 1.5 120 19:20 04.01.2020
5263 Rain 27 1006 83 10000 1 130 18:56 04.01.2020
5264 Rain 27 1006 83 10000 1.5 130 18:38 04.01.2020
5265 Rain 27 1006 83 10000 1.5 130 18:19 04.01.2020
5266 Rain 28 1006 79 10000 1.5 220 17:42 04.01.2020
5267 Rain 28 1006 79 10000 1.5 220 17:24 04.01.2020
5268 Clouds 28 1006 74 10000 1.5 260 16:59 04.01.2020
5269 Clouds 28 1007 74 10000 1.5 250 16:40 04.01.2020
5270 Clouds 28 1007 74 10000 1.5 250 16:22 04.01.2020
5271 Clouds 28 1007 74 10000 1.5 260 15:56 04.01.2020
5272 Clouds 28 1007 74 10000 2.1 280 15:38 04.01.2020
5273 Clouds 28 1007 74 10000 2.1 280 15:19 04.01.2020
5274 Clouds 28 1007 74 10000 2.1 280 14:55 04.01.2020
5275 Clouds 28 1007 74 10000 2.1 280 14:55 04.01.2020
5276 Clouds 29 1007 74 10000 2.6 280 14:36 04.01.2020
5277 Clouds 29 1007 74 10000 2.6 280 14:18 04.01.2020
5278 Clouds 29 1007 79 10000 3.1 290 13:54 04.01.2020
5279 Clouds 29 1007 74 10000 3.1 300 13:36 04.01.2020
5280 Clouds 29 1007 74 10000 3.1 300 13:18 04.01.2020
5281 Clouds 29 1006 66 10000 2.6 330 12:41 04.01.2020
5282 Clouds 29 1006 66 10000 2.6 330 12:19 04.01.2020
5283 Clouds 30 1006 70 10000 4.6 310 11:57 04.01.2020
5284 Clouds 30 1006 74 10000 3.6 310 11:38 04.01.2020
5285 Clouds 30 1006 74 10000 3.6 310 11:19 04.01.2020
5286 Clouds 30 1005 70 10000 4.6 290 10:42 04.01.2020
5287 Clouds 31 1005 70 10000 4.6 290 10:23 04.01.2020
5288 Clouds 31 1005 70 10000 6.2 310 09:58 04.01.2020
5289 Clouds 31 1005 70 10000 7.7 310 09:39 04.01.2020
5290 Clouds 31 1005 70 10000 7.7 310 09:21 04.01.2020
5291 Clouds 33 1004 59 10000 5.7 350 08:41 04.01.2020
5292 Clouds 34 1004 59 10000 5.7 350 08:21 04.01.2020
5293 Clouds 34 1004 52 10000 4.6 320 07:42 04.01.2020
5294 Clouds 35 1004 52 10000 4.6 320 07:20 04.01.2020
5295 Rain 35 1005 49 10000 4.1 340 06:33 04.01.2020
5296 Clouds 34 1006 52 10000 5.1 340 05:20 04.01.2020
5297 Clouds 35 1006 46 10000 4.6 340 04:42 04.01.2020
5298 Clouds 34 1006 46 10000 4.6 340 04:24 04.01.2020
5299 Clouds 34 1007 52 10000 4.1 340 03:18 04.01.2020
5300 Clouds 33 1008 55 10000 1 30 02:21 04.01.2020
5301 Clouds 32 1008 55 10000 2.6 350 01:55 04.01.2020
5302 Clouds 33 1008 59 10000 2.1 30 01:32 04.01.2020
5303 Clouds 32 1008 66 10000 1.5 70 00:46 04.01.2020
5304 Clouds 31 1008 66 10000 1.5 70 00:26 04.01.2020
5305 Clouds 29 1008 79 10000 2.1 90 23:48 03.01.2020
5306 Clouds 28 1008 83 10000 1.5 70 23:25 03.01.2020
5307 Clouds 26 1008 88 10000 1.5 100 22:54 03.01.2020
5308 Clouds 26 1007 88 10000 2.6 90 22:36 03.01.2020
5309 Clouds 26 1007 88 10000 2.6 90 22:18 03.01.2020
5310 Clouds 26 1007 88 10000 2.1 100 21:54 03.01.2020
5311 Clouds 26 1007 88 10000 3.1 100 21:36 03.01.2020
5312 Clouds 26 1007 88 10000 3.1 100 21:18 03.01.2020
5313 Clouds 27 1006 88 10000 2.1 100 20:41 03.01.2020
5314 Clouds 27 1006 88 10000 1 10 20:19 03.01.2020
5315 Rain 27 1006 88 10000 1 10 19:57 03.01.2020
5316 Rain 27 1006 88 10000 1 10 19:39 03.01.2020
5317 Rain 27 1006 88 10000 1 10 19:21 03.01.2020
5318 Rain 27 1006 88 10000 1 360 18:44 03.01.2020
5319 Rain 27 1006 88 10000 1 360 18:44 03.01.2020
5320 Clouds 28 1006 83 10000 1.5 360 18:26 03.01.2020
5321 Clouds 28 1006 74 10000 2.1 340 17:56 03.01.2020
5322 Clouds 29 1006 74 10000 2.1 350 17:38 03.01.2020
5323 Clouds 29 1006 74 10000 2.1 350 17:19 03.01.2020
5324 Clouds 29 1007 70 10000 3.1 340 16:43 03.01.2020
5325 Clouds 29 1007 70 10000 3.1 340 16:24 03.01.2020
5326 Clouds 29 1007 70 10000 3.1 350 15:58 03.01.2020
5327 Clouds 30 1007 70 10000 2.6 350 15:40 03.01.2020
5328 Clouds 30 1007 70 10000 2.6 350 15:18 03.01.2020
5329 Clouds 30 1007 70 10000 2.6 350 14:39 03.01.2020
5330 Clouds 29 1007 70 10000 2.6 350 14:20 03.01.2020
5331 Clouds 29 1007 74 10000 2.1 360 13:56 03.01.2020
5332 Clouds 30 1007 74 10000 2.1 10 13:37 03.01.2020
5333 Clouds 29 1007 74 10000 2.1 10 13:19 03.01.2020
5334 Clouds 30 1006 74 10000 2.6 350 12:39 03.01.2020
5335 Clouds 30 1006 74 10000 2.6 350 12:21 03.01.2020
5336 Clouds 30 1006 74 10000 2.6 340 11:48 03.01.2020
5337 Clouds 30 1006 70 10000 4.1 350 11:29 03.01.2020
5338 Clouds 31 1005 66 10000 4.6 350 10:47 03.01.2020
5339 Clouds 32 1005 55 10000 5.7 340 10:28 03.01.2020
5340 Clouds 33 1005 55 10000 4.1 350 09:59 03.01.2020
5341 Clouds 33 1005 52 10000 4.1 330 09:41 03.01.2020
5342 Clouds 34 1005 52 10000 4.1 330 09:22 03.01.2020
5343 Clouds 34 1004 52 10000 3.6 330 08:57 03.01.2020
5344 Clouds 34 1005 52 10000 2.1 300 08:38 03.01.2020
5345 Clouds 35 1005 52 10000 2.1 300 08:20 03.01.2020
5346 Clouds 34 1005 59 10000 3.6 290 07:41 03.01.2020
5347 Clouds 34 1005 59 10000 3.6 290 07:19 03.01.2020
5348 Clouds 34 1005 59 10000 2.6 320 06:54 03.01.2020
5349 Clouds 34 1006 59 10000 2.6 350 06:35 03.01.2020
5350 Clouds 34 1006 59 10000 3.1 310 05:47 03.01.2020
5351 Clouds 34 1008 55 10000 2.6 310 04:31 03.01.2020
5352 Clouds 33 1008 62 10000 2.6 270 03:18 03.01.2020
5353 Clouds 33 1009 62 10000 0.5 290 02:45 03.01.2020
5354 Clouds 31 1009 66 10000 1 120 01:45 03.01.2020
5355 Clouds 30 1010 74 10000 1 140 00:56 03.01.2020
5356 Clouds 30 1010 79 10000 1 140 00:32 03.01.2020
5357 Clouds 28 1010 83 10000 1.5 140 23:58 02.01.2020
5358 Clouds 28 1009 88 10000 1.5 110 23:39 02.01.2020
5359 Clouds 27 1009 88 10000 1.5 110 23:19 02.01.2020
5360 Clouds 27 1009 88 10000 2.1 140 22:58 02.01.2020
5361 Clouds 27 1009 94 10000 1.5 140 22:39 02.01.2020
5362 Clouds 26 1009 94 10000 1.5 140 22:19 02.01.2020
5363 Clouds 26 1009 88 10000 1 160 21:54 02.01.2020
5364 Clouds 26 1008 88 10000 0.75 5 21:36 02.01.2020
5365 Clouds 26 1008 88 10000 0.75 5 21:36 02.01.2020
5366 Clouds 26 1008 88 10000 0.75 5 21:18 02.01.2020
5367 Clouds 27 1008 88 10000 1 330 20:40 02.01.2020
5368 Clouds 27 1008 88 10000 1 330 20:21 02.01.2020
5369 Clouds 28 1008 83 10000 1 360 19:56 02.01.2020
5370 Clouds 28 1008 83 10000 1 360 19:56 02.01.2020
5371 Clouds 27 1008 88 10000 1.5 340 19:38 02.01.2020
5372 Clouds 27 1008 88 10000 1.5 340 19:19 02.01.2020
5373 Clouds 28 1008 83 10000 1.5 340 18:59 02.01.2020
5374 Clouds 27 1008 83 10000 1.5 340 18:40 02.01.2020
5375 Clouds 28 1008 83 10000 1.5 340 18:22 02.01.2020
5376 Clouds 28 1008 88 10000 1.5 350 17:57 02.01.2020
5377 Clouds 28 1009 79 10000 2.1 340 17:37 02.01.2020
5378 Clouds 29 1009 79 10000 2.1 340 17:19 02.01.2020
5379 Clouds 29 1009 79 10000 2.6 340 16:57 02.01.2020
5380 Clouds 29 1009 74 10000 3.1 330 16:38 02.01.2020
5381 Clouds 29 1009 74 10000 3.1 330 16:20 02.01.2020
5382 Clouds 30 1010 74 10000 3.6 330 15:56 02.01.2020
5383 Clouds 30 1010 74 10000 3.6 330 15:37 02.01.2020
5384 Clouds 30 1010 74 10000 3.1 330 15:19 02.01.2020
5385 Clouds 30 1010 74 10000 3.1 330 14:54 02.01.2020
5386 Clouds 30 1010 74 10000 3.1 330 14:54 02.01.2020
5387 Clouds 30 1010 74 10000 2.6 340 14:36 02.01.2020
5388 Clouds 30 1010 70 10000 2.6 330 14:18 02.01.2020
5389 Rain 30 1009 70 10000 2.6 340 13:45 02.01.2020
5390 Rain 30 1009 70 10000 2.6 340 13:26 02.01.2020
5391 Clouds 30 1009 74 10000 2.1 330 12:43 02.01.2020
5392 Clouds 30 1009 70 10000 3.6 320 12:24 02.01.2020
5393 Clouds 30 1009 70 10000 3.6 320 12:24 02.01.2020
5394 Clouds 30 1009 74 10000 4.1 330 11:43 02.01.2020
5395 Clouds 30 1009 74 10000 4.1 330 11:24 02.01.2020
5396 Clouds 30 1008 70 10000 3.6 330 10:56 02.01.2020
5397 Clouds 30 1008 70 10000 4.1 330 10:37 02.01.2020
5398 Clouds 30 1008 70 10000 4.1 330 10:18 02.01.2020
5399 Clouds 31 1007 62 10000 5.7 350 09:41 02.01.2020
5400 Clouds 32 1007 62 10000 5.7 350 09:22 02.01.2020
5401 Clouds 33 1006 63 10000 6.7 340 08:44 02.01.2020
5402 Rain 34 1007 55 10000 5.1 340 08:25 02.01.2020
5403 Rain 34 1006 56 10000 6.2 330 07:49 02.01.2020
5404 Clouds 34 1007 63 10000 4.6 340 07:30 02.01.2020
5405 Rain 35 1007 56 10000 4.1 340 06:44 02.01.2020
5406 Rain 34 1008 63 10000 6.2 300 06:26 02.01.2020
5407 Clouds 34 1010 55 10000 5.1 350 04:40 02.01.2020
5408 Clouds 34 1010 55 10000 5.1 350 04:21 02.01.2020
5409 Clouds 34 1010 55 10000 5.1 350 04:21 02.01.2020
5410 Clouds 34 1012 59 10000 2.6 90 02:28 02.01.2020
5411 Clouds 33 1012 62 10000 1.5 60 01:58 02.01.2020
5412 Clouds 33 1012 70 10000 1.5 50 01:32 02.01.2020
5413 Clouds 31 1012 74 10000 1 90 00:53 02.01.2020
5414 Clouds 31 1012 79 10000 2.1 100 00:33 02.01.2020
5415 Clouds 30 1011 74 10000 1.5 110 23:49 01.01.2020
5416 Clouds 28 1011 83 10000 1.5 120 23:26 01.01.2020
5417 Clouds 27 1011 88 10000 1 120 22:56 01.01.2020
5418 Rain 27 1010 88 10000 1.5 120 22:37 01.01.2020
5419 Rain 26 1010 88 10000 1.5 120 22:19 01.01.2020
5420 Rain 26 1010 88 10000 2.1 140 21:55 01.01.2020
5421 Clouds 26 1010 88 10000 1 110 21:37 01.01.2020
5422 Clouds 26 1010 88 10000 1 110 21:18 01.01.2020
5423 Rain 26 1009 88 10000 0.5 130 20:42 01.01.2020
5424 Rain 26 1009 88 10000 1 170 20:22 01.01.2020
5425 Rain 26 1009 94 10000 2.1 200 19:58 01.01.2020
5426 Clouds 26 1009 88 10000 1.5 150 19:39 01.01.2020
5427 Clouds 26 1009 88 10000 1.5 150 19:20 01.01.2020
5428 Rain 26 1009 94 10000 2.6 350 18:57 01.01.2020
5429 Clouds 26 1010 78 1000 3.1 240 18:39 01.01.2020
5430 Rain 27 1010 78 1000 3.1 240 18:20 01.01.2020
5431 Clouds 27 1009 74 10000 3.1 260 17:59 01.01.2020
5432 Clouds 28 1009 89 10000 2.1 360 17:40 01.01.2020
5433 Clouds 29 1009 89 10000 2.1 360 17:20 01.01.2020
5434 Clouds 29 1010 84 10000 2.6 320 16:59 01.01.2020
5435 Clouds 29 1010 84 10000 2.6 320 16:59 01.01.2020
5436 Clouds 29 1010 84 10000 2.6 310 16:38 01.01.2020
5437 Clouds 29 1010 84 10000 2.6 310 16:20 01.01.2020
5438 Clouds 29 1010 79 10000 2.6 310 15:57 01.01.2020
5439 Clouds 29 1010 79 10000 2.1 320 15:38 01.01.2020
5440 Clouds 29 1010 79 10000 2.1 320 15:20 01.01.2020
5441 Clouds 29 1010 79 10000 2.6 310 14:56 01.01.2020
5442 Clouds 29 1010 79 10000 2.1 280 14:38 01.01.2020
5443 Clouds 29 1010 79 10000 2.1 280 14:19 01.01.2020
5444 Clouds 29 1010 79 10000 2.1 280 14:19 01.01.2020
5445 Clouds 29 1010 79 10000 2.6 290 13:55 01.01.2020
5446 Clouds 29 1010 79 10000 2.6 290 13:36 01.01.2020
5447 Clouds 29 1010 79 10000 2.6 290 13:18 01.01.2020
5448 Clouds 29 1010 79 10000 2.6 290 13:18 01.01.2020
5449 Clouds 29 1010 79 10000 2.6 290 12:54 01.01.2020
5450 Clouds 29 1010 79 10000 2.6 290 12:54 01.01.2020
5451 Clouds 29 1009 79 10000 3.1 310 12:36 01.01.2020
5452 Clouds 29 1009 79 10000 3.1 310 12:18 01.01.2020
5453 Clouds 29 1008 74 10000 3.1 310 11:42 01.01.2020
5454 Clouds 29 1008 74 10000 3.1 310 11:21 01.01.2020
5455 Clouds 29 1008 74 10000 3.1 310 11:21 01.01.2020
5456 Clouds 29 1008 74 10000 3.1 310 10:56 01.01.2020
5457 Clouds 29 1007 74 10000 3.6 320 10:38 01.01.2020
5458 Clouds 30 1007 74 10000 3.6 320 10:19 01.01.2020
5459 Rain 30 1007 70 10000 2.6 20 09:42 01.01.2020
5460 Rain 30 1007 70 10000 2.6 20 09:22 01.01.2020
5461 Clouds 30 1008 66 10000 0.5 10 08:57 01.01.2020
5462 Rain 30 1007 66 10000 1.5 280 08:38 01.01.2020
5463 Rain 31 1007 66 10000 1.5 280 08:20 01.01.2020
5464 Rain 30 1007 70 10000 5.1 250 07:58 01.01.2020
5465 Thunderstorm 31 1007 62 10000 4.1 250 07:40 01.01.2020
5466 Thunderstorm 30 1007 62 10000 4.1 250 07:20 01.01.2020
5467 Rain 30 1008 66 10000 6.2 270 06:40 01.01.2020
5468 Rain 32 1008 66 10000 6.2 270 06:18 01.01.2020
5469 Clouds 34 1010 63 10000 2.6 200 04:36 01.01.2020
5470 Clouds 33 1011 70 10000 1.5 220 03:40 01.01.2020
5471 Clouds 32 1011 70 10000 1.5 220 03:21 01.01.2020
5472 Clouds 32 1011 70 10000 6.2 330 02:43 01.01.2020
5473 Clouds 31 1011 74 10000 2.1 160 02:24 01.01.2020
5474 Clouds 30 1011 74 10000 6.2 330 01:45 01.01.2020
5475 Clouds 29 1011 78 10000 1.5 120 01:23 01.01.2020
5476 Clouds 27 1011 83 10000 1 70 00:45 01.01.2020
5477 Clouds 27 1011 88 10000 2.6 150 00:26 01.01.2020
5478 Clouds 27 1010 88 10000 1.5 120 23:58 31.12.2019
5479 Clouds 26 1010 83 10000 1.5 170 23:38 31.12.2019
5480 Clouds 26 1010 83 10000 1.5 170 23:18 31.12.2019
5481 Clouds 25 1009 88 10000 1 100 22:56 31.12.2019
5482 Clouds 25 1008 88 10000 0.5 100 22:37 31.12.2019
5483 Clouds 25 1008 88 10000 0.5 100 22:18 31.12.2019
5484 Clouds 25 1008 88 10000 1.5 70 21:43 31.12.2019
5485 Clouds 25 1009 88 10000 2.6 120 21:25 31.12.2019
5486 Clouds 25 1008 88 10000 1.5 110 20:57 31.12.2019
5487 Clouds 25 1009 88 10000 2.1 110 20:39 31.12.2019
5488 Clouds 25 1009 88 10000 2.1 110 20:21 31.12.2019
5489 Clouds 25 1009 83 10000 2.6 110 19:58 31.12.2019
5490 Clouds 25 1009 83 10000 3.6 120 19:40 31.12.2019
5491 Clouds 25 1009 83 10000 3.6 120 19:21 31.12.2019
5492 Clouds 25 1009 83 10000 4.6 120 18:57 31.12.2019
5493 Drizzle 25 1009 83 10000 2.6 90 18:38 31.12.2019
5494 Drizzle 25 1009 83 10000 2.6 90 18:38 31.12.2019
5495 Drizzle 25 1009 83 10000 2.6 90 18:19 31.12.2019
5496 Rain 25 1009 88 10000 2.6 80 17:56 31.12.2019
5497 Rain 25 1009 88 10000 2.6 80 17:56 31.12.2019
5498 Rain 25 1009 88 10000 2.6 70 17:36 31.12.2019
5499 Rain 25 1009 88 10000 2.6 70 17:18 31.12.2019
5500 Rain 25 1009 88 10000 2.6 70 17:18 31.12.2019
5501 Rain 25 1009 83 10000 0.5 130 16:56 31.12.2019
5502 Rain 25 1010 94 10000 3.1 110 16:37 31.12.2019
5503 Rain 24 1010 94 10000 3.1 110 16:18 31.12.2019
5504 Clouds 25 1009 88 10000 1 40 15:56 31.12.2019
5505 Rain 25 1009 88 10000 2.1 120 15:38 31.12.2019
5506 Rain 25 1009 88 10000 2.1 120 15:19 31.12.2019
5507 Clouds 25 1009 88 10000 2.1 120 14:55 31.12.2019
5508 Clouds 25 1009 94 10000 1 230 14:37 31.12.2019
5509 Clouds 24 1009 94 10000 1 230 14:18 31.12.2019
5510 Clouds 24 1008 88 10000 2.1 240 13:56 31.12.2019
5511 Rain 24 1008 94 10000 1 20 13:38 31.12.2019
5512 Rain 24 1008 94 10000 1 20 13:19 31.12.2019
5513 Thunderstorm 24 1008 88 10000 5.1 280 12:55 31.12.2019
5514 Thunderstorm 24 1008 88 10000 5.1 280 12:55 31.12.2019
5515 Thunderstorm 24 1009 94 10000 5.7 90 12:37 31.12.2019
5516 Thunderstorm 24 1009 94 10000 5.7 90 12:37 31.12.2019
5517 Thunderstorm 23 1009 94 10000 5.7 90 12:18 31.12.2019
5518 Thunderstorm 23 1009 94 8000 5.7 120 11:55 31.12.2019
5519 Thunderstorm 25 1010 74 5000 8.2 120 11:37 31.12.2019
5520 Thunderstorm 29 1010 74 5000 8.2 120 11:19 31.12.2019
5521 Thunderstorm 31 1008 66 10000 4.6 260 10:55 31.12.2019
5522 Clouds 32 1008 62 10000 5.1 270 10:37 31.12.2019
5523 Clouds 32 1008 62 10000 5.1 270 10:19 31.12.2019
5524 Clouds 32 1008 59 10000 5.7 260 09:57 31.12.2019
5525 Clouds 32 1006 66 10000 6.7 270 09:38 31.12.2019
5526 Clouds 32 1006 66 10000 6.7 270 09:19 31.12.2019
5527 Clouds 31 1007 63 10000 5.7 260 08:42 31.12.2019
5528 Clouds 32 1007 70 10000 5.7 280 08:23 31.12.2019
5529 Rain 32 1006 62 10000 6.2 290 07:57 31.12.2019
5530 Thunderstorm 33 1006 56 10000 7.2 290 07:38 31.12.2019
5531 Thunderstorm 34 1006 56 10000 7.2 290 07:18 31.12.2019
5532 Clouds 34 1007 59 10000 6.7 300 06:40 31.12.2019
5533 Clouds 34 1008 59 10000 6.7 290 05:28 31.12.2019
5534 Clouds 34 1009 59 10000 5.7 290 04:25 31.12.2019
5535 Clouds 35 1010 59 10000 4.6 290 02:59 31.12.2019
5536 Clouds 34 1011 66 10000 3.6 300 02:34 31.12.2019
5537 Clouds 33 1010 66 10000 4.1 300 01:51 31.12.2019
5538 Clouds 33 1010 66 10000 3.6 300 01:32 31.12.2019
5539 Clouds 32 1010 70 10000 3.1 280 00:54 31.12.2019
5540 Clouds 31 1010 74 10000 2.6 270 00:36 31.12.2019
5541 Clouds 31 1010 74 10000 2.6 270 00:18 31.12.2019
5542 Clouds 30 1010 74 10000 3.1 260 23:54 30.12.2019
5543 Clouds 30 1010 79 10000 1.5 240 23:36 30.12.2019
5544 Clouds 29 1010 79 10000 1.5 240 23:18 30.12.2019
5545 Clouds 29 1010 83 10000 1.5 250 22:54 30.12.2019
5546 Clouds 27 1009 94 10000 1 290 22:36 30.12.2019
5547 Clouds 27 1009 94 10000 1 290 22:18 30.12.2019
5548 Clouds 27 1008 88 10000 2.1 300 21:55 30.12.2019
5549 Clouds 27 1008 88 10000 2.1 310 21:36 30.12.2019
5550 Clouds 27 1008 88 10000 2.1 310 21:18 30.12.2019
5551 Clouds 27 1007 94 10000 2.1 320 20:41 30.12.2019
5552 Rain 27 1007 94 10000 2.1 320 20:21 30.12.2019
5553 Rain 27 1007 94 10000 1 320 19:59 30.12.2019
5554 Rain 27 1007 94 10000 1 320 19:59 30.12.2019
5555 Rain 27 1007 94 10000 1.41 275 19:40 30.12.2019
5556 Rain 27 1007 94 10000 1.41 275 19:20 30.12.2019
5557 Rain 27 1007 94 10000 1.41 275 19:20 30.12.2019
5558 Rain 27 1007 88 10000 1.41 275 18:59 30.12.2019
5559 Rain 27 1007 88 10000 1.41 275 18:41 30.12.2019
5560 Rain 27 1007 88 10000 1 340 18:21 30.12.2019
5561 Rain 27 1007 88 10000 1.5 310 17:59 30.12.2019
5562 Rain 27 1008 88 10000 1 320 17:40 30.12.2019
5563 Clouds 27 1008 88 10000 1 320 17:19 30.12.2019
5564 Clouds 27 1008 88 10000 1.5 290 16:59 30.12.2019
5565 Clouds 28 1008 83 10000 1.5 300 16:40 30.12.2019
5566 Clouds 28 1008 83 10000 1.5 300 16:20 30.12.2019
5567 Clouds 28 1009 79 10000 1.5 320 15:56 30.12.2019
5568 Clouds 28 1009 79 10000 2.1 300 15:38 30.12.2019
5569 Clouds 28 1009 79 10000 2.1 300 15:19 30.12.2019
5570 Clouds 28 1009 79 10000 2.1 300 15:19 30.12.2019
5571 Clouds 29 1009 74 10000 2.6 320 14:54 30.12.2019
5572 Clouds 29 1008 74 10000 2.6 310 14:36 30.12.2019
5573 Clouds 29 1008 74 10000 2.6 310 14:18 30.12.2019
5574 Clouds 29 1008 79 10000 2.1 310 13:41 30.12.2019
5575 Clouds 29 1008 79 10000 2.1 310 13:23 30.12.2019
5576 Clouds 29 1008 79 10000 2.1 270 12:58 30.12.2019
5577 Clouds 29 1008 74 10000 2.1 320 12:39 30.12.2019
5578 Clouds 30 1008 74 10000 2.1 320 12:19 30.12.2019
5579 Clouds 30 1008 74 10000 1.5 300 11:56 30.12.2019
5580 Clouds 30 1008 70 10000 1 330 11:37 30.12.2019
5581 Clouds 30 1008 70 10000 1 330 11:18 30.12.2019
5582 Clouds 31 1008 62 10000 2.6 300 10:42 30.12.2019
5583 Clouds 31 1008 62 10000 2.6 300 10:42 30.12.2019
5584 Clouds 32 1008 62 10000 2.6 300 10:20 30.12.2019
5585 Clouds 32 1007 62 10000 3.6 290 09:44 30.12.2019
5586 Clouds 33 1007 55 10000 2.1 260 09:22 30.12.2019
5587 Clouds 34 1007 52 10000 2.1 260 08:57 30.12.2019
5588 Clouds 33 1007 52 10000 1.5 240 08:39 30.12.2019
5589 Clouds 33 1007 52 10000 1.5 240 08:21 30.12.2019
5590 Clouds 33 1007 55 10000 5.1 310 07:49 30.12.2019
5591 Clouds 33 1008 55 10000 2.6 260 07:25 30.12.2019
5592 Clouds 33 1009 62 10000 2.1 230 06:39 30.12.2019
5593 Clouds 29 1011 83 10000 2.1 200 04:31 30.12.2019
5594 Clouds 28 1011 78 10000 5.1 310 03:51 30.12.2019
5595 Clouds 27 1011 83 10000 5.1 310 02:47 30.12.2019
5596 Clouds 26 1011 88 10000 2.1 220 02:27 30.12.2019
5597 Thunderstorm 26 1012 94 7000 3.6 200 01:39 30.12.2019
5598 Thunderstorm 26 1012 94 7000 3.6 200 01:18 30.12.2019
5599 Thunderstorm 26 1011 88 7000 2.6 210 00:42 30.12.2019
5600 Thunderstorm 28 1011 78 3000 4.6 20 23:58 29.12.2019
5601 Thunderstorm 28 1011 74 5000 6.2 350 23:37 29.12.2019
5602 Thunderstorm 29 1011 74 5000 6.2 350 23:19 29.12.2019
5603 Clouds 29 1010 79 10000 2.1 270 22:41 29.12.2019
5604 Clouds 29 1010 79 10000 2.1 270 22:22 29.12.2019
5605 Clouds 29 1010 74 10000 2.6 290 21:56 29.12.2019
5606 Clouds 29 1009 79 10000 3.1 290 21:38 29.12.2019
5607 Clouds 30 1009 79 10000 3.1 290 21:19 29.12.2019
5608 Clouds 30 1009 79 10000 3.1 290 21:19 29.12.2019
5609 Clouds 30 1008 79 10000 3.6 310 20:55 29.12.2019
5610 Clouds 30 1008 79 10000 2.6 320 20:37 29.12.2019
5611 Clouds 30 1008 79 10000 2.6 320 20:18 29.12.2019
5612 Rain 30 1008 79 10000 3.1 320 19:56 29.12.2019
5613 Rain 30 1008 79 10000 3.1 310 19:38 29.12.2019
5614 Rain 30 1008 79 10000 3.1 310 19:19 29.12.2019
5615 Clouds 30 1008 79 10000 3.1 310 18:55 29.12.2019
5616 Clouds 30 1008 79 10000 3.6 310 18:37 29.12.2019
5617 Clouds 30 1008 79 10000 3.6 310 18:18 29.12.2019
5618 Clouds 30 1009 79 10000 3.6 320 17:56 29.12.2019
5619 Rain 30 1009 79 10000 2.6 310 17:38 29.12.2019
5620 Rain 30 1009 79 10000 2.6 310 17:19 29.12.2019
5621 Rain 30 1009 79 10000 3.6 310 16:55 29.12.2019
5622 Rain 30 1009 79 10000 3.6 300 16:36 29.12.2019
5623 Rain 29 1009 79 10000 3.6 300 16:18 29.12.2019
5624 Clouds 29 1009 79 10000 3.6 300 15:56 29.12.2019
5625 Clouds 29 1009 79 10000 3.1 280 15:38 29.12.2019
5626 Clouds 29 1009 79 10000 3.1 280 15:18 29.12.2019
5627 Clouds 29 1010 79 10000 3.1 280 14:55 29.12.2019
5628 Clouds 30 1010 79 10000 3.1 280 14:37 29.12.2019
5629 Clouds 30 1010 79 10000 3.1 280 14:18 29.12.2019
5630 Clouds 30 1010 79 10000 3.6 290 13:55 29.12.2019
5631 Clouds 30 1010 79 10000 3.1 280 13:37 29.12.2019
5632 Clouds 30 1010 79 10000 3.1 280 13:18 29.12.2019
5633 Clouds 30 1010 79 10000 3.1 290 12:41 29.12.2019
5634 Clouds 30 1009 74 10000 3.6 300 12:23 29.12.2019
5635 Clouds 30 1009 70 10000 4.1 310 11:55 29.12.2019
5636 Clouds 30 1009 66 10000 3.6 290 11:37 29.12.2019
5637 Clouds 30 1009 66 10000 3.6 290 11:19 29.12.2019
5638 Clouds 31 1008 62 10000 4.6 300 10:41 29.12.2019
5639 Clouds 31 1008 62 10000 4.6 300 10:21 29.12.2019
5640 Clouds 31 1007 59 10000 5.7 300 09:54 29.12.2019
5641 Clouds 32 1007 62 10000 5.1 300 09:36 29.12.2019
5642 Clouds 32 1007 62 10000 5.1 300 09:18 29.12.2019
5643 Clouds 31 1007 59 10000 5.1 300 08:46 29.12.2019
5644 Clouds 34 1007 59 10000 5.7 300 08:24 29.12.2019
5645 Clouds 34 1007 59 10000 5.7 310 07:54 29.12.2019
5646 Clouds 33 1007 63 10000 5.7 310 07:28 29.12.2019
5647 Clouds 34 1007 63 10000 4.6 290 06:53 29.12.2019
5648 Clouds 33 1008 63 10000 5.7 310 06:24 29.12.2019
5649 Clouds 34 1008 63 10000 5.7 310 05:51 29.12.2019
5650 Clouds 34 1009 63 10000 4.1 290 04:36 29.12.2019
5651 Clouds 33 1010 70 10000 5.1 290 03:43 29.12.2019
5652 Clouds 34 1010 66 10000 5.7 290 03:19 29.12.2019
5653 Clouds 33 1010 74 10000 4.6 320 02:20 29.12.2019
5654 Clouds 33 1010 74 10000 4.6 320 02:20 29.12.2019
5655 Clouds 32 1010 74 10000 4.1 320 01:31 29.12.2019
5656 Clouds 32 1010 74 10000 3.1 340 00:57 29.12.2019
5657 Clouds 31 1010 74 10000 3.1 310 00:39 29.12.2019
5658 Clouds 31 1010 74 10000 3.1 310 00:21 29.12.2019
5659 Clouds 30 1010 79 10000 3.1 340 23:42 28.12.2019
5660 Clouds 29 1009 83 10000 2.1 350 23:18 28.12.2019
5661 Clouds 29 1009 83 10000 4.1 330 22:39 28.12.2019
5662 Clouds 29 1009 83 10000 4.1 330 22:20 28.12.2019
5663 Clouds 29 1008 83 10000 3.6 330 21:58 28.12.2019
5664 Clouds 29 1008 83 10000 2.6 330 21:39 28.12.2019
5665 Clouds 29 1008 83 10000 2.6 330 21:21 28.12.2019
5666 Clouds 29 1008 83 10000 2.6 330 21:21 28.12.2019
5667 Clouds 28 1009 83 10000 2.1 340 20:57 28.12.2019
5668 Clouds 28 1008 83 10000 3.1 330 20:37 28.12.2019
5669 Clouds 28 1008 83 10000 3.1 330 20:37 28.12.2019
5670 Clouds 29 1008 83 10000 3.1 330 20:19 28.12.2019
5671 Clouds 29 1008 83 10000 3.1 330 19:56 28.12.2019
5672 Rain 28 1008 88 10000 2.1 330 19:38 28.12.2019
5673 Rain 28 1008 88 10000 2.1 330 19:19 28.12.2019
5674 Rain 28 1008 88 10000 2.1 340 18:56 28.12.2019
5675 Rain 28 1008 83 10000 1 330 18:38 28.12.2019
5676 Rain 29 1008 83 10000 1 330 18:18 28.12.2019
5677 Rain 29 1008 83 10000 3.1 330 17:42 28.12.2019
5678 Rain 29 1008 83 10000 4.6 330 17:21 28.12.2019
5679 Rain 29 1007 83 10000 3.6 330 16:59 28.12.2019
5680 Rain 29 1008 83 10000 3.1 330 16:41 28.12.2019
5681 Rain 29 1008 83 10000 3.1 330 16:23 28.12.2019
5682 Rain 29 1009 83 10000 2.6 340 15:44 28.12.2019
5683 Rain 29 1009 79 10000 2.6 350 15:23 28.12.2019
5684 Rain 28 1009 83 10000 2.6 350 14:57 28.12.2019
5685 Rain 28 1009 79 10000 1.5 360 14:38 28.12.2019
5686 Clouds 28 1009 79 10000 1.5 360 14:20 28.12.2019
5687 Clouds 28 1008 79 10000 2.1 350 13:43 28.12.2019
5688 Rain 29 1008 74 10000 3.1 340 13:22 28.12.2019
5689 Clouds 29 1008 79 10000 3.1 350 12:59 28.12.2019
5690 Rain 29 1008 83 10000 2.1 330 12:40 28.12.2019
5691 Rain 29 1008 83 10000 2.1 330 12:21 28.12.2019
5692 Rain 29 1007 79 10000 1.5 330 11:54 28.12.2019
5693 Clouds 29 1007 74 10000 1.5 290 11:36 28.12.2019
5694 Clouds 29 1007 74 10000 1.5 290 11:18 28.12.2019
5695 Clouds 30 1007 70 10000 3.1 320 10:41 28.12.2019
5696 Clouds 30 1007 70 10000 3.6 350 10:20 28.12.2019
5697 Clouds 30 1006 74 10000 3.1 350 09:55 28.12.2019
5698 Clouds 30 1006 74 10000 3.1 350 09:55 28.12.2019
5699 Clouds 31 1006 66 10000 4.6 330 09:37 28.12.2019
5700 Clouds 31 1006 66 10000 4.6 330 09:18 28.12.2019
5701 Clouds 31 1006 70 10000 5.1 330 08:43 28.12.2019
5702 Clouds 31 1006 79 10000 4.6 350 08:25 28.12.2019
5703 Clouds 31 1006 79 10000 2.6 300 07:49 28.12.2019
5704 Clouds 32 1006 70 10000 2.1 290 07:25 28.12.2019
5705 Clouds 27 1007 83 10000 8.2 210 05:53 28.12.2019
5706 Thunderstorm 32 1007 70 10000 4.6 330 03:52 28.12.2019
5707 Clouds 33 1008 63 10000 5.1 310 03:33 28.12.2019
5708 Clouds 34 1009 63 10000 3.6 300 02:43 28.12.2019
5709 Clouds 33 1009 66 10000 4.6 300 01:59 28.12.2019
5710 Clouds 32 1009 66 10000 4.6 300 01:25 28.12.2019
5711 Clouds 31 1009 74 10000 4.1 290 00:51 28.12.2019
5712 Clouds 31 1009 70 10000 3.6 270 00:32 28.12.2019
5713 Clouds 31 1009 70 10000 3.6 270 00:32 28.12.2019
5714 Clouds 31 1009 70 10000 2.6 270 23:59 27.12.2019
5715 Clouds 30 1008 79 10000 3.1 260 23:41 27.12.2019
5716 Clouds 28 1008 79 10000 3.1 260 23:19 27.12.2019
5717 Clouds 27 1008 88 10000 3.1 280 22:57 27.12.2019
5718 Clouds 25 1007 94 10000 2.6 290 22:38 27.12.2019
5719 Clouds 26 1007 94 10000 2.6 290 22:20 27.12.2019
5720 Clouds 24 1007 88 10000 2.1 310 21:44 27.12.2019
5721 Clouds 26 1006 83 10000 2.1 340 21:25 27.12.2019
5722 Clouds 26 1005 83 10000 2.1 330 20:58 27.12.2019
5723 Clouds 27 1005 78 10000 3.1 340 20:40 27.12.2019
5724 Clouds 27 1005 78 10000 3.1 340 20:21 27.12.2019
5725 Clouds 27 1004 78 10000 3.6 300 19:42 27.12.2019
5726 Clouds 27 1004 78 10000 3.6 300 19:20 27.12.2019
5727 Clouds 27 1004 79 10000 4.6 320 18:58 27.12.2019
5728 Clouds 27 1004 74 10000 4.6 310 18:37 27.12.2019
5729 Clouds 29 1004 74 10000 4.6 310 18:19 27.12.2019
5730 Clouds 27 1005 78 10000 4.1 320 17:57 27.12.2019
5731 Clouds 28 1005 78 10000 4.6 310 17:38 27.12.2019
5732 Rain 28 1005 78 10000 4.6 310 17:19 27.12.2019
5733 Rain 28 1005 78 10000 4.1 310 16:58 27.12.2019
5734 Rain 28 1006 83 10000 3.6 290 16:38 27.12.2019
5735 Rain 27 1006 83 10000 3.6 290 16:19 27.12.2019
5736 Rain 27 1006 83 10000 3.6 290 16:19 27.12.2019
5737 Rain 26 1006 94 10000 2.1 290 15:43 27.12.2019
5738 Rain 24 1006 94 10000 1 300 15:20 27.12.2019
5739 Rain 24 1007 94 10000 0.5 70 14:57 27.12.2019
5740 Rain 25 1007 88 10000 0.5 120 14:39 27.12.2019
5741 Rain 25 1007 88 10000 0.5 120 14:20 27.12.2019
5742 Rain 25 1007 88 10000 2.57 118 13:48 27.12.2019
5743 Clouds 25 1007 88 10000 1 180 13:25 27.12.2019
5744 Clouds 25 1007 88 10000 1 180 13:25 27.12.2019
5745 Clouds 24 1007 88 10000 0.5 180 12:58 27.12.2019
5746 Clouds 24 1007 88 10000 1 180 12:39 27.12.2019
5747 Clouds 25 1007 88 10000 1 180 12:21 27.12.2019
5748 Clouds 25 1006 88 10000 2.6 130 11:45 27.12.2019
5749 Clouds 25 1006 88 10000 2.6 130 11:26 27.12.2019
5750 Clouds 26 1006 83 10000 2.1 60 10:56 27.12.2019
5751 Clouds 27 1005 78 10000 1.5 360 10:38 27.12.2019
5752 Clouds 27 1005 78 10000 1.5 360 10:20 27.12.2019
5753 Clouds 26 1005 83 10000 5.1 10 09:43 27.12.2019
5754 Clouds 26 1005 83 10000 5.1 10 09:21 27.12.2019
5755 Clouds 25 1006 88 10000 7.2 10 08:58 27.12.2019
5756 Rain 24 1007 94 10000 8.7 20 08:36 27.12.2019
5757 Thunderstorm 24 1008 94 5000 12.3 30 07:51 27.12.2019
5758 Thunderstorm 28 1009 78 10000 7.7 40 07:32 27.12.2019
5759 Clouds 31 1007 62 10000 5.7 290 06:37 27.12.2019
5760 Clouds 31 1007 59 10000 6.2 270 05:37 27.12.2019
5761 Thunderstorm 33 1007 59 10000 6.2 250 03:44 27.12.2019
5762 Clouds 33 1008 59 10000 6.7 260 02:21 27.12.2019
5763 Clouds 33 1008 62 10000 6.7 260 01:42 27.12.2019
5764 Clouds 32 1008 62 10000 6.7 260 01:20 27.12.2019
5765 Clouds 32 1008 66 10000 6.7 280 00:44 27.12.2019
5766 Clouds 31 1007 70 10000 6.7 270 00:24 27.12.2019
5767 Clouds 31 1007 70 10000 7.2 290 23:42 26.12.2019
5768 Clouds 31 1007 70 10000 7.2 290 23:23 26.12.2019
5769 Clouds 30 1007 70 10000 6.2 290 22:57 26.12.2019
5770 Clouds 30 1007 66 10000 6.2 290 22:37 26.12.2019
5771 Clouds 30 1007 66 10000 6.2 290 22:18 26.12.2019
5772 Clear 30 1006 66 10000 6.7 290 21:39 26.12.2019
5773 Clear 30 1006 66 10000 6.7 290 21:39 26.12.2019
5774 Clear 30 1006 66 10000 6.7 290 21:21 26.12.2019
5775 Clear 30 1006 66 10000 6.7 290 21:21 26.12.2019
5776 Clear 30 1005 66 10000 6.2 290 20:47 26.12.2019
5777 Clouds 30 1006 74 10000 6.7 290 20:24 26.12.2019
5778 Clouds 30 1006 74 10000 5.7 280 19:59 26.12.2019
5779 Clouds 30 1006 70 10000 4.6 280 19:40 26.12.2019
5780 Clouds 30 1006 70 10000 4.6 280 19:40 26.12.2019
5781 Clouds 30 1006 70 10000 4.6 280 19:22 26.12.2019
5782 Clouds 30 1006 70 10000 5.7 290 18:59 26.12.2019
5783 Clouds 30 1006 66 10000 5.7 290 18:40 26.12.2019
5784 Clouds 30 1006 66 10000 5.7 290 18:20 26.12.2019
5785 Clouds 30 1007 66 10000 5.7 290 17:57 26.12.2019
5786 Clouds 31 1007 62 10000 5.7 290 17:39 26.12.2019
5787 Clouds 31 1007 62 10000 5.7 290 17:19 26.12.2019
5788 Clouds 31 1007 66 10000 5.7 290 16:45 26.12.2019
5789 Clouds 31 1007 66 10000 4.6 270 16:24 26.12.2019
5790 Clouds 31 1008 66 10000 4.1 270 15:56 26.12.2019
5791 Clouds 31 1008 66 10000 4.1 270 15:56 26.12.2019
5792 Clouds 31 1008 70 10000 3.6 270 15:38 26.12.2019
5793 Clouds 31 1008 70 10000 3.6 270 15:18 26.12.2019
5794 Clouds 31 1008 66 10000 5.1 280 14:41 26.12.2019
5795 Clouds 31 1008 66 10000 5.1 280 14:22 26.12.2019
5796 Clouds 30 1008 66 10000 3.6 280 13:45 26.12.2019
5797 Clouds 30 1008 66 10000 3.1 270 13:23 26.12.2019
5798 Clear 31 1009 66 10000 3.6 260 12:58 26.12.2019
5799 Clear 31 1008 66 10000 3.6 270 12:40 26.12.2019
5800 Clear 31 1008 66 10000 3.6 270 12:21 26.12.2019
5801 Clear 31 1008 66 10000 4.1 270 11:58 26.12.2019
5802 Clear 31 1007 59 10000 4.6 250 11:39 26.12.2019
5803 Clear 31 1007 59 10000 4.6 250 11:20 26.12.2019
5804 Clear 32 1007 59 10000 5.1 260 10:49 26.12.2019
5805 Clear 33 1006 55 10000 5.1 260 10:20 26.12.2019
5806 Clouds 33 1006 52 10000 5.1 260 09:54 26.12.2019
5807 Clouds 34 1006 52 10000 5.7 270 09:32 26.12.2019
5808 Clouds 34 1006 49 10000 6.2 280 08:57 26.12.2019
5809 Clouds 34 1006 52 10000 7.2 290 08:38 26.12.2019
5810 Clouds 34 1006 52 10000 7.2 290 08:20 26.12.2019
5811 Clouds 34 1006 52 10000 7.2 290 08:20 26.12.2019
5812 Clouds 35 1007 52 10000 7.2 300 07:31 26.12.2019
5813 Clouds 35 1007 47 10000 6.2 300 06:57 26.12.2019
5814 Clouds 35 1007 50 10000 5.7 300 06:34 26.12.2019
5815 Clouds 36 1008 56 10000 5.7 300 05:57 26.12.2019
5816 Clouds 35 1008 56 10000 7.2 280 05:38 26.12.2019
5817 Clouds 36 1008 52 10000 5.7 320 04:32 26.12.2019
5818 Clouds 35 1009 49 10000 4.1 300 03:31 26.12.2019
5819 Clouds 34 1010 55 10000 2.6 310 02:46 26.12.2019
5820 Clouds 34 1010 55 10000 2.6 240 02:25 26.12.2019
5821 Clouds 33 1010 59 10000 4.1 180 01:44 26.12.2019
5822 Clouds 33 1011 59 10000 3.1 240 01:24 26.12.2019
5823 Clouds 32 1011 66 10000 2.6 230 00:43 26.12.2019
5824 Clouds 31 1011 66 10000 2.6 230 00:22 26.12.2019
5825 Clouds 31 1011 66 10000 2.6 230 00:22 26.12.2019
5826 Clouds 31 1011 66 10000 2.6 240 23:56 25.12.2019
5827 Clouds 30 1011 70 10000 1.5 240 23:36 25.12.2019
5828 Clouds 29 1011 70 10000 1.5 240 23:18 25.12.2019
5829 Clouds 26 1010 88 10000 0.94 271 22:55 25.12.2019
5830 Clouds 27 1010 88 10000 0.94 271 22:55 25.12.2019
5831 Clouds 27 1009 83 10000 1 270 22:36 25.12.2019
5832 Clouds 26 1009 83 10000 1 270 22:18 25.12.2019
5833 Clouds 26 1008 83 10000 1.5 300 21:40 25.12.2019
5834 Clouds 26 1008 83 10000 1.5 300 21:22 25.12.2019
5835 Clouds 27 1008 78 10000 1.5 300 20:59 25.12.2019
5836 Clouds 27 1008 70 10000 2.1 280 20:40 25.12.2019
5837 Clouds 28 1008 70 10000 2.1 280 20:19 25.12.2019
5838 Clouds 28 1008 74 10000 2.6 290 19:57 25.12.2019
5839 Clouds 28 1008 74 10000 2.6 300 19:39 25.12.2019
5840 Clouds 28 1008 74 10000 2.6 300 19:21 25.12.2019
5841 Clouds 29 1008 74 10000 3.6 290 18:39 25.12.2019
5842 Clouds 29 1008 74 10000 3.6 290 18:20 25.12.2019
5843 Clouds 29 1008 74 10000 3.1 290 17:43 25.12.2019
5844 Clouds 29 1008 70 10000 2.6 280 17:21 25.12.2019
5845 Clouds 29 1008 70 10000 2.6 290 16:59 25.12.2019
5846 Clouds 29 1009 74 10000 2.6 290 16:39 25.12.2019
5847 Clouds 29 1009 74 10000 2.6 290 16:19 25.12.2019
5848 Clouds 29 1009 70 10000 2.6 290 15:58 25.12.2019
5849 Clouds 29 1009 66 10000 2.1 290 15:39 25.12.2019
5850 Clouds 29 1009 66 10000 2.1 290 15:21 25.12.2019
5851 Clouds 30 1010 66 10000 3.1 300 14:58 25.12.2019
5852 Clouds 30 1009 66 10000 3.6 300 14:40 25.12.2019
5853 Clouds 30 1009 66 10000 3.6 300 14:21 25.12.2019
5854 Clouds 30 1009 66 10000 3.6 300 14:21 25.12.2019
5855 Clouds 30 1009 66 10000 3.6 300 14:21 25.12.2019
5856 Clouds 30 1009 66 10000 3.6 300 14:21 25.12.2019
5857 Clouds 30 1009 66 10000 3.6 300 14:21 25.12.2019
5858 Clouds 30 1009 70 10000 4.1 300 13:57 25.12.2019
5859 Clouds 30 1009 70 10000 4.6 300 13:38 25.12.2019
5860 Clouds 30 1009 70 10000 4.6 300 13:19 25.12.2019
5861 Clouds 30 1008 66 10000 4.1 300 12:40 25.12.2019
5862 Clouds 31 1008 66 10000 4.1 300 12:20 25.12.2019
5863 Clouds 31 1008 59 10000 4.6 300 11:56 25.12.2019
5864 Clouds 31 1008 59 10000 4.6 320 11:38 25.12.2019
5865 Clouds 31 1008 59 10000 4.6 320 11:18 25.12.2019
5866 Clouds 32 1007 52 10000 4.6 310 10:38 25.12.2019
5867 Clouds 33 1007 52 10000 4.6 310 10:20 25.12.2019
5868 Clouds 34 1007 52 10000 4.1 310 09:51 25.12.2019
5869 Clouds 34 1006 49 10000 4.6 310 09:32 25.12.2019
5870 Clouds 34 1007 49 10000 4.6 330 08:51 25.12.2019
5871 Clouds 34 1007 49 10000 4.6 330 08:51 25.12.2019
5872 Clouds 35 1006 44 10000 4.6 320 08:31 25.12.2019
5873 Clouds 36 1006 44 10000 4.6 330 07:52 25.12.2019
5874 Clouds 36 1007 44 10000 4.1 310 07:34 25.12.2019
5875 Clouds 35 1007 49 10000 3.6 320 06:52 25.12.2019
5876 Clouds 36 1007 50 10000 3.6 300 06:23 25.12.2019
5877 Clouds 36 1008 49 10000 3.6 320 05:18 25.12.2019
5878 Clouds 35 1009 55 10000 4.1 330 04:39 25.12.2019
5879 Clouds 35 1009 55 10000 4.1 330 04:20 25.12.2019
5880 Clouds 33 1009 62 10000 5.1 330 03:42 25.12.2019
5881 Clouds 34 1010 66 10000 3.6 350 02:56 25.12.2019
5882 Clouds 33 1010 62 10000 2.6 320 02:27 25.12.2019
5883 Clouds 33 1010 62 10000 2.6 320 01:26 25.12.2019
5884 Clouds 31 1010 70 10000 3.1 330 00:56 25.12.2019
5885 Clouds 32 1010 70 10000 1.5 20 00:33 25.12.2019
5886 Clouds 30 1010 74 10000 1 70 23:58 24.12.2019
5887 Clouds 29 1010 83 10000 1 80 23:39 24.12.2019
5888 Clouds 28 1010 83 10000 1 80 23:20 24.12.2019
5889 Clouds 26 1009 88 10000 1.18 359 22:41 24.12.2019
5890 Clouds 26 1009 88 10000 1.18 359 22:23 24.12.2019
5891 Clouds 26 1008 88 10000 1.18 359 21:44 24.12.2019
5892 Clouds 26 1008 88 10000 1.18 359 21:23 24.12.2019
5893 Clouds 26 1008 94 10000 1.18 359 20:59 24.12.2019
5894 Clouds 26 1008 94 10000 1.18 359 20:41 24.12.2019
5895 Rain 26 1008 88 10000 1 360 20:19 24.12.2019
5896 Rain 26 1008 88 10000 2.46 20 19:45 24.12.2019
5897 Rain 27 1008 83 10000 2.46 20 19:22 24.12.2019
5898 Rain 27 1008 83 10000 0.5 360 18:58 24.12.2019
5899 Rain 27 1008 83 10000 1.5 360 18:40 24.12.2019
5900 Rain 27 1008 83 10000 1.5 360 18:18 24.12.2019
5901 Clouds 27 1009 83 10000 1 280 17:42 24.12.2019
5902 Clouds 29 1009 83 10000 1 280 17:21 24.12.2019
5903 Clouds 29 1009 79 10000 1.5 310 16:58 24.12.2019
5904 Clouds 28 1009 79 10000 2.1 330 16:39 24.12.2019
5905 Clouds 29 1009 79 10000 2.1 330 16:20 24.12.2019
5906 Clouds 29 1010 79 10000 2.6 300 15:56 24.12.2019
5907 Clouds 28 1010 79 10000 1.5 330 15:36 24.12.2019
5908 Clouds 28 1010 79 10000 1.5 330 15:18 24.12.2019
5909 Clouds 28 1010 70 10000 2.43 348 14:57 24.12.2019
5910 Clouds 29 1010 66 10000 2.1 230 14:39 24.12.2019
5911 Clouds 30 1010 66 10000 2.1 230 14:21 24.12.2019
5912 Clouds 30 1010 66 10000 2.6 240 13:56 24.12.2019
5913 Rain 29 1009 74 10000 0.5 340 13:37 24.12.2019
5914 Rain 29 1009 74 10000 0.5 340 13:19 24.12.2019
5915 Rain 29 1009 74 10000 0.5 340 13:19 24.12.2019
5916 Clouds 28 1009 78 10000 1 310 12:56 24.12.2019
5917 Clouds 28 1008 66 10000 1.5 270 12:37 24.12.2019
5918 Clouds 28 1008 66 10000 1.5 270 12:19 24.12.2019
5919 Clouds 28 1008 62 10000 2.6 230 11:55 24.12.2019
5920 Clouds 28 1008 66 10000 1.5 200 11:37 24.12.2019
5921 Clouds 29 1008 66 10000 1.5 200 11:19 24.12.2019
5922 Clouds 29 1007 66 10000 2.1 270 10:56 24.12.2019
5923 Clouds 29 1006 58 10000 2.6 310 10:37 24.12.2019
5924 Clouds 29 1006 58 10000 2.6 310 10:19 24.12.2019
5925 Clouds 29 1006 62 10000 3.1 280 09:55 24.12.2019
5926 Clouds 28 1006 69 10000 3.1 290 09:37 24.12.2019
5927 Clouds 27 1006 69 10000 3.1 290 09:19 24.12.2019
5928 Thunderstorm 30 1006 69 10000 4.1 270 08:45 24.12.2019
5929 Thunderstorm 31 1007 73 10000 9.8 140 08:24 24.12.2019
5930 Clouds 35 1006 47 10000 5.1 300 07:46 24.12.2019
5931 Clouds 36 1006 47 10000 5.7 290 07:26 24.12.2019
5932 Clouds 36 1006 47 10000 5.1 320 06:58 24.12.2019
5933 Clouds 36 1007 47 10000 4.6 320 06:38 24.12.2019
5934 Clouds 36 1007 47 10000 4.6 320 06:19 24.12.2019
5935 Clouds 36 1007 47 10000 4.6 310 05:46 24.12.2019
5936 Clouds 36 1008 47 10000 4.6 310 05:18 24.12.2019
5937 Clouds 35 1009 55 10000 4.6 300 03:55 24.12.2019
5938 Clouds 35 1009 55 10000 3.6 320 03:25 24.12.2019
5939 Clouds 35 1010 52 10000 3.1 340 02:25 24.12.2019
5940 Clouds 34 1010 55 10000 6.2 330 01:52 24.12.2019
5941 Clouds 34 1010 55 10000 6.2 330 01:23 24.12.2019
5942 Clouds 33 1010 59 10000 1 20 00:47 24.12.2019
5943 Clouds 32 1010 66 10000 0.5 350 00:26 24.12.2019
5944 Clouds 31 1010 74 10000 1.5 90 23:59 23.12.2019
5945 Clouds 30 1010 79 10000 1.5 110 23:41 23.12.2019
5946 Clouds 29 1010 79 10000 1.5 110 23:23 23.12.2019
5947 Clouds 27 1010 83 10000 1.5 110 22:56 23.12.2019
5948 Clouds 27 1010 83 10000 1.5 110 22:56 23.12.2019
5949 Clouds 27 1010 83 10000 1.5 110 22:56 23.12.2019
5950 Clouds 26 1009 88 10000 1 300 22:37 23.12.2019
5951 Clouds 26 1009 88 10000 1 300 22:19 23.12.2019
5952 Clouds 27 1009 83 10000 1.03 55 21:55 23.12.2019
5953 Clouds 27 1009 83 10000 1.03 55 21:55 23.12.2019
5954 Clouds 27 1009 83 10000 1.03 55 21:36 23.12.2019
5955 Clouds 27 1009 83 10000 1.03 55 21:36 23.12.2019
5956 Clouds 27 1009 83 10000 1.03 55 21:36 23.12.2019
5957 Clouds 27 1009 83 10000 1.03 55 21:18 23.12.2019
5958 Clear 27 1008 83 10000 1.03 55 20:57 23.12.2019
5959 Clear 27 1008 83 10000 1.03 55 20:39 23.12.2019
5960 Clouds 27 1008 83 10000 1.28 3 20:18 23.12.2019
5961 Clouds 27 1008 83 10000 1.28 3 19:56 23.12.2019
5962 Clouds 27 1008 83 10000 1.28 3 19:56 23.12.2019
5963 Clouds 27 1008 83 10000 0.5 300 19:38 23.12.2019
5964 Clouds 28 1008 83 10000 0.5 300 19:19 23.12.2019
5965 Clouds 28 1008 78 10000 1 300 18:57 23.12.2019
5966 Clouds 28 1008 74 10000 1 310 18:38 23.12.2019
5967 Clouds 28 1008 74 10000 1 310 18:20 23.12.2019
5968 Clouds 29 1009 79 10000 1 320 17:56 23.12.2019
5969 Clouds 29 1009 70 10000 1.5 320 17:37 23.12.2019
5970 Clear 29 1009 70 10000 1.5 320 17:19 23.12.2019
5971 Clear 29 1009 70 10000 1.5 290 16:54 23.12.2019
5972 Clear 29 1009 70 10000 2.6 300 16:36 23.12.2019
5973 Clear 29 1009 70 10000 2.6 300 16:18 23.12.2019
5974 Clouds 30 1009 70 10000 2.6 340 15:55 23.12.2019
5975 Clouds 30 1010 66 10000 3.1 320 15:36 23.12.2019
5976 Clouds 30 1010 66 10000 3.1 320 15:18 23.12.2019
5977 Clouds 30 1009 66 10000 3.6 330 14:42 23.12.2019
5978 Clouds 30 1009 66 10000 3.6 330 14:24 23.12.2019
5979 Clouds 30 1009 66 10000 1.5 310 13:59 23.12.2019
5980 Clouds 30 1009 66 10000 1.5 310 13:41 23.12.2019
5981 Clouds 30 1009 70 10000 1.5 290 13:22 23.12.2019
5982 Clouds 30 1008 66 10000 2.1 290 12:58 23.12.2019
5983 Clouds 30 1008 66 10000 2.1 290 12:58 23.12.2019
5984 Clouds 30 1008 66 10000 1.5 260 12:39 23.12.2019
5985 Clouds 30 1008 66 10000 1.5 260 12:20 23.12.2019
5986 Clouds 31 1008 59 10000 1.5 280 11:55 23.12.2019
5987 Clouds 31 1007 59 10000 2.6 250 11:37 23.12.2019
5988 Clouds 31 1007 59 10000 2.6 250 11:18 23.12.2019
5989 Clouds 32 1007 55 10000 3.1 250 10:54 23.12.2019
5990 Clouds 32 1007 49 10000 3.6 270 10:36 23.12.2019
5991 Clouds 33 1007 49 10000 3.6 270 10:18 23.12.2019
5992 Clouds 33 1006 49 10000 4.1 290 09:40 23.12.2019
5993 Clouds 34 1006 49 10000 4.1 290 09:22 23.12.2019
5994 Clouds 35 1006 44 10000 3.6 310 08:58 23.12.2019
5995 Clouds 35 1006 46 10000 4.1 290 08:40 23.12.2019
5996 Rain 34 1006 46 10000 4.1 290 08:22 23.12.2019
5997 Clouds 35 1007 41 10000 3.6 300 07:48 23.12.2019
5998 Clouds 35 1007 41 10000 4.1 290 07:21 23.12.2019
5999 Clouds 35 1007 44 10000 4.1 300 06:57 23.12.2019
6000 Clouds 35 1008 44 10000 4.6 290 06:27 23.12.2019
6001 Clouds 35 1008 44 10000 3.1 300 05:56 23.12.2019
6002 Clouds 35 1008 49 10000 5.1 300 05:29 23.12.2019
6003 Clouds 35 1009 52 10000 4.1 290 04:34 23.12.2019
6004 Clouds 35 1009 49 10000 2.1 260 03:28 23.12.2019
6005 Clouds 34 1010 59 10000 1.5 210 02:43 23.12.2019
6006 Clouds 33 1010 55 10000 2.6 190 02:19 23.12.2019
6007 Clouds 33 1010 52 10000 1.5 150 01:44 23.12.2019
6008 Clouds 32 1010 55 10000 3.1 150 01:26 23.12.2019
6009 Clouds 30 1010 55 10000 3.6 180 00:44 23.12.2019
6010 Clouds 30 1010 55 10000 3.6 180 00:44 23.12.2019
6011 Clouds 29 1010 62 10000 3.1 200 00:23 23.12.2019
6012 Clouds 28 1009 83 10000 2.6 150 23:40 22.12.2019
6013 Clouds 28 1009 83 10000 2.6 150 23:22 22.12.2019
6014 Clouds 28 1009 83 10000 2.6 150 23:22 22.12.2019
6015 Clouds 27 1009 88 10000 2.6 160 22:58 22.12.2019
6016 Clouds 27 1008 88 10000 2.6 180 22:40 22.12.2019
6017 Clouds 28 1008 88 10000 2.6 180 22:22 22.12.2019
6018 Clouds 27 1008 78 10000 0.59 6 21:58 22.12.2019
6019 Clouds 27 1008 78 10000 1 70 21:40 22.12.2019
6020 Clouds 27 1008 78 10000 1 70 21:21 22.12.2019
6021 Clouds 27 1008 78 10000 1 70 21:21 22.12.2019
6022 Clouds 27 1008 78 10000 1 70 21:21 22.12.2019
6023 Clouds 27 1008 74 10000 1 70 20:59 22.12.2019
6024 Clouds 27 1008 78 10000 0.5 70 20:39 22.12.2019
6025 Clouds 27 1008 78 10000 0.5 70 20:19 22.12.2019
6026 Clouds 28 1008 74 10000 1.5 70 19:57 22.12.2019
6027 Clouds 28 1008 74 10000 1 70 19:39 22.12.2019
6028 Clouds 28 1008 74 10000 1 70 19:19 22.12.2019
6029 Clouds 29 1008 70 10000 2.1 290 18:42 22.12.2019
6030 Clouds 29 1008 70 10000 2.1 290 18:24 22.12.2019
6031 Clouds 29 1008 70 10000 2.1 330 17:56 22.12.2019
6032 Clouds 30 1008 70 10000 1.5 290 17:38 22.12.2019
6033 Clouds 30 1008 70 10000 1.5 290 17:19 22.12.2019
6034 Clouds 30 1008 70 10000 1.5 290 17:19 22.12.2019
6035 Clouds 30 1008 70 10000 1.5 290 16:57 22.12.2019
6036 Rain 29 1009 66 10000 3.1 310 16:39 22.12.2019
6037 Rain 30 1009 66 10000 3.1 310 16:21 22.12.2019
6038 Clouds 30 1009 66 10000 3.1 300 15:56 22.12.2019
6039 Clouds 30 1009 66 10000 3.1 300 15:38 22.12.2019
6040 Clouds 30 1009 66 10000 3.1 300 15:20 22.12.2019
6041 Clouds 30 1009 66 10000 3.1 300 14:55 22.12.2019
6042 Clouds 30 1009 66 10000 3.1 300 14:55 22.12.2019
6043 Clouds 30 1009 66 10000 4.1 330 14:37 22.12.2019
6044 Clouds 30 1009 66 10000 4.1 330 14:18 22.12.2019
6045 Clouds 30 1009 66 10000 4.1 330 14:18 22.12.2019
6046 Clouds 30 1009 66 10000 4.1 330 14:18 22.12.2019
6047 Clouds 30 1008 66 10000 3.6 330 13:55 22.12.2019
6048 Clouds 31 1008 66 10000 4.1 320 13:37 22.12.2019
6049 Clouds 30 1008 66 10000 4.1 320 13:18 22.12.2019
6050 Rain 30 1008 70 10000 4.6 330 12:56 22.12.2019
6051 Clouds 30 1007 70 10000 4.6 310 12:37 22.12.2019
6052 Clouds 30 1007 70 10000 4.6 310 12:18 22.12.2019
6053 Clouds 31 1007 62 10000 4.1 310 11:56 22.12.2019
6054 Clouds 31 1006 62 10000 4.6 320 11:38 22.12.2019
6055 Clouds 31 1006 62 10000 4.6 320 11:18 22.12.2019
6056 Clouds 31 1006 62 10000 5.1 300 10:55 22.12.2019
6057 Clouds 32 1005 52 10000 4.6 320 10:36 22.12.2019
6058 Clouds 33 1005 52 10000 4.6 320 10:18 22.12.2019
6059 Clouds 33 1005 46 10000 4.1 330 09:57 22.12.2019
6060 Clouds 33 1005 46 10000 4.6 340 09:38 22.12.2019
6061 Clouds 34 1005 46 10000 4.6 340 09:20 22.12.2019
6062 Clouds 35 1005 44 10000 5.1 330 08:42 22.12.2019
6063 Clouds 35 1005 44 10000 5.1 330 08:21 22.12.2019
6064 Clouds 36 1005 44 10000 3.6 330 07:42 22.12.2019
6065 Clouds 36 1005 44 10000 3.6 330 07:21 22.12.2019
6066 Clouds 36 1005 47 10000 5.1 270 06:52 22.12.2019
6067 Clouds 36 1006 47 10000 3.6 310 06:22 22.12.2019
6068 Clouds 35 1007 52 10000 4.1 270 05:29 22.12.2019
6069 Clouds 35 1007 55 10000 4.1 320 04:46 22.12.2019
6070 Clouds 35 1008 55 10000 3.6 300 04:24 22.12.2019
6071 Clouds 35 1009 49 10000 2.6 20 02:43 22.12.2019
6072 Clouds 35 1009 49 10000 2.6 20 02:43 22.12.2019
6073 Clouds 35 1009 49 10000 2.6 20 02:43 22.12.2019
6074 Clouds 33 1009 52 10000 2.1 20 01:59 22.12.2019
6075 Clouds 33 1009 59 10000 1.5 320 01:31 22.12.2019
6076 Clouds 32 1009 62 10000 0.5 130 00:48 22.12.2019
6077 Clouds 31 1009 62 10000 1 180 00:29 22.12.2019
6078 Clouds 28 1009 66 10000 1 130 23:59 21.12.2019
6079 Clouds 28 1009 74 10000 1 120 23:40 21.12.2019
6080 Clear 26 1009 74 10000 1 120 23:20 21.12.2019
6081 Clear 26 1008 74 10000 1.5 110 22:47 21.12.2019
6082 Clear 25 1008 74 10000 1.5 130 22:20 21.12.2019
6083 Clear 25 1008 78 10000 2.1 130 21:58 21.12.2019
6084 Clear 25 1008 74 10000 1.5 150 21:40 21.12.2019
6085 Clear 26 1008 74 10000 1.5 150 21:21 21.12.2019
6086 Clear 26 1008 74 10000 2.1 120 20:59 21.12.2019
6087 Clear 26 1008 74 10000 2.1 120 20:59 21.12.2019
6088 Clear 26 1008 74 10000 2.1 120 20:41 21.12.2019
6089 Rain 26 1008 69 10000 2.6 130 20:22 21.12.2019
6090 Rain 26 1007 69 10000 1.5 130 19:59 21.12.2019
6091 Clouds 26 1008 74 10000 2.6 130 19:41 21.12.2019
6092 Clouds 26 1008 74 10000 2.6 130 19:20 21.12.2019
6093 Clouds 26 1007 78 10000 2.6 150 18:59 21.12.2019
6094 Rain 26 1008 69 10000 5.1 160 18:40 21.12.2019
6095 Rain 27 1008 69 10000 5.1 160 18:22 21.12.2019
6096 Rain 27 1008 74 10000 2.6 180 17:55 21.12.2019
6097 Rain 27 1007 69 10000 1 150 17:37 21.12.2019
6098 Rain 27 1007 69 10000 1 150 17:18 21.12.2019
6099 Rain 27 1008 74 10000 1.5 220 16:54 21.12.2019
6100 Rain 27 1008 69 10000 0.5 290 16:36 21.12.2019
6101 Rain 27 1008 69 10000 0.5 290 16:36 21.12.2019
6102 Rain 27 1008 69 10000 0.5 290 16:18 21.12.2019
6103 Rain 27 1009 74 10000 2.1 280 15:54 21.12.2019
6104 Rain 26 1009 69 10000 3.6 260 15:36 21.12.2019
6105 Rain 27 1009 69 10000 3.6 260 15:18 21.12.2019
6106 Clouds 26 1009 65 10000 2.6 280 14:40 21.12.2019
6107 Rain 26 1009 78 10000 4.1 280 14:40 21.12.2019
6108 Clouds 27 1009 65 10000 2.6 280 14:22 21.12.2019
6109 Clouds 27 1009 65 10000 2.6 280 14:22 21.12.2019
6110 Rain 27 1010 61 10000 3.1 220 13:57 21.12.2019
6111 Thunderstorm 27 1008 61 10000 7.7 170 13:39 21.12.2019
6112 Thunderstorm 28 1008 61 10000 7.7 170 13:19 21.12.2019
6113 Thunderstorm 29 1008 74 10000 7.7 140 12:56 21.12.2019
6114 Clouds 30 1008 74 10000 2.1 190 12:38 21.12.2019
6115 Clouds 30 1008 74 10000 2.1 190 12:38 21.12.2019
6116 Clouds 30 1008 74 10000 2.1 190 12:19 21.12.2019
6117 Clouds 30 1007 70 10000 2.1 250 11:45 21.12.2019
6118 Clouds 30 1006 70 10000 1.5 270 11:26 21.12.2019
6119 Clouds 31 1006 70 10000 3.1 260 10:58 21.12.2019
6120 Rain 31 1006 62 10000 3.1 280 10:39 21.12.2019
6121 Rain 31 1006 62 10000 3.1 280 10:21 21.12.2019
6122 Clouds 32 1006 59 10000 4.1 290 09:57 21.12.2019
6123 Clouds 32 1006 59 10000 4.6 290 09:39 21.12.2019
6124 Clouds 33 1006 59 10000 4.6 290 09:19 21.12.2019
6125 Clouds 34 1006 55 10000 4.1 290 08:46 21.12.2019
6126 Thunderstorm 33 1005 59 10000 2.6 330 08:26 21.12.2019
6127 Rain 33 1006 55 10000 4.6 340 07:47 21.12.2019
6128 Rain 33 1006 55 10000 3.6 320 07:23 21.12.2019
6129 Rain 33 1006 49 10000 4.1 330 06:47 21.12.2019
6130 Clouds 35 1007 52 10000 4.1 310 06:28 21.12.2019
6131 Clouds 34 1007 52 10000 3.1 320 05:59 21.12.2019
6132 Clouds 35 1008 52 10000 2.1 290 04:59 21.12.2019
6133 Clouds 34 1008 55 10000 2.6 290 04:33 21.12.2019
6134 Clouds 34 1009 55 10000 2.6 300 03:56 21.12.2019
6135 Clouds 33 1010 52 10000 3.6 320 02:23 21.12.2019
6136 Clouds 33 1010 59 10000 1 140 01:42 21.12.2019
6137 Rain 33 1010 59 10000 1 120 01:23 21.12.2019
6138 Clouds 32 1010 74 10000 0.5 130 00:39 21.12.2019
6139 Clouds 31 1010 74 10000 0.5 130 00:20 21.12.2019
6140 Clouds 29 1009 83 10000 0.5 120 23:39 20.12.2019
6141 Clouds 28 1009 83 10000 0.5 120 23:20 20.12.2019
6142 Clouds 27 1009 88 10000 1.5 120 22:57 20.12.2019
6143 Clouds 27 1009 94 10000 2.1 120 22:38 20.12.2019
6144 Clouds 27 1009 94 10000 2.1 120 22:18 20.12.2019
6145 Clouds 27 1008 88 10000 1.42 81 21:41 20.12.2019
6146 Clouds 27 1008 88 10000 1.42 81 21:21 20.12.2019
6147 Clear 27 1008 88 10000 1.42 81 20:57 20.12.2019
6148 Clouds 27 1008 88 10000 1.42 81 20:38 20.12.2019
6149 Clouds 27 1008 88 10000 1.71 349 20:19 20.12.2019
6150 Clouds 27 1008 88 10000 1.5 170 19:42 20.12.2019
6151 Clouds 27 1008 88 10000 1.5 170 19:21 20.12.2019
6152 Clouds 27 1008 88 10000 1 190 18:58 20.12.2019
6153 Rain 27 1008 88 10000 2.6 220 18:40 20.12.2019
6154 Rain 27 1008 88 10000 2.6 220 18:21 20.12.2019
6155 Rain 27 1008 88 10000 2.6 220 18:21 20.12.2019
6156 Rain 27 1008 88 6000 2.1 350 17:56 20.12.2019
6157 Rain 27 1008 88 6000 2.1 350 17:56 20.12.2019
6158 Rain 28 1008 88 6000 2.1 350 17:38 20.12.2019
6159 Rain 29 1008 88 6000 2.1 350 17:20 20.12.2019
6160 Clouds 29 1008 70 10000 3.1 350 16:56 20.12.2019
6161 Clouds 29 1008 70 10000 3.1 340 16:37 20.12.2019
6162 Clouds 29 1008 70 10000 3.1 340 16:19 20.12.2019
6163 Clouds 30 1009 66 10000 4.1 320 15:54 20.12.2019
6164 Clouds 30 1009 66 10000 4.1 320 15:54 20.12.2019
6165 Clouds 30 1008 66 10000 4.6 330 15:36 20.12.2019
6166 Clouds 30 1008 66 10000 4.6 330 15:36 20.12.2019
6167 Clouds 30 1008 66 10000 4.6 330 15:18 20.12.2019
6168 Clouds 30 1008 66 10000 3.6 320 14:42 20.12.2019
6169 Clouds 30 1008 66 10000 3.6 320 14:23 20.12.2019
6170 Clouds 30 1008 62 10000 1.5 250 13:57 20.12.2019
6171 Clouds 30 1008 66 10000 3.1 220 13:37 20.12.2019
6172 Clouds 30 1008 66 10000 3.1 220 13:18 20.12.2019
6173 Clouds 30 1008 66 10000 3.1 220 13:18 20.12.2019
6174 Clouds 30 1007 70 10000 3.1 360 12:55 20.12.2019
6175 Clouds 30 1007 66 10000 2.6 350 12:36 20.12.2019
6176 Clouds 30 1007 66 10000 2.6 350 12:18 20.12.2019
6177 Clouds 31 1007 59 10000 1.5 340 11:57 20.12.2019
6178 Rain 31 1006 59 10000 2.6 330 11:38 20.12.2019
6179 Clouds 31 1006 59 10000 2.6 330 11:18 20.12.2019
6180 Clouds 32 1006 62 10000 3.1 310 10:55 20.12.2019
6181 Clouds 32 1006 62 0 2.68 310 10:37 20.12.2019
6182 Clouds 32 1006 62 10000 3.6 310 10:19 20.12.2019
6183 Rain 33 1006 52 10000 3.6 290 09:42 20.12.2019
6184 Clouds 33 1006 52 10000 3.6 290 09:21 20.12.2019
6185 Clouds 34 1005 55 10000 3.6 300 08:54 20.12.2019
6186 Clouds 33 1006 62 10000 3.1 270 08:36 20.12.2019
6187 Rain 32 1006 62 10000 3.1 270 08:18 20.12.2019
6188 Clouds 32 1006 62 10000 2.6 280 07:41 20.12.2019
6189 Clouds 31 1006 62 10000 2.6 280 07:23 20.12.2019
6190 Thunderstorm 32 1006 55 10000 4.6 340 06:55 20.12.2019
6191 Clouds 33 1006 47 10000 4.1 350 06:36 20.12.2019
6192 Clouds 34 1006 47 10000 4.1 350 06:18 20.12.2019
6193 Clouds 34 1007 52 10000 4.6 350 05:45 20.12.2019
6194 Clouds 34 1008 55 10000 3.6 310 04:46 20.12.2019
6195 Clouds 34 1009 59 10000 3.6 330 03:48 20.12.2019
6196 Clouds 33 1009 55 10000 3.1 330 02:46 20.12.2019
6197 Clouds 33 1010 55 10000 3.6 360 01:59 20.12.2019
6198 Clouds 33 1010 59 10000 2.6 30 01:35 20.12.2019
6199 Clouds 32 1010 59 10000 2.1 70 00:54 20.12.2019
6200 Clouds 32 1010 58 10000 2.6 70 00:35 20.12.2019
6201 Clouds 30 1010 70 10000 2.6 50 23:57 19.12.2019
6202 Clouds 30 1010 74 10000 1.5 70 23:39 19.12.2019
6203 Clouds 29 1010 74 10000 1.5 70 23:19 19.12.2019
6204 Clouds 27 1009 83 10000 1 30 22:39 19.12.2019
6205 Clouds 26 1009 83 10000 1 30 22:21 19.12.2019
6206 Clouds 27 1009 78 10000 1.5 30 21:56 19.12.2019
6207 Clouds 27 1009 78 10000 1.5 30 21:56 19.12.2019
6208 Clouds 27 1009 78 10000 1 60 21:38 19.12.2019
6209 Clouds 27 1009 78 10000 1 60 21:19 19.12.2019
6210 Clouds 26 1008 83 10000 1.5 40 20:56 19.12.2019
6211 Clouds 27 1008 78 10000 1 50 20:37 19.12.2019
6212 Clouds 27 1008 78 10000 1 50 20:19 19.12.2019
6213 Clouds 27 1008 78 10000 1.5 30 19:58 19.12.2019
6214 Clouds 27 1008 78 10000 1.5 30 19:39 19.12.2019
6215 Clouds 27 1008 78 10000 1.5 30 19:39 19.12.2019
6216 Clouds 27 1008 78 10000 1.5 30 19:19 19.12.2019
6217 Clouds 27 1008 78 10000 1.5 30 19:19 19.12.2019
6218 Clouds 27 1008 78 10000 2.1 20 18:57 19.12.2019
6219 Clouds 27 1008 74 10000 2.6 20 18:39 19.12.2019
6220 Clouds 28 1008 74 10000 2.6 20 18:19 19.12.2019
6221 Rain 28 1008 74 10000 2.1 10 17:55 19.12.2019
6222 Rain 28 1008 74 10000 1.5 360 17:37 19.12.2019
6223 Clouds 28 1008 74 10000 1.5 360 17:18 19.12.2019
6224 Clouds 28 1009 70 10000 2.1 360 16:55 19.12.2019
6225 Clouds 28 1009 70 10000 2.1 360 16:55 19.12.2019
6226 Clouds 29 1009 70 10000 3.1 360 16:37 19.12.2019
6227 Clouds 29 1009 70 10000 3.1 360 16:19 19.12.2019
6228 Clouds 29 1009 66 10000 2.6 350 15:55 19.12.2019
6229 Clouds 29 1009 70 10000 2.1 350 15:37 19.12.2019
6230 Clouds 29 1009 70 10000 2.1 350 15:18 19.12.2019
6231 Clouds 28 1008 79 10000 2.6 10 14:42 19.12.2019
6232 Clouds 28 1008 79 10000 2.6 10 14:20 19.12.2019
6233 Clouds 28 1008 74 10000 2.6 30 13:58 19.12.2019
6234 Clouds 28 1008 66 10000 1.5 360 13:38 19.12.2019
6235 Clouds 29 1008 66 10000 1.5 360 13:19 19.12.2019
6236 Clouds 28 1007 70 10000 2.1 360 12:57 19.12.2019
6237 Clouds 28 1007 70 10000 1.5 10 12:39 19.12.2019
6238 Clouds 28 1007 70 10000 1.5 10 12:19 19.12.2019
6239 Clouds 29 1007 62 10000 1 10 11:58 19.12.2019
6240 Clouds 29 1007 55 10000 2.1 350 11:40 19.12.2019
6241 Rain 29 1007 55 10000 2.1 350 11:18 19.12.2019
6242 Rain 30 1007 55 10000 2.1 350 10:57 19.12.2019
6243 Rain 30 1007 49 10000 1 20 10:38 19.12.2019
6244 Rain 31 1007 58 10000 1 110 10:19 19.12.2019
6245 Rain 31 1007 58 10000 1 110 09:54 19.12.2019
6246 Rain 31 1006 58 10000 1 50 09:36 19.12.2019
6247 Rain 31 1006 58 10000 1 50 09:18 19.12.2019
6248 Clouds 31 1007 58 10000 0.5 10 08:41 19.12.2019
6249 Clouds 31 1007 58 10000 0.5 10 08:19 19.12.2019
6250 Clouds 30 1006 51 10000 0.5 340 07:58 19.12.2019
6251 Clouds 30 1007 54 10000 2.1 10 07:38 19.12.2019
6252 Clouds 30 1007 54 10000 2.1 10 07:20 19.12.2019
6253 Thunderstorm 28 1007 65 10000 9.3 60 06:50 19.12.2019
6254 Thunderstorm 30 1007 55 10000 7.7 60 06:30 19.12.2019
6255 Clouds 35 1006 47 10000 2.6 140 05:56 19.12.2019
6256 Clouds 34 1007 49 10000 2.6 130 05:36 19.12.2019
6257 Clouds 33 1008 49 10000 2.6 170 04:56 19.12.2019
6258 Clouds 32 1009 49 10000 3.6 190 03:45 19.12.2019
6259 Clouds 30 1010 58 10000 3.6 190 02:24 19.12.2019
6260 Clouds 27 1010 65 10000 1 290 01:23 19.12.2019
6261 Thunderstorm 28 1010 61 10000 3.6 110 00:44 19.12.2019
6262 Thunderstorm 29 1010 61 10000 3.6 110 00:25 19.12.2019
6263 Thunderstorm 28 1010 61 10000 4.6 170 23:59 18.12.2019
6264 Clouds 28 1009 65 10000 4.6 170 23:41 18.12.2019
6265 Clouds 28 1009 65 10000 4.6 170 23:19 18.12.2019
6266 Clouds 28 1008 88 10000 3.6 150 22:56 18.12.2019
6267 Clouds 28 1008 83 10000 1.5 130 22:37 18.12.2019
6268 Clouds 28 1008 83 10000 1.5 130 22:19 18.12.2019
6269 Clouds 28 1007 83 10000 1.5 0 21:57 18.12.2019
6270 Clouds 28 1007 79 10000 1.5 180 21:39 18.12.2019
6271 Clouds 28 1007 79 10000 1.5 180 21:19 18.12.2019
6272 Clouds 29 1007 79 10000 1.5 210 20:55 18.12.2019
6273 Clouds 28 1006 79 10000 1.5 260 20:37 18.12.2019
6274 Clouds 28 1006 79 10000 1.5 260 20:19 18.12.2019
6275 Clouds 29 1006 79 10000 1.5 280 19:55 18.12.2019
6276 Rain 29 1006 79 10000 1.5 270 19:37 18.12.2019
6277 Rain 29 1006 79 10000 1.5 270 19:18 18.12.2019
6278 Rain 29 1007 79 10000 2.6 270 18:45 18.12.2019
6279 Rain 29 1007 79 10000 2.6 270 18:25 18.12.2019
6280 Rain 29 1007 79 10000 2.6 260 17:57 18.12.2019
6281 Rain 29 1007 79 10000 3.1 260 17:39 18.12.2019
6282 Rain 29 1007 79 10000 3.1 260 17:20 18.12.2019
6283 Rain 29 1007 79 10000 2.6 280 16:58 18.12.2019
6284 Rain 29 1007 79 10000 2.6 280 16:40 18.12.2019
6285 Rain 28 1007 79 10000 2.1 270 16:21 18.12.2019
6286 Clouds 28 1008 79 10000 2.6 270 15:56 18.12.2019
6287 Clouds 29 1007 79 10000 2.6 270 15:38 18.12.2019
6288 Clouds 29 1007 79 10000 2.6 270 15:20 18.12.2019
6289 Clouds 29 1008 74 10000 3.1 270 14:43 18.12.2019
6290 Clouds 30 1007 74 10000 3.1 270 14:22 18.12.2019
6291 Clouds 30 1007 74 10000 2.6 270 13:58 18.12.2019
6292 Clouds 30 1007 70 10000 3.6 280 13:39 18.12.2019
6293 Clouds 30 1007 70 10000 3.6 280 13:21 18.12.2019
6294 Rain 30 1006 70 10000 3.1 270 12:59 18.12.2019
6295 Rain 30 1006 70 10000 3.6 280 12:40 18.12.2019
6296 Rain 30 1006 70 10000 3.6 280 12:21 18.12.2019
6297 Rain 30 1006 70 10000 4.6 280 11:57 18.12.2019
6298 Rain 30 1005 66 10000 4.6 290 11:39 18.12.2019
6299 Clouds 31 1005 66 10000 5.7 290 11:20 18.12.2019
6300 Clouds 31 1005 66 10000 5.7 290 10:57 18.12.2019
6301 Thunderstorm 32 1005 63 10000 5.7 290 10:39 18.12.2019
6302 Thunderstorm 32 1005 63 10000 5.7 290 10:20 18.12.2019
6303 Clouds 32 1005 63 10000 4.1 300 09:57 18.12.2019
6304 Clouds 33 1005 59 10000 6.7 300 09:19 18.12.2019
6305 Clouds 34 1005 59 10000 6.7 300 08:42 18.12.2019
6306 Clouds 34 1005 59 10000 6.2 290 08:24 18.12.2019
6307 Clouds 35 1005 59 10000 6.7 300 07:57 18.12.2019
6308 Clouds 35 1005 56 10000 5.7 310 07:39 18.12.2019
6309 Clouds 36 1005 56 10000 5.7 310 07:19 18.12.2019
6310 Clouds 35 1006 59 10000 5.7 300 06:51 18.12.2019
6311 Rain 35 1006 59 10000 5.7 310 06:23 18.12.2019
6312 Clouds 35 1007 52 10000 5.1 300 05:35 18.12.2019
6313 Clouds 35 1007 52 10000 5.1 300 05:35 18.12.2019
6314 Clouds 34 1008 44 10000 4.1 280 03:49 18.12.2019
6315 Clouds 33 1009 52 10000 3.6 280 02:46 18.12.2019
6316 Clouds 33 1010 49 10000 1 330 02:27 18.12.2019
6317 Clouds 33 1010 52 10000 0.5 20 01:44 18.12.2019
6318 Clouds 32 1010 52 10000 0.5 20 01:25 18.12.2019
6319 Clouds 30 1009 62 10000 1 150 00:42 18.12.2019
6320 Clouds 29 1009 62 10000 1 150 00:24 18.12.2019
6321 Clouds 27 1009 69 10000 1 130 23:59 17.12.2019
6322 Clouds 27 1009 69 10000 1 130 23:59 17.12.2019
6323 Clouds 27 1009 65 10000 2.1 110 23:40 17.12.2019
6324 Clouds 26 1009 65 10000 2.1 110 23:21 17.12.2019
6325 Clouds 25 1009 73 10000 1 130 22:57 17.12.2019
6326 Clouds 25 1009 73 10000 1 130 22:57 17.12.2019
6327 Clouds 25 1008 78 10000 1.5 120 22:39 17.12.2019
6328 Clouds 24 1008 78 10000 1.5 120 22:19 17.12.2019
6329 Clouds 24 1008 78 10000 2.6 130 21:57 17.12.2019
6330 Clouds 24 1007 73 10000 2.6 120 21:39 17.12.2019
6331 Clouds 24 1007 73 10000 2.6 120 21:20 17.12.2019
6332 Clouds 24 1007 73 10000 1.5 70 20:59 17.12.2019
6333 Clouds 24 1006 78 10000 2.1 70 20:40 17.12.2019
6334 Clouds 25 1006 78 10000 2.1 70 20:19 17.12.2019
6335 Clouds 25 1006 78 10000 1 50 19:57 17.12.2019
6336 Clouds 24 1006 78 10000 1.5 50 19:39 17.12.2019
6337 Clouds 24 1006 78 10000 1.5 50 19:20 17.12.2019
6338 Clouds 24 1006 78 10000 1.5 40 18:57 17.12.2019
6339 Clouds 25 1006 78 10000 2.1 40 18:38 17.12.2019
6340 Clouds 25 1006 78 10000 2.1 40 18:20 17.12.2019
6341 Clouds 25 1006 74 10000 2.1 130 17:55 17.12.2019
6342 Clouds 25 1007 74 10000 2.6 140 17:37 17.12.2019
6343 Clouds 25 1007 74 10000 2.6 140 17:18 17.12.2019
6344 Clouds 25 1006 74 10000 2.6 30 16:55 17.12.2019
6345 Clouds 25 1007 69 10000 1.5 140 16:36 17.12.2019
6346 Clouds 26 1007 69 10000 1.5 140 16:18 17.12.2019
6347 Clouds 26 1007 69 10000 1.5 140 16:18 17.12.2019
6348 Rain 26 1007 74 10000 2.6 150 15:38 17.12.2019
6349 Rain 26 1007 74 10000 2.6 150 15:20 17.12.2019
6350 Rain 28 1008 65 10000 3.6 160 14:57 17.12.2019
6351 Rain 28 1007 54 10000 3.6 200 14:38 17.12.2019
6352 Rain 28 1007 54 10000 3.6 200 14:19 17.12.2019
6353 Thunderstorm 27 1008 74 10000 5.1 210 13:59 17.12.2019
6354 Thunderstorm 28 1009 62 10000 8.7 160 13:41 17.12.2019
6355 Thunderstorm 28 1009 62 10000 8.7 160 13:19 17.12.2019
6356 Clouds 29 1008 74 10000 1 270 12:59 17.12.2019
6357 Clouds 30 1007 70 10000 2.6 270 12:38 17.12.2019
6358 Clouds 30 1006 70 10000 4.1 290 12:18 17.12.2019
6359 Clouds 30 1007 70 10000 2.6 270 12:18 17.12.2019
6360 Clouds 31 1006 70 10000 4.1 290 11:57 17.12.2019
6361 Clouds 31 1006 70 10000 3.6 270 11:37 17.12.2019
6362 Clouds 32 1005 70 10000 4.6 290 11:18 17.12.2019
6363 Clouds 32 1005 70 10000 4.6 290 10:57 17.12.2019
6364 Clouds 32 1005 66 10000 5.7 290 10:39 17.12.2019
6365 Clouds 32 1005 66 10000 5.7 290 10:39 17.12.2019
6366 Clouds 32 1005 66 10000 5.7 290 10:19 17.12.2019
6367 Rain 33 1005 59 10000 5.7 290 09:56 17.12.2019
6368 Clouds 33 1005 56 10000 5.1 290 09:38 17.12.2019
6369 Clouds 33 1005 56 10000 5.1 290 09:38 17.12.2019
6370 Clouds 34 1005 56 10000 5.1 290 09:18 17.12.2019
6371 Clouds 34 1005 49 10000 5.1 290 08:55 17.12.2019
6372 Clouds 34 1005 52 10000 6.7 300 08:36 17.12.2019
6373 Clouds 35 1005 52 10000 6.7 300 08:18 17.12.2019
6374 Clouds 35 1005 47 10000 6.2 300 07:42 17.12.2019
6375 Clouds 35 1005 47 10000 6.2 300 07:23 17.12.2019
6376 Clouds 35 1005 44 10000 6.7 290 06:53 17.12.2019
6377 Clouds 35 1006 41 10000 6.2 300 06:32 17.12.2019
6378 Clouds 35 1007 56 10000 5.7 310 05:50 17.12.2019
6379 Clouds 35 1007 56 10000 5.7 310 05:50 17.12.2019
6380 Clouds 35 1007 56 10000 5.7 310 05:31 17.12.2019
6381 Clouds 35 1008 59 10000 4.1 330 04:19 17.12.2019
6382 Clouds 33 1009 59 10000 2.6 310 02:27 17.12.2019
6383 Clouds 32 1009 70 10000 2.6 250 01:34 17.12.2019
6384 Clouds 32 1009 70 10000 4.1 270 00:48 17.12.2019
6385 Clouds 30 1009 70 10000 3.2 268 00:22 17.12.2019
6386 Clouds 29 1009 74 10000 4.1 270 23:59 16.12.2019
6387 Clouds 28 1009 78 10000 1 140 23:40 16.12.2019
6388 Clouds 28 1009 78 10000 1 140 23:18 16.12.2019
6389 Clouds 27 1009 83 10000 1.5 160 22:55 16.12.2019
6390 Clouds 27 1008 83 10000 1 110 22:36 16.12.2019
6391 Clouds 27 1008 83 10000 1 110 22:18 16.12.2019
6392 Clouds 26 1008 83 10000 0.5 130 21:54 16.12.2019
6393 Clouds 27 1007 83 10000 1.5 130 21:36 16.12.2019
6394 Clouds 27 1007 83 10000 1.5 130 21:18 16.12.2019
6395 Clouds 27 1007 83 10000 2.1 150 20:56 16.12.2019
6396 Clouds 27 1007 83 10000 1.5 190 20:37 16.12.2019
6397 Clouds 27 1007 83 10000 1.5 190 20:18 16.12.2019
6398 Clouds 28 1006 74 10000 2.1 230 19:55 16.12.2019
6399 Clouds 28 1006 70 10000 1 230 19:36 16.12.2019
6400 Clouds 28 1006 70 10000 1 230 19:18 16.12.2019
6401 Clouds 28 1006 70 10000 2.1 250 18:55 16.12.2019
6402 Clouds 28 1006 74 10000 0.5 210 18:37 16.12.2019
6403 Clouds 28 1006 74 10000 1.23 285 18:18 16.12.2019
6404 Clouds 28 1006 74 10000 1.23 285 17:56 16.12.2019
6405 Clouds 28 1006 74 10000 1 210 17:37 16.12.2019
6406 Clouds 28 1006 70 10000 1.34 238 17:19 16.12.2019
6407 Clouds 28 1006 70 10000 1.34 238 16:54 16.12.2019
6408 Clouds 28 1007 66 10000 1.34 238 16:36 16.12.2019
6409 Clouds 28 1007 66 10000 1.34 238 16:18 16.12.2019
6410 Clouds 28 1007 66 10000 1 170 15:55 16.12.2019
6411 Clouds 28 1007 74 10000 2.1 210 15:37 16.12.2019
6412 Clouds 28 1007 74 10000 2.1 210 15:37 16.12.2019
6413 Clouds 28 1007 74 10000 2.1 210 15:18 16.12.2019
6414 Clouds 28 1007 79 10000 2.1 290 14:54 16.12.2019
6415 Clouds 28 1007 74 10000 2.1 310 14:36 16.12.2019
6416 Clouds 28 1007 74 10000 2.1 310 14:18 16.12.2019
6417 Clouds 28 1007 74 10000 2.1 310 14:18 16.12.2019
6418 Clouds 28 1007 70 10000 3.1 230 13:38 16.12.2019
6419 Clouds 28 1007 70 10000 3.1 230 13:20 16.12.2019
6420 Clouds 28 1007 69 10000 3.6 200 12:58 16.12.2019
6421 Clouds 28 1007 69 10000 3.6 200 12:58 16.12.2019
6422 Clouds 28 1007 66 10000 5.7 160 12:40 16.12.2019
6423 Clouds 28 1007 66 10000 5.7 160 12:20 16.12.2019
6424 Clouds 30 1007 66 10000 3.1 220 11:59 16.12.2019
6425 Clouds 30 1007 66 10000 3.1 220 11:59 16.12.2019
6426 Clouds 30 1007 59 10000 3.6 230 11:41 16.12.2019
6427 Clouds 30 1007 59 10000 3.6 230 11:22 16.12.2019
6428 Clouds 31 1006 62 10000 3.6 290 10:59 16.12.2019
6429 Clouds 32 1006 62 10000 3.6 290 10:40 16.12.2019
6430 Rain 32 1007 76 0 1.79 279 10:21 16.12.2019
6431 Clouds 32 1005 66 10000 5.1 290 09:47 16.12.2019
6432 Clouds 32 1005 62 10000 5.7 290 09:29 16.12.2019
6433 Clouds 33 1005 63 10000 6.7 290 08:58 16.12.2019
6434 Clouds 33 1005 59 10000 7.2 290 08:39 16.12.2019
6435 Clouds 34 1005 59 10000 7.2 290 08:19 16.12.2019
6436 Clouds 34 1005 59 10000 7.2 290 08:19 16.12.2019
6437 Clouds 33 1005 59 10000 7.2 300 07:51 16.12.2019
6438 Clouds 34 1005 59 10000 7.2 300 07:31 16.12.2019
6439 Clouds 34 1006 63 10000 6.7 310 06:49 16.12.2019
6440 Clouds 34 1006 59 10000 6.7 320 06:27 16.12.2019
6441 Clouds 34 1006 63 10000 6.2 310 05:58 16.12.2019
6442 Rain 34 1007 59 10000 5.7 310 05:39 16.12.2019
6443 Rain 34 1007 59 10000 5.7 310 05:21 16.12.2019
6444 Clouds 33 1008 63 10000 4.1 300 02:59 16.12.2019
6445 Clouds 32 1009 62 10000 6.2 320 01:45 16.12.2019
6446 Clouds 32 1009 66 10000 2.1 260 00:56 16.12.2019
6447 Clouds 31 1009 79 10000 2.1 280 00:38 16.12.2019
6448 Clouds 31 1009 74 10000 1.5 260 00:18 16.12.2019
6449 Clouds 29 1009 83 10000 2.16 291 23:41 15.12.2019
6450 Clouds 28 1009 83 10000 1.31 335 23:22 15.12.2019
6451 Clouds 27 1008 88 10000 0.5 280 22:57 15.12.2019
6452 Clouds 26 1008 94 10000 1 280 22:38 15.12.2019
6453 Clouds 26 1008 94 10000 1 280 22:19 15.12.2019
6454 Clouds 26 1007 94 10000 1.5 270 21:58 15.12.2019
6455 Clouds 26 1007 94 10000 1 280 21:38 15.12.2019
6456 Clouds 26 1007 94 10000 1 280 21:20 15.12.2019
6457 Clouds 27 1007 88 10000 2.6 270 20:58 15.12.2019
6458 Clouds 27 1006 94 10000 1.5 270 20:39 15.12.2019
6459 Clouds 26 1006 94 10000 1.5 270 20:21 15.12.2019
6460 Clouds 26 1006 94 10000 1.5 260 19:58 15.12.2019
6461 Clouds 27 1006 88 10000 1.5 250 19:40 15.12.2019
6462 Clouds 27 1006 88 10000 1.5 250 19:20 15.12.2019
6463 Clouds 27 1006 83 10000 1.5 260 18:57 15.12.2019
6464 Clouds 27 1006 83 10000 2.1 270 18:39 15.12.2019
6465 Clouds 27 1006 88 10000 1.5 260 18:19 15.12.2019
6466 Clouds 27 1006 88 10000 1.5 260 18:19 15.12.2019
6467 Clouds 27 1006 88 10000 1.5 260 17:56 15.12.2019
6468 Clouds 27 1006 88 10000 1.5 260 17:56 15.12.2019
6469 Clouds 27 1006 88 10000 2.1 250 17:38 15.12.2019
6470 Rain 27 1007 88 10000 2.1 250 17:19 15.12.2019
6471 Rain 27 1007 88 10000 2.1 250 16:57 15.12.2019
6472 Clouds 27 1007 88 10000 1.5 250 16:39 15.12.2019
6473 Rain 27 1007 88 10000 1.5 250 16:20 15.12.2019
6474 Clouds 27 1007 88 10000 1.5 290 15:55 15.12.2019
6475 Clouds 27 1007 83 10000 1.5 240 15:37 15.12.2019
6476 Clouds 27 1007 83 10000 1.5 240 15:18 15.12.2019
6477 Clouds 28 1007 79 10000 2.1 240 14:55 15.12.2019
6478 Rain 28 1007 74 10000 2.1 240 14:37 15.12.2019
6479 Rain 28 1007 74 10000 2.1 240 14:37 15.12.2019
6480 Clouds 28 1007 74 10000 2.1 240 14:18 15.12.2019
6481 Clouds 28 1007 74 10000 2.6 260 13:58 15.12.2019
6482 Clouds 28 1007 79 10000 2.6 250 13:37 15.12.2019
6483 Rain 28 1007 79 10000 2.6 250 13:37 15.12.2019
6484 Rain 29 1007 79 10000 2.6 250 13:19 15.12.2019
6485 Rain 29 1007 79 10000 2.6 250 13:19 15.12.2019
6486 Clouds 29 1007 79 10000 2.6 220 12:56 15.12.2019
6487 Clouds 29 1008 83 10000 3.6 240 12:38 15.12.2019
6488 Clouds 29 1008 83 10000 3.6 240 12:20 15.12.2019
6489 Clouds 30 1007 79 10000 3.1 250 11:55 15.12.2019
6490 Clouds 30 1007 70 10000 3.6 260 11:36 15.12.2019
6491 Clouds 30 1006 70 10000 3.6 290 11:18 15.12.2019
6492 Clouds 30 1006 70 10000 3.6 290 10:54 15.12.2019
6493 Clouds 30 1006 70 10000 4.1 270 10:36 15.12.2019
6494 Clouds 31 1006 70 10000 4.1 270 10:18 15.12.2019
6495 Clouds 31 1006 66 10000 2.6 280 09:39 15.12.2019
6496 Clouds 31 1006 66 10000 2.6 280 09:20 15.12.2019
6497 Clouds 31 1005 66 10000 2.1 270 08:58 15.12.2019
6498 Clouds 30 1006 62 10000 3.6 240 08:39 15.12.2019
6499 Clouds 31 1006 62 10000 3.6 240 08:20 15.12.2019
6500 Clouds 31 1006 62 10000 5.7 260 07:56 15.12.2019
6501 Clouds 32 1006 62 10000 4.6 310 07:34 15.12.2019
6502 Rain 30 1008 62 10000 1.5 290 06:44 15.12.2019
6503 Clouds 33 1008 59 10000 5.1 310 06:19 15.12.2019
6504 Clouds 33 1007 52 10000 5.1 310 05:25 15.12.2019
6505 Clouds 33 1008 59 10000 4.6 300 04:47 15.12.2019
6506 Clouds 32 1009 70 10000 2.6 300 03:22 15.12.2019
6507 Rain 31 1009 74 10000 2.6 330 02:33 15.12.2019
6508 Rain 30 1009 70 10000 4.1 300 01:46 15.12.2019
6509 Rain 31 1009 66 10000 3.6 260 01:28 15.12.2019
6510 Clouds 31 1009 70 10000 3.1 290 00:54 15.12.2019
6511 Clouds 31 1009 70 10000 2.6 190 00:35 15.12.2019
6512 Clouds 30 1009 79 10000 2.6 210 23:58 14.12.2019
6513 Clouds 30 1008 79 10000 1.5 210 23:39 14.12.2019
6514 Clouds 29 1008 88 10000 0.5 250 23:19 14.12.2019
6515 Clouds 28 1008 88 10000 0.5 250 22:57 14.12.2019
6516 Clouds 28 1008 88 10000 1 240 22:39 14.12.2019
6517 Clouds 28 1008 88 10000 1 240 22:20 14.12.2019
6518 Clouds 27 1007 88 10000 0.5 240 21:55 14.12.2019
6519 Clouds 28 1007 88 10000 2.1 240 21:37 14.12.2019
6520 Clouds 28 1007 88 10000 2.1 240 21:18 14.12.2019
6521 Clouds 28 1007 88 10000 1 240 20:55 14.12.2019
6522 Clouds 28 1007 88 10000 1 240 20:55 14.12.2019
6523 Clouds 28 1007 83 10000 2.1 250 20:37 14.12.2019
6524 Clouds 28 1007 83 10000 2.1 250 20:19 14.12.2019
6525 Clouds 28 1007 83 10000 2.6 270 19:40 14.12.2019
6526 Clouds 28 1007 83 10000 2.6 270 19:40 14.12.2019
6527 Clouds 28 1007 83 10000 2.6 270 19:21 14.12.2019
6528 Clouds 28 1007 79 10000 3.1 270 18:59 14.12.2019
6529 Clouds 28 1007 83 10000 3.1 260 18:40 14.12.2019
6530 Clouds 28 1007 83 10000 3.1 260 18:22 14.12.2019
6531 Clouds 28 1007 83 10000 2.6 270 17:59 14.12.2019
6532 Clouds 28 1007 79 10000 2.6 280 17:41 14.12.2019
6533 Clouds 28 1007 79 10000 2.6 280 17:22 14.12.2019
6534 Clouds 28 1008 83 10000 2.6 300 16:42 14.12.2019
6535 Clouds 28 1008 83 10000 2.6 300 16:20 14.12.2019
6536 Clouds 28 1008 83 10000 2.6 300 15:58 14.12.2019
6537 Clouds 28 1008 79 10000 3.1 300 15:39 14.12.2019
6538 Clouds 28 1008 79 10000 3.1 300 15:20 14.12.2019
6539 Clouds 28 1009 83 10000 3.1 290 14:57 14.12.2019
6540 Clouds 29 1008 79 10000 3.6 290 14:38 14.12.2019
6541 Clouds 28 1008 79 10000 3.6 290 14:19 14.12.2019
6542 Clouds 28 1008 79 10000 4.1 300 13:45 14.12.2019
6543 Clouds 28 1008 79 10000 4.1 300 13:20 14.12.2019
6544 Clouds 28 1008 83 10000 4.1 300 12:58 14.12.2019
6545 Clouds 29 1008 83 10000 4.1 310 12:40 14.12.2019
6546 Clouds 28 1008 83 10000 4.1 310 12:21 14.12.2019
6547 Clouds 28 1008 83 10000 3.6 300 11:58 14.12.2019
6548 Clouds 29 1008 79 10000 2.6 310 11:39 14.12.2019
6549 Rain 29 1008 79 10000 2.6 330 11:19 14.12.2019
6550 Rain 29 1008 79 10000 2.6 330 10:57 14.12.2019
6551 Clouds 29 1007 79 10000 3.1 330 10:39 14.12.2019
6552 Clouds 29 1007 79 10000 3.1 330 10:21 14.12.2019
6553 Rain 29 1007 74 10000 3.6 340 09:57 14.12.2019
6554 Clouds 29 1007 74 10000 5.1 330 09:38 14.12.2019
6555 Clouds 29 1007 74 10000 5.1 330 09:18 14.12.2019
6556 Clouds 29 1007 78 10000 2.1 330 08:43 14.12.2019
6557 Clouds 28 1007 78 10000 2.1 330 08:20 14.12.2019
6558 Clouds 28 1007 88 10000 0.5 240 07:44 14.12.2019
6559 Clouds 27 1007 88 10000 0.5 240 07:23 14.12.2019
6560 Clouds 27 1008 88 10000 2.6 260 06:57 14.12.2019
6561 Clouds 27 1008 83 10000 3.6 280 06:37 14.12.2019
6562 Rain 26 1009 83 10000 4.6 270 05:59 14.12.2019
6563 Thunderstorm 24 1009 94 10000 5.7 320 04:48 14.12.2019
6564 Clouds 34 1010 56 10000 4.1 270 02:35 14.12.2019
6565 Clouds 33 1010 66 10000 3.1 260 01:56 14.12.2019
6566 Clouds 32 1010 66 10000 3.6 270 01:37 14.12.2019
6567 Clouds 31 1010 70 10000 3.6 300 00:49 14.12.2019
6568 Clouds 31 1010 70 10000 3.6 300 00:28 14.12.2019
6569 Clouds 30 1010 70 10000 2.1 290 23:57 13.12.2019
6570 Clouds 29 1010 70 10000 1 330 23:37 13.12.2019
6571 Clouds 28 1010 70 10000 1 330 23:18 13.12.2019
6572 Clouds 26 1009 74 10000 1.76 306 22:41 13.12.2019
6573 Clouds 25 1009 74 10000 1.76 306 22:19 13.12.2019
6574 Clouds 25 1009 78 10000 1 360 21:56 13.12.2019
6575 Clouds 25 1009 74 10000 1 10 21:38 13.12.2019
6576 Clouds 25 1009 74 10000 1 10 21:20 13.12.2019
6577 Clouds 25 1008 69 10000 3.1 50 20:42 13.12.2019
6578 Rain 25 1008 69 10000 3.1 50 20:23 13.12.2019
6579 Clouds 25 1008 69 10000 3.1 50 19:59 13.12.2019
6580 Clouds 25 1009 74 10000 3.1 60 19:41 13.12.2019
6581 Clouds 25 1009 74 10000 3.1 60 19:22 13.12.2019
6582 Clouds 24 1009 74 10000 4.1 100 18:59 13.12.2019
6583 Clouds 25 1009 78 10000 2.6 80 18:40 13.12.2019
6584 Clouds 24 1009 78 10000 2.6 80 18:19 13.12.2019
6585 Clouds 25 1009 78 10000 2.6 80 17:55 13.12.2019
6586 Clouds 25 1010 78 10000 3.6 120 17:37 13.12.2019
6587 Clouds 25 1010 78 10000 3.6 120 17:18 13.12.2019
6588 Clouds 25 1010 78 10000 3.6 120 17:18 13.12.2019
6589 Clouds 26 1010 83 10000 3.1 140 16:54 13.12.2019
6590 Clouds 26 1010 78 10000 3.6 150 16:36 13.12.2019
6591 Clouds 26 1010 78 10000 3.6 150 16:18 13.12.2019
6592 Clouds 25 1010 74 10000 1 130 15:38 13.12.2019
6593 Clouds 26 1010 74 10000 1 130 15:20 13.12.2019
6594 Clouds 26 1011 74 10000 2.1 110 14:41 13.12.2019
6595 Rain 26 1011 74 10000 2.1 110 14:21 13.12.2019
6596 Rain 26 1010 69 10000 1 30 13:58 13.12.2019
6597 Rain 26 1010 69 10000 1.5 150 13:40 13.12.2019
6598 Rain 26 1010 69 10000 1.5 150 13:21 13.12.2019
6599 Rain 27 1008 54 10000 2.1 340 12:44 13.12.2019
6600 Rain 27 1008 54 10000 2.1 340 12:44 13.12.2019
6601 Rain 27 1008 54 10000 2.1 340 12:23 13.12.2019
6602 Rain 27 1007 54 10000 1 30 11:59 13.12.2019
6603 Clouds 27 1008 54 10000 1.5 240 11:41 13.12.2019
6604 Clouds 28 1008 54 10000 1.5 240 11:23 13.12.2019
6605 Clouds 28 1007 58 10000 2.1 270 10:56 13.12.2019
6606 Clouds 28 1007 61 10000 4.6 190 10:38 13.12.2019
6607 Thunderstorm 27 1007 61 10000 7.2 300 10:19 13.12.2019
6608 Thunderstorm 26 1008 69 10000 7.2 160 09:41 13.12.2019
6609 Thunderstorm 30 1007 66 10000 7.7 290 09:20 13.12.2019
6610 Clouds 32 1005 59 10000 7.2 300 08:44 13.12.2019
6611 Clouds 34 1005 59 10000 7.2 300 08:25 13.12.2019
6612 Clouds 34 1006 50 10000 8.7 290 07:48 13.12.2019
6613 Clouds 35 1006 50 10000 7.7 300 07:24 13.12.2019
6614 Clouds 34 1007 56 10000 7.7 310 06:55 13.12.2019
6615 Clouds 35 1007 53 10000 7.2 300 06:29 13.12.2019
6616 Clouds 35 1007 47 10000 6.2 300 05:51 13.12.2019
6617 Clouds 35 1008 47 10000 5.7 300 05:30 13.12.2019
6618 Clear 35 1008 44 10000 5.1 310 04:48 13.12.2019
6619 Clouds 35 1009 52 10000 5.7 310 03:49 13.12.2019
6620 Clouds 34 1010 56 10000 4.1 320 02:35 13.12.2019
6621 Clouds 34 1010 59 10000 4.1 290 01:50 13.12.2019
6622 Clouds 33 1010 66 10000 4.6 300 01:21 13.12.2019
6623 Clouds 33 1009 66 10000 4.6 310 00:46 13.12.2019
6624 Clouds 32 1009 66 10000 4.6 310 00:24 13.12.2019
6625 Clouds 29 1009 79 10000 0.5 350 23:41 12.12.2019
6626 Clouds 28 1009 79 10000 0.5 350 23:22 12.12.2019
6627 Clouds 27 1009 83 10000 1.5 80 22:56 12.12.2019
6628 Clouds 26 1008 83 10000 1.5 360 22:38 12.12.2019
6629 Clouds 25 1008 83 10000 1.5 360 22:19 12.12.2019
6630 Clouds 26 1008 83 10000 1.5 50 21:55 12.12.2019
6631 Clouds 26 1009 83 10000 3.1 70 21:37 12.12.2019
6632 Clouds 25 1009 83 10000 3.1 70 21:19 12.12.2019
6633 Clouds 26 1008 83 10000 1.5 90 20:58 12.12.2019
6634 Rain 27 1008 74 10000 2.6 360 20:39 12.12.2019
6635 Clouds 27 1008 74 10000 2.6 360 20:21 12.12.2019
6636 Clouds 26 1008 83 10000 1.5 70 19:55 12.12.2019
6637 Clouds 26 1008 74 10000 0.5 130 19:37 12.12.2019
6638 Clouds 27 1008 74 10000 0.5 130 19:18 12.12.2019
6639 Clouds 27 1008 74 10000 1 130 18:55 12.12.2019
6640 Clouds 27 1008 74 10000 1 296 18:36 12.12.2019
6641 Clouds 27 1008 74 10000 1 296 18:18 12.12.2019
6642 Clouds 27 1008 74 10000 1 296 17:55 12.12.2019
6643 Clouds 27 1008 74 10000 1 296 17:37 12.12.2019
6644 Clear 27 1008 74 10000 2.11 292 17:19 12.12.2019
6645 Clear 28 1009 70 10000 0.5 190 16:54 12.12.2019
6646 Clear 28 1009 70 10000 1.5 180 16:36 12.12.2019
6647 Clear 28 1009 70 10000 1.5 180 16:18 12.12.2019
6648 Thunderstorm 29 1010 79 10000 3.1 230 15:42 12.12.2019
6649 Thunderstorm 29 1010 79 10000 3.1 230 15:19 12.12.2019
6650 Thunderstorm 30 1010 70 10000 3.1 230 14:57 12.12.2019
6651 Clouds 30 1010 70 10000 3.6 270 14:37 12.12.2019
6652 Clouds 30 1010 70 10000 3.6 270 14:19 12.12.2019
6653 Clouds 30 1009 70 10000 2.6 250 13:55 12.12.2019
6654 Clouds 30 1008 70 10000 2.6 270 13:37 12.12.2019
6655 Clouds 30 1008 70 10000 2.6 270 13:18 12.12.2019
6656 Clouds 30 1008 70 10000 3.6 270 12:55 12.12.2019
6657 Clouds 30 1008 70 10000 3.6 250 12:37 12.12.2019
6658 Clouds 30 1007 70 10000 4.1 260 12:18 12.12.2019
6659 Clouds 30 1007 66 10000 4.6 270 11:40 12.12.2019
6660 Clouds 30 1007 66 10000 4.6 270 11:22 12.12.2019
6661 Clouds 31 1006 62 10000 5.1 270 10:59 12.12.2019
666